<?xml version="1.0" encoding="UTF-8" standalone="no" ?>
<gpx xmlns="http://www.topografix.com/GPX/1/1" xmlns:xsi="http://www.w3.org/2001/XMLSchema-instance" xsi:schemaLocation="http://www.topografix.com/GPX/1/1 http://www.topografix.com/GPX/1/1/gpx.xsd" version="1.1" creator="VisuGPX - https://www.visugpx.com">
  <metadata>
    <name>Col de Naurouze</name>
    <desc><![CDATA[Solo , vent d\'Ouest légé
Faire attention dans les traversées de villages et près des fermes aux chiens.]]></desc>
  </metadata>
  <trk>
    <name><![CDATA[2014-09-22 14:36:23]]></name>
    <trkseg>
      <trkpt lat="43.21357" lon="2.34113">
        <ele>93.39</ele>
        <time>2014-09-22T07:01:08Z</time>
      </trkpt>
      <trkpt lat="43.21359" lon="2.34116">
        <ele>105.88</ele>
        <time>2014-09-22T07:01:39Z</time>
      </trkpt>
      <trkpt lat="43.21354" lon="2.34122">
        <ele>114.05</ele>
        <time>2014-09-22T07:01:55Z</time>
      </trkpt>
      <trkpt lat="43.21349" lon="2.34121">
        <ele>113.09</ele>
        <time>2014-09-22T07:02:10Z</time>
      </trkpt>
      <trkpt lat="43.21349" lon="2.34122">
        <ele>113.09</ele>
        <time>2014-09-22T07:02:12Z</time>
      </trkpt>
      <trkpt lat="43.21321" lon="2.34113">
        <ele>114.05</ele>
        <time>2014-09-22T07:02:25Z</time>
      </trkpt>
      <trkpt lat="43.21319" lon="2.34109">
        <ele>114.05</ele>
        <time>2014-09-22T07:02:26Z</time>
      </trkpt>
      <trkpt lat="43.2132" lon="2.34106">
        <ele>113.57</ele>
        <time>2014-09-22T07:02:27Z</time>
      </trkpt>
      <trkpt lat="43.21329" lon="2.34062">
        <ele>114.05</ele>
        <time>2014-09-22T07:02:36Z</time>
      </trkpt>
      <trkpt lat="43.21325" lon="2.34058">
        <ele>114.05</ele>
        <time>2014-09-22T07:02:37Z</time>
      </trkpt>
      <trkpt lat="43.21321" lon="2.34057">
        <ele>114.05</ele>
        <time>2014-09-22T07:02:38Z</time>
      </trkpt>
      <trkpt lat="43.21317" lon="2.34056">
        <ele>114.05</ele>
        <time>2014-09-22T07:02:39Z</time>
      </trkpt>
      <trkpt lat="43.21313" lon="2.34055">
        <ele>114.05</ele>
        <time>2014-09-22T07:02:40Z</time>
      </trkpt>
      <trkpt lat="43.21256" lon="2.34043">
        <ele>115.5</ele>
        <time>2014-09-22T07:02:54Z</time>
      </trkpt>
      <trkpt lat="43.21196" lon="2.3403">
        <ele>115.01</ele>
        <time>2014-09-22T07:03:08Z</time>
      </trkpt>
      <trkpt lat="43.2113" lon="2.34027">
        <ele>114.05</ele>
        <time>2014-09-22T07:03:23Z</time>
      </trkpt>
      <trkpt lat="43.21092" lon="2.34018">
        <ele>116.46</ele>
        <time>2014-09-22T07:03:35Z</time>
      </trkpt>
      <trkpt lat="43.21091" lon="2.34015">
        <ele>116.46</ele>
        <time>2014-09-22T07:03:36Z</time>
      </trkpt>
      <trkpt lat="43.21094" lon="2.33954">
        <ele>116.94</ele>
        <time>2014-09-22T07:03:47Z</time>
      </trkpt>
      <trkpt lat="43.21096" lon="2.33888">
        <ele>117.42</ele>
        <time>2014-09-22T07:03:57Z</time>
      </trkpt>
      <trkpt lat="43.21097" lon="2.33883">
        <ele>117.42</ele>
        <time>2014-09-22T07:03:58Z</time>
      </trkpt>
      <trkpt lat="43.21097" lon="2.33878">
        <ele>117.42</ele>
        <time>2014-09-22T07:03:59Z</time>
      </trkpt>
      <trkpt lat="43.21097" lon="2.33872">
        <ele>117.42</ele>
        <time>2014-09-22T07:04:00Z</time>
      </trkpt>
      <trkpt lat="43.21097" lon="2.33867">
        <ele>117.42</ele>
        <time>2014-09-22T07:04:01Z</time>
      </trkpt>
      <trkpt lat="43.21097" lon="2.3386">
        <ele>117.42</ele>
        <time>2014-09-22T07:04:02Z</time>
      </trkpt>
      <trkpt lat="43.21098" lon="2.33752">
        <ele>121.26</ele>
        <time>2014-09-22T07:04:18Z</time>
      </trkpt>
      <trkpt lat="43.211" lon="2.33644">
        <ele>125.59</ele>
        <time>2014-09-22T07:04:34Z</time>
      </trkpt>
      <trkpt lat="43.21102" lon="2.33547">
        <ele>128.95</ele>
        <time>2014-09-22T07:04:50Z</time>
      </trkpt>
      <trkpt lat="43.21104" lon="2.33421">
        <ele>132.8</ele>
        <time>2014-09-22T07:05:07Z</time>
      </trkpt>
      <trkpt lat="43.21117" lon="2.33329">
        <ele>129.92</ele>
        <time>2014-09-22T07:05:20Z</time>
      </trkpt>
      <trkpt lat="43.21122" lon="2.33306">
        <ele>129.43</ele>
        <time>2014-09-22T07:05:24Z</time>
      </trkpt>
      <trkpt lat="43.21144" lon="2.33203">
        <ele>126.07</ele>
        <time>2014-09-22T07:05:35Z</time>
      </trkpt>
      <trkpt lat="43.21189" lon="2.33053">
        <ele>125.11</ele>
        <time>2014-09-22T07:05:51Z</time>
      </trkpt>
      <trkpt lat="43.21207" lon="2.33019">
        <ele>123.67</ele>
        <time>2014-09-22T07:05:59Z</time>
      </trkpt>
      <trkpt lat="43.2121" lon="2.33014">
        <ele>123.67</ele>
        <time>2014-09-22T07:06:00Z</time>
      </trkpt>
      <trkpt lat="43.21212" lon="2.33006">
        <ele>123.67</ele>
        <time>2014-09-22T07:06:01Z</time>
      </trkpt>
      <trkpt lat="43.21212" lon="2.32998">
        <ele>123.67</ele>
        <time>2014-09-22T07:06:02Z</time>
      </trkpt>
      <trkpt lat="43.2121" lon="2.3299">
        <ele>123.67</ele>
        <time>2014-09-22T07:06:03Z</time>
      </trkpt>
      <trkpt lat="43.21209" lon="2.32982">
        <ele>123.19</ele>
        <time>2014-09-22T07:06:04Z</time>
      </trkpt>
      <trkpt lat="43.21208" lon="2.32973">
        <ele>123.19</ele>
        <time>2014-09-22T07:06:05Z</time>
      </trkpt>
      <trkpt lat="43.21208" lon="2.32964">
        <ele>123.19</ele>
        <time>2014-09-22T07:06:06Z</time>
      </trkpt>
      <trkpt lat="43.21209" lon="2.32955">
        <ele>122.71</ele>
        <time>2014-09-22T07:06:07Z</time>
      </trkpt>
      <trkpt lat="43.21211" lon="2.32946">
        <ele>122.71</ele>
        <time>2014-09-22T07:06:08Z</time>
      </trkpt>
      <trkpt lat="43.21213" lon="2.32937">
        <ele>122.71</ele>
        <time>2014-09-22T07:06:09Z</time>
      </trkpt>
      <trkpt lat="43.21251" lon="2.32789">
        <ele>117.9</ele>
        <time>2014-09-22T07:06:25Z</time>
      </trkpt>
      <trkpt lat="43.21269" lon="2.32698">
        <ele>114.53</ele>
        <time>2014-09-22T07:06:33Z</time>
      </trkpt>
      <trkpt lat="43.21268" lon="2.32688">
        <ele>114.53</ele>
        <time>2014-09-22T07:06:34Z</time>
      </trkpt>
      <trkpt lat="43.21264" lon="2.32678">
        <ele>114.53</ele>
        <time>2014-09-22T07:06:35Z</time>
      </trkpt>
      <trkpt lat="43.21259" lon="2.32673">
        <ele>114.53</ele>
        <time>2014-09-22T07:06:36Z</time>
      </trkpt>
      <trkpt lat="43.21252" lon="2.32669">
        <ele>114.53</ele>
        <time>2014-09-22T07:06:37Z</time>
      </trkpt>
      <trkpt lat="43.21244" lon="2.32666">
        <ele>114.53</ele>
        <time>2014-09-22T07:06:38Z</time>
      </trkpt>
      <trkpt lat="43.21238" lon="2.32665">
        <ele>114.53</ele>
        <time>2014-09-22T07:06:39Z</time>
      </trkpt>
      <trkpt lat="43.21138" lon="2.3264">
        <ele>115.5</ele>
        <time>2014-09-22T07:06:53Z</time>
      </trkpt>
      <trkpt lat="43.21132" lon="2.32634">
        <ele>115.5</ele>
        <time>2014-09-22T07:06:54Z</time>
      </trkpt>
      <trkpt lat="43.2113" lon="2.3263">
        <ele>115.5</ele>
        <time>2014-09-22T07:06:55Z</time>
      </trkpt>
      <trkpt lat="43.21127" lon="2.32618">
        <ele>115.5</ele>
        <time>2014-09-22T07:06:56Z</time>
      </trkpt>
      <trkpt lat="43.21128" lon="2.32609">
        <ele>115.5</ele>
        <time>2014-09-22T07:06:57Z</time>
      </trkpt>
      <trkpt lat="43.21128" lon="2.32601">
        <ele>115.5</ele>
        <time>2014-09-22T07:06:58Z</time>
      </trkpt>
      <trkpt lat="43.21133" lon="2.32474">
        <ele>116.46</ele>
        <time>2014-09-22T07:07:12Z</time>
      </trkpt>
      <trkpt lat="43.21135" lon="2.32463">
        <ele>116.94</ele>
        <time>2014-09-22T07:07:13Z</time>
      </trkpt>
      <trkpt lat="43.21138" lon="2.32458">
        <ele>116.94</ele>
        <time>2014-09-22T07:07:14Z</time>
      </trkpt>
      <trkpt lat="43.21142" lon="2.3245">
        <ele>116.94</ele>
        <time>2014-09-22T07:07:15Z</time>
      </trkpt>
      <trkpt lat="43.21145" lon="2.32442">
        <ele>116.94</ele>
        <time>2014-09-22T07:07:16Z</time>
      </trkpt>
      <trkpt lat="43.21147" lon="2.32432">
        <ele>116.94</ele>
        <time>2014-09-22T07:07:17Z</time>
      </trkpt>
      <trkpt lat="43.21148" lon="2.32422">
        <ele>116.46</ele>
        <time>2014-09-22T07:07:18Z</time>
      </trkpt>
      <trkpt lat="43.21145" lon="2.32411">
        <ele>116.46</ele>
        <time>2014-09-22T07:07:19Z</time>
      </trkpt>
      <trkpt lat="43.21142" lon="2.32404">
        <ele>116.46</ele>
        <time>2014-09-22T07:07:20Z</time>
      </trkpt>
      <trkpt lat="43.21139" lon="2.32395">
        <ele>115.98</ele>
        <time>2014-09-22T07:07:21Z</time>
      </trkpt>
      <trkpt lat="43.21137" lon="2.32387">
        <ele>115.98</ele>
        <time>2014-09-22T07:07:22Z</time>
      </trkpt>
      <trkpt lat="43.21136" lon="2.32378">
        <ele>115.98</ele>
        <time>2014-09-22T07:07:23Z</time>
      </trkpt>
      <trkpt lat="43.21135" lon="2.3237">
        <ele>115.98</ele>
        <time>2014-09-22T07:07:24Z</time>
      </trkpt>
      <trkpt lat="43.21138" lon="2.32244">
        <ele>119.34</ele>
        <time>2014-09-22T07:07:38Z</time>
      </trkpt>
      <trkpt lat="43.21142" lon="2.32137">
        <ele>124.63</ele>
        <time>2014-09-22T07:07:51Z</time>
      </trkpt>
      <trkpt lat="43.21158" lon="2.32018">
        <ele>124.63</ele>
        <time>2014-09-22T07:08:05Z</time>
      </trkpt>
      <trkpt lat="43.21161" lon="2.32011">
        <ele>124.15</ele>
        <time>2014-09-22T07:08:06Z</time>
      </trkpt>
      <trkpt lat="43.21165" lon="2.32004">
        <ele>124.15</ele>
        <time>2014-09-22T07:08:07Z</time>
      </trkpt>
      <trkpt lat="43.21176" lon="2.31981">
        <ele>124.63</ele>
        <time>2014-09-22T07:08:10Z</time>
      </trkpt>
      <trkpt lat="43.21178" lon="2.31973">
        <ele>124.63</ele>
        <time>2014-09-22T07:08:11Z</time>
      </trkpt>
      <trkpt lat="43.21177" lon="2.31965">
        <ele>125.11</ele>
        <time>2014-09-22T07:08:12Z</time>
      </trkpt>
      <trkpt lat="43.21176" lon="2.31957">
        <ele>125.11</ele>
        <time>2014-09-22T07:08:13Z</time>
      </trkpt>
      <trkpt lat="43.21174" lon="2.31946">
        <ele>124.63</ele>
        <time>2014-09-22T07:08:14Z</time>
      </trkpt>
      <trkpt lat="43.21172" lon="2.31939">
        <ele>124.63</ele>
        <time>2014-09-22T07:08:15Z</time>
      </trkpt>
      <trkpt lat="43.21169" lon="2.31924">
        <ele>124.63</ele>
        <time>2014-09-22T07:08:17Z</time>
      </trkpt>
      <trkpt lat="43.21169" lon="2.31915">
        <ele>124.63</ele>
        <time>2014-09-22T07:08:18Z</time>
      </trkpt>
      <trkpt lat="43.21169" lon="2.31907">
        <ele>124.15</ele>
        <time>2014-09-22T07:08:19Z</time>
      </trkpt>
      <trkpt lat="43.21188" lon="2.31777">
        <ele>126.07</ele>
        <time>2014-09-22T07:08:35Z</time>
      </trkpt>
      <trkpt lat="43.21213" lon="2.3162">
        <ele>128.47</ele>
        <time>2014-09-22T07:08:55Z</time>
      </trkpt>
      <trkpt lat="43.21219" lon="2.31577">
        <ele>130.88</ele>
        <time>2014-09-22T07:09:01Z</time>
      </trkpt>
      <trkpt lat="43.21234" lon="2.31463">
        <ele>128.47</ele>
        <time>2014-09-22T07:09:15Z</time>
      </trkpt>
      <trkpt lat="43.21268" lon="2.31279">
        <ele>124.63</ele>
        <time>2014-09-22T07:09:35Z</time>
      </trkpt>
      <trkpt lat="43.21299" lon="2.31108">
        <ele>125.59</ele>
        <time>2014-09-22T07:09:55Z</time>
      </trkpt>
      <trkpt lat="43.21311" lon="2.30949">
        <ele>129.43</ele>
        <time>2014-09-22T07:10:13Z</time>
      </trkpt>
      <trkpt lat="43.21315" lon="2.30807">
        <ele>129.92</ele>
        <time>2014-09-22T07:10:29Z</time>
      </trkpt>
      <trkpt lat="43.21316" lon="2.30799">
        <ele>129.92</ele>
        <time>2014-09-22T07:10:30Z</time>
      </trkpt>
      <trkpt lat="43.21317" lon="2.30791">
        <ele>130.4</ele>
        <time>2014-09-22T07:10:31Z</time>
      </trkpt>
      <trkpt lat="43.21316" lon="2.30783">
        <ele>130.4</ele>
        <time>2014-09-22T07:10:32Z</time>
      </trkpt>
      <trkpt lat="43.21315" lon="2.30774">
        <ele>130.4</ele>
        <time>2014-09-22T07:10:33Z</time>
      </trkpt>
      <trkpt lat="43.21315" lon="2.30765">
        <ele>130.4</ele>
        <time>2014-09-22T07:10:34Z</time>
      </trkpt>
      <trkpt lat="43.21315" lon="2.30757">
        <ele>130.4</ele>
        <time>2014-09-22T07:10:35Z</time>
      </trkpt>
      <trkpt lat="43.21327" lon="2.30591">
        <ele>128.95</ele>
        <time>2014-09-22T07:10:54Z</time>
      </trkpt>
      <trkpt lat="43.21342" lon="2.30418">
        <ele>129.92</ele>
        <time>2014-09-22T07:11:14Z</time>
      </trkpt>
      <trkpt lat="43.21344" lon="2.30413">
        <ele>129.92</ele>
        <time>2014-09-22T07:11:15Z</time>
      </trkpt>
      <trkpt lat="43.21348" lon="2.30408">
        <ele>130.4</ele>
        <time>2014-09-22T07:11:16Z</time>
      </trkpt>
      <trkpt lat="43.21352" lon="2.30404">
        <ele>130.4</ele>
        <time>2014-09-22T07:11:17Z</time>
      </trkpt>
      <trkpt lat="43.21355" lon="2.30399">
        <ele>130.4</ele>
        <time>2014-09-22T07:11:18Z</time>
      </trkpt>
      <trkpt lat="43.21357" lon="2.30392">
        <ele>130.4</ele>
        <time>2014-09-22T07:11:19Z</time>
      </trkpt>
      <trkpt lat="43.21358" lon="2.30385">
        <ele>130.4</ele>
        <time>2014-09-22T07:11:20Z</time>
      </trkpt>
      <trkpt lat="43.21357" lon="2.30375">
        <ele>130.4</ele>
        <time>2014-09-22T07:11:21Z</time>
      </trkpt>
      <trkpt lat="43.21355" lon="2.30368">
        <ele>130.4</ele>
        <time>2014-09-22T07:11:22Z</time>
      </trkpt>
      <trkpt lat="43.21351" lon="2.30359">
        <ele>130.88</ele>
        <time>2014-09-22T07:11:23Z</time>
      </trkpt>
      <trkpt lat="43.21347" lon="2.30349">
        <ele>130.4</ele>
        <time>2014-09-22T07:11:24Z</time>
      </trkpt>
      <trkpt lat="43.21346" lon="2.30341">
        <ele>130.4</ele>
        <time>2014-09-22T07:11:25Z</time>
      </trkpt>
      <trkpt lat="43.21346" lon="2.30334">
        <ele>130.4</ele>
        <time>2014-09-22T07:11:26Z</time>
      </trkpt>
      <trkpt lat="43.21346" lon="2.30324">
        <ele>129.92</ele>
        <time>2014-09-22T07:11:27Z</time>
      </trkpt>
      <trkpt lat="43.21357" lon="2.30148">
        <ele>130.4</ele>
        <time>2014-09-22T07:11:46Z</time>
      </trkpt>
      <trkpt lat="43.21371" lon="2.29951">
        <ele>131.36</ele>
        <time>2014-09-22T07:12:08Z</time>
      </trkpt>
      <trkpt lat="43.21373" lon="2.29783">
        <ele>132.32</ele>
        <time>2014-09-22T07:12:27Z</time>
      </trkpt>
      <trkpt lat="43.21367" lon="2.29586">
        <ele>133.76</ele>
        <time>2014-09-22T07:12:49Z</time>
      </trkpt>
      <trkpt lat="43.21368" lon="2.29407">
        <ele>134.72</ele>
        <time>2014-09-22T07:13:09Z</time>
      </trkpt>
      <trkpt lat="43.2137" lon="2.29258">
        <ele>136.16</ele>
        <time>2014-09-22T07:13:26Z</time>
      </trkpt>
      <trkpt lat="43.21378" lon="2.29101">
        <ele>136.16</ele>
        <time>2014-09-22T07:13:44Z</time>
      </trkpt>
      <trkpt lat="43.21387" lon="2.28947">
        <ele>138.09</ele>
        <time>2014-09-22T07:14:02Z</time>
      </trkpt>
      <trkpt lat="43.21377" lon="2.28791">
        <ele>141.93</ele>
        <time>2014-09-22T07:14:20Z</time>
      </trkpt>
      <trkpt lat="43.21356" lon="2.28615">
        <ele>140.49</ele>
        <time>2014-09-22T07:14:40Z</time>
      </trkpt>
      <trkpt lat="43.21342" lon="2.28444">
        <ele>137.61</ele>
        <time>2014-09-22T07:14:57Z</time>
      </trkpt>
      <trkpt lat="43.21348" lon="2.28312">
        <ele>139.53</ele>
        <time>2014-09-22T07:15:12Z</time>
      </trkpt>
      <trkpt lat="43.21357" lon="2.28199">
        <ele>142.41</ele>
        <time>2014-09-22T07:15:26Z</time>
      </trkpt>
      <trkpt lat="43.2136" lon="2.28101">
        <ele>145.3</ele>
        <time>2014-09-22T07:15:38Z</time>
      </trkpt>
      <trkpt lat="43.21361" lon="2.27945">
        <ele>145.3</ele>
        <time>2014-09-22T07:15:56Z</time>
      </trkpt>
      <trkpt lat="43.21362" lon="2.2778">
        <ele>139.53</ele>
        <time>2014-09-22T07:16:11Z</time>
      </trkpt>
      <trkpt lat="43.21354" lon="2.27595">
        <ele>135.68</ele>
        <time>2014-09-22T07:16:25Z</time>
      </trkpt>
      <trkpt lat="43.21323" lon="2.27471">
        <ele>137.61</ele>
        <time>2014-09-22T07:16:38Z</time>
      </trkpt>
      <trkpt lat="43.21302" lon="2.27369">
        <ele>141.93</ele>
        <time>2014-09-22T07:16:52Z</time>
      </trkpt>
      <trkpt lat="43.21295" lon="2.27325">
        <ele>143.85</ele>
        <time>2014-09-22T07:16:58Z</time>
      </trkpt>
      <trkpt lat="43.2129" lon="2.27222">
        <ele>146.74</ele>
        <time>2014-09-22T07:17:12Z</time>
      </trkpt>
      <trkpt lat="43.21294" lon="2.27074">
        <ele>151.54</ele>
        <time>2014-09-22T07:17:32Z</time>
      </trkpt>
      <trkpt lat="43.21289" lon="2.26915">
        <ele>152.51</ele>
        <time>2014-09-22T07:17:52Z</time>
      </trkpt>
      <trkpt lat="43.21272" lon="2.26751">
        <ele>154.43</ele>
        <time>2014-09-22T07:18:12Z</time>
      </trkpt>
      <trkpt lat="43.21255" lon="2.26595">
        <ele>154.91</ele>
        <time>2014-09-22T07:18:31Z</time>
      </trkpt>
      <trkpt lat="43.21237" lon="2.26428">
        <ele>155.39</ele>
        <time>2014-09-22T07:18:51Z</time>
      </trkpt>
      <trkpt lat="43.21221" lon="2.26291">
        <ele>159.24</ele>
        <time>2014-09-22T07:19:08Z</time>
      </trkpt>
      <trkpt lat="43.21212" lon="2.26151">
        <ele>163.08</ele>
        <time>2014-09-22T07:19:25Z</time>
      </trkpt>
      <trkpt lat="43.21215" lon="2.2602">
        <ele>167.41</ele>
        <time>2014-09-22T07:19:41Z</time>
      </trkpt>
      <trkpt lat="43.21211" lon="2.2589">
        <ele>174.62</ele>
        <time>2014-09-22T07:19:57Z</time>
      </trkpt>
      <trkpt lat="43.21206" lon="2.25767">
        <ele>178.46</ele>
        <time>2014-09-22T07:20:12Z</time>
      </trkpt>
      <trkpt lat="43.21199" lon="2.25621">
        <ele>177.98</ele>
        <time>2014-09-22T07:20:29Z</time>
      </trkpt>
      <trkpt lat="43.21203" lon="2.25497">
        <ele>179.42</ele>
        <time>2014-09-22T07:20:44Z</time>
      </trkpt>
      <trkpt lat="43.21207" lon="2.2536">
        <ele>176.54</ele>
        <time>2014-09-22T07:21:00Z</time>
      </trkpt>
      <trkpt lat="43.21209" lon="2.25335">
        <ele>176.54</ele>
        <time>2014-09-22T07:21:03Z</time>
      </trkpt>
      <trkpt lat="43.21212" lon="2.25247">
        <ele>177.02</ele>
        <time>2014-09-22T07:21:14Z</time>
      </trkpt>
      <trkpt lat="43.2122" lon="2.25107">
        <ele>172.69</ele>
        <time>2014-09-22T07:21:31Z</time>
      </trkpt>
      <trkpt lat="43.2123" lon="2.24942">
        <ele>171.25</ele>
        <time>2014-09-22T07:21:50Z</time>
      </trkpt>
      <trkpt lat="43.21239" lon="2.24802">
        <ele>172.21</ele>
        <time>2014-09-22T07:22:07Z</time>
      </trkpt>
      <trkpt lat="43.2125" lon="2.24672">
        <ele>174.62</ele>
        <time>2014-09-22T07:22:23Z</time>
      </trkpt>
      <trkpt lat="43.21251" lon="2.24514">
        <ele>174.62</ele>
        <time>2014-09-22T07:22:41Z</time>
      </trkpt>
      <trkpt lat="43.21239" lon="2.24344">
        <ele>173.17</ele>
        <time>2014-09-22T07:23:00Z</time>
      </trkpt>
      <trkpt lat="43.21226" lon="2.24148">
        <ele>168.85</ele>
        <time>2014-09-22T07:23:19Z</time>
      </trkpt>
      <trkpt lat="43.21215" lon="2.23974">
        <ele>166.93</ele>
        <time>2014-09-22T07:23:36Z</time>
      </trkpt>
      <trkpt lat="43.21224" lon="2.23814">
        <ele>162.12</ele>
        <time>2014-09-22T07:23:50Z</time>
      </trkpt>
      <trkpt lat="43.2124" lon="2.23627">
        <ele>155.39</ele>
        <time>2014-09-22T07:24:04Z</time>
      </trkpt>
      <trkpt lat="43.21202" lon="2.23507">
        <ele>150.58</ele>
        <time>2014-09-22T07:24:13Z</time>
      </trkpt>
      <trkpt lat="43.21115" lon="2.23332">
        <ele>144.34</ele>
        <time>2014-09-22T07:24:27Z</time>
      </trkpt>
      <trkpt lat="43.21065" lon="2.23196">
        <ele>143.37</ele>
        <time>2014-09-22T07:24:38Z</time>
      </trkpt>
      <trkpt lat="43.21044" lon="2.23059">
        <ele>147.22</ele>
        <time>2014-09-22T07:24:51Z</time>
      </trkpt>
      <trkpt lat="43.21025" lon="2.22897">
        <ele>152.99</ele>
        <time>2014-09-22T07:25:09Z</time>
      </trkpt>
      <trkpt lat="43.2101" lon="2.22741">
        <ele>156.35</ele>
        <time>2014-09-22T07:25:27Z</time>
      </trkpt>
      <trkpt lat="43.21027" lon="2.22603">
        <ele>157.79</ele>
        <time>2014-09-22T07:25:43Z</time>
      </trkpt>
      <trkpt lat="43.21053" lon="2.22457">
        <ele>159.24</ele>
        <time>2014-09-22T07:26:00Z</time>
      </trkpt>
      <trkpt lat="43.21067" lon="2.22284">
        <ele>157.79</ele>
        <time>2014-09-22T07:26:19Z</time>
      </trkpt>
      <trkpt lat="43.21068" lon="2.22126">
        <ele>158.27</ele>
        <time>2014-09-22T07:26:35Z</time>
      </trkpt>
      <trkpt lat="43.21048" lon="2.21943">
        <ele>157.79</ele>
        <time>2014-09-22T07:26:53Z</time>
      </trkpt>
      <trkpt lat="43.21042" lon="2.21796">
        <ele>155.39</ele>
        <time>2014-09-22T07:27:07Z</time>
      </trkpt>
      <trkpt lat="43.21054" lon="2.21603">
        <ele>153.95</ele>
        <time>2014-09-22T07:27:26Z</time>
      </trkpt>
      <trkpt lat="43.21065" lon="2.21428">
        <ele>153.95</ele>
        <time>2014-09-22T07:27:43Z</time>
      </trkpt>
      <trkpt lat="43.21077" lon="2.21257">
        <ele>155.87</ele>
        <time>2014-09-22T07:28:00Z</time>
      </trkpt>
      <trkpt lat="43.21087" lon="2.21085">
        <ele>156.83</ele>
        <time>2014-09-22T07:28:18Z</time>
      </trkpt>
      <trkpt lat="43.21096" lon="2.20936">
        <ele>161.16</ele>
        <time>2014-09-22T07:28:35Z</time>
      </trkpt>
      <trkpt lat="43.21106" lon="2.20813">
        <ele>164.52</ele>
        <time>2014-09-22T07:28:49Z</time>
      </trkpt>
      <trkpt lat="43.21108" lon="2.20787">
        <ele>165</ele>
        <time>2014-09-22T07:28:52Z</time>
      </trkpt>
      <trkpt lat="43.21115" lon="2.20678">
        <ele>163.08</ele>
        <time>2014-09-22T07:29:05Z</time>
      </trkpt>
      <trkpt lat="43.21126" lon="2.20517">
        <ele>161.64</ele>
        <time>2014-09-22T07:29:24Z</time>
      </trkpt>
      <trkpt lat="43.2113" lon="2.20468">
        <ele>163.56</ele>
        <time>2014-09-22T07:29:30Z</time>
      </trkpt>
      <trkpt lat="43.21131" lon="2.2045">
        <ele>164.52</ele>
        <time>2014-09-22T07:29:32Z</time>
      </trkpt>
      <trkpt lat="43.21131" lon="2.20443">
        <ele>164.52</ele>
        <time>2014-09-22T07:29:33Z</time>
      </trkpt>
      <trkpt lat="43.2114" lon="2.2032">
        <ele>163.56</ele>
        <time>2014-09-22T07:29:47Z</time>
      </trkpt>
      <trkpt lat="43.21148" lon="2.20185">
        <ele>164.52</ele>
        <time>2014-09-22T07:30:02Z</time>
      </trkpt>
      <trkpt lat="43.21156" lon="2.20067">
        <ele>167.89</ele>
        <time>2014-09-22T07:30:16Z</time>
      </trkpt>
      <trkpt lat="43.21162" lon="2.19945">
        <ele>166.93</ele>
        <time>2014-09-22T07:30:30Z</time>
      </trkpt>
      <trkpt lat="43.21141" lon="2.19768">
        <ele>164.04</ele>
        <time>2014-09-22T07:30:50Z</time>
      </trkpt>
      <trkpt lat="43.21124" lon="2.19635">
        <ele>164.52</ele>
        <time>2014-09-22T07:31:06Z</time>
      </trkpt>
      <trkpt lat="43.2111" lon="2.19527">
        <ele>165.48</ele>
        <time>2014-09-22T07:31:20Z</time>
      </trkpt>
      <trkpt lat="43.21097" lon="2.1942">
        <ele>167.41</ele>
        <time>2014-09-22T07:31:34Z</time>
      </trkpt>
      <trkpt lat="43.21077" lon="2.19304">
        <ele>169.33</ele>
        <time>2014-09-22T07:31:49Z</time>
      </trkpt>
      <trkpt lat="43.21036" lon="2.19153">
        <ele>169.81</ele>
        <time>2014-09-22T07:32:09Z</time>
      </trkpt>
      <trkpt lat="43.21007" lon="2.1904">
        <ele>171.25</ele>
        <time>2014-09-22T07:32:24Z</time>
      </trkpt>
      <trkpt lat="43.2098" lon="2.18942">
        <ele>172.21</ele>
        <time>2014-09-22T07:32:37Z</time>
      </trkpt>
      <trkpt lat="43.20949" lon="2.18821">
        <ele>175.58</ele>
        <time>2014-09-22T07:32:53Z</time>
      </trkpt>
      <trkpt lat="43.20948" lon="2.18815">
        <ele>176.06</ele>
        <time>2014-09-22T07:32:54Z</time>
      </trkpt>
      <trkpt lat="43.20946" lon="2.18808">
        <ele>176.06</ele>
        <time>2014-09-22T07:32:55Z</time>
      </trkpt>
      <trkpt lat="43.20943" lon="2.18794">
        <ele>176.54</ele>
        <time>2014-09-22T07:32:57Z</time>
      </trkpt>
      <trkpt lat="43.20918" lon="2.18703">
        <ele>178.94</ele>
        <time>2014-09-22T07:33:10Z</time>
      </trkpt>
      <trkpt lat="43.20886" lon="2.18581">
        <ele>184.23</ele>
        <time>2014-09-22T07:33:28Z</time>
      </trkpt>
      <trkpt lat="43.20857" lon="2.18478">
        <ele>186.63</ele>
        <time>2014-09-22T07:33:42Z</time>
      </trkpt>
      <trkpt lat="43.20828" lon="2.18347">
        <ele>189.52</ele>
        <time>2014-09-22T07:33:59Z</time>
      </trkpt>
      <trkpt lat="43.20814" lon="2.18197">
        <ele>186.63</ele>
        <time>2014-09-22T07:34:16Z</time>
      </trkpt>
      <trkpt lat="43.20804" lon="2.18044">
        <ele>185.67</ele>
        <time>2014-09-22T07:34:32Z</time>
      </trkpt>
      <trkpt lat="43.20789" lon="2.17849">
        <ele>182.79</ele>
        <time>2014-09-22T07:34:51Z</time>
      </trkpt>
      <trkpt lat="43.20771" lon="2.17627">
        <ele>175.58</ele>
        <time>2014-09-22T07:35:11Z</time>
      </trkpt>
      <trkpt lat="43.2076" lon="2.17473">
        <ele>176.06</ele>
        <time>2014-09-22T07:35:26Z</time>
      </trkpt>
      <trkpt lat="43.20752" lon="2.17366">
        <ele>177.98</ele>
        <time>2014-09-22T07:35:38Z</time>
      </trkpt>
      <trkpt lat="43.20754" lon="2.17213">
        <ele>181.35</ele>
        <time>2014-09-22T07:35:56Z</time>
      </trkpt>
      <trkpt lat="43.20765" lon="2.17047">
        <ele>179.42</ele>
        <time>2014-09-22T07:36:13Z</time>
      </trkpt>
      <trkpt lat="43.20777" lon="2.16861">
        <ele>177.5</ele>
        <time>2014-09-22T07:36:31Z</time>
      </trkpt>
      <trkpt lat="43.20784" lon="2.1675">
        <ele>178.46</ele>
        <time>2014-09-22T07:36:44Z</time>
      </trkpt>
      <trkpt lat="43.20784" lon="2.16742">
        <ele>178.94</ele>
        <time>2014-09-22T07:36:45Z</time>
      </trkpt>
      <trkpt lat="43.20786" lon="2.16718">
        <ele>179.9</ele>
        <time>2014-09-22T07:36:48Z</time>
      </trkpt>
      <trkpt lat="43.20787" lon="2.16711">
        <ele>180.38</ele>
        <time>2014-09-22T07:36:49Z</time>
      </trkpt>
      <trkpt lat="43.20787" lon="2.16703">
        <ele>180.87</ele>
        <time>2014-09-22T07:36:50Z</time>
      </trkpt>
      <trkpt lat="43.20788" lon="2.16696">
        <ele>181.35</ele>
        <time>2014-09-22T07:36:51Z</time>
      </trkpt>
      <trkpt lat="43.20789" lon="2.16688">
        <ele>181.35</ele>
        <time>2014-09-22T07:36:52Z</time>
      </trkpt>
      <trkpt lat="43.20789" lon="2.1668">
        <ele>181.83</ele>
        <time>2014-09-22T07:36:53Z</time>
      </trkpt>
      <trkpt lat="43.20789" lon="2.16673">
        <ele>181.83</ele>
        <time>2014-09-22T07:36:54Z</time>
      </trkpt>
      <trkpt lat="43.20795" lon="2.16569">
        <ele>184.71</ele>
        <time>2014-09-22T07:37:07Z</time>
      </trkpt>
      <trkpt lat="43.20804" lon="2.16426">
        <ele>183.27</ele>
        <time>2014-09-22T07:37:24Z</time>
      </trkpt>
      <trkpt lat="43.20817" lon="2.16226">
        <ele>182.31</ele>
        <time>2014-09-22T07:37:47Z</time>
      </trkpt>
      <trkpt lat="43.20817" lon="2.16045">
        <ele>181.83</ele>
        <time>2014-09-22T07:38:07Z</time>
      </trkpt>
      <trkpt lat="43.20782" lon="2.15917">
        <ele>182.79</ele>
        <time>2014-09-22T07:38:23Z</time>
      </trkpt>
      <trkpt lat="43.2072" lon="2.15812">
        <ele>183.27</ele>
        <time>2014-09-22T07:38:39Z</time>
      </trkpt>
      <trkpt lat="43.20654" lon="2.15729">
        <ele>186.63</ele>
        <time>2014-09-22T07:38:52Z</time>
      </trkpt>
      <trkpt lat="43.20598" lon="2.15644">
        <ele>189.52</ele>
        <time>2014-09-22T07:39:05Z</time>
      </trkpt>
      <trkpt lat="43.20592" lon="2.15633">
        <ele>190</ele>
        <time>2014-09-22T07:39:07Z</time>
      </trkpt>
      <trkpt lat="43.20589" lon="2.15627">
        <ele>190</ele>
        <time>2014-09-22T07:39:08Z</time>
      </trkpt>
      <trkpt lat="43.20587" lon="2.15622">
        <ele>190.48</ele>
        <time>2014-09-22T07:39:09Z</time>
      </trkpt>
      <trkpt lat="43.20569" lon="2.15581">
        <ele>191.44</ele>
        <time>2014-09-22T07:39:16Z</time>
      </trkpt>
      <trkpt lat="43.20566" lon="2.15575">
        <ele>191.92</ele>
        <time>2014-09-22T07:39:17Z</time>
      </trkpt>
      <trkpt lat="43.20551" lon="2.15541">
        <ele>192.88</ele>
        <time>2014-09-22T07:39:23Z</time>
      </trkpt>
      <trkpt lat="43.20548" lon="2.15535">
        <ele>193.36</ele>
        <time>2014-09-22T07:39:24Z</time>
      </trkpt>
      <trkpt lat="43.20546" lon="2.1553">
        <ele>193.84</ele>
        <time>2014-09-22T07:39:25Z</time>
      </trkpt>
      <trkpt lat="43.20543" lon="2.15525">
        <ele>194.32</ele>
        <time>2014-09-22T07:39:26Z</time>
      </trkpt>
      <trkpt lat="43.2054" lon="2.15519">
        <ele>194.8</ele>
        <time>2014-09-22T07:39:27Z</time>
      </trkpt>
      <trkpt lat="43.20538" lon="2.15513">
        <ele>194.8</ele>
        <time>2014-09-22T07:39:28Z</time>
      </trkpt>
      <trkpt lat="43.20505" lon="2.15442">
        <ele>199.13</ele>
        <time>2014-09-22T07:39:41Z</time>
      </trkpt>
      <trkpt lat="43.2049" lon="2.1541">
        <ele>201.05</ele>
        <time>2014-09-22T07:39:47Z</time>
      </trkpt>
      <trkpt lat="43.20483" lon="2.15394">
        <ele>202.49</ele>
        <time>2014-09-22T07:39:50Z</time>
      </trkpt>
      <trkpt lat="43.20455" lon="2.15332">
        <ele>207.3</ele>
        <time>2014-09-22T07:40:03Z</time>
      </trkpt>
      <trkpt lat="43.20427" lon="2.15266">
        <ele>210.67</ele>
        <time>2014-09-22T07:40:16Z</time>
      </trkpt>
      <trkpt lat="43.20394" lon="2.15205">
        <ele>211.63</ele>
        <time>2014-09-22T07:40:29Z</time>
      </trkpt>
      <trkpt lat="43.20356" lon="2.15136">
        <ele>214.03</ele>
        <time>2014-09-22T07:40:45Z</time>
      </trkpt>
      <trkpt lat="43.20316" lon="2.1507">
        <ele>218.36</ele>
        <time>2014-09-22T07:41:01Z</time>
      </trkpt>
      <trkpt lat="43.20281" lon="2.15013">
        <ele>223.16</ele>
        <time>2014-09-22T07:41:15Z</time>
      </trkpt>
      <trkpt lat="43.20249" lon="2.14964">
        <ele>226.05</ele>
        <time>2014-09-22T07:41:28Z</time>
      </trkpt>
      <trkpt lat="43.20216" lon="2.14913">
        <ele>228.93</ele>
        <time>2014-09-22T07:41:41Z</time>
      </trkpt>
      <trkpt lat="43.20171" lon="2.14846">
        <ele>233.74</ele>
        <time>2014-09-22T07:41:58Z</time>
      </trkpt>
      <trkpt lat="43.20133" lon="2.14787">
        <ele>239.51</ele>
        <time>2014-09-22T07:42:13Z</time>
      </trkpt>
      <trkpt lat="43.20097" lon="2.14731">
        <ele>245.75</ele>
        <time>2014-09-22T07:42:27Z</time>
      </trkpt>
      <trkpt lat="43.20057" lon="2.14652">
        <ele>250.56</ele>
        <time>2014-09-22T07:42:45Z</time>
      </trkpt>
      <trkpt lat="43.20042" lon="2.14584">
        <ele>251.04</ele>
        <time>2014-09-22T07:42:58Z</time>
      </trkpt>
      <trkpt lat="43.2004" lon="2.14558">
        <ele>251.04</ele>
        <time>2014-09-22T07:43:02Z</time>
      </trkpt>
      <trkpt lat="43.20047" lon="2.14441">
        <ele>252</ele>
        <time>2014-09-22T07:43:19Z</time>
      </trkpt>
      <trkpt lat="43.20051" lon="2.14394">
        <ele>252</ele>
        <time>2014-09-22T07:43:26Z</time>
      </trkpt>
      <trkpt lat="43.20052" lon="2.14387">
        <ele>252</ele>
        <time>2014-09-22T07:43:27Z</time>
      </trkpt>
      <trkpt lat="43.20054" lon="2.14354">
        <ele>251.52</ele>
        <time>2014-09-22T07:43:32Z</time>
      </trkpt>
      <trkpt lat="43.20059" lon="2.14317">
        <ele>252</ele>
        <time>2014-09-22T07:43:38Z</time>
      </trkpt>
      <trkpt lat="43.2006" lon="2.14304">
        <ele>252</ele>
        <time>2014-09-22T07:43:40Z</time>
      </trkpt>
      <trkpt lat="43.20062" lon="2.14285">
        <ele>252.48</ele>
        <time>2014-09-22T07:43:43Z</time>
      </trkpt>
      <trkpt lat="43.20047" lon="2.14195">
        <ele>252</ele>
        <time>2014-09-22T07:43:57Z</time>
      </trkpt>
      <trkpt lat="43.20022" lon="2.14075">
        <ele>254.41</ele>
        <time>2014-09-22T07:44:14Z</time>
      </trkpt>
      <trkpt lat="43.20007" lon="2.13999">
        <ele>253.44</ele>
        <time>2014-09-22T07:44:24Z</time>
      </trkpt>
      <trkpt lat="43.19997" lon="2.1397">
        <ele>252</ele>
        <time>2014-09-22T07:44:28Z</time>
      </trkpt>
      <trkpt lat="43.19971" lon="2.13907">
        <ele>250.56</ele>
        <time>2014-09-22T07:44:37Z</time>
      </trkpt>
      <trkpt lat="43.19969" lon="2.13898">
        <ele>250.08</ele>
        <time>2014-09-22T07:44:38Z</time>
      </trkpt>
      <trkpt lat="43.19968" lon="2.13888">
        <ele>250.08</ele>
        <time>2014-09-22T07:44:39Z</time>
      </trkpt>
      <trkpt lat="43.19969" lon="2.13878">
        <ele>250.08</ele>
        <time>2014-09-22T07:44:40Z</time>
      </trkpt>
      <trkpt lat="43.19971" lon="2.13868">
        <ele>249.6</ele>
        <time>2014-09-22T07:44:41Z</time>
      </trkpt>
      <trkpt lat="43.19974" lon="2.13859">
        <ele>249.6</ele>
        <time>2014-09-22T07:44:42Z</time>
      </trkpt>
      <trkpt lat="43.19977" lon="2.13849">
        <ele>249.12</ele>
        <time>2014-09-22T07:44:43Z</time>
      </trkpt>
      <trkpt lat="43.20013" lon="2.13754">
        <ele>247.68</ele>
        <time>2014-09-22T07:44:53Z</time>
      </trkpt>
      <trkpt lat="43.20014" lon="2.13743">
        <ele>247.68</ele>
        <time>2014-09-22T07:44:54Z</time>
      </trkpt>
      <trkpt lat="43.20015" lon="2.13733">
        <ele>247.2</ele>
        <time>2014-09-22T07:44:55Z</time>
      </trkpt>
      <trkpt lat="43.20014" lon="2.13721">
        <ele>247.2</ele>
        <time>2014-09-22T07:44:56Z</time>
      </trkpt>
      <trkpt lat="43.20013" lon="2.13711">
        <ele>246.72</ele>
        <time>2014-09-22T07:44:57Z</time>
      </trkpt>
      <trkpt lat="43.2" lon="2.1366">
        <ele>245.27</ele>
        <time>2014-09-22T07:45:02Z</time>
      </trkpt>
      <trkpt lat="43.19995" lon="2.13652">
        <ele>244.79</ele>
        <time>2014-09-22T07:45:03Z</time>
      </trkpt>
      <trkpt lat="43.19989" lon="2.13645">
        <ele>244.79</ele>
        <time>2014-09-22T07:45:04Z</time>
      </trkpt>
      <trkpt lat="43.19982" lon="2.1364">
        <ele>244.79</ele>
        <time>2014-09-22T07:45:05Z</time>
      </trkpt>
      <trkpt lat="43.19974" lon="2.13637">
        <ele>244.79</ele>
        <time>2014-09-22T07:45:06Z</time>
      </trkpt>
      <trkpt lat="43.19965" lon="2.13637">
        <ele>244.31</ele>
        <time>2014-09-22T07:45:07Z</time>
      </trkpt>
      <trkpt lat="43.19954" lon="2.13639">
        <ele>243.83</ele>
        <time>2014-09-22T07:45:08Z</time>
      </trkpt>
      <trkpt lat="43.19945" lon="2.13643">
        <ele>243.83</ele>
        <time>2014-09-22T07:45:09Z</time>
      </trkpt>
      <trkpt lat="43.19936" lon="2.1365">
        <ele>243.35</ele>
        <time>2014-09-22T07:45:10Z</time>
      </trkpt>
      <trkpt lat="43.19929" lon="2.13658">
        <ele>242.87</ele>
        <time>2014-09-22T07:45:11Z</time>
      </trkpt>
      <trkpt lat="43.19922" lon="2.13668">
        <ele>242.39</ele>
        <time>2014-09-22T07:45:12Z</time>
      </trkpt>
      <trkpt lat="43.19916" lon="2.13677">
        <ele>242.39</ele>
        <time>2014-09-22T07:45:13Z</time>
      </trkpt>
      <trkpt lat="43.19901" lon="2.13697">
        <ele>241.43</ele>
        <time>2014-09-22T07:45:15Z</time>
      </trkpt>
      <trkpt lat="43.19893" lon="2.13706">
        <ele>240.95</ele>
        <time>2014-09-22T07:45:16Z</time>
      </trkpt>
      <trkpt lat="43.19884" lon="2.13715">
        <ele>240.47</ele>
        <time>2014-09-22T07:45:17Z</time>
      </trkpt>
      <trkpt lat="43.19875" lon="2.13722">
        <ele>240.47</ele>
        <time>2014-09-22T07:45:18Z</time>
      </trkpt>
      <trkpt lat="43.19866" lon="2.13729">
        <ele>239.99</ele>
        <time>2014-09-22T07:45:19Z</time>
      </trkpt>
      <trkpt lat="43.19828" lon="2.13758">
        <ele>238.06</ele>
        <time>2014-09-22T07:45:23Z</time>
      </trkpt>
      <trkpt lat="43.19809" lon="2.13773">
        <ele>237.58</ele>
        <time>2014-09-22T07:45:25Z</time>
      </trkpt>
      <trkpt lat="43.19797" lon="2.13776">
        <ele>237.1</ele>
        <time>2014-09-22T07:45:26Z</time>
      </trkpt>
      <trkpt lat="43.19786" lon="2.13775">
        <ele>236.62</ele>
        <time>2014-09-22T07:45:27Z</time>
      </trkpt>
      <trkpt lat="43.19775" lon="2.13771">
        <ele>236.14</ele>
        <time>2014-09-22T07:45:28Z</time>
      </trkpt>
      <trkpt lat="43.19764" lon="2.13765">
        <ele>235.66</ele>
        <time>2014-09-22T07:45:29Z</time>
      </trkpt>
      <trkpt lat="43.19753" lon="2.13758">
        <ele>235.18</ele>
        <time>2014-09-22T07:45:30Z</time>
      </trkpt>
      <trkpt lat="43.19742" lon="2.13749">
        <ele>234.7</ele>
        <time>2014-09-22T07:45:31Z</time>
      </trkpt>
      <trkpt lat="43.19734" lon="2.13741">
        <ele>234.22</ele>
        <time>2014-09-22T07:45:32Z</time>
      </trkpt>
      <trkpt lat="43.19725" lon="2.13729">
        <ele>233.26</ele>
        <time>2014-09-22T07:45:33Z</time>
      </trkpt>
      <trkpt lat="43.19718" lon="2.13716">
        <ele>232.78</ele>
        <time>2014-09-22T07:45:34Z</time>
      </trkpt>
      <trkpt lat="43.19712" lon="2.13703">
        <ele>232.3</ele>
        <time>2014-09-22T07:45:35Z</time>
      </trkpt>
      <trkpt lat="43.19707" lon="2.13689">
        <ele>231.81</ele>
        <time>2014-09-22T07:45:36Z</time>
      </trkpt>
      <trkpt lat="43.19701" lon="2.13673">
        <ele>231.33</ele>
        <time>2014-09-22T07:45:37Z</time>
      </trkpt>
      <trkpt lat="43.19644" lon="2.13491">
        <ele>225.09</ele>
        <time>2014-09-22T07:45:50Z</time>
      </trkpt>
      <trkpt lat="43.19575" lon="2.13272">
        <ele>218.84</ele>
        <time>2014-09-22T07:46:07Z</time>
      </trkpt>
      <trkpt lat="43.19516" lon="2.1308">
        <ele>214.03</ele>
        <time>2014-09-22T07:46:22Z</time>
      </trkpt>
      <trkpt lat="43.19444" lon="2.12851">
        <ele>208.74</ele>
        <time>2014-09-22T07:46:40Z</time>
      </trkpt>
      <trkpt lat="43.19417" lon="2.12682">
        <ele>200.09</ele>
        <time>2014-09-22T07:46:51Z</time>
      </trkpt>
      <trkpt lat="43.1942" lon="2.12423">
        <ele>187.11</ele>
        <time>2014-09-22T07:47:05Z</time>
      </trkpt>
      <trkpt lat="43.19422" lon="2.12181">
        <ele>178.46</ele>
        <time>2014-09-22T07:47:19Z</time>
      </trkpt>
      <trkpt lat="43.19423" lon="2.1202">
        <ele>180.38</ele>
        <time>2014-09-22T07:47:32Z</time>
      </trkpt>
      <trkpt lat="43.19421" lon="2.11824">
        <ele>182.79</ele>
        <time>2014-09-22T07:47:51Z</time>
      </trkpt>
      <trkpt lat="43.19408" lon="2.11754">
        <ele>183.75</ele>
        <time>2014-09-22T07:47:59Z</time>
      </trkpt>
      <trkpt lat="43.19406" lon="2.11746">
        <ele>183.75</ele>
        <time>2014-09-22T07:48:00Z</time>
      </trkpt>
      <trkpt lat="43.19402" lon="2.11728">
        <ele>183.75</ele>
        <time>2014-09-22T07:48:02Z</time>
      </trkpt>
      <trkpt lat="43.19353" lon="2.11595">
        <ele>182.79</ele>
        <time>2014-09-22T07:48:18Z</time>
      </trkpt>
      <trkpt lat="43.19308" lon="2.1147">
        <ele>183.27</ele>
        <time>2014-09-22T07:48:33Z</time>
      </trkpt>
      <trkpt lat="43.19257" lon="2.11325">
        <ele>183.27</ele>
        <time>2014-09-22T07:48:49Z</time>
      </trkpt>
      <trkpt lat="43.19205" lon="2.11144">
        <ele>184.71</ele>
        <time>2014-09-22T07:49:08Z</time>
      </trkpt>
      <trkpt lat="43.1917" lon="2.11013">
        <ele>186.15</ele>
        <time>2014-09-22T07:49:23Z</time>
      </trkpt>
      <trkpt lat="43.19136" lon="2.1089">
        <ele>189.04</ele>
        <time>2014-09-22T07:49:38Z</time>
      </trkpt>
      <trkpt lat="43.191" lon="2.10766">
        <ele>189.52</ele>
        <time>2014-09-22T07:49:53Z</time>
      </trkpt>
      <trkpt lat="43.19076" lon="2.10654">
        <ele>190.96</ele>
        <time>2014-09-22T07:50:07Z</time>
      </trkpt>
      <trkpt lat="43.19076" lon="2.10631">
        <ele>191.44</ele>
        <time>2014-09-22T07:50:10Z</time>
      </trkpt>
      <trkpt lat="43.19078" lon="2.10579">
        <ele>193.36</ele>
        <time>2014-09-22T07:50:17Z</time>
      </trkpt>
      <trkpt lat="43.19079" lon="2.10572">
        <ele>193.36</ele>
        <time>2014-09-22T07:50:18Z</time>
      </trkpt>
      <trkpt lat="43.19085" lon="2.10468">
        <ele>197.21</ele>
        <time>2014-09-22T07:50:33Z</time>
      </trkpt>
      <trkpt lat="43.19091" lon="2.10404">
        <ele>196.73</ele>
        <time>2014-09-22T07:50:42Z</time>
      </trkpt>
      <trkpt lat="43.19092" lon="2.10397">
        <ele>196.25</ele>
        <time>2014-09-22T07:50:43Z</time>
      </trkpt>
      <trkpt lat="43.19096" lon="2.10384">
        <ele>196.73</ele>
        <time>2014-09-22T07:50:45Z</time>
      </trkpt>
      <trkpt lat="43.19098" lon="2.10378">
        <ele>197.21</ele>
        <time>2014-09-22T07:50:46Z</time>
      </trkpt>
      <trkpt lat="43.19136" lon="2.10282">
        <ele>201.53</ele>
        <time>2014-09-22T07:51:03Z</time>
      </trkpt>
      <trkpt lat="43.19175" lon="2.10186">
        <ele>201.53</ele>
        <time>2014-09-22T07:51:19Z</time>
      </trkpt>
      <trkpt lat="43.19221" lon="2.10078">
        <ele>203.94</ele>
        <time>2014-09-22T07:51:37Z</time>
      </trkpt>
      <trkpt lat="43.19265" lon="2.09971">
        <ele>207.3</ele>
        <time>2014-09-22T07:51:55Z</time>
      </trkpt>
      <trkpt lat="43.19308" lon="2.09867">
        <ele>209.7</ele>
        <time>2014-09-22T07:52:12Z</time>
      </trkpt>
      <trkpt lat="43.19352" lon="2.09752">
        <ele>211.63</ele>
        <time>2014-09-22T07:52:29Z</time>
      </trkpt>
      <trkpt lat="43.19372" lon="2.09625">
        <ele>209.7</ele>
        <time>2014-09-22T07:52:45Z</time>
      </trkpt>
      <trkpt lat="43.19388" lon="2.09497">
        <ele>208.26</ele>
        <time>2014-09-22T07:53:00Z</time>
      </trkpt>
      <trkpt lat="43.1939" lon="2.09471">
        <ele>208.74</ele>
        <time>2014-09-22T07:53:03Z</time>
      </trkpt>
      <trkpt lat="43.19381" lon="2.09334">
        <ele>205.86</ele>
        <time>2014-09-22T07:53:16Z</time>
      </trkpt>
      <trkpt lat="43.19372" lon="2.09145">
        <ele>200.57</ele>
        <time>2014-09-22T07:53:30Z</time>
      </trkpt>
      <trkpt lat="43.19357" lon="2.08967">
        <ele>196.73</ele>
        <time>2014-09-22T07:53:43Z</time>
      </trkpt>
      <trkpt lat="43.19346" lon="2.08817">
        <ele>200.09</ele>
        <time>2014-09-22T07:53:59Z</time>
      </trkpt>
      <trkpt lat="43.19335" lon="2.08647">
        <ele>199.13</ele>
        <time>2014-09-22T07:54:17Z</time>
      </trkpt>
      <trkpt lat="43.19323" lon="2.08456">
        <ele>198.17</ele>
        <time>2014-09-22T07:54:36Z</time>
      </trkpt>
      <trkpt lat="43.19312" lon="2.08282">
        <ele>197.69</ele>
        <time>2014-09-22T07:54:53Z</time>
      </trkpt>
      <trkpt lat="43.19297" lon="2.08102">
        <ele>198.17</ele>
        <time>2014-09-22T07:55:11Z</time>
      </trkpt>
      <trkpt lat="43.19287" lon="2.07977">
        <ele>200.09</ele>
        <time>2014-09-22T07:55:25Z</time>
      </trkpt>
      <trkpt lat="43.19282" lon="2.07893">
        <ele>202.98</ele>
        <time>2014-09-22T07:55:36Z</time>
      </trkpt>
      <trkpt lat="43.19281" lon="2.07879">
        <ele>203.46</ele>
        <time>2014-09-22T07:55:38Z</time>
      </trkpt>
      <trkpt lat="43.19279" lon="2.07859">
        <ele>203.94</ele>
        <time>2014-09-22T07:55:41Z</time>
      </trkpt>
      <trkpt lat="43.19272" lon="2.07752">
        <ele>209.22</ele>
        <time>2014-09-22T07:55:56Z</time>
      </trkpt>
      <trkpt lat="43.19265" lon="2.07663">
        <ele>209.22</ele>
        <time>2014-09-22T07:56:08Z</time>
      </trkpt>
      <trkpt lat="43.19258" lon="2.07556">
        <ele>208.74</ele>
        <time>2014-09-22T07:56:22Z</time>
      </trkpt>
      <trkpt lat="43.1925" lon="2.07443">
        <ele>209.22</ele>
        <time>2014-09-22T07:56:36Z</time>
      </trkpt>
      <trkpt lat="43.1924" lon="2.07282">
        <ele>208.74</ele>
        <time>2014-09-22T07:56:55Z</time>
      </trkpt>
      <trkpt lat="43.19245" lon="2.07134">
        <ele>209.22</ele>
        <time>2014-09-22T07:57:13Z</time>
      </trkpt>
      <trkpt lat="43.19264" lon="2.06985">
        <ele>209.7</ele>
        <time>2014-09-22T07:57:31Z</time>
      </trkpt>
      <trkpt lat="43.19281" lon="2.06865">
        <ele>212.59</ele>
        <time>2014-09-22T07:57:46Z</time>
      </trkpt>
      <trkpt lat="43.19306" lon="2.06712">
        <ele>215.47</ele>
        <time>2014-09-22T07:58:04Z</time>
      </trkpt>
      <trkpt lat="43.19327" lon="2.06586">
        <ele>214.03</ele>
        <time>2014-09-22T07:58:20Z</time>
      </trkpt>
      <trkpt lat="43.19334" lon="2.06437">
        <ele>212.11</ele>
        <time>2014-09-22T07:58:38Z</time>
      </trkpt>
      <trkpt lat="43.19329" lon="2.06375">
        <ele>211.15</ele>
        <time>2014-09-22T07:58:45Z</time>
      </trkpt>
      <trkpt lat="43.19328" lon="2.06366">
        <ele>211.15</ele>
        <time>2014-09-22T07:58:46Z</time>
      </trkpt>
      <trkpt lat="43.19327" lon="2.06358">
        <ele>211.63</ele>
        <time>2014-09-22T07:58:47Z</time>
      </trkpt>
      <trkpt lat="43.19314" lon="2.06235">
        <ele>213.07</ele>
        <time>2014-09-22T07:59:00Z</time>
      </trkpt>
      <trkpt lat="43.19293" lon="2.0606">
        <ele>208.74</ele>
        <time>2014-09-22T07:59:17Z</time>
      </trkpt>
      <trkpt lat="43.19289" lon="2.05952">
        <ele>204.42</ele>
        <time>2014-09-22T07:59:26Z</time>
      </trkpt>
      <trkpt lat="43.19291" lon="2.05939">
        <ele>204.42</ele>
        <time>2014-09-22T07:59:27Z</time>
      </trkpt>
      <trkpt lat="43.19317" lon="2.05831">
        <ele>205.86</ele>
        <time>2014-09-22T07:59:39Z</time>
      </trkpt>
      <trkpt lat="43.19338" lon="2.05745">
        <ele>209.7</ele>
        <time>2014-09-22T07:59:51Z</time>
      </trkpt>
      <trkpt lat="43.19357" lon="2.05649">
        <ele>214.51</ele>
        <time>2014-09-22T08:00:04Z</time>
      </trkpt>
      <trkpt lat="43.1936" lon="2.05569">
        <ele>215.47</ele>
        <time>2014-09-22T08:00:15Z</time>
      </trkpt>
      <trkpt lat="43.19362" lon="2.05555">
        <ele>215.47</ele>
        <time>2014-09-22T08:00:17Z</time>
      </trkpt>
      <trkpt lat="43.19363" lon="2.05548">
        <ele>215.47</ele>
        <time>2014-09-22T08:00:18Z</time>
      </trkpt>
      <trkpt lat="43.19366" lon="2.05542">
        <ele>215.95</ele>
        <time>2014-09-22T08:00:19Z</time>
      </trkpt>
      <trkpt lat="43.1937" lon="2.05536">
        <ele>215.95</ele>
        <time>2014-09-22T08:00:20Z</time>
      </trkpt>
      <trkpt lat="43.19375" lon="2.0553">
        <ele>215.95</ele>
        <time>2014-09-22T08:00:21Z</time>
      </trkpt>
      <trkpt lat="43.19379" lon="2.05525">
        <ele>215.95</ele>
        <time>2014-09-22T08:00:22Z</time>
      </trkpt>
      <trkpt lat="43.19383" lon="2.05518">
        <ele>215.95</ele>
        <time>2014-09-22T08:00:23Z</time>
      </trkpt>
      <trkpt lat="43.19385" lon="2.05512">
        <ele>215.95</ele>
        <time>2014-09-22T08:00:24Z</time>
      </trkpt>
      <trkpt lat="43.19387" lon="2.05503">
        <ele>215.95</ele>
        <time>2014-09-22T08:00:25Z</time>
      </trkpt>
      <trkpt lat="43.19388" lon="2.05495">
        <ele>215.95</ele>
        <time>2014-09-22T08:00:26Z</time>
      </trkpt>
      <trkpt lat="43.19387" lon="2.05487">
        <ele>216.43</ele>
        <time>2014-09-22T08:00:27Z</time>
      </trkpt>
      <trkpt lat="43.19387" lon="2.05478">
        <ele>216.43</ele>
        <time>2014-09-22T08:00:28Z</time>
      </trkpt>
      <trkpt lat="43.19385" lon="2.05468">
        <ele>216.43</ele>
        <time>2014-09-22T08:00:29Z</time>
      </trkpt>
      <trkpt lat="43.19382" lon="2.05462">
        <ele>216.43</ele>
        <time>2014-09-22T08:00:30Z</time>
      </trkpt>
      <trkpt lat="43.19379" lon="2.05456">
        <ele>216.43</ele>
        <time>2014-09-22T08:00:31Z</time>
      </trkpt>
      <trkpt lat="43.19375" lon="2.05452">
        <ele>216.43</ele>
        <time>2014-09-22T08:00:32Z</time>
      </trkpt>
      <trkpt lat="43.19371" lon="2.05448">
        <ele>216.43</ele>
        <time>2014-09-22T08:00:33Z</time>
      </trkpt>
      <trkpt lat="43.19365" lon="2.05446">
        <ele>215.95</ele>
        <time>2014-09-22T08:00:34Z</time>
      </trkpt>
      <trkpt lat="43.19359" lon="2.05444">
        <ele>215.95</ele>
        <time>2014-09-22T08:00:35Z</time>
      </trkpt>
      <trkpt lat="43.19354" lon="2.05444">
        <ele>216.43</ele>
        <time>2014-09-22T08:00:36Z</time>
      </trkpt>
      <trkpt lat="43.19348" lon="2.05445">
        <ele>216.43</ele>
        <time>2014-09-22T08:00:37Z</time>
      </trkpt>
      <trkpt lat="43.19342" lon="2.05447">
        <ele>216.43</ele>
        <time>2014-09-22T08:00:38Z</time>
      </trkpt>
      <trkpt lat="43.19336" lon="2.0545">
        <ele>216.43</ele>
        <time>2014-09-22T08:00:39Z</time>
      </trkpt>
      <trkpt lat="43.19325" lon="2.05455">
        <ele>216.43</ele>
        <time>2014-09-22T08:00:41Z</time>
      </trkpt>
      <trkpt lat="43.19319" lon="2.05456">
        <ele>216.43</ele>
        <time>2014-09-22T08:00:42Z</time>
      </trkpt>
      <trkpt lat="43.19313" lon="2.05457">
        <ele>216.43</ele>
        <time>2014-09-22T08:00:43Z</time>
      </trkpt>
      <trkpt lat="43.19307" lon="2.05456">
        <ele>216.91</ele>
        <time>2014-09-22T08:00:44Z</time>
      </trkpt>
      <trkpt lat="43.19302" lon="2.05454">
        <ele>216.91</ele>
        <time>2014-09-22T08:00:45Z</time>
      </trkpt>
      <trkpt lat="43.19296" lon="2.05451">
        <ele>216.91</ele>
        <time>2014-09-22T08:00:46Z</time>
      </trkpt>
      <trkpt lat="43.19291" lon="2.05448">
        <ele>217.4</ele>
        <time>2014-09-22T08:00:47Z</time>
      </trkpt>
      <trkpt lat="43.19281" lon="2.05443">
        <ele>217.88</ele>
        <time>2014-09-22T08:00:49Z</time>
      </trkpt>
      <trkpt lat="43.19237" lon="2.05418">
        <ele>218.84</ele>
        <time>2014-09-22T08:00:58Z</time>
      </trkpt>
      <trkpt lat="43.19232" lon="2.05415">
        <ele>218.84</ele>
        <time>2014-09-22T08:00:59Z</time>
      </trkpt>
      <trkpt lat="43.19218" lon="2.05404">
        <ele>218.84</ele>
        <time>2014-09-22T08:01:02Z</time>
      </trkpt>
      <trkpt lat="43.19214" lon="2.054">
        <ele>219.32</ele>
        <time>2014-09-22T08:01:03Z</time>
      </trkpt>
      <trkpt lat="43.19164" lon="2.05318">
        <ele>222.2</ele>
        <time>2014-09-22T08:01:18Z</time>
      </trkpt>
      <trkpt lat="43.19109" lon="2.0522">
        <ele>226.05</ele>
        <time>2014-09-22T08:01:34Z</time>
      </trkpt>
      <trkpt lat="43.19043" lon="2.0511">
        <ele>229.89</ele>
        <time>2014-09-22T08:01:52Z</time>
      </trkpt>
      <trkpt lat="43.18982" lon="2.05003">
        <ele>233.74</ele>
        <time>2014-09-22T08:02:10Z</time>
      </trkpt>
      <trkpt lat="43.18925" lon="2.04916">
        <ele>236.14</ele>
        <time>2014-09-22T08:02:25Z</time>
      </trkpt>
      <trkpt lat="43.18853" lon="2.04879">
        <ele>236.14</ele>
        <time>2014-09-22T08:02:38Z</time>
      </trkpt>
      <trkpt lat="43.18782" lon="2.04851">
        <ele>235.66</ele>
        <time>2014-09-22T08:02:51Z</time>
      </trkpt>
      <trkpt lat="43.18741" lon="2.04831">
        <ele>235.66</ele>
        <time>2014-09-22T08:02:59Z</time>
      </trkpt>
      <trkpt lat="43.18722" lon="2.04818">
        <ele>236.62</ele>
        <time>2014-09-22T08:03:03Z</time>
      </trkpt>
      <trkpt lat="43.18655" lon="2.04769">
        <ele>238.06</ele>
        <time>2014-09-22T08:03:17Z</time>
      </trkpt>
      <trkpt lat="43.18584" lon="2.04755">
        <ele>240.95</ele>
        <time>2014-09-22T08:03:31Z</time>
      </trkpt>
      <trkpt lat="43.18559" lon="2.04763">
        <ele>240.95</ele>
        <time>2014-09-22T08:03:36Z</time>
      </trkpt>
      <trkpt lat="43.18554" lon="2.04765">
        <ele>240.95</ele>
        <time>2014-09-22T08:03:37Z</time>
      </trkpt>
      <trkpt lat="43.18535" lon="2.0477">
        <ele>241.91</ele>
        <time>2014-09-22T08:03:41Z</time>
      </trkpt>
      <trkpt lat="43.1853" lon="2.0477">
        <ele>241.91</ele>
        <time>2014-09-22T08:03:42Z</time>
      </trkpt>
      <trkpt lat="43.18515" lon="2.04767">
        <ele>242.39</ele>
        <time>2014-09-22T08:03:45Z</time>
      </trkpt>
      <trkpt lat="43.18511" lon="2.04765">
        <ele>242.39</ele>
        <time>2014-09-22T08:03:46Z</time>
      </trkpt>
      <trkpt lat="43.18498" lon="2.04758">
        <ele>243.35</ele>
        <time>2014-09-22T08:03:49Z</time>
      </trkpt>
      <trkpt lat="43.18448" lon="2.04707">
        <ele>247.68</ele>
        <time>2014-09-22T08:04:03Z</time>
      </trkpt>
      <trkpt lat="43.18409" lon="2.04656">
        <ele>250.56</ele>
        <time>2014-09-22T08:04:15Z</time>
      </trkpt>
      <trkpt lat="43.18401" lon="2.04642">
        <ele>251.52</ele>
        <time>2014-09-22T08:04:18Z</time>
      </trkpt>
      <trkpt lat="43.18393" lon="2.04621">
        <ele>252.96</ele>
        <time>2014-09-22T08:04:22Z</time>
      </trkpt>
      <trkpt lat="43.18382" lon="2.04549">
        <ele>256.33</ele>
        <time>2014-09-22T08:04:35Z</time>
      </trkpt>
      <trkpt lat="43.18393" lon="2.04453">
        <ele>258.73</ele>
        <time>2014-09-22T08:04:51Z</time>
      </trkpt>
      <trkpt lat="43.18407" lon="2.04403">
        <ele>260.65</ele>
        <time>2014-09-22T08:05:00Z</time>
      </trkpt>
      <trkpt lat="43.18412" lon="2.04385">
        <ele>262.58</ele>
        <time>2014-09-22T08:05:03Z</time>
      </trkpt>
      <trkpt lat="43.18415" lon="2.04367">
        <ele>263.54</ele>
        <time>2014-09-22T08:05:06Z</time>
      </trkpt>
      <trkpt lat="43.18415" lon="2.04361">
        <ele>264.02</ele>
        <time>2014-09-22T08:05:07Z</time>
      </trkpt>
      <trkpt lat="43.18416" lon="2.04355">
        <ele>264.5</ele>
        <time>2014-09-22T08:05:08Z</time>
      </trkpt>
      <trkpt lat="43.18413" lon="2.04326">
        <ele>265.46</ele>
        <time>2014-09-22T08:05:13Z</time>
      </trkpt>
      <trkpt lat="43.18411" lon="2.0432">
        <ele>265.46</ele>
        <time>2014-09-22T08:05:14Z</time>
      </trkpt>
      <trkpt lat="43.18408" lon="2.0431">
        <ele>265.46</ele>
        <time>2014-09-22T08:05:16Z</time>
      </trkpt>
      <trkpt lat="43.18378" lon="2.04263">
        <ele>265.46</ele>
        <time>2014-09-22T08:05:27Z</time>
      </trkpt>
      <trkpt lat="43.1837" lon="2.04259">
        <ele>265.46</ele>
        <time>2014-09-22T08:05:29Z</time>
      </trkpt>
      <trkpt lat="43.18366" lon="2.04257">
        <ele>265.46</ele>
        <time>2014-09-22T08:05:30Z</time>
      </trkpt>
      <trkpt lat="43.18362" lon="2.04256">
        <ele>265.94</ele>
        <time>2014-09-22T08:05:31Z</time>
      </trkpt>
      <trkpt lat="43.18353" lon="2.04255">
        <ele>266.42</ele>
        <time>2014-09-22T08:05:33Z</time>
      </trkpt>
      <trkpt lat="43.1832" lon="2.0425">
        <ele>268.83</ele>
        <time>2014-09-22T08:05:41Z</time>
      </trkpt>
      <trkpt lat="43.18312" lon="2.04246">
        <ele>269.31</ele>
        <time>2014-09-22T08:05:43Z</time>
      </trkpt>
      <trkpt lat="43.18308" lon="2.04243">
        <ele>269.79</ele>
        <time>2014-09-22T08:05:44Z</time>
      </trkpt>
      <trkpt lat="43.18305" lon="2.04239">
        <ele>269.79</ele>
        <time>2014-09-22T08:05:45Z</time>
      </trkpt>
      <trkpt lat="43.18297" lon="2.04227">
        <ele>270.27</ele>
        <time>2014-09-22T08:05:48Z</time>
      </trkpt>
      <trkpt lat="43.18295" lon="2.04222">
        <ele>270.27</ele>
        <time>2014-09-22T08:05:49Z</time>
      </trkpt>
      <trkpt lat="43.18289" lon="2.04205">
        <ele>270.75</ele>
        <time>2014-09-22T08:05:52Z</time>
      </trkpt>
      <trkpt lat="43.1827" lon="2.04148">
        <ele>274.59</ele>
        <time>2014-09-22T08:06:03Z</time>
      </trkpt>
      <trkpt lat="43.18267" lon="2.04144">
        <ele>275.07</ele>
        <time>2014-09-22T08:06:04Z</time>
      </trkpt>
      <trkpt lat="43.18263" lon="2.0414">
        <ele>275.07</ele>
        <time>2014-09-22T08:06:05Z</time>
      </trkpt>
      <trkpt lat="43.1826" lon="2.04137">
        <ele>275.56</ele>
        <time>2014-09-22T08:06:06Z</time>
      </trkpt>
      <trkpt lat="43.18256" lon="2.04134">
        <ele>275.56</ele>
        <time>2014-09-22T08:06:07Z</time>
      </trkpt>
      <trkpt lat="43.18252" lon="2.04132">
        <ele>276.04</ele>
        <time>2014-09-22T08:06:08Z</time>
      </trkpt>
      <trkpt lat="43.18248" lon="2.04131">
        <ele>276.04</ele>
        <time>2014-09-22T08:06:09Z</time>
      </trkpt>
      <trkpt lat="43.18243" lon="2.0413">
        <ele>276.52</ele>
        <time>2014-09-22T08:06:10Z</time>
      </trkpt>
      <trkpt lat="43.18239" lon="2.0413">
        <ele>276.52</ele>
        <time>2014-09-22T08:06:11Z</time>
      </trkpt>
      <trkpt lat="43.18235" lon="2.04131">
        <ele>277</ele>
        <time>2014-09-22T08:06:12Z</time>
      </trkpt>
      <trkpt lat="43.18226" lon="2.04132">
        <ele>277.48</ele>
        <time>2014-09-22T08:06:14Z</time>
      </trkpt>
      <trkpt lat="43.18205" lon="2.0414">
        <ele>277.96</ele>
        <time>2014-09-22T08:06:19Z</time>
      </trkpt>
      <trkpt lat="43.18183" lon="2.04147">
        <ele>278.44</ele>
        <time>2014-09-22T08:06:24Z</time>
      </trkpt>
      <trkpt lat="43.18178" lon="2.04147">
        <ele>278.44</ele>
        <time>2014-09-22T08:06:25Z</time>
      </trkpt>
      <trkpt lat="43.18118" lon="2.04127">
        <ele>280.36</ele>
        <time>2014-09-22T08:06:39Z</time>
      </trkpt>
      <trkpt lat="43.18058" lon="2.04104">
        <ele>283.25</ele>
        <time>2014-09-22T08:06:53Z</time>
      </trkpt>
      <trkpt lat="43.18037" lon="2.04096">
        <ele>285.17</ele>
        <time>2014-09-22T08:06:58Z</time>
      </trkpt>
      <trkpt lat="43.18034" lon="2.04093">
        <ele>285.17</ele>
        <time>2014-09-22T08:06:59Z</time>
      </trkpt>
      <trkpt lat="43.18023" lon="2.04086">
        <ele>286.13</ele>
        <time>2014-09-22T08:07:02Z</time>
      </trkpt>
      <trkpt lat="43.18019" lon="2.04082">
        <ele>286.13</ele>
        <time>2014-09-22T08:07:03Z</time>
      </trkpt>
      <trkpt lat="43.18016" lon="2.04078">
        <ele>286.61</ele>
        <time>2014-09-22T08:07:04Z</time>
      </trkpt>
      <trkpt lat="43.18009" lon="2.04065">
        <ele>287.09</ele>
        <time>2014-09-22T08:07:07Z</time>
      </trkpt>
      <trkpt lat="43.18007" lon="2.0406">
        <ele>287.09</ele>
        <time>2014-09-22T08:07:08Z</time>
      </trkpt>
      <trkpt lat="43.18006" lon="2.04055">
        <ele>287.09</ele>
        <time>2014-09-22T08:07:09Z</time>
      </trkpt>
      <trkpt lat="43.18004" lon="2.04044">
        <ele>287.09</ele>
        <time>2014-09-22T08:07:11Z</time>
      </trkpt>
      <trkpt lat="43.18004" lon="2.04038">
        <ele>287.57</ele>
        <time>2014-09-22T08:07:12Z</time>
      </trkpt>
      <trkpt lat="43.18003" lon="2.04032">
        <ele>287.57</ele>
        <time>2014-09-22T08:07:13Z</time>
      </trkpt>
      <trkpt lat="43.18005" lon="2.04014">
        <ele>288.53</ele>
        <time>2014-09-22T08:07:16Z</time>
      </trkpt>
      <trkpt lat="43.18006" lon="2.04008">
        <ele>289.01</ele>
        <time>2014-09-22T08:07:17Z</time>
      </trkpt>
      <trkpt lat="43.18007" lon="2.04002">
        <ele>289.49</ele>
        <time>2014-09-22T08:07:18Z</time>
      </trkpt>
      <trkpt lat="43.18009" lon="2.03996">
        <ele>289.49</ele>
        <time>2014-09-22T08:07:19Z</time>
      </trkpt>
      <trkpt lat="43.18011" lon="2.03991">
        <ele>289.97</ele>
        <time>2014-09-22T08:07:20Z</time>
      </trkpt>
      <trkpt lat="43.18014" lon="2.03987">
        <ele>290.46</ele>
        <time>2014-09-22T08:07:21Z</time>
      </trkpt>
      <trkpt lat="43.18018" lon="2.03982">
        <ele>290.46</ele>
        <time>2014-09-22T08:07:22Z</time>
      </trkpt>
      <trkpt lat="43.18021" lon="2.03979">
        <ele>290.94</ele>
        <time>2014-09-22T08:07:23Z</time>
      </trkpt>
      <trkpt lat="43.18025" lon="2.03976">
        <ele>291.42</ele>
        <time>2014-09-22T08:07:24Z</time>
      </trkpt>
      <trkpt lat="43.18029" lon="2.03973">
        <ele>291.9</ele>
        <time>2014-09-22T08:07:25Z</time>
      </trkpt>
      <trkpt lat="43.18033" lon="2.03971">
        <ele>292.38</ele>
        <time>2014-09-22T08:07:26Z</time>
      </trkpt>
      <trkpt lat="43.18037" lon="2.03969">
        <ele>292.86</ele>
        <time>2014-09-22T08:07:27Z</time>
      </trkpt>
      <trkpt lat="43.18094" lon="2.03939">
        <ele>297.67</ele>
        <time>2014-09-22T08:07:41Z</time>
      </trkpt>
      <trkpt lat="43.1815" lon="2.03913">
        <ele>301.99</ele>
        <time>2014-09-22T08:07:55Z</time>
      </trkpt>
      <trkpt lat="43.18154" lon="2.03912">
        <ele>302.47</ele>
        <time>2014-09-22T08:07:56Z</time>
      </trkpt>
      <trkpt lat="43.18174" lon="2.03903">
        <ele>303.43</ele>
        <time>2014-09-22T08:08:01Z</time>
      </trkpt>
      <trkpt lat="43.18226" lon="2.03881">
        <ele>305.84</ele>
        <time>2014-09-22T08:08:13Z</time>
      </trkpt>
      <trkpt lat="43.18289" lon="2.03856">
        <ele>310.16</ele>
        <time>2014-09-22T08:08:28Z</time>
      </trkpt>
      <trkpt lat="43.18354" lon="2.03816">
        <ele>314.01</ele>
        <time>2014-09-22T08:08:44Z</time>
      </trkpt>
      <trkpt lat="43.18413" lon="2.03731">
        <ele>318.33</ele>
        <time>2014-09-22T08:09:03Z</time>
      </trkpt>
      <trkpt lat="43.18464" lon="2.03659">
        <ele>320.74</ele>
        <time>2014-09-22T08:09:20Z</time>
      </trkpt>
      <trkpt lat="43.18483" lon="2.03649">
        <ele>320.74</ele>
        <time>2014-09-22T08:09:25Z</time>
      </trkpt>
      <trkpt lat="43.18508" lon="2.03641">
        <ele>320.74</ele>
        <time>2014-09-22T08:09:31Z</time>
      </trkpt>
      <trkpt lat="43.18512" lon="2.03639">
        <ele>321.22</ele>
        <time>2014-09-22T08:09:32Z</time>
      </trkpt>
      <trkpt lat="43.18516" lon="2.03636">
        <ele>321.22</ele>
        <time>2014-09-22T08:09:33Z</time>
      </trkpt>
      <trkpt lat="43.18519" lon="2.03633">
        <ele>321.22</ele>
        <time>2014-09-22T08:09:34Z</time>
      </trkpt>
      <trkpt lat="43.18523" lon="2.03629">
        <ele>321.22</ele>
        <time>2014-09-22T08:09:35Z</time>
      </trkpt>
      <trkpt lat="43.18526" lon="2.03625">
        <ele>321.7</ele>
        <time>2014-09-22T08:09:36Z</time>
      </trkpt>
      <trkpt lat="43.18529" lon="2.0362">
        <ele>321.7</ele>
        <time>2014-09-22T08:09:37Z</time>
      </trkpt>
      <trkpt lat="43.18531" lon="2.03616">
        <ele>321.7</ele>
        <time>2014-09-22T08:09:38Z</time>
      </trkpt>
      <trkpt lat="43.18533" lon="2.03611">
        <ele>321.7</ele>
        <time>2014-09-22T08:09:39Z</time>
      </trkpt>
      <trkpt lat="43.18539" lon="2.03568">
        <ele>321.7</ele>
        <time>2014-09-22T08:09:47Z</time>
      </trkpt>
      <trkpt lat="43.1853" lon="2.03533">
        <ele>322.18</ele>
        <time>2014-09-22T08:09:53Z</time>
      </trkpt>
      <trkpt lat="43.18529" lon="2.03527">
        <ele>322.18</ele>
        <time>2014-09-22T08:09:54Z</time>
      </trkpt>
      <trkpt lat="43.18529" lon="2.03521">
        <ele>322.66</ele>
        <time>2014-09-22T08:09:55Z</time>
      </trkpt>
      <trkpt lat="43.18528" lon="2.03515">
        <ele>322.66</ele>
        <time>2014-09-22T08:09:56Z</time>
      </trkpt>
      <trkpt lat="43.18528" lon="2.0351">
        <ele>322.66</ele>
        <time>2014-09-22T08:09:57Z</time>
      </trkpt>
      <trkpt lat="43.18528" lon="2.03505">
        <ele>322.66</ele>
        <time>2014-09-22T08:09:58Z</time>
      </trkpt>
      <trkpt lat="43.18517" lon="2.03452">
        <ele>322.66</ele>
        <time>2014-09-22T08:10:08Z</time>
      </trkpt>
      <trkpt lat="43.18514" lon="2.03448">
        <ele>323.14</ele>
        <time>2014-09-22T08:10:09Z</time>
      </trkpt>
      <trkpt lat="43.1851" lon="2.03446">
        <ele>323.14</ele>
        <time>2014-09-22T08:10:10Z</time>
      </trkpt>
      <trkpt lat="43.18495" lon="2.03438">
        <ele>325.06</ele>
        <time>2014-09-22T08:10:13Z</time>
      </trkpt>
      <trkpt lat="43.1843" lon="2.03424">
        <ele>331.79</ele>
        <time>2014-09-22T08:10:28Z</time>
      </trkpt>
      <trkpt lat="43.18418" lon="2.03423">
        <ele>332.27</ele>
        <time>2014-09-22T08:10:31Z</time>
      </trkpt>
      <trkpt lat="43.18413" lon="2.03423">
        <ele>332.27</ele>
        <time>2014-09-22T08:10:32Z</time>
      </trkpt>
      <trkpt lat="43.18329" lon="2.03416">
        <ele>338.04</ele>
        <time>2014-09-22T08:10:52Z</time>
      </trkpt>
      <trkpt lat="43.18309" lon="2.03398">
        <ele>339</ele>
        <time>2014-09-22T08:10:58Z</time>
      </trkpt>
      <trkpt lat="43.18307" lon="2.03393">
        <ele>339.48</ele>
        <time>2014-09-22T08:10:59Z</time>
      </trkpt>
      <trkpt lat="43.18305" lon="2.03389">
        <ele>339.48</ele>
        <time>2014-09-22T08:11:00Z</time>
      </trkpt>
      <trkpt lat="43.18297" lon="2.03317">
        <ele>343.33</ele>
        <time>2014-09-22T08:11:13Z</time>
      </trkpt>
      <trkpt lat="43.18296" lon="2.03312">
        <ele>344.29</ele>
        <time>2014-09-22T08:11:14Z</time>
      </trkpt>
      <trkpt lat="43.18273" lon="2.03214">
        <ele>349.1</ele>
        <time>2014-09-22T08:11:31Z</time>
      </trkpt>
      <trkpt lat="43.18267" lon="2.03191">
        <ele>350.06</ele>
        <time>2014-09-22T08:11:35Z</time>
      </trkpt>
      <trkpt lat="43.18267" lon="2.03184">
        <ele>350.54</ele>
        <time>2014-09-22T08:11:36Z</time>
      </trkpt>
      <trkpt lat="43.18267" lon="2.03178">
        <ele>350.54</ele>
        <time>2014-09-22T08:11:37Z</time>
      </trkpt>
      <trkpt lat="43.18267" lon="2.03171">
        <ele>351.02</ele>
        <time>2014-09-22T08:11:38Z</time>
      </trkpt>
      <trkpt lat="43.18269" lon="2.03165">
        <ele>351.02</ele>
        <time>2014-09-22T08:11:39Z</time>
      </trkpt>
      <trkpt lat="43.1827" lon="2.0316">
        <ele>351.02</ele>
        <time>2014-09-22T08:11:40Z</time>
      </trkpt>
      <trkpt lat="43.18271" lon="2.03154">
        <ele>351.5</ele>
        <time>2014-09-22T08:11:41Z</time>
      </trkpt>
      <trkpt lat="43.18282" lon="2.0312">
        <ele>351.98</ele>
        <time>2014-09-22T08:11:47Z</time>
      </trkpt>
      <trkpt lat="43.18304" lon="2.02988">
        <ele>350.54</ele>
        <time>2014-09-22T08:12:06Z</time>
      </trkpt>
      <trkpt lat="43.18325" lon="2.02853">
        <ele>348.13</ele>
        <time>2014-09-22T08:12:22Z</time>
      </trkpt>
      <trkpt lat="43.18357" lon="2.02663">
        <ele>345.73</ele>
        <time>2014-09-22T08:12:43Z</time>
      </trkpt>
      <trkpt lat="43.18382" lon="2.02498">
        <ele>344.29</ele>
        <time>2014-09-22T08:13:01Z</time>
      </trkpt>
      <trkpt lat="43.18411" lon="2.02308">
        <ele>342.85</ele>
        <time>2014-09-22T08:13:23Z</time>
      </trkpt>
      <trkpt lat="43.18437" lon="2.02136">
        <ele>339.48</ele>
        <time>2014-09-22T08:13:42Z</time>
      </trkpt>
      <trkpt lat="43.18467" lon="2.01948">
        <ele>337.08</ele>
        <time>2014-09-22T08:14:03Z</time>
      </trkpt>
      <trkpt lat="43.18491" lon="2.01783">
        <ele>333.71</ele>
        <time>2014-09-22T08:14:21Z</time>
      </trkpt>
      <trkpt lat="43.18485" lon="2.01665">
        <ele>329.87</ele>
        <time>2014-09-22T08:14:34Z</time>
      </trkpt>
      <trkpt lat="43.18464" lon="2.01501">
        <ele>326.99</ele>
        <time>2014-09-22T08:14:51Z</time>
      </trkpt>
      <trkpt lat="43.18447" lon="2.0137">
        <ele>325.54</ele>
        <time>2014-09-22T08:15:06Z</time>
      </trkpt>
      <trkpt lat="43.18425" lon="2.012">
        <ele>324.1</ele>
        <time>2014-09-22T08:15:24Z</time>
      </trkpt>
      <trkpt lat="43.18415" lon="2.01008">
        <ele>321.7</ele>
        <time>2014-09-22T08:15:44Z</time>
      </trkpt>
      <trkpt lat="43.18413" lon="2.00822">
        <ele>319.78</ele>
        <time>2014-09-22T08:16:03Z</time>
      </trkpt>
      <trkpt lat="43.18411" lon="2.0065">
        <ele>317.85</ele>
        <time>2014-09-22T08:16:21Z</time>
      </trkpt>
      <trkpt lat="43.18408" lon="2.00472">
        <ele>315.45</ele>
        <time>2014-09-22T08:16:39Z</time>
      </trkpt>
      <trkpt lat="43.18404" lon="2.00296">
        <ele>314.49</ele>
        <time>2014-09-22T08:16:57Z</time>
      </trkpt>
      <trkpt lat="43.18382" lon="2.00165">
        <ele>314.49</ele>
        <time>2014-09-22T08:17:11Z</time>
      </trkpt>
      <trkpt lat="43.18362" lon="2.00041">
        <ele>314.97</ele>
        <time>2014-09-22T08:17:25Z</time>
      </trkpt>
      <trkpt lat="43.1838" lon="1.99921">
        <ele>315.45</ele>
        <time>2014-09-22T08:17:38Z</time>
      </trkpt>
      <trkpt lat="43.18417" lon="1.99814">
        <ele>317.85</ele>
        <time>2014-09-22T08:17:52Z</time>
      </trkpt>
      <trkpt lat="43.18488" lon="1.99614">
        <ele>318.33</ele>
        <time>2014-09-22T08:18:16Z</time>
      </trkpt>
      <trkpt lat="43.18521" lon="1.9952">
        <ele>319.3</ele>
        <time>2014-09-22T08:18:28Z</time>
      </trkpt>
      <trkpt lat="43.18529" lon="1.99488">
        <ele>319.3</ele>
        <time>2014-09-22T08:18:32Z</time>
      </trkpt>
      <trkpt lat="43.18533" lon="1.99463">
        <ele>319.3</ele>
        <time>2014-09-22T08:18:35Z</time>
      </trkpt>
      <trkpt lat="43.18534" lon="1.99455">
        <ele>319.3</ele>
        <time>2014-09-22T08:18:36Z</time>
      </trkpt>
      <trkpt lat="43.18531" lon="1.99317">
        <ele>317.37</ele>
        <time>2014-09-22T08:18:51Z</time>
      </trkpt>
      <trkpt lat="43.18532" lon="1.99155">
        <ele>315.93</ele>
        <time>2014-09-22T08:19:08Z</time>
      </trkpt>
      <trkpt lat="43.18552" lon="1.99019">
        <ele>316.41</ele>
        <time>2014-09-22T08:19:24Z</time>
      </trkpt>
      <trkpt lat="43.18552" lon="1.9901">
        <ele>316.41</ele>
        <time>2014-09-22T08:19:25Z</time>
      </trkpt>
      <trkpt lat="43.18539" lon="1.98847">
        <ele>314.97</ele>
        <time>2014-09-22T08:19:43Z</time>
      </trkpt>
      <trkpt lat="43.18524" lon="1.98702">
        <ele>315.45</ele>
        <time>2014-09-22T08:20:00Z</time>
      </trkpt>
      <trkpt lat="43.18516" lon="1.98674">
        <ele>315.93</ele>
        <time>2014-09-22T08:20:04Z</time>
      </trkpt>
      <trkpt lat="43.18477" lon="1.98564">
        <ele>316.89</ele>
        <time>2014-09-22T08:20:18Z</time>
      </trkpt>
      <trkpt lat="43.18444" lon="1.98422">
        <ele>316.41</ele>
        <time>2014-09-22T08:20:34Z</time>
      </trkpt>
      <trkpt lat="43.18447" lon="1.98228">
        <ele>312.57</ele>
        <time>2014-09-22T08:20:53Z</time>
      </trkpt>
      <trkpt lat="43.1845" lon="1.98014">
        <ele>309.68</ele>
        <time>2014-09-22T08:21:14Z</time>
      </trkpt>
      <trkpt lat="43.18453" lon="1.97829">
        <ele>310.64</ele>
        <time>2014-09-22T08:21:34Z</time>
      </trkpt>
      <trkpt lat="43.18456" lon="1.97695">
        <ele>311.12</ele>
        <time>2014-09-22T08:21:49Z</time>
      </trkpt>
      <trkpt lat="43.18456" lon="1.97537">
        <ele>310.64</ele>
        <time>2014-09-22T08:22:05Z</time>
      </trkpt>
      <trkpt lat="43.18456" lon="1.97356">
        <ele>311.12</ele>
        <time>2014-09-22T08:22:24Z</time>
      </trkpt>
      <trkpt lat="43.18456" lon="1.97243">
        <ele>313.05</ele>
        <time>2014-09-22T08:22:38Z</time>
      </trkpt>
      <trkpt lat="43.18456" lon="1.97193">
        <ele>314.49</ele>
        <time>2014-09-22T08:22:45Z</time>
      </trkpt>
      <trkpt lat="43.18456" lon="1.97157">
        <ele>315.93</ele>
        <time>2014-09-22T08:22:50Z</time>
      </trkpt>
      <trkpt lat="43.18455" lon="1.9715">
        <ele>316.41</ele>
        <time>2014-09-22T08:22:51Z</time>
      </trkpt>
      <trkpt lat="43.18455" lon="1.97142">
        <ele>316.89</ele>
        <time>2014-09-22T08:22:52Z</time>
      </trkpt>
      <trkpt lat="43.18455" lon="1.97114">
        <ele>318.33</ele>
        <time>2014-09-22T08:22:56Z</time>
      </trkpt>
      <trkpt lat="43.18474" lon="1.97012">
        <ele>322.66</ele>
        <time>2014-09-22T08:23:11Z</time>
      </trkpt>
      <trkpt lat="43.185" lon="1.96901">
        <ele>326.02</ele>
        <time>2014-09-22T08:23:28Z</time>
      </trkpt>
      <trkpt lat="43.18501" lon="1.96894">
        <ele>326.02</ele>
        <time>2014-09-22T08:23:29Z</time>
      </trkpt>
      <trkpt lat="43.18501" lon="1.9688">
        <ele>326.02</ele>
        <time>2014-09-22T08:23:31Z</time>
      </trkpt>
      <trkpt lat="43.18501" lon="1.96874">
        <ele>326.02</ele>
        <time>2014-09-22T08:23:32Z</time>
      </trkpt>
      <trkpt lat="43.18483" lon="1.96747">
        <ele>326.02</ele>
        <time>2014-09-22T08:23:49Z</time>
      </trkpt>
      <trkpt lat="43.18458" lon="1.96584">
        <ele>321.7</ele>
        <time>2014-09-22T08:24:07Z</time>
      </trkpt>
      <trkpt lat="43.18448" lon="1.96434">
        <ele>318.33</ele>
        <time>2014-09-22T08:24:22Z</time>
      </trkpt>
      <trkpt lat="43.18457" lon="1.962">
        <ele>311.12</ele>
        <time>2014-09-22T08:24:43Z</time>
      </trkpt>
      <trkpt lat="43.1845" lon="1.9597">
        <ele>305.36</ele>
        <time>2014-09-22T08:25:03Z</time>
      </trkpt>
      <trkpt lat="43.18445" lon="1.95778">
        <ele>301.51</ele>
        <time>2014-09-22T08:25:20Z</time>
      </trkpt>
      <trkpt lat="43.18446" lon="1.95737">
        <ele>301.51</ele>
        <time>2014-09-22T08:25:24Z</time>
      </trkpt>
      <trkpt lat="43.18474" lon="1.95576">
        <ele>299.59</ele>
        <time>2014-09-22T08:25:40Z</time>
      </trkpt>
      <trkpt lat="43.18507" lon="1.95399">
        <ele>298.15</ele>
        <time>2014-09-22T08:25:58Z</time>
      </trkpt>
      <trkpt lat="43.18539" lon="1.95261">
        <ele>297.67</ele>
        <time>2014-09-22T08:26:13Z</time>
      </trkpt>
      <trkpt lat="43.186" lon="1.9516">
        <ele>298.15</ele>
        <time>2014-09-22T08:26:27Z</time>
      </trkpt>
      <trkpt lat="43.18624" lon="1.95028">
        <ele>298.15</ele>
        <time>2014-09-22T08:26:41Z</time>
      </trkpt>
      <trkpt lat="43.18639" lon="1.94898">
        <ele>297.67</ele>
        <time>2014-09-22T08:26:55Z</time>
      </trkpt>
      <trkpt lat="43.18642" lon="1.9489">
        <ele>297.67</ele>
        <time>2014-09-22T08:26:56Z</time>
      </trkpt>
      <trkpt lat="43.18648" lon="1.94885">
        <ele>297.67</ele>
        <time>2014-09-22T08:26:57Z</time>
      </trkpt>
      <trkpt lat="43.18655" lon="1.94883">
        <ele>297.18</ele>
        <time>2014-09-22T08:26:58Z</time>
      </trkpt>
      <trkpt lat="43.1866" lon="1.94884">
        <ele>297.18</ele>
        <time>2014-09-22T08:26:59Z</time>
      </trkpt>
      <trkpt lat="43.18667" lon="1.94886">
        <ele>297.18</ele>
        <time>2014-09-22T08:27:00Z</time>
      </trkpt>
      <trkpt lat="43.18674" lon="1.94888">
        <ele>297.67</ele>
        <time>2014-09-22T08:27:01Z</time>
      </trkpt>
      <trkpt lat="43.18777" lon="1.94923">
        <ele>298.63</ele>
        <time>2014-09-22T08:27:17Z</time>
      </trkpt>
      <trkpt lat="43.18871" lon="1.94952">
        <ele>300.07</ele>
        <time>2014-09-22T08:27:32Z</time>
      </trkpt>
      <trkpt lat="43.18954" lon="1.94977">
        <ele>301.03</ele>
        <time>2014-09-22T08:27:46Z</time>
      </trkpt>
      <trkpt lat="43.1896" lon="1.94978">
        <ele>301.51</ele>
        <time>2014-09-22T08:27:47Z</time>
      </trkpt>
      <trkpt lat="43.18966" lon="1.94978">
        <ele>301.51</ele>
        <time>2014-09-22T08:27:48Z</time>
      </trkpt>
      <trkpt lat="43.18972" lon="1.94977">
        <ele>301.51</ele>
        <time>2014-09-22T08:27:49Z</time>
      </trkpt>
      <trkpt lat="43.18978" lon="1.94976">
        <ele>301.51</ele>
        <time>2014-09-22T08:27:50Z</time>
      </trkpt>
      <trkpt lat="43.18984" lon="1.94973">
        <ele>301.51</ele>
        <time>2014-09-22T08:27:51Z</time>
      </trkpt>
      <trkpt lat="43.1899" lon="1.9497">
        <ele>301.51</ele>
        <time>2014-09-22T08:27:52Z</time>
      </trkpt>
      <trkpt lat="43.18995" lon="1.94965">
        <ele>301.51</ele>
        <time>2014-09-22T08:27:53Z</time>
      </trkpt>
      <trkpt lat="43.19001" lon="1.9496">
        <ele>301.51</ele>
        <time>2014-09-22T08:27:54Z</time>
      </trkpt>
      <trkpt lat="43.19005" lon="1.94955">
        <ele>301.99</ele>
        <time>2014-09-22T08:27:55Z</time>
      </trkpt>
      <trkpt lat="43.19078" lon="1.94871">
        <ele>305.36</ele>
        <time>2014-09-22T08:28:11Z</time>
      </trkpt>
      <trkpt lat="43.19155" lon="1.94813">
        <ele>307.76</ele>
        <time>2014-09-22T08:28:26Z</time>
      </trkpt>
      <trkpt lat="43.19213" lon="1.94775">
        <ele>309.68</ele>
        <time>2014-09-22T08:28:38Z</time>
      </trkpt>
      <trkpt lat="43.19218" lon="1.94772">
        <ele>310.16</ele>
        <time>2014-09-22T08:28:39Z</time>
      </trkpt>
      <trkpt lat="43.19237" lon="1.94758">
        <ele>311.12</ele>
        <time>2014-09-22T08:28:43Z</time>
      </trkpt>
      <trkpt lat="43.19247" lon="1.94752">
        <ele>311.6</ele>
        <time>2014-09-22T08:28:45Z</time>
      </trkpt>
      <trkpt lat="43.19257" lon="1.94745">
        <ele>312.09</ele>
        <time>2014-09-22T08:28:47Z</time>
      </trkpt>
      <trkpt lat="43.19267" lon="1.94738">
        <ele>312.57</ele>
        <time>2014-09-22T08:28:49Z</time>
      </trkpt>
      <trkpt lat="43.19343" lon="1.94699">
        <ele>315.93</ele>
        <time>2014-09-22T08:29:04Z</time>
      </trkpt>
      <trkpt lat="43.1936" lon="1.94698">
        <ele>316.41</ele>
        <time>2014-09-22T08:29:07Z</time>
      </trkpt>
      <trkpt lat="43.19366" lon="1.947">
        <ele>316.89</ele>
        <time>2014-09-22T08:29:08Z</time>
      </trkpt>
      <trkpt lat="43.19377" lon="1.94703">
        <ele>316.89</ele>
        <time>2014-09-22T08:29:10Z</time>
      </trkpt>
      <trkpt lat="43.19383" lon="1.94706">
        <ele>316.89</ele>
        <time>2014-09-22T08:29:11Z</time>
      </trkpt>
      <trkpt lat="43.19387" lon="1.94709">
        <ele>316.89</ele>
        <time>2014-09-22T08:29:12Z</time>
      </trkpt>
      <trkpt lat="43.19392" lon="1.94712">
        <ele>316.89</ele>
        <time>2014-09-22T08:29:13Z</time>
      </trkpt>
      <trkpt lat="43.19398" lon="1.94715">
        <ele>316.89</ele>
        <time>2014-09-22T08:29:14Z</time>
      </trkpt>
      <trkpt lat="43.19446" lon="1.94747">
        <ele>317.37</ele>
        <time>2014-09-22T08:29:24Z</time>
      </trkpt>
      <trkpt lat="43.19485" lon="1.94776">
        <ele>319.78</ele>
        <time>2014-09-22T08:29:32Z</time>
      </trkpt>
      <trkpt lat="43.1949" lon="1.94779">
        <ele>319.78</ele>
        <time>2014-09-22T08:29:33Z</time>
      </trkpt>
      <trkpt lat="43.19496" lon="1.9478">
        <ele>320.26</ele>
        <time>2014-09-22T08:29:34Z</time>
      </trkpt>
      <trkpt lat="43.19501" lon="1.94781">
        <ele>320.26</ele>
        <time>2014-09-22T08:29:35Z</time>
      </trkpt>
      <trkpt lat="43.19507" lon="1.94781">
        <ele>320.26</ele>
        <time>2014-09-22T08:29:36Z</time>
      </trkpt>
      <trkpt lat="43.19584" lon="1.94769">
        <ele>322.66</ele>
        <time>2014-09-22T08:29:50Z</time>
      </trkpt>
      <trkpt lat="43.19594" lon="1.94765">
        <ele>323.14</ele>
        <time>2014-09-22T08:29:52Z</time>
      </trkpt>
      <trkpt lat="43.1963" lon="1.94743">
        <ele>323.62</ele>
        <time>2014-09-22T08:29:59Z</time>
      </trkpt>
      <trkpt lat="43.19635" lon="1.94741">
        <ele>323.62</ele>
        <time>2014-09-22T08:30:00Z</time>
      </trkpt>
      <trkpt lat="43.1964" lon="1.94741">
        <ele>323.62</ele>
        <time>2014-09-22T08:30:01Z</time>
      </trkpt>
      <trkpt lat="43.19646" lon="1.94741">
        <ele>323.62</ele>
        <time>2014-09-22T08:30:02Z</time>
      </trkpt>
      <trkpt lat="43.19651" lon="1.94743">
        <ele>323.62</ele>
        <time>2014-09-22T08:30:03Z</time>
      </trkpt>
      <trkpt lat="43.19657" lon="1.94746">
        <ele>324.1</ele>
        <time>2014-09-22T08:30:04Z</time>
      </trkpt>
      <trkpt lat="43.19662" lon="1.94748">
        <ele>324.1</ele>
        <time>2014-09-22T08:30:05Z</time>
      </trkpt>
      <trkpt lat="43.19667" lon="1.94752">
        <ele>324.1</ele>
        <time>2014-09-22T08:30:06Z</time>
      </trkpt>
      <trkpt lat="43.19672" lon="1.94756">
        <ele>324.58</ele>
        <time>2014-09-22T08:30:07Z</time>
      </trkpt>
      <trkpt lat="43.19694" lon="1.9478">
        <ele>325.06</ele>
        <time>2014-09-22T08:30:14Z</time>
      </trkpt>
      <trkpt lat="43.19696" lon="1.9478">
        <ele>325.54</ele>
        <time>2014-09-22T08:30:15Z</time>
      </trkpt>
      <trkpt lat="43.19698" lon="1.94779">
        <ele>325.06</ele>
        <time>2014-09-22T08:30:16Z</time>
      </trkpt>
      <trkpt lat="43.19699" lon="1.94777">
        <ele>325.06</ele>
        <time>2014-09-22T08:30:17Z</time>
      </trkpt>
      <trkpt lat="43.19701" lon="1.94774">
        <ele>325.06</ele>
        <time>2014-09-22T08:30:18Z</time>
      </trkpt>
      <trkpt lat="43.19702" lon="1.94772">
        <ele>325.06</ele>
        <time>2014-09-22T08:30:19Z</time>
      </trkpt>
      <trkpt lat="43.19707" lon="1.94724">
        <ele>323.62</ele>
        <time>2014-09-22T08:30:29Z</time>
      </trkpt>
      <trkpt lat="43.19702" lon="1.94689">
        <ele>321.7</ele>
        <time>2014-09-22T08:30:34Z</time>
      </trkpt>
      <trkpt lat="43.197" lon="1.94656">
        <ele>319.78</ele>
        <time>2014-09-22T08:30:39Z</time>
      </trkpt>
      <trkpt lat="43.19699" lon="1.9465">
        <ele>319.3</ele>
        <time>2014-09-22T08:30:40Z</time>
      </trkpt>
      <trkpt lat="43.19698" lon="1.94644">
        <ele>318.81</ele>
        <time>2014-09-22T08:30:41Z</time>
      </trkpt>
      <trkpt lat="43.19696" lon="1.94639">
        <ele>318.33</ele>
        <time>2014-09-22T08:30:42Z</time>
      </trkpt>
      <trkpt lat="43.19693" lon="1.94633">
        <ele>318.33</ele>
        <time>2014-09-22T08:30:43Z</time>
      </trkpt>
      <trkpt lat="43.19691" lon="1.94628">
        <ele>317.85</ele>
        <time>2014-09-22T08:30:44Z</time>
      </trkpt>
      <trkpt lat="43.19681" lon="1.94608">
        <ele>317.85</ele>
        <time>2014-09-22T08:30:48Z</time>
      </trkpt>
      <trkpt lat="43.1968" lon="1.94602">
        <ele>318.33</ele>
        <time>2014-09-22T08:30:49Z</time>
      </trkpt>
      <trkpt lat="43.19679" lon="1.94597">
        <ele>318.33</ele>
        <time>2014-09-22T08:30:50Z</time>
      </trkpt>
      <trkpt lat="43.19679" lon="1.94591">
        <ele>318.81</ele>
        <time>2014-09-22T08:30:51Z</time>
      </trkpt>
      <trkpt lat="43.19679" lon="1.94585">
        <ele>318.81</ele>
        <time>2014-09-22T08:30:52Z</time>
      </trkpt>
      <trkpt lat="43.19687" lon="1.94562">
        <ele>319.78</ele>
        <time>2014-09-22T08:30:57Z</time>
      </trkpt>
      <trkpt lat="43.1969" lon="1.94559">
        <ele>320.26</ele>
        <time>2014-09-22T08:30:58Z</time>
      </trkpt>
      <trkpt lat="43.19701" lon="1.94553">
        <ele>320.74</ele>
        <time>2014-09-22T08:31:01Z</time>
      </trkpt>
      <trkpt lat="43.19733" lon="1.94522">
        <ele>325.06</ele>
        <time>2014-09-22T08:31:12Z</time>
      </trkpt>
      <trkpt lat="43.19754" lon="1.94463">
        <ele>329.39</ele>
        <time>2014-09-22T08:31:23Z</time>
      </trkpt>
      <trkpt lat="43.19756" lon="1.94458">
        <ele>329.87</ele>
        <time>2014-09-22T08:31:24Z</time>
      </trkpt>
      <trkpt lat="43.19758" lon="1.94453">
        <ele>329.87</ele>
        <time>2014-09-22T08:31:25Z</time>
      </trkpt>
      <trkpt lat="43.19779" lon="1.94397">
        <ele>334.68</ele>
        <time>2014-09-22T08:31:38Z</time>
      </trkpt>
      <trkpt lat="43.19802" lon="1.94351">
        <ele>338.52</ele>
        <time>2014-09-22T08:31:50Z</time>
      </trkpt>
      <trkpt lat="43.19836" lon="1.94288">
        <ele>341.89</ele>
        <time>2014-09-22T08:32:07Z</time>
      </trkpt>
      <trkpt lat="43.19869" lon="1.94267">
        <ele>344.29</ele>
        <time>2014-09-22T08:32:19Z</time>
      </trkpt>
      <trkpt lat="43.19912" lon="1.9426">
        <ele>346.69</ele>
        <time>2014-09-22T08:32:33Z</time>
      </trkpt>
      <trkpt lat="43.19949" lon="1.9428">
        <ele>351.5</ele>
        <time>2014-09-22T08:32:46Z</time>
      </trkpt>
      <trkpt lat="43.19976" lon="1.94335">
        <ele>356.31</ele>
        <time>2014-09-22T08:33:01Z</time>
      </trkpt>
      <trkpt lat="43.20017" lon="1.94373">
        <ele>361.59</ele>
        <time>2014-09-22T08:33:17Z</time>
      </trkpt>
      <trkpt lat="43.20064" lon="1.94385">
        <ele>366.88</ele>
        <time>2014-09-22T08:33:33Z</time>
      </trkpt>
      <trkpt lat="43.201" lon="1.94365">
        <ele>371.69</ele>
        <time>2014-09-22T08:33:46Z</time>
      </trkpt>
      <trkpt lat="43.20136" lon="1.94329">
        <ele>376.49</ele>
        <time>2014-09-22T08:34:01Z</time>
      </trkpt>
      <trkpt lat="43.2018" lon="1.943">
        <ele>381.3</ele>
        <time>2014-09-22T08:34:16Z</time>
      </trkpt>
      <trkpt lat="43.20225" lon="1.94315">
        <ele>384.18</ele>
        <time>2014-09-22T08:34:30Z</time>
      </trkpt>
      <trkpt lat="43.20272" lon="1.94337">
        <ele>388.03</ele>
        <time>2014-09-22T08:34:45Z</time>
      </trkpt>
      <trkpt lat="43.20279" lon="1.94332">
        <ele>388.03</ele>
        <time>2014-09-22T08:34:47Z</time>
      </trkpt>
      <trkpt lat="43.20282" lon="1.94329">
        <ele>388.03</ele>
        <time>2014-09-22T08:34:48Z</time>
      </trkpt>
      <trkpt lat="43.20285" lon="1.94325">
        <ele>388.51</ele>
        <time>2014-09-22T08:34:49Z</time>
      </trkpt>
      <trkpt lat="43.20293" lon="1.94312">
        <ele>388.51</ele>
        <time>2014-09-22T08:34:52Z</time>
      </trkpt>
      <trkpt lat="43.20318" lon="1.94228">
        <ele>388.99</ele>
        <time>2014-09-22T08:35:07Z</time>
      </trkpt>
      <trkpt lat="43.20349" lon="1.94124">
        <ele>389.95</ele>
        <time>2014-09-22T08:35:24Z</time>
      </trkpt>
      <trkpt lat="43.20379" lon="1.94032">
        <ele>393.32</ele>
        <time>2014-09-22T08:35:40Z</time>
      </trkpt>
      <trkpt lat="43.20404" lon="1.93986">
        <ele>392.84</ele>
        <time>2014-09-22T08:35:47Z</time>
      </trkpt>
      <trkpt lat="43.20407" lon="1.93979">
        <ele>392.36</ele>
        <time>2014-09-22T08:35:48Z</time>
      </trkpt>
      <trkpt lat="43.20409" lon="1.93971">
        <ele>392.36</ele>
        <time>2014-09-22T08:35:49Z</time>
      </trkpt>
      <trkpt lat="43.20412" lon="1.93963">
        <ele>391.87</ele>
        <time>2014-09-22T08:35:50Z</time>
      </trkpt>
      <trkpt lat="43.20413" lon="1.93953">
        <ele>391.87</ele>
        <time>2014-09-22T08:35:51Z</time>
      </trkpt>
      <trkpt lat="43.20414" lon="1.93944">
        <ele>391.39</ele>
        <time>2014-09-22T08:35:52Z</time>
      </trkpt>
      <trkpt lat="43.2042" lon="1.9389">
        <ele>388.99</ele>
        <time>2014-09-22T08:35:57Z</time>
      </trkpt>
      <trkpt lat="43.20423" lon="1.93878">
        <ele>388.51</ele>
        <time>2014-09-22T08:35:58Z</time>
      </trkpt>
      <trkpt lat="43.20426" lon="1.93865">
        <ele>388.03</ele>
        <time>2014-09-22T08:35:59Z</time>
      </trkpt>
      <trkpt lat="43.20434" lon="1.93839">
        <ele>387.07</ele>
        <time>2014-09-22T08:36:01Z</time>
      </trkpt>
      <trkpt lat="43.20437" lon="1.93826">
        <ele>386.11</ele>
        <time>2014-09-22T08:36:02Z</time>
      </trkpt>
      <trkpt lat="43.20439" lon="1.93811">
        <ele>385.63</ele>
        <time>2014-09-22T08:36:03Z</time>
      </trkpt>
      <trkpt lat="43.2044" lon="1.93796">
        <ele>385.15</ele>
        <time>2014-09-22T08:36:04Z</time>
      </trkpt>
      <trkpt lat="43.2044" lon="1.93782">
        <ele>384.18</ele>
        <time>2014-09-22T08:36:05Z</time>
      </trkpt>
      <trkpt lat="43.20444" lon="1.93729">
        <ele>382.74</ele>
        <time>2014-09-22T08:36:09Z</time>
      </trkpt>
      <trkpt lat="43.20447" lon="1.93717">
        <ele>382.74</ele>
        <time>2014-09-22T08:36:10Z</time>
      </trkpt>
      <trkpt lat="43.20451" lon="1.93706">
        <ele>382.26</ele>
        <time>2014-09-22T08:36:11Z</time>
      </trkpt>
      <trkpt lat="43.205" lon="1.93594">
        <ele>379.86</ele>
        <time>2014-09-22T08:36:23Z</time>
      </trkpt>
      <trkpt lat="43.20567" lon="1.9349">
        <ele>374.57</ele>
        <time>2014-09-22T08:36:35Z</time>
      </trkpt>
      <trkpt lat="43.20606" lon="1.93436">
        <ele>369.28</ele>
        <time>2014-09-22T08:36:40Z</time>
      </trkpt>
      <trkpt lat="43.20618" lon="1.93426">
        <ele>367.84</ele>
        <time>2014-09-22T08:36:41Z</time>
      </trkpt>
      <trkpt lat="43.20627" lon="1.93419">
        <ele>366.88</ele>
        <time>2014-09-22T08:36:42Z</time>
      </trkpt>
      <trkpt lat="43.20715" lon="1.93358">
        <ele>357.75</ele>
        <time>2014-09-22T08:36:50Z</time>
      </trkpt>
      <trkpt lat="43.20724" lon="1.93345">
        <ele>356.79</ele>
        <time>2014-09-22T08:36:51Z</time>
      </trkpt>
      <trkpt lat="43.20732" lon="1.93331">
        <ele>355.83</ele>
        <time>2014-09-22T08:36:52Z</time>
      </trkpt>
      <trkpt lat="43.20798" lon="1.93158">
        <ele>347.17</ele>
        <time>2014-09-22T08:37:04Z</time>
      </trkpt>
      <trkpt lat="43.20803" lon="1.93149">
        <ele>346.69</ele>
        <time>2014-09-22T08:37:05Z</time>
      </trkpt>
      <trkpt lat="43.2081" lon="1.93142">
        <ele>345.73</ele>
        <time>2014-09-22T08:37:06Z</time>
      </trkpt>
      <trkpt lat="43.20817" lon="1.93138">
        <ele>345.25</ele>
        <time>2014-09-22T08:37:07Z</time>
      </trkpt>
      <trkpt lat="43.20825" lon="1.93135">
        <ele>344.77</ele>
        <time>2014-09-22T08:37:08Z</time>
      </trkpt>
      <trkpt lat="43.20833" lon="1.93133">
        <ele>344.29</ele>
        <time>2014-09-22T08:37:09Z</time>
      </trkpt>
      <trkpt lat="43.20839" lon="1.9313">
        <ele>343.81</ele>
        <time>2014-09-22T08:37:10Z</time>
      </trkpt>
      <trkpt lat="43.20846" lon="1.93126">
        <ele>343.33</ele>
        <time>2014-09-22T08:37:11Z</time>
      </trkpt>
      <trkpt lat="43.20852" lon="1.93121">
        <ele>342.85</ele>
        <time>2014-09-22T08:37:12Z</time>
      </trkpt>
      <trkpt lat="43.20858" lon="1.93115">
        <ele>341.89</ele>
        <time>2014-09-22T08:37:13Z</time>
      </trkpt>
      <trkpt lat="43.20862" lon="1.93109">
        <ele>340.92</ele>
        <time>2014-09-22T08:37:14Z</time>
      </trkpt>
      <trkpt lat="43.20866" lon="1.93104">
        <ele>340.44</ele>
        <time>2014-09-22T08:37:15Z</time>
      </trkpt>
      <trkpt lat="43.20874" lon="1.93091">
        <ele>338.52</ele>
        <time>2014-09-22T08:37:17Z</time>
      </trkpt>
      <trkpt lat="43.20877" lon="1.93086">
        <ele>338.04</ele>
        <time>2014-09-22T08:37:18Z</time>
      </trkpt>
      <trkpt lat="43.2088" lon="1.93081">
        <ele>337.08</ele>
        <time>2014-09-22T08:37:19Z</time>
      </trkpt>
      <trkpt lat="43.20886" lon="1.9307">
        <ele>332.75</ele>
        <time>2014-09-22T08:37:28Z</time>
      </trkpt>
      <trkpt lat="43.20885" lon="1.9307">
        <ele>334.2</ele>
        <time>2014-09-22T08:38:02Z</time>
      </trkpt>
      <trkpt lat="43.20884" lon="1.9307">
        <ele>337.56</ele>
        <time>2014-09-22T08:38:41Z</time>
      </trkpt>
      <trkpt lat="43.20884" lon="1.93069">
        <ele>337.56</ele>
        <time>2014-09-22T08:38:48Z</time>
      </trkpt>
      <trkpt lat="43.20885" lon="1.93067">
        <ele>337.56</ele>
        <time>2014-09-22T08:38:49Z</time>
      </trkpt>
      <trkpt lat="43.2089" lon="1.93007">
        <ele>335.64</ele>
        <time>2014-09-22T08:38:57Z</time>
      </trkpt>
      <trkpt lat="43.20885" lon="1.9295">
        <ele>330.35</ele>
        <time>2014-09-22T08:39:06Z</time>
      </trkpt>
      <trkpt lat="43.20884" lon="1.92949">
        <ele>330.35</ele>
        <time>2014-09-22T08:39:07Z</time>
      </trkpt>
      <trkpt lat="43.20882" lon="1.92948">
        <ele>329.87</ele>
        <time>2014-09-22T08:39:08Z</time>
      </trkpt>
      <trkpt lat="43.20877" lon="1.92946">
        <ele>326.5</ele>
        <time>2014-09-22T08:39:19Z</time>
      </trkpt>
      <trkpt lat="43.20878" lon="1.92945">
        <ele>326.5</ele>
        <time>2014-09-22T08:39:20Z</time>
      </trkpt>
      <trkpt lat="43.20881" lon="1.92944">
        <ele>326.02</ele>
        <time>2014-09-22T08:39:21Z</time>
      </trkpt>
      <trkpt lat="43.20882" lon="1.92944">
        <ele>326.02</ele>
        <time>2014-09-22T08:39:22Z</time>
      </trkpt>
      <trkpt lat="43.20885" lon="1.92942">
        <ele>325.54</ele>
        <time>2014-09-22T08:39:23Z</time>
      </trkpt>
      <trkpt lat="43.20886" lon="1.92938">
        <ele>325.54</ele>
        <time>2014-09-22T08:39:24Z</time>
      </trkpt>
      <trkpt lat="43.20887" lon="1.92932">
        <ele>325.06</ele>
        <time>2014-09-22T08:39:25Z</time>
      </trkpt>
      <trkpt lat="43.20887" lon="1.92925">
        <ele>324.58</ele>
        <time>2014-09-22T08:39:26Z</time>
      </trkpt>
      <trkpt lat="43.20886" lon="1.92917">
        <ele>324.58</ele>
        <time>2014-09-22T08:39:27Z</time>
      </trkpt>
      <trkpt lat="43.20883" lon="1.92877">
        <ele>322.66</ele>
        <time>2014-09-22T08:39:31Z</time>
      </trkpt>
      <trkpt lat="43.20884" lon="1.92867">
        <ele>322.18</ele>
        <time>2014-09-22T08:39:32Z</time>
      </trkpt>
      <trkpt lat="43.20887" lon="1.92857">
        <ele>321.7</ele>
        <time>2014-09-22T08:39:33Z</time>
      </trkpt>
      <trkpt lat="43.20893" lon="1.92849">
        <ele>321.22</ele>
        <time>2014-09-22T08:39:34Z</time>
      </trkpt>
      <trkpt lat="43.209" lon="1.92842">
        <ele>320.74</ele>
        <time>2014-09-22T08:39:35Z</time>
      </trkpt>
      <trkpt lat="43.20906" lon="1.92837">
        <ele>320.26</ele>
        <time>2014-09-22T08:39:36Z</time>
      </trkpt>
      <trkpt lat="43.20975" lon="1.9277">
        <ele>316.89</ele>
        <time>2014-09-22T08:39:48Z</time>
      </trkpt>
      <trkpt lat="43.20979" lon="1.92765">
        <ele>316.41</ele>
        <time>2014-09-22T08:39:49Z</time>
      </trkpt>
      <trkpt lat="43.20983" lon="1.92761">
        <ele>316.41</ele>
        <time>2014-09-22T08:39:50Z</time>
      </trkpt>
      <trkpt lat="43.20987" lon="1.92756">
        <ele>316.41</ele>
        <time>2014-09-22T08:39:51Z</time>
      </trkpt>
      <trkpt lat="43.20999" lon="1.92732">
        <ele>315.93</ele>
        <time>2014-09-22T08:40:00Z</time>
      </trkpt>
      <trkpt lat="43.21" lon="1.92731">
        <ele>314.49</ele>
        <time>2014-09-22T08:40:14Z</time>
      </trkpt>
      <trkpt lat="43.20996" lon="1.92732">
        <ele>316.89</ele>
        <time>2014-09-22T08:40:48Z</time>
      </trkpt>
      <trkpt lat="43.20997" lon="1.92732">
        <ele>317.37</ele>
        <time>2014-09-22T08:41:28Z</time>
      </trkpt>
      <trkpt lat="43.21001" lon="1.9273">
        <ele>312.09</ele>
        <time>2014-09-22T08:42:04Z</time>
      </trkpt>
      <trkpt lat="43.21002" lon="1.9273">
        <ele>313.53</ele>
        <time>2014-09-22T08:42:12Z</time>
      </trkpt>
      <trkpt lat="43.21004" lon="1.92729">
        <ele>313.53</ele>
        <time>2014-09-22T08:42:13Z</time>
      </trkpt>
      <trkpt lat="43.21023" lon="1.92708">
        <ele>314.49</ele>
        <time>2014-09-22T08:42:21Z</time>
      </trkpt>
      <trkpt lat="43.21033" lon="1.92696">
        <ele>314.97</ele>
        <time>2014-09-22T08:42:24Z</time>
      </trkpt>
      <trkpt lat="43.21077" lon="1.92663">
        <ele>316.89</ele>
        <time>2014-09-22T08:42:35Z</time>
      </trkpt>
      <trkpt lat="43.2111" lon="1.92632">
        <ele>317.37</ele>
        <time>2014-09-22T08:42:44Z</time>
      </trkpt>
      <trkpt lat="43.21117" lon="1.92625">
        <ele>317.85</ele>
        <time>2014-09-22T08:42:46Z</time>
      </trkpt>
      <trkpt lat="43.21125" lon="1.92618">
        <ele>317.85</ele>
        <time>2014-09-22T08:42:48Z</time>
      </trkpt>
      <trkpt lat="43.21137" lon="1.92606">
        <ele>317.85</ele>
        <time>2014-09-22T08:42:51Z</time>
      </trkpt>
      <trkpt lat="43.21195" lon="1.9256">
        <ele>318.33</ele>
        <time>2014-09-22T08:43:05Z</time>
      </trkpt>
      <trkpt lat="43.21199" lon="1.92557">
        <ele>318.33</ele>
        <time>2014-09-22T08:43:06Z</time>
      </trkpt>
      <trkpt lat="43.21261" lon="1.92518">
        <ele>318.33</ele>
        <time>2014-09-22T08:43:21Z</time>
      </trkpt>
      <trkpt lat="43.21311" lon="1.92475">
        <ele>318.81</ele>
        <time>2014-09-22T08:43:35Z</time>
      </trkpt>
      <trkpt lat="43.21347" lon="1.92432">
        <ele>318.81</ele>
        <time>2014-09-22T08:43:47Z</time>
      </trkpt>
      <trkpt lat="43.21367" lon="1.92405">
        <ele>320.26</ele>
        <time>2014-09-22T08:43:54Z</time>
      </trkpt>
      <trkpt lat="43.2141" lon="1.92356">
        <ele>330.35</ele>
        <time>2014-09-22T08:44:09Z</time>
      </trkpt>
      <trkpt lat="43.21464" lon="1.92361">
        <ele>340.92</ele>
        <time>2014-09-22T08:44:24Z</time>
      </trkpt>
      <trkpt lat="43.21502" lon="1.92391">
        <ele>352.46</ele>
        <time>2014-09-22T08:44:37Z</time>
      </trkpt>
      <trkpt lat="43.21542" lon="1.92404">
        <ele>358.71</ele>
        <time>2014-09-22T08:44:49Z</time>
      </trkpt>
      <trkpt lat="43.21574" lon="1.92352">
        <ele>359.19</ele>
        <time>2014-09-22T08:45:00Z</time>
      </trkpt>
      <trkpt lat="43.21624" lon="1.92244">
        <ele>353.9</ele>
        <time>2014-09-22T08:45:12Z</time>
      </trkpt>
      <trkpt lat="43.21706" lon="1.92111">
        <ele>344.29</ele>
        <time>2014-09-22T08:45:24Z</time>
      </trkpt>
      <trkpt lat="43.21802" lon="1.91971">
        <ele>337.56</ele>
        <time>2014-09-22T08:45:38Z</time>
      </trkpt>
      <trkpt lat="43.21807" lon="1.9196">
        <ele>337.56</ele>
        <time>2014-09-22T08:45:39Z</time>
      </trkpt>
      <trkpt lat="43.21811" lon="1.91948">
        <ele>337.08</ele>
        <time>2014-09-22T08:45:40Z</time>
      </trkpt>
      <trkpt lat="43.21813" lon="1.91936">
        <ele>336.6</ele>
        <time>2014-09-22T08:45:41Z</time>
      </trkpt>
      <trkpt lat="43.21816" lon="1.91922">
        <ele>336.6</ele>
        <time>2014-09-22T08:45:42Z</time>
      </trkpt>
      <trkpt lat="43.21817" lon="1.91912">
        <ele>336.12</ele>
        <time>2014-09-22T08:45:43Z</time>
      </trkpt>
      <trkpt lat="43.21822" lon="1.91856">
        <ele>334.68</ele>
        <time>2014-09-22T08:45:48Z</time>
      </trkpt>
      <trkpt lat="43.21826" lon="1.91836">
        <ele>334.68</ele>
        <time>2014-09-22T08:45:50Z</time>
      </trkpt>
      <trkpt lat="43.21832" lon="1.91818">
        <ele>334.2</ele>
        <time>2014-09-22T08:45:52Z</time>
      </trkpt>
      <trkpt lat="43.21888" lon="1.91703">
        <ele>329.87</ele>
        <time>2014-09-22T08:46:04Z</time>
      </trkpt>
      <trkpt lat="43.21932" lon="1.91579">
        <ele>325.06</ele>
        <time>2014-09-22T08:46:16Z</time>
      </trkpt>
      <trkpt lat="43.21941" lon="1.91558">
        <ele>324.1</ele>
        <time>2014-09-22T08:46:18Z</time>
      </trkpt>
      <trkpt lat="43.21947" lon="1.91547">
        <ele>324.1</ele>
        <time>2014-09-22T08:46:19Z</time>
      </trkpt>
      <trkpt lat="43.21953" lon="1.91539">
        <ele>324.1</ele>
        <time>2014-09-22T08:46:20Z</time>
      </trkpt>
      <trkpt lat="43.21961" lon="1.91531">
        <ele>324.1</ele>
        <time>2014-09-22T08:46:21Z</time>
      </trkpt>
      <trkpt lat="43.21967" lon="1.91526">
        <ele>324.1</ele>
        <time>2014-09-22T08:46:22Z</time>
      </trkpt>
      <trkpt lat="43.2199" lon="1.91499">
        <ele>324.58</ele>
        <time>2014-09-22T08:46:26Z</time>
      </trkpt>
      <trkpt lat="43.21993" lon="1.91492">
        <ele>324.58</ele>
        <time>2014-09-22T08:46:27Z</time>
      </trkpt>
      <trkpt lat="43.21996" lon="1.91484">
        <ele>324.58</ele>
        <time>2014-09-22T08:46:28Z</time>
      </trkpt>
      <trkpt lat="43.21996" lon="1.91475">
        <ele>324.58</ele>
        <time>2014-09-22T08:46:30Z</time>
      </trkpt>
      <trkpt lat="43.21994" lon="1.91469">
        <ele>324.58</ele>
        <time>2014-09-22T08:46:31Z</time>
      </trkpt>
      <trkpt lat="43.21993" lon="1.91467">
        <ele>325.06</ele>
        <time>2014-09-22T08:46:32Z</time>
      </trkpt>
      <trkpt lat="43.21992" lon="1.91464">
        <ele>325.06</ele>
        <time>2014-09-22T08:46:33Z</time>
      </trkpt>
      <trkpt lat="43.21991" lon="1.91448">
        <ele>325.54</ele>
        <time>2014-09-22T08:46:37Z</time>
      </trkpt>
      <trkpt lat="43.21993" lon="1.91443">
        <ele>326.02</ele>
        <time>2014-09-22T08:46:38Z</time>
      </trkpt>
      <trkpt lat="43.21996" lon="1.91438">
        <ele>326.5</ele>
        <time>2014-09-22T08:46:39Z</time>
      </trkpt>
      <trkpt lat="43.21999" lon="1.91436">
        <ele>326.5</ele>
        <time>2014-09-22T08:46:40Z</time>
      </trkpt>
      <trkpt lat="43.22003" lon="1.91434">
        <ele>326.99</ele>
        <time>2014-09-22T08:46:41Z</time>
      </trkpt>
      <trkpt lat="43.22045" lon="1.91395">
        <ele>331.31</ele>
        <time>2014-09-22T08:46:54Z</time>
      </trkpt>
      <trkpt lat="43.22088" lon="1.91338">
        <ele>335.64</ele>
        <time>2014-09-22T08:47:10Z</time>
      </trkpt>
      <trkpt lat="43.22093" lon="1.9133">
        <ele>336.6</ele>
        <time>2014-09-22T08:47:12Z</time>
      </trkpt>
      <trkpt lat="43.22101" lon="1.91317">
        <ele>338.04</ele>
        <time>2014-09-22T08:47:18Z</time>
      </trkpt>
      <trkpt lat="43.22096" lon="1.91326">
        <ele>338.52</ele>
        <time>2014-09-22T08:47:21Z</time>
      </trkpt>
      <trkpt lat="43.22081" lon="1.91353">
        <ele>338.04</ele>
        <time>2014-09-22T08:47:26Z</time>
      </trkpt>
      <trkpt lat="43.22067" lon="1.91375">
        <ele>337.08</ele>
        <time>2014-09-22T08:47:30Z</time>
      </trkpt>
      <trkpt lat="43.22065" lon="1.91378">
        <ele>337.08</ele>
        <time>2014-09-22T08:47:31Z</time>
      </trkpt>
      <trkpt lat="43.22065" lon="1.91379">
        <ele>337.56</ele>
        <time>2014-09-22T08:47:41Z</time>
      </trkpt>
      <trkpt lat="43.22067" lon="1.91375">
        <ele>337.08</ele>
        <time>2014-09-22T08:48:04Z</time>
      </trkpt>
      <trkpt lat="43.22068" lon="1.91373">
        <ele>336.12</ele>
        <time>2014-09-22T08:48:18Z</time>
      </trkpt>
      <trkpt lat="43.22069" lon="1.91371">
        <ele>336.6</ele>
        <time>2014-09-22T08:48:19Z</time>
      </trkpt>
      <trkpt lat="43.2207" lon="1.91368">
        <ele>336.6</ele>
        <time>2014-09-22T08:48:20Z</time>
      </trkpt>
      <trkpt lat="43.22071" lon="1.91367">
        <ele>336.6</ele>
        <time>2014-09-22T08:48:21Z</time>
      </trkpt>
      <trkpt lat="43.22072" lon="1.91365">
        <ele>336.6</ele>
        <time>2014-09-22T08:48:22Z</time>
      </trkpt>
      <trkpt lat="43.22084" lon="1.91346">
        <ele>338.52</ele>
        <time>2014-09-22T08:48:35Z</time>
      </trkpt>
      <trkpt lat="43.22092" lon="1.91336">
        <ele>339.96</ele>
        <time>2014-09-22T08:48:56Z</time>
      </trkpt>
      <trkpt lat="43.22113" lon="1.913">
        <ele>340.44</ele>
        <time>2014-09-22T08:49:09Z</time>
      </trkpt>
      <trkpt lat="43.22133" lon="1.91263">
        <ele>343.33</ele>
        <time>2014-09-22T08:49:21Z</time>
      </trkpt>
      <trkpt lat="43.22164" lon="1.91236">
        <ele>346.69</ele>
        <time>2014-09-22T08:49:34Z</time>
      </trkpt>
      <trkpt lat="43.2217" lon="1.91232">
        <ele>345.25</ele>
        <time>2014-09-22T08:49:44Z</time>
      </trkpt>
      <trkpt lat="43.22169" lon="1.91232">
        <ele>345.25</ele>
        <time>2014-09-22T08:49:56Z</time>
      </trkpt>
      <trkpt lat="43.22168" lon="1.91233">
        <ele>345.25</ele>
        <time>2014-09-22T08:49:57Z</time>
      </trkpt>
      <trkpt lat="43.22167" lon="1.91234">
        <ele>345.73</ele>
        <time>2014-09-22T08:49:58Z</time>
      </trkpt>
      <trkpt lat="43.22165" lon="1.91237">
        <ele>345.73</ele>
        <time>2014-09-22T08:50:02Z</time>
      </trkpt>
      <trkpt lat="43.22163" lon="1.91238">
        <ele>345.73</ele>
        <time>2014-09-22T08:50:03Z</time>
      </trkpt>
      <trkpt lat="43.2216" lon="1.91239">
        <ele>345.73</ele>
        <time>2014-09-22T08:50:04Z</time>
      </trkpt>
      <trkpt lat="43.22158" lon="1.9124">
        <ele>345.25</ele>
        <time>2014-09-22T08:50:05Z</time>
      </trkpt>
      <trkpt lat="43.22155" lon="1.91242">
        <ele>345.25</ele>
        <time>2014-09-22T08:50:06Z</time>
      </trkpt>
      <trkpt lat="43.22153" lon="1.91244">
        <ele>345.25</ele>
        <time>2014-09-22T08:50:07Z</time>
      </trkpt>
      <trkpt lat="43.22149" lon="1.91246">
        <ele>344.77</ele>
        <time>2014-09-22T08:50:08Z</time>
      </trkpt>
      <trkpt lat="43.22146" lon="1.9125">
        <ele>344.77</ele>
        <time>2014-09-22T08:50:09Z</time>
      </trkpt>
      <trkpt lat="43.22143" lon="1.91255">
        <ele>344.29</ele>
        <time>2014-09-22T08:50:10Z</time>
      </trkpt>
      <trkpt lat="43.2214" lon="1.9126">
        <ele>344.29</ele>
        <time>2014-09-22T08:50:11Z</time>
      </trkpt>
      <trkpt lat="43.22137" lon="1.91266">
        <ele>343.81</ele>
        <time>2014-09-22T08:50:12Z</time>
      </trkpt>
      <trkpt lat="43.2209" lon="1.91343">
        <ele>339.48</ele>
        <time>2014-09-22T08:50:21Z</time>
      </trkpt>
      <trkpt lat="43.22022" lon="1.91423">
        <ele>333.71</ele>
        <time>2014-09-22T08:50:32Z</time>
      </trkpt>
      <trkpt lat="43.21989" lon="1.91446">
        <ele>329.87</ele>
        <time>2014-09-22T08:50:40Z</time>
      </trkpt>
      <trkpt lat="43.21988" lon="1.91446">
        <ele>328.43</ele>
        <time>2014-09-22T08:50:54Z</time>
      </trkpt>
      <trkpt lat="43.21988" lon="1.91449">
        <ele>327.47</ele>
        <time>2014-09-22T08:51:15Z</time>
      </trkpt>
      <trkpt lat="43.21987" lon="1.91451">
        <ele>327.47</ele>
        <time>2014-09-22T08:51:16Z</time>
      </trkpt>
      <trkpt lat="43.21987" lon="1.91453">
        <ele>327.95</ele>
        <time>2014-09-22T08:51:17Z</time>
      </trkpt>
      <trkpt lat="43.21988" lon="1.91456">
        <ele>327.95</ele>
        <time>2014-09-22T08:51:18Z</time>
      </trkpt>
      <trkpt lat="43.2199" lon="1.91459">
        <ele>328.43</ele>
        <time>2014-09-22T08:51:19Z</time>
      </trkpt>
      <trkpt lat="43.21992" lon="1.91461">
        <ele>328.43</ele>
        <time>2014-09-22T08:51:20Z</time>
      </trkpt>
      <trkpt lat="43.22013" lon="1.91488">
        <ele>329.39</ele>
        <time>2014-09-22T08:51:27Z</time>
      </trkpt>
      <trkpt lat="43.22016" lon="1.91493">
        <ele>329.39</ele>
        <time>2014-09-22T08:51:28Z</time>
      </trkpt>
      <trkpt lat="43.2202" lon="1.91498">
        <ele>329.39</ele>
        <time>2014-09-22T08:51:29Z</time>
      </trkpt>
      <trkpt lat="43.22023" lon="1.91502">
        <ele>329.87</ele>
        <time>2014-09-22T08:51:30Z</time>
      </trkpt>
      <trkpt lat="43.22026" lon="1.91507">
        <ele>329.87</ele>
        <time>2014-09-22T08:51:31Z</time>
      </trkpt>
      <trkpt lat="43.22078" lon="1.91573">
        <ele>333.23</ele>
        <time>2014-09-22T08:51:46Z</time>
      </trkpt>
      <trkpt lat="43.22143" lon="1.91655">
        <ele>337.08</ele>
        <time>2014-09-22T08:52:03Z</time>
      </trkpt>
      <trkpt lat="43.22213" lon="1.91743">
        <ele>339.48</ele>
        <time>2014-09-22T08:52:20Z</time>
      </trkpt>
      <trkpt lat="43.22234" lon="1.91766">
        <ele>339.48</ele>
        <time>2014-09-22T08:52:25Z</time>
      </trkpt>
      <trkpt lat="43.22252" lon="1.91779">
        <ele>339.48</ele>
        <time>2014-09-22T08:52:29Z</time>
      </trkpt>
      <trkpt lat="43.223" lon="1.91803">
        <ele>340.92</ele>
        <time>2014-09-22T08:52:39Z</time>
      </trkpt>
      <trkpt lat="43.22305" lon="1.91803">
        <ele>341.41</ele>
        <time>2014-09-22T08:52:40Z</time>
      </trkpt>
      <trkpt lat="43.22326" lon="1.91806">
        <ele>342.85</ele>
        <time>2014-09-22T08:52:44Z</time>
      </trkpt>
      <trkpt lat="43.22331" lon="1.91806">
        <ele>342.85</ele>
        <time>2014-09-22T08:52:45Z</time>
      </trkpt>
      <trkpt lat="43.22377" lon="1.91799">
        <ele>345.73</ele>
        <time>2014-09-22T08:52:54Z</time>
      </trkpt>
      <trkpt lat="43.22382" lon="1.91797">
        <ele>345.73</ele>
        <time>2014-09-22T08:52:55Z</time>
      </trkpt>
      <trkpt lat="43.22463" lon="1.91765">
        <ele>348.62</ele>
        <time>2014-09-22T08:53:11Z</time>
      </trkpt>
      <trkpt lat="43.22473" lon="1.91761">
        <ele>349.1</ele>
        <time>2014-09-22T08:53:13Z</time>
      </trkpt>
      <trkpt lat="43.22518" lon="1.91753">
        <ele>350.06</ele>
        <time>2014-09-22T08:53:22Z</time>
      </trkpt>
      <trkpt lat="43.22523" lon="1.91754">
        <ele>350.54</ele>
        <time>2014-09-22T08:53:23Z</time>
      </trkpt>
      <trkpt lat="43.22528" lon="1.91755">
        <ele>350.54</ele>
        <time>2014-09-22T08:53:24Z</time>
      </trkpt>
      <trkpt lat="43.22548" lon="1.9176">
        <ele>351.5</ele>
        <time>2014-09-22T08:53:28Z</time>
      </trkpt>
      <trkpt lat="43.22553" lon="1.91762">
        <ele>351.5</ele>
        <time>2014-09-22T08:53:29Z</time>
      </trkpt>
      <trkpt lat="43.22621" lon="1.91815">
        <ele>355.83</ele>
        <time>2014-09-22T08:53:45Z</time>
      </trkpt>
      <trkpt lat="43.22633" lon="1.91822">
        <ele>356.79</ele>
        <time>2014-09-22T08:53:49Z</time>
      </trkpt>
      <trkpt lat="43.22636" lon="1.91818">
        <ele>356.79</ele>
        <time>2014-09-22T08:53:50Z</time>
      </trkpt>
      <trkpt lat="43.22636" lon="1.91812">
        <ele>356.79</ele>
        <time>2014-09-22T08:53:51Z</time>
      </trkpt>
      <trkpt lat="43.22635" lon="1.91805">
        <ele>356.79</ele>
        <time>2014-09-22T08:53:52Z</time>
      </trkpt>
      <trkpt lat="43.22633" lon="1.918">
        <ele>356.79</ele>
        <time>2014-09-22T08:53:53Z</time>
      </trkpt>
      <trkpt lat="43.22631" lon="1.91793">
        <ele>356.79</ele>
        <time>2014-09-22T08:53:54Z</time>
      </trkpt>
      <trkpt lat="43.22587" lon="1.91672">
        <ele>356.79</ele>
        <time>2014-09-22T08:54:09Z</time>
      </trkpt>
      <trkpt lat="43.22533" lon="1.9152">
        <ele>359.19</ele>
        <time>2014-09-22T08:54:30Z</time>
      </trkpt>
      <trkpt lat="43.22491" lon="1.91407">
        <ele>358.71</ele>
        <time>2014-09-22T08:54:44Z</time>
      </trkpt>
      <trkpt lat="43.22485" lon="1.91379">
        <ele>358.71</ele>
        <time>2014-09-22T08:54:47Z</time>
      </trkpt>
      <trkpt lat="43.22485" lon="1.9137">
        <ele>358.71</ele>
        <time>2014-09-22T08:54:48Z</time>
      </trkpt>
      <trkpt lat="43.22485" lon="1.91361">
        <ele>358.23</ele>
        <time>2014-09-22T08:54:49Z</time>
      </trkpt>
      <trkpt lat="43.22486" lon="1.91352">
        <ele>358.23</ele>
        <time>2014-09-22T08:54:50Z</time>
      </trkpt>
      <trkpt lat="43.22486" lon="1.91343">
        <ele>358.23</ele>
        <time>2014-09-22T08:54:51Z</time>
      </trkpt>
      <trkpt lat="43.22488" lon="1.91334">
        <ele>358.23</ele>
        <time>2014-09-22T08:54:52Z</time>
      </trkpt>
      <trkpt lat="43.22512" lon="1.91249">
        <ele>357.75</ele>
        <time>2014-09-22T08:55:03Z</time>
      </trkpt>
      <trkpt lat="43.22513" lon="1.91122">
        <ele>358.23</ele>
        <time>2014-09-22T08:55:19Z</time>
      </trkpt>
      <trkpt lat="43.22511" lon="1.91095">
        <ele>358.23</ele>
        <time>2014-09-22T08:55:22Z</time>
      </trkpt>
      <trkpt lat="43.22509" lon="1.91086">
        <ele>357.75</ele>
        <time>2014-09-22T08:55:23Z</time>
      </trkpt>
      <trkpt lat="43.22506" lon="1.91076">
        <ele>357.27</ele>
        <time>2014-09-22T08:55:24Z</time>
      </trkpt>
      <trkpt lat="43.22503" lon="1.91067">
        <ele>357.27</ele>
        <time>2014-09-22T08:55:25Z</time>
      </trkpt>
      <trkpt lat="43.22499" lon="1.91058">
        <ele>356.79</ele>
        <time>2014-09-22T08:55:26Z</time>
      </trkpt>
      <trkpt lat="43.22494" lon="1.91049">
        <ele>356.31</ele>
        <time>2014-09-22T08:55:27Z</time>
      </trkpt>
      <trkpt lat="43.22489" lon="1.91041">
        <ele>356.31</ele>
        <time>2014-09-22T08:55:28Z</time>
      </trkpt>
      <trkpt lat="43.22426" lon="1.9093">
        <ele>352.94</ele>
        <time>2014-09-22T08:55:41Z</time>
      </trkpt>
      <trkpt lat="43.22424" lon="1.90918">
        <ele>352.46</ele>
        <time>2014-09-22T08:55:42Z</time>
      </trkpt>
      <trkpt lat="43.22422" lon="1.90906">
        <ele>352.46</ele>
        <time>2014-09-22T08:55:43Z</time>
      </trkpt>
      <trkpt lat="43.22422" lon="1.90849">
        <ele>351.98</ele>
        <time>2014-09-22T08:55:48Z</time>
      </trkpt>
      <trkpt lat="43.22421" lon="1.90836">
        <ele>351.98</ele>
        <time>2014-09-22T08:55:49Z</time>
      </trkpt>
      <trkpt lat="43.22419" lon="1.90825">
        <ele>351.5</ele>
        <time>2014-09-22T08:55:50Z</time>
      </trkpt>
      <trkpt lat="43.22414" lon="1.90815">
        <ele>351.02</ele>
        <time>2014-09-22T08:55:51Z</time>
      </trkpt>
      <trkpt lat="43.22409" lon="1.90807">
        <ele>350.54</ele>
        <time>2014-09-22T08:55:52Z</time>
      </trkpt>
      <trkpt lat="43.22403" lon="1.908">
        <ele>350.06</ele>
        <time>2014-09-22T08:55:53Z</time>
      </trkpt>
      <trkpt lat="43.22344" lon="1.90743">
        <ele>351.02</ele>
        <time>2014-09-22T08:56:04Z</time>
      </trkpt>
      <trkpt lat="43.22335" lon="1.90734">
        <ele>351.5</ele>
        <time>2014-09-22T08:56:06Z</time>
      </trkpt>
      <trkpt lat="43.22332" lon="1.90729">
        <ele>351.5</ele>
        <time>2014-09-22T08:56:07Z</time>
      </trkpt>
      <trkpt lat="43.22321" lon="1.90705">
        <ele>352.46</ele>
        <time>2014-09-22T08:56:11Z</time>
      </trkpt>
      <trkpt lat="43.22308" lon="1.90603">
        <ele>352.94</ele>
        <time>2014-09-22T08:56:24Z</time>
      </trkpt>
      <trkpt lat="43.22301" lon="1.90461">
        <ele>353.9</ele>
        <time>2014-09-22T08:56:42Z</time>
      </trkpt>
      <trkpt lat="43.22301" lon="1.90415">
        <ele>354.38</ele>
        <time>2014-09-22T08:56:48Z</time>
      </trkpt>
      <trkpt lat="43.22299" lon="1.90408">
        <ele>354.38</ele>
        <time>2014-09-22T08:56:49Z</time>
      </trkpt>
      <trkpt lat="43.22296" lon="1.90401">
        <ele>354.38</ele>
        <time>2014-09-22T08:56:50Z</time>
      </trkpt>
      <trkpt lat="43.22292" lon="1.90396">
        <ele>354.86</ele>
        <time>2014-09-22T08:56:51Z</time>
      </trkpt>
      <trkpt lat="43.22288" lon="1.90391">
        <ele>354.38</ele>
        <time>2014-09-22T08:56:52Z</time>
      </trkpt>
      <trkpt lat="43.22283" lon="1.90387">
        <ele>354.38</ele>
        <time>2014-09-22T08:56:53Z</time>
      </trkpt>
      <trkpt lat="43.22273" lon="1.90378">
        <ele>354.86</ele>
        <time>2014-09-22T08:56:55Z</time>
      </trkpt>
      <trkpt lat="43.22265" lon="1.90368">
        <ele>354.86</ele>
        <time>2014-09-22T08:56:57Z</time>
      </trkpt>
      <trkpt lat="43.22261" lon="1.90363">
        <ele>354.86</ele>
        <time>2014-09-22T08:56:58Z</time>
      </trkpt>
      <trkpt lat="43.22257" lon="1.90357">
        <ele>354.86</ele>
        <time>2014-09-22T08:56:59Z</time>
      </trkpt>
      <trkpt lat="43.2225" lon="1.90344">
        <ele>355.34</ele>
        <time>2014-09-22T08:57:01Z</time>
      </trkpt>
      <trkpt lat="43.22247" lon="1.90336">
        <ele>355.83</ele>
        <time>2014-09-22T08:57:02Z</time>
      </trkpt>
      <trkpt lat="43.22241" lon="1.90315">
        <ele>356.31</ele>
        <time>2014-09-22T08:57:05Z</time>
      </trkpt>
      <trkpt lat="43.22238" lon="1.90308">
        <ele>356.31</ele>
        <time>2014-09-22T08:57:06Z</time>
      </trkpt>
      <trkpt lat="43.22235" lon="1.90302">
        <ele>356.31</ele>
        <time>2014-09-22T08:57:07Z</time>
      </trkpt>
      <trkpt lat="43.22231" lon="1.90296">
        <ele>356.31</ele>
        <time>2014-09-22T08:57:08Z</time>
      </trkpt>
      <trkpt lat="43.22227" lon="1.90291">
        <ele>356.31</ele>
        <time>2014-09-22T08:57:09Z</time>
      </trkpt>
      <trkpt lat="43.22223" lon="1.90285">
        <ele>356.79</ele>
        <time>2014-09-22T08:57:10Z</time>
      </trkpt>
      <trkpt lat="43.22219" lon="1.90278">
        <ele>356.79</ele>
        <time>2014-09-22T08:57:11Z</time>
      </trkpt>
      <trkpt lat="43.22216" lon="1.90271">
        <ele>357.27</ele>
        <time>2014-09-22T08:57:12Z</time>
      </trkpt>
      <trkpt lat="43.22213" lon="1.90264">
        <ele>357.27</ele>
        <time>2014-09-22T08:57:13Z</time>
      </trkpt>
      <trkpt lat="43.22208" lon="1.90249">
        <ele>357.75</ele>
        <time>2014-09-22T08:57:15Z</time>
      </trkpt>
      <trkpt lat="43.222" lon="1.90194">
        <ele>359.19</ele>
        <time>2014-09-22T08:57:22Z</time>
      </trkpt>
      <trkpt lat="43.22201" lon="1.90187">
        <ele>359.67</ele>
        <time>2014-09-22T08:57:23Z</time>
      </trkpt>
      <trkpt lat="43.22202" lon="1.90179">
        <ele>359.67</ele>
        <time>2014-09-22T08:57:24Z</time>
      </trkpt>
      <trkpt lat="43.22206" lon="1.90173">
        <ele>359.67</ele>
        <time>2014-09-22T08:57:25Z</time>
      </trkpt>
      <trkpt lat="43.2221" lon="1.90169">
        <ele>359.67</ele>
        <time>2014-09-22T08:57:26Z</time>
      </trkpt>
      <trkpt lat="43.22215" lon="1.90165">
        <ele>359.67</ele>
        <time>2014-09-22T08:57:27Z</time>
      </trkpt>
      <trkpt lat="43.2222" lon="1.90163">
        <ele>359.67</ele>
        <time>2014-09-22T08:57:28Z</time>
      </trkpt>
      <trkpt lat="43.22225" lon="1.90161">
        <ele>360.15</ele>
        <time>2014-09-22T08:57:29Z</time>
      </trkpt>
      <trkpt lat="43.22235" lon="1.90155">
        <ele>360.15</ele>
        <time>2014-09-22T08:57:31Z</time>
      </trkpt>
      <trkpt lat="43.22239" lon="1.90151">
        <ele>359.67</ele>
        <time>2014-09-22T08:57:32Z</time>
      </trkpt>
      <trkpt lat="43.22243" lon="1.90146">
        <ele>359.67</ele>
        <time>2014-09-22T08:57:33Z</time>
      </trkpt>
      <trkpt lat="43.22247" lon="1.90139">
        <ele>359.67</ele>
        <time>2014-09-22T08:57:34Z</time>
      </trkpt>
      <trkpt lat="43.22249" lon="1.90131">
        <ele>359.19</ele>
        <time>2014-09-22T08:57:35Z</time>
      </trkpt>
      <trkpt lat="43.2225" lon="1.90124">
        <ele>359.19</ele>
        <time>2014-09-22T08:57:36Z</time>
      </trkpt>
      <trkpt lat="43.22251" lon="1.90117">
        <ele>359.19</ele>
        <time>2014-09-22T08:57:37Z</time>
      </trkpt>
      <trkpt lat="43.22251" lon="1.90109">
        <ele>358.71</ele>
        <time>2014-09-22T08:57:38Z</time>
      </trkpt>
      <trkpt lat="43.22253" lon="1.90059">
        <ele>358.71</ele>
        <time>2014-09-22T08:57:45Z</time>
      </trkpt>
      <trkpt lat="43.22273" lon="1.90024">
        <ele>359.19</ele>
        <time>2014-09-22T08:57:52Z</time>
      </trkpt>
      <trkpt lat="43.22276" lon="1.90014">
        <ele>359.19</ele>
        <time>2014-09-22T08:57:53Z</time>
      </trkpt>
      <trkpt lat="43.22278" lon="1.90007">
        <ele>358.71</ele>
        <time>2014-09-22T08:57:54Z</time>
      </trkpt>
      <trkpt lat="43.22279" lon="1.9">
        <ele>358.71</ele>
        <time>2014-09-22T08:57:55Z</time>
      </trkpt>
      <trkpt lat="43.22279" lon="1.89993">
        <ele>358.71</ele>
        <time>2014-09-22T08:57:56Z</time>
      </trkpt>
      <trkpt lat="43.22277" lon="1.89986">
        <ele>358.71</ele>
        <time>2014-09-22T08:57:57Z</time>
      </trkpt>
      <trkpt lat="43.22274" lon="1.89981">
        <ele>358.71</ele>
        <time>2014-09-22T08:57:58Z</time>
      </trkpt>
      <trkpt lat="43.22269" lon="1.89977">
        <ele>358.71</ele>
        <time>2014-09-22T08:57:59Z</time>
      </trkpt>
      <trkpt lat="43.22265" lon="1.89977">
        <ele>358.71</ele>
        <time>2014-09-22T08:58:00Z</time>
      </trkpt>
      <trkpt lat="43.22259" lon="1.89977">
        <ele>358.23</ele>
        <time>2014-09-22T08:58:01Z</time>
      </trkpt>
      <trkpt lat="43.22254" lon="1.89978">
        <ele>358.23</ele>
        <time>2014-09-22T08:58:02Z</time>
      </trkpt>
      <trkpt lat="43.22248" lon="1.89977">
        <ele>358.71</ele>
        <time>2014-09-22T08:58:03Z</time>
      </trkpt>
      <trkpt lat="43.22243" lon="1.89977">
        <ele>358.71</ele>
        <time>2014-09-22T08:58:04Z</time>
      </trkpt>
      <trkpt lat="43.22237" lon="1.89975">
        <ele>358.71</ele>
        <time>2014-09-22T08:58:05Z</time>
      </trkpt>
      <trkpt lat="43.22231" lon="1.89973">
        <ele>358.71</ele>
        <time>2014-09-22T08:58:06Z</time>
      </trkpt>
      <trkpt lat="43.22226" lon="1.89969">
        <ele>359.19</ele>
        <time>2014-09-22T08:58:07Z</time>
      </trkpt>
      <trkpt lat="43.22222" lon="1.89964">
        <ele>359.19</ele>
        <time>2014-09-22T08:58:08Z</time>
      </trkpt>
      <trkpt lat="43.22218" lon="1.89958">
        <ele>359.19</ele>
        <time>2014-09-22T08:58:09Z</time>
      </trkpt>
      <trkpt lat="43.22215" lon="1.89951">
        <ele>359.67</ele>
        <time>2014-09-22T08:58:10Z</time>
      </trkpt>
      <trkpt lat="43.22213" lon="1.89944">
        <ele>359.67</ele>
        <time>2014-09-22T08:58:11Z</time>
      </trkpt>
      <trkpt lat="43.22211" lon="1.89936">
        <ele>359.67</ele>
        <time>2014-09-22T08:58:12Z</time>
      </trkpt>
      <trkpt lat="43.22209" lon="1.89928">
        <ele>359.67</ele>
        <time>2014-09-22T08:58:13Z</time>
      </trkpt>
      <trkpt lat="43.22211" lon="1.89823">
        <ele>358.71</ele>
        <time>2014-09-22T08:58:25Z</time>
      </trkpt>
      <trkpt lat="43.22245" lon="1.89629">
        <ele>355.83</ele>
        <time>2014-09-22T08:58:46Z</time>
      </trkpt>
      <trkpt lat="43.22279" lon="1.8945">
        <ele>355.34</ele>
        <time>2014-09-22T08:59:06Z</time>
      </trkpt>
      <trkpt lat="43.223" lon="1.89346">
        <ele>355.83</ele>
        <time>2014-09-22T08:59:19Z</time>
      </trkpt>
      <trkpt lat="43.22317" lon="1.89243">
        <ele>356.79</ele>
        <time>2014-09-22T08:59:33Z</time>
      </trkpt>
      <trkpt lat="43.22321" lon="1.89223">
        <ele>357.75</ele>
        <time>2014-09-22T08:59:36Z</time>
      </trkpt>
      <trkpt lat="43.22323" lon="1.8921">
        <ele>358.71</ele>
        <time>2014-09-22T08:59:38Z</time>
      </trkpt>
      <trkpt lat="43.22325" lon="1.89198">
        <ele>359.19</ele>
        <time>2014-09-22T08:59:40Z</time>
      </trkpt>
      <trkpt lat="43.22326" lon="1.89185">
        <ele>360.15</ele>
        <time>2014-09-22T08:59:42Z</time>
      </trkpt>
      <trkpt lat="43.22328" lon="1.89178">
        <ele>360.63</ele>
        <time>2014-09-22T08:59:43Z</time>
      </trkpt>
      <trkpt lat="43.22329" lon="1.89173">
        <ele>361.11</ele>
        <time>2014-09-22T08:59:44Z</time>
      </trkpt>
      <trkpt lat="43.22338" lon="1.89136">
        <ele>363.04</ele>
        <time>2014-09-22T08:59:50Z</time>
      </trkpt>
      <trkpt lat="43.22385" lon="1.89047">
        <ele>363.04</ele>
        <time>2014-09-22T09:00:05Z</time>
      </trkpt>
      <trkpt lat="43.22416" lon="1.88987">
        <ele>359.67</ele>
        <time>2014-09-22T09:00:12Z</time>
      </trkpt>
      <trkpt lat="43.2245" lon="1.88881">
        <ele>352.94</ele>
        <time>2014-09-22T09:00:21Z</time>
      </trkpt>
      <trkpt lat="43.22455" lon="1.8887">
        <ele>351.98</ele>
        <time>2014-09-22T09:00:22Z</time>
      </trkpt>
      <trkpt lat="43.22462" lon="1.8886">
        <ele>351.5</ele>
        <time>2014-09-22T09:00:23Z</time>
      </trkpt>
      <trkpt lat="43.22497" lon="1.88819">
        <ele>348.62</ele>
        <time>2014-09-22T09:00:28Z</time>
      </trkpt>
      <trkpt lat="43.22505" lon="1.88813">
        <ele>348.13</ele>
        <time>2014-09-22T09:00:29Z</time>
      </trkpt>
      <trkpt lat="43.22557" lon="1.88774">
        <ele>344.29</ele>
        <time>2014-09-22T09:00:36Z</time>
      </trkpt>
      <trkpt lat="43.22563" lon="1.88764">
        <ele>343.33</ele>
        <time>2014-09-22T09:00:37Z</time>
      </trkpt>
      <trkpt lat="43.22616" lon="1.8866">
        <ele>337.08</ele>
        <time>2014-09-22T09:00:47Z</time>
      </trkpt>
      <trkpt lat="43.22624" lon="1.88652">
        <ele>336.6</ele>
        <time>2014-09-22T09:00:48Z</time>
      </trkpt>
      <trkpt lat="43.22632" lon="1.88645">
        <ele>335.64</ele>
        <time>2014-09-22T09:00:49Z</time>
      </trkpt>
      <trkpt lat="43.22639" lon="1.8864">
        <ele>335.16</ele>
        <time>2014-09-22T09:00:50Z</time>
      </trkpt>
      <trkpt lat="43.22647" lon="1.88638">
        <ele>334.68</ele>
        <time>2014-09-22T09:00:51Z</time>
      </trkpt>
      <trkpt lat="43.22653" lon="1.88637">
        <ele>334.2</ele>
        <time>2014-09-22T09:00:52Z</time>
      </trkpt>
      <trkpt lat="43.2266" lon="1.88638">
        <ele>333.23</ele>
        <time>2014-09-22T09:00:53Z</time>
      </trkpt>
      <trkpt lat="43.22666" lon="1.8864">
        <ele>332.75</ele>
        <time>2014-09-22T09:00:54Z</time>
      </trkpt>
      <trkpt lat="43.22671" lon="1.88643">
        <ele>332.27</ele>
        <time>2014-09-22T09:00:55Z</time>
      </trkpt>
      <trkpt lat="43.22707" lon="1.88654">
        <ele>331.79</ele>
        <time>2014-09-22T09:01:03Z</time>
      </trkpt>
      <trkpt lat="43.22714" lon="1.88654">
        <ele>331.79</ele>
        <time>2014-09-22T09:01:04Z</time>
      </trkpt>
      <trkpt lat="43.22717" lon="1.88653">
        <ele>331.79</ele>
        <time>2014-09-22T09:01:05Z</time>
      </trkpt>
      <trkpt lat="43.22723" lon="1.88651">
        <ele>331.79</ele>
        <time>2014-09-22T09:01:06Z</time>
      </trkpt>
      <trkpt lat="43.22727" lon="1.88649">
        <ele>331.79</ele>
        <time>2014-09-22T09:01:07Z</time>
      </trkpt>
      <trkpt lat="43.22754" lon="1.88638">
        <ele>332.27</ele>
        <time>2014-09-22T09:01:12Z</time>
      </trkpt>
      <trkpt lat="43.22759" lon="1.88637">
        <ele>332.27</ele>
        <time>2014-09-22T09:01:13Z</time>
      </trkpt>
      <trkpt lat="43.22774" lon="1.88637">
        <ele>332.27</ele>
        <time>2014-09-22T09:01:17Z</time>
      </trkpt>
      <trkpt lat="43.22777" lon="1.88634">
        <ele>332.27</ele>
        <time>2014-09-22T09:01:18Z</time>
      </trkpt>
      <trkpt lat="43.22803" lon="1.88606">
        <ele>332.27</ele>
        <time>2014-09-22T09:01:29Z</time>
      </trkpt>
      <trkpt lat="43.22827" lon="1.88597">
        <ele>333.23</ele>
        <time>2014-09-22T09:01:36Z</time>
      </trkpt>
      <trkpt lat="43.22896" lon="1.88561">
        <ele>332.75</ele>
        <time>2014-09-22T09:01:47Z</time>
      </trkpt>
      <trkpt lat="43.22908" lon="1.88554">
        <ele>332.75</ele>
        <time>2014-09-22T09:01:49Z</time>
      </trkpt>
      <trkpt lat="43.22913" lon="1.8855">
        <ele>332.27</ele>
        <time>2014-09-22T09:01:50Z</time>
      </trkpt>
      <trkpt lat="43.22918" lon="1.88544">
        <ele>332.27</ele>
        <time>2014-09-22T09:01:51Z</time>
      </trkpt>
      <trkpt lat="43.22923" lon="1.88536">
        <ele>331.79</ele>
        <time>2014-09-22T09:01:52Z</time>
      </trkpt>
      <trkpt lat="43.22927" lon="1.88527">
        <ele>331.31</ele>
        <time>2014-09-22T09:01:53Z</time>
      </trkpt>
      <trkpt lat="43.22931" lon="1.88518">
        <ele>330.83</ele>
        <time>2014-09-22T09:01:54Z</time>
      </trkpt>
      <trkpt lat="43.23004" lon="1.88375">
        <ele>323.14</ele>
        <time>2014-09-22T09:02:08Z</time>
      </trkpt>
      <trkpt lat="43.23117" lon="1.88207">
        <ele>309.2</ele>
        <time>2014-09-22T09:02:22Z</time>
      </trkpt>
      <trkpt lat="43.23268" lon="1.87977">
        <ele>293.34</ele>
        <time>2014-09-22T09:02:42Z</time>
      </trkpt>
      <trkpt lat="43.23306" lon="1.87921">
        <ele>290.94</ele>
        <time>2014-09-22T09:02:48Z</time>
      </trkpt>
      <trkpt lat="43.23315" lon="1.87917">
        <ele>290.94</ele>
        <time>2014-09-22T09:02:49Z</time>
      </trkpt>
      <trkpt lat="43.23323" lon="1.87916">
        <ele>290.46</ele>
        <time>2014-09-22T09:02:50Z</time>
      </trkpt>
      <trkpt lat="43.23333" lon="1.87917">
        <ele>290.46</ele>
        <time>2014-09-22T09:02:51Z</time>
      </trkpt>
      <trkpt lat="43.2334" lon="1.87919">
        <ele>289.97</ele>
        <time>2014-09-22T09:02:52Z</time>
      </trkpt>
      <trkpt lat="43.23349" lon="1.87921">
        <ele>289.97</ele>
        <time>2014-09-22T09:02:53Z</time>
      </trkpt>
      <trkpt lat="43.23357" lon="1.87922">
        <ele>289.49</ele>
        <time>2014-09-22T09:02:54Z</time>
      </trkpt>
      <trkpt lat="43.23363" lon="1.87921">
        <ele>289.49</ele>
        <time>2014-09-22T09:02:55Z</time>
      </trkpt>
      <trkpt lat="43.2337" lon="1.87919">
        <ele>289.01</ele>
        <time>2014-09-22T09:02:56Z</time>
      </trkpt>
      <trkpt lat="43.23376" lon="1.87914">
        <ele>289.01</ele>
        <time>2014-09-22T09:02:57Z</time>
      </trkpt>
      <trkpt lat="43.23382" lon="1.87906">
        <ele>289.01</ele>
        <time>2014-09-22T09:02:58Z</time>
      </trkpt>
      <trkpt lat="43.23386" lon="1.87898">
        <ele>289.01</ele>
        <time>2014-09-22T09:02:59Z</time>
      </trkpt>
      <trkpt lat="43.23389" lon="1.87889">
        <ele>288.53</ele>
        <time>2014-09-22T09:03:00Z</time>
      </trkpt>
      <trkpt lat="43.23392" lon="1.8788">
        <ele>288.53</ele>
        <time>2014-09-22T09:03:01Z</time>
      </trkpt>
      <trkpt lat="43.23415" lon="1.87795">
        <ele>286.61</ele>
        <time>2014-09-22T09:03:11Z</time>
      </trkpt>
      <trkpt lat="43.23418" lon="1.87787">
        <ele>286.61</ele>
        <time>2014-09-22T09:03:12Z</time>
      </trkpt>
      <trkpt lat="43.23441" lon="1.87706">
        <ele>286.61</ele>
        <time>2014-09-22T09:03:22Z</time>
      </trkpt>
      <trkpt lat="43.23448" lon="1.8769">
        <ele>286.61</ele>
        <time>2014-09-22T09:03:24Z</time>
      </trkpt>
      <trkpt lat="43.23452" lon="1.87682">
        <ele>286.61</ele>
        <time>2014-09-22T09:03:25Z</time>
      </trkpt>
      <trkpt lat="43.23456" lon="1.87676">
        <ele>286.61</ele>
        <time>2014-09-22T09:03:26Z</time>
      </trkpt>
      <trkpt lat="43.23467" lon="1.87664">
        <ele>286.13</ele>
        <time>2014-09-22T09:03:28Z</time>
      </trkpt>
      <trkpt lat="43.23472" lon="1.87659">
        <ele>286.13</ele>
        <time>2014-09-22T09:03:29Z</time>
      </trkpt>
      <trkpt lat="43.23566" lon="1.87576">
        <ele>285.17</ele>
        <time>2014-09-22T09:03:45Z</time>
      </trkpt>
      <trkpt lat="43.23639" lon="1.87489">
        <ele>284.69</ele>
        <time>2014-09-22T09:03:59Z</time>
      </trkpt>
      <trkpt lat="43.23646" lon="1.87485">
        <ele>285.17</ele>
        <time>2014-09-22T09:04:00Z</time>
      </trkpt>
      <trkpt lat="43.23653" lon="1.87482">
        <ele>285.17</ele>
        <time>2014-09-22T09:04:01Z</time>
      </trkpt>
      <trkpt lat="43.23659" lon="1.8748">
        <ele>285.17</ele>
        <time>2014-09-22T09:04:02Z</time>
      </trkpt>
      <trkpt lat="43.23666" lon="1.87479">
        <ele>285.17</ele>
        <time>2014-09-22T09:04:03Z</time>
      </trkpt>
      <trkpt lat="43.23674" lon="1.87478">
        <ele>285.17</ele>
        <time>2014-09-22T09:04:04Z</time>
      </trkpt>
      <trkpt lat="43.23681" lon="1.87478">
        <ele>285.65</ele>
        <time>2014-09-22T09:04:05Z</time>
      </trkpt>
      <trkpt lat="43.23693" lon="1.87476">
        <ele>285.17</ele>
        <time>2014-09-22T09:04:07Z</time>
      </trkpt>
      <trkpt lat="43.23711" lon="1.87469">
        <ele>285.17</ele>
        <time>2014-09-22T09:04:10Z</time>
      </trkpt>
      <trkpt lat="43.23716" lon="1.87465">
        <ele>285.65</ele>
        <time>2014-09-22T09:04:11Z</time>
      </trkpt>
      <trkpt lat="43.23721" lon="1.8746">
        <ele>285.65</ele>
        <time>2014-09-22T09:04:12Z</time>
      </trkpt>
      <trkpt lat="43.23779" lon="1.87387">
        <ele>286.13</ele>
        <time>2014-09-22T09:04:23Z</time>
      </trkpt>
      <trkpt lat="43.23792" lon="1.87378">
        <ele>286.61</ele>
        <time>2014-09-22T09:04:25Z</time>
      </trkpt>
      <trkpt lat="43.23799" lon="1.87374">
        <ele>286.61</ele>
        <time>2014-09-22T09:04:26Z</time>
      </trkpt>
      <trkpt lat="43.23806" lon="1.87371">
        <ele>287.09</ele>
        <time>2014-09-22T09:04:27Z</time>
      </trkpt>
      <trkpt lat="43.23905" lon="1.87343">
        <ele>288.53</ele>
        <time>2014-09-22T09:04:41Z</time>
      </trkpt>
      <trkpt lat="43.24032" lon="1.87282">
        <ele>286.13</ele>
        <time>2014-09-22T09:04:56Z</time>
      </trkpt>
      <trkpt lat="43.24058" lon="1.87268">
        <ele>285.65</ele>
        <time>2014-09-22T09:04:59Z</time>
      </trkpt>
      <trkpt lat="43.24066" lon="1.87261">
        <ele>285.65</ele>
        <time>2014-09-22T09:05:00Z</time>
      </trkpt>
      <trkpt lat="43.24072" lon="1.87253">
        <ele>285.65</ele>
        <time>2014-09-22T09:05:01Z</time>
      </trkpt>
      <trkpt lat="43.24098" lon="1.87212">
        <ele>285.17</ele>
        <time>2014-09-22T09:05:07Z</time>
      </trkpt>
      <trkpt lat="43.24099" lon="1.87201">
        <ele>284.69</ele>
        <time>2014-09-22T09:05:08Z</time>
      </trkpt>
      <trkpt lat="43.24107" lon="1.87139">
        <ele>283.73</ele>
        <time>2014-09-22T09:05:13Z</time>
      </trkpt>
      <trkpt lat="43.24164" lon="1.87014">
        <ele>279.88</ele>
        <time>2014-09-22T09:05:28Z</time>
      </trkpt>
      <trkpt lat="43.24248" lon="1.86898">
        <ele>278.92</ele>
        <time>2014-09-22T09:05:45Z</time>
      </trkpt>
      <trkpt lat="43.2428" lon="1.86854">
        <ele>278.44</ele>
        <time>2014-09-22T09:05:52Z</time>
      </trkpt>
      <trkpt lat="43.24331" lon="1.86742">
        <ele>279.88</ele>
        <time>2014-09-22T09:06:06Z</time>
      </trkpt>
      <trkpt lat="43.24406" lon="1.86632">
        <ele>278.44</ele>
        <time>2014-09-22T09:06:22Z</time>
      </trkpt>
      <trkpt lat="43.24515" lon="1.86549">
        <ele>273.15</ele>
        <time>2014-09-22T09:06:39Z</time>
      </trkpt>
      <trkpt lat="43.24621" lon="1.86453">
        <ele>269.31</ele>
        <time>2014-09-22T09:06:56Z</time>
      </trkpt>
      <trkpt lat="43.24672" lon="1.86417">
        <ele>267.86</ele>
        <time>2014-09-22T09:07:04Z</time>
      </trkpt>
      <trkpt lat="43.24676" lon="1.8641">
        <ele>267.38</ele>
        <time>2014-09-22T09:07:05Z</time>
      </trkpt>
      <trkpt lat="43.2468" lon="1.86403">
        <ele>267.38</ele>
        <time>2014-09-22T09:07:06Z</time>
      </trkpt>
      <trkpt lat="43.24684" lon="1.86394">
        <ele>267.38</ele>
        <time>2014-09-22T09:07:07Z</time>
      </trkpt>
      <trkpt lat="43.24686" lon="1.86385">
        <ele>267.38</ele>
        <time>2014-09-22T09:07:08Z</time>
      </trkpt>
      <trkpt lat="43.24688" lon="1.86376">
        <ele>267.38</ele>
        <time>2014-09-22T09:07:09Z</time>
      </trkpt>
      <trkpt lat="43.24689" lon="1.86367">
        <ele>267.38</ele>
        <time>2014-09-22T09:07:10Z</time>
      </trkpt>
      <trkpt lat="43.2469" lon="1.86358">
        <ele>266.9</ele>
        <time>2014-09-22T09:07:11Z</time>
      </trkpt>
      <trkpt lat="43.24697" lon="1.8631">
        <ele>266.42</ele>
        <time>2014-09-22T09:07:16Z</time>
      </trkpt>
      <trkpt lat="43.247" lon="1.86301">
        <ele>266.42</ele>
        <time>2014-09-22T09:07:17Z</time>
      </trkpt>
      <trkpt lat="43.24703" lon="1.86294">
        <ele>266.42</ele>
        <time>2014-09-22T09:07:18Z</time>
      </trkpt>
      <trkpt lat="43.24707" lon="1.86286">
        <ele>266.42</ele>
        <time>2014-09-22T09:07:19Z</time>
      </trkpt>
      <trkpt lat="43.24711" lon="1.86278">
        <ele>266.42</ele>
        <time>2014-09-22T09:07:20Z</time>
      </trkpt>
      <trkpt lat="43.24715" lon="1.86271">
        <ele>266.9</ele>
        <time>2014-09-22T09:07:21Z</time>
      </trkpt>
      <trkpt lat="43.2472" lon="1.86265">
        <ele>266.9</ele>
        <time>2014-09-22T09:07:22Z</time>
      </trkpt>
      <trkpt lat="43.24726" lon="1.86258">
        <ele>266.9</ele>
        <time>2014-09-22T09:07:23Z</time>
      </trkpt>
      <trkpt lat="43.24803" lon="1.86168">
        <ele>266.42</ele>
        <time>2014-09-22T09:07:38Z</time>
      </trkpt>
      <trkpt lat="43.24905" lon="1.86048">
        <ele>264.5</ele>
        <time>2014-09-22T09:07:57Z</time>
      </trkpt>
      <trkpt lat="43.24993" lon="1.85949">
        <ele>263.06</ele>
        <time>2014-09-22T09:08:13Z</time>
      </trkpt>
      <trkpt lat="43.25086" lon="1.85845">
        <ele>261.14</ele>
        <time>2014-09-22T09:08:30Z</time>
      </trkpt>
      <trkpt lat="43.25155" lon="1.85775">
        <ele>259.69</ele>
        <time>2014-09-22T09:08:42Z</time>
      </trkpt>
      <trkpt lat="43.25163" lon="1.85772">
        <ele>259.69</ele>
        <time>2014-09-22T09:08:43Z</time>
      </trkpt>
      <trkpt lat="43.2517" lon="1.85771">
        <ele>260.17</ele>
        <time>2014-09-22T09:08:44Z</time>
      </trkpt>
      <trkpt lat="43.25178" lon="1.85772">
        <ele>260.17</ele>
        <time>2014-09-22T09:08:45Z</time>
      </trkpt>
      <trkpt lat="43.25187" lon="1.85776">
        <ele>260.17</ele>
        <time>2014-09-22T09:08:46Z</time>
      </trkpt>
      <trkpt lat="43.25194" lon="1.85782">
        <ele>260.17</ele>
        <time>2014-09-22T09:08:47Z</time>
      </trkpt>
      <trkpt lat="43.252" lon="1.8579">
        <ele>260.65</ele>
        <time>2014-09-22T09:08:48Z</time>
      </trkpt>
      <trkpt lat="43.25205" lon="1.85796">
        <ele>260.65</ele>
        <time>2014-09-22T09:08:49Z</time>
      </trkpt>
      <trkpt lat="43.25233" lon="1.8583">
        <ele>260.17</ele>
        <time>2014-09-22T09:08:54Z</time>
      </trkpt>
      <trkpt lat="43.25239" lon="1.85834">
        <ele>260.17</ele>
        <time>2014-09-22T09:08:55Z</time>
      </trkpt>
      <trkpt lat="43.25246" lon="1.85838">
        <ele>260.17</ele>
        <time>2014-09-22T09:08:56Z</time>
      </trkpt>
      <trkpt lat="43.25253" lon="1.8584">
        <ele>260.17</ele>
        <time>2014-09-22T09:08:57Z</time>
      </trkpt>
      <trkpt lat="43.2526" lon="1.8584">
        <ele>260.17</ele>
        <time>2014-09-22T09:08:58Z</time>
      </trkpt>
      <trkpt lat="43.25267" lon="1.85838">
        <ele>260.17</ele>
        <time>2014-09-22T09:08:59Z</time>
      </trkpt>
      <trkpt lat="43.25274" lon="1.85834">
        <ele>260.17</ele>
        <time>2014-09-22T09:09:00Z</time>
      </trkpt>
      <trkpt lat="43.25279" lon="1.8583">
        <ele>259.69</ele>
        <time>2014-09-22T09:09:01Z</time>
      </trkpt>
      <trkpt lat="43.25285" lon="1.85825">
        <ele>259.69</ele>
        <time>2014-09-22T09:09:02Z</time>
      </trkpt>
      <trkpt lat="43.25291" lon="1.8582">
        <ele>259.21</ele>
        <time>2014-09-22T09:09:03Z</time>
      </trkpt>
      <trkpt lat="43.2537" lon="1.85736">
        <ele>258.73</ele>
        <time>2014-09-22T09:09:18Z</time>
      </trkpt>
      <trkpt lat="43.25441" lon="1.85673">
        <ele>258.73</ele>
        <time>2014-09-22T09:09:31Z</time>
      </trkpt>
      <trkpt lat="43.2551" lon="1.85605">
        <ele>260.65</ele>
        <time>2014-09-22T09:09:45Z</time>
      </trkpt>
      <trkpt lat="43.25547" lon="1.85568">
        <ele>261.62</ele>
        <time>2014-09-22T09:09:53Z</time>
      </trkpt>
      <trkpt lat="43.25564" lon="1.8555">
        <ele>262.58</ele>
        <time>2014-09-22T09:09:57Z</time>
      </trkpt>
      <trkpt lat="43.25588" lon="1.85518">
        <ele>263.06</ele>
        <time>2014-09-22T09:10:03Z</time>
      </trkpt>
      <trkpt lat="43.25591" lon="1.85513">
        <ele>263.54</ele>
        <time>2014-09-22T09:10:04Z</time>
      </trkpt>
      <trkpt lat="43.25596" lon="1.85499">
        <ele>263.54</ele>
        <time>2014-09-22T09:10:06Z</time>
      </trkpt>
      <trkpt lat="43.25597" lon="1.8549">
        <ele>264.02</ele>
        <time>2014-09-22T09:10:07Z</time>
      </trkpt>
      <trkpt lat="43.25598" lon="1.85482">
        <ele>264.02</ele>
        <time>2014-09-22T09:10:08Z</time>
      </trkpt>
      <trkpt lat="43.25597" lon="1.85474">
        <ele>264.02</ele>
        <time>2014-09-22T09:10:09Z</time>
      </trkpt>
      <trkpt lat="43.25597" lon="1.85465">
        <ele>264.02</ele>
        <time>2014-09-22T09:10:10Z</time>
      </trkpt>
      <trkpt lat="43.25595" lon="1.8543">
        <ele>264.02</ele>
        <time>2014-09-22T09:10:14Z</time>
      </trkpt>
      <trkpt lat="43.25596" lon="1.8542">
        <ele>264.02</ele>
        <time>2014-09-22T09:10:15Z</time>
      </trkpt>
      <trkpt lat="43.25597" lon="1.85411">
        <ele>264.02</ele>
        <time>2014-09-22T09:10:16Z</time>
      </trkpt>
      <trkpt lat="43.25599" lon="1.85402">
        <ele>264.02</ele>
        <time>2014-09-22T09:10:17Z</time>
      </trkpt>
      <trkpt lat="43.25603" lon="1.85394">
        <ele>264.02</ele>
        <time>2014-09-22T09:10:18Z</time>
      </trkpt>
      <trkpt lat="43.25608" lon="1.85387">
        <ele>264.02</ele>
        <time>2014-09-22T09:10:19Z</time>
      </trkpt>
      <trkpt lat="43.25613" lon="1.85379">
        <ele>264.02</ele>
        <time>2014-09-22T09:10:20Z</time>
      </trkpt>
      <trkpt lat="43.25639" lon="1.85355">
        <ele>264.02</ele>
        <time>2014-09-22T09:10:24Z</time>
      </trkpt>
      <trkpt lat="43.25646" lon="1.8535">
        <ele>263.54</ele>
        <time>2014-09-22T09:10:25Z</time>
      </trkpt>
      <trkpt lat="43.25654" lon="1.85346">
        <ele>263.54</ele>
        <time>2014-09-22T09:10:26Z</time>
      </trkpt>
      <trkpt lat="43.25661" lon="1.85345">
        <ele>263.06</ele>
        <time>2014-09-22T09:10:27Z</time>
      </trkpt>
      <trkpt lat="43.25671" lon="1.85343">
        <ele>262.58</ele>
        <time>2014-09-22T09:10:28Z</time>
      </trkpt>
      <trkpt lat="43.25677" lon="1.85343">
        <ele>262.58</ele>
        <time>2014-09-22T09:10:29Z</time>
      </trkpt>
      <trkpt lat="43.25684" lon="1.85343">
        <ele>262.58</ele>
        <time>2014-09-22T09:10:30Z</time>
      </trkpt>
      <trkpt lat="43.25721" lon="1.85336">
        <ele>262.1</ele>
        <time>2014-09-22T09:10:36Z</time>
      </trkpt>
      <trkpt lat="43.25776" lon="1.85279">
        <ele>261.14</ele>
        <time>2014-09-22T09:10:48Z</time>
      </trkpt>
      <trkpt lat="43.25862" lon="1.85177">
        <ele>258.25</ele>
        <time>2014-09-22T09:11:04Z</time>
      </trkpt>
      <trkpt lat="43.25949" lon="1.85068">
        <ele>255.85</ele>
        <time>2014-09-22T09:11:21Z</time>
      </trkpt>
      <trkpt lat="43.26032" lon="1.84976">
        <ele>255.37</ele>
        <time>2014-09-22T09:11:36Z</time>
      </trkpt>
      <trkpt lat="43.26156" lon="1.8487">
        <ele>251.52</ele>
        <time>2014-09-22T09:11:54Z</time>
      </trkpt>
      <trkpt lat="43.26213" lon="1.8483">
        <ele>249.6</ele>
        <time>2014-09-22T09:12:02Z</time>
      </trkpt>
      <trkpt lat="43.26221" lon="1.84828">
        <ele>249.6</ele>
        <time>2014-09-22T09:12:03Z</time>
      </trkpt>
      <trkpt lat="43.26228" lon="1.84828">
        <ele>249.12</ele>
        <time>2014-09-22T09:12:04Z</time>
      </trkpt>
      <trkpt lat="43.26235" lon="1.84828">
        <ele>249.12</ele>
        <time>2014-09-22T09:12:05Z</time>
      </trkpt>
      <trkpt lat="43.26242" lon="1.84829">
        <ele>249.12</ele>
        <time>2014-09-22T09:12:06Z</time>
      </trkpt>
      <trkpt lat="43.2629" lon="1.8484">
        <ele>249.6</ele>
        <time>2014-09-22T09:12:14Z</time>
      </trkpt>
      <trkpt lat="43.26296" lon="1.84842">
        <ele>249.12</ele>
        <time>2014-09-22T09:12:15Z</time>
      </trkpt>
      <trkpt lat="43.26301" lon="1.84846">
        <ele>249.6</ele>
        <time>2014-09-22T09:12:16Z</time>
      </trkpt>
      <trkpt lat="43.26306" lon="1.8485">
        <ele>249.6</ele>
        <time>2014-09-22T09:12:17Z</time>
      </trkpt>
      <trkpt lat="43.2631" lon="1.84856">
        <ele>249.6</ele>
        <time>2014-09-22T09:12:18Z</time>
      </trkpt>
      <trkpt lat="43.26313" lon="1.84862">
        <ele>250.08</ele>
        <time>2014-09-22T09:12:19Z</time>
      </trkpt>
      <trkpt lat="43.26316" lon="1.84869">
        <ele>250.08</ele>
        <time>2014-09-22T09:12:20Z</time>
      </trkpt>
      <trkpt lat="43.26318" lon="1.84875">
        <ele>250.56</ele>
        <time>2014-09-22T09:12:21Z</time>
      </trkpt>
      <trkpt lat="43.2632" lon="1.84883">
        <ele>251.04</ele>
        <time>2014-09-22T09:12:22Z</time>
      </trkpt>
      <trkpt lat="43.26325" lon="1.84904">
        <ele>251.52</ele>
        <time>2014-09-22T09:12:25Z</time>
      </trkpt>
      <trkpt lat="43.26327" lon="1.84911">
        <ele>252</ele>
        <time>2014-09-22T09:12:26Z</time>
      </trkpt>
      <trkpt lat="43.2633" lon="1.84917">
        <ele>252</ele>
        <time>2014-09-22T09:12:27Z</time>
      </trkpt>
      <trkpt lat="43.26334" lon="1.84923">
        <ele>252.48</ele>
        <time>2014-09-22T09:12:28Z</time>
      </trkpt>
      <trkpt lat="43.26338" lon="1.84928">
        <ele>252.48</ele>
        <time>2014-09-22T09:12:29Z</time>
      </trkpt>
      <trkpt lat="43.26343" lon="1.8493">
        <ele>252.48</ele>
        <time>2014-09-22T09:12:30Z</time>
      </trkpt>
      <trkpt lat="43.26349" lon="1.84931">
        <ele>252.96</ele>
        <time>2014-09-22T09:12:31Z</time>
      </trkpt>
      <trkpt lat="43.26354" lon="1.84932">
        <ele>252.96</ele>
        <time>2014-09-22T09:12:32Z</time>
      </trkpt>
      <trkpt lat="43.2636" lon="1.84932">
        <ele>253.44</ele>
        <time>2014-09-22T09:12:33Z</time>
      </trkpt>
      <trkpt lat="43.26365" lon="1.84932">
        <ele>253.44</ele>
        <time>2014-09-22T09:12:34Z</time>
      </trkpt>
      <trkpt lat="43.26376" lon="1.84932">
        <ele>253.93</ele>
        <time>2014-09-22T09:12:36Z</time>
      </trkpt>
      <trkpt lat="43.26381" lon="1.84932">
        <ele>253.93</ele>
        <time>2014-09-22T09:12:37Z</time>
      </trkpt>
      <trkpt lat="43.26386" lon="1.84934">
        <ele>254.41</ele>
        <time>2014-09-22T09:12:38Z</time>
      </trkpt>
      <trkpt lat="43.26391" lon="1.84937">
        <ele>254.41</ele>
        <time>2014-09-22T09:12:39Z</time>
      </trkpt>
      <trkpt lat="43.26397" lon="1.8494">
        <ele>254.89</ele>
        <time>2014-09-22T09:12:40Z</time>
      </trkpt>
      <trkpt lat="43.26402" lon="1.84947">
        <ele>254.89</ele>
        <time>2014-09-22T09:12:41Z</time>
      </trkpt>
      <trkpt lat="43.26405" lon="1.84953">
        <ele>255.37</ele>
        <time>2014-09-22T09:12:42Z</time>
      </trkpt>
      <trkpt lat="43.26407" lon="1.84961">
        <ele>254.89</ele>
        <time>2014-09-22T09:12:43Z</time>
      </trkpt>
      <trkpt lat="43.26409" lon="1.8497">
        <ele>254.89</ele>
        <time>2014-09-22T09:12:44Z</time>
      </trkpt>
      <trkpt lat="43.2641" lon="1.84979">
        <ele>254.41</ele>
        <time>2014-09-22T09:12:45Z</time>
      </trkpt>
      <trkpt lat="43.2641" lon="1.8499">
        <ele>253.93</ele>
        <time>2014-09-22T09:12:46Z</time>
      </trkpt>
      <trkpt lat="43.26409" lon="1.84998">
        <ele>253.44</ele>
        <time>2014-09-22T09:12:47Z</time>
      </trkpt>
      <trkpt lat="43.26408" lon="1.85007">
        <ele>252.96</ele>
        <time>2014-09-22T09:12:48Z</time>
      </trkpt>
      <trkpt lat="43.26406" lon="1.85016">
        <ele>252.96</ele>
        <time>2014-09-22T09:12:49Z</time>
      </trkpt>
      <trkpt lat="43.26371" lon="1.85169">
        <ele>249.6</ele>
        <time>2014-09-22T09:13:05Z</time>
      </trkpt>
      <trkpt lat="43.2636" lon="1.85234">
        <ele>247.68</ele>
        <time>2014-09-22T09:13:11Z</time>
      </trkpt>
      <trkpt lat="43.26359" lon="1.85248">
        <ele>247.2</ele>
        <time>2014-09-22T09:13:12Z</time>
      </trkpt>
      <trkpt lat="43.2636" lon="1.85258">
        <ele>247.2</ele>
        <time>2014-09-22T09:13:13Z</time>
      </trkpt>
      <trkpt lat="43.26361" lon="1.85268">
        <ele>246.72</ele>
        <time>2014-09-22T09:13:14Z</time>
      </trkpt>
      <trkpt lat="43.26365" lon="1.8528">
        <ele>246.72</ele>
        <time>2014-09-22T09:13:15Z</time>
      </trkpt>
      <trkpt lat="43.26367" lon="1.85288">
        <ele>246.23</ele>
        <time>2014-09-22T09:13:16Z</time>
      </trkpt>
      <trkpt lat="43.26371" lon="1.85297">
        <ele>246.23</ele>
        <time>2014-09-22T09:13:17Z</time>
      </trkpt>
      <trkpt lat="43.26375" lon="1.85305">
        <ele>246.23</ele>
        <time>2014-09-22T09:13:18Z</time>
      </trkpt>
      <trkpt lat="43.2638" lon="1.85314">
        <ele>245.75</ele>
        <time>2014-09-22T09:13:19Z</time>
      </trkpt>
      <trkpt lat="43.26385" lon="1.85321">
        <ele>245.75</ele>
        <time>2014-09-22T09:13:20Z</time>
      </trkpt>
      <trkpt lat="43.2639" lon="1.85328">
        <ele>245.75</ele>
        <time>2014-09-22T09:13:21Z</time>
      </trkpt>
      <trkpt lat="43.26466" lon="1.85414">
        <ele>245.75</ele>
        <time>2014-09-22T09:13:36Z</time>
      </trkpt>
      <trkpt lat="43.26523" lon="1.85475">
        <ele>245.75</ele>
        <time>2014-09-22T09:13:47Z</time>
      </trkpt>
      <trkpt lat="43.26529" lon="1.85478">
        <ele>245.27</ele>
        <time>2014-09-22T09:13:48Z</time>
      </trkpt>
      <trkpt lat="43.26534" lon="1.85479">
        <ele>245.27</ele>
        <time>2014-09-22T09:13:49Z</time>
      </trkpt>
      <trkpt lat="43.26551" lon="1.8548">
        <ele>244.79</ele>
        <time>2014-09-22T09:13:52Z</time>
      </trkpt>
      <trkpt lat="43.26557" lon="1.85477">
        <ele>244.79</ele>
        <time>2014-09-22T09:13:53Z</time>
      </trkpt>
      <trkpt lat="43.26561" lon="1.85475">
        <ele>244.79</ele>
        <time>2014-09-22T09:13:54Z</time>
      </trkpt>
      <trkpt lat="43.26593" lon="1.8544">
        <ele>245.27</ele>
        <time>2014-09-22T09:14:04Z</time>
      </trkpt>
      <trkpt lat="43.26598" lon="1.85431">
        <ele>244.79</ele>
        <time>2014-09-22T09:14:06Z</time>
      </trkpt>
      <trkpt lat="43.266" lon="1.85425">
        <ele>244.79</ele>
        <time>2014-09-22T09:14:07Z</time>
      </trkpt>
      <trkpt lat="43.26605" lon="1.85409">
        <ele>244.79</ele>
        <time>2014-09-22T09:14:10Z</time>
      </trkpt>
      <trkpt lat="43.26606" lon="1.85402">
        <ele>245.27</ele>
        <time>2014-09-22T09:14:11Z</time>
      </trkpt>
      <trkpt lat="43.26613" lon="1.85343">
        <ele>246.23</ele>
        <time>2014-09-22T09:14:21Z</time>
      </trkpt>
      <trkpt lat="43.26612" lon="1.85342">
        <ele>246.23</ele>
        <time>2014-09-22T09:14:22Z</time>
      </trkpt>
      <trkpt lat="43.26611" lon="1.85347">
        <ele>246.72</ele>
        <time>2014-09-22T09:14:24Z</time>
      </trkpt>
      <trkpt lat="43.26611" lon="1.85351">
        <ele>246.72</ele>
        <time>2014-09-22T09:14:25Z</time>
      </trkpt>
      <trkpt lat="43.2661" lon="1.85354">
        <ele>246.72</ele>
        <time>2014-09-22T09:14:26Z</time>
      </trkpt>
      <trkpt lat="43.2661" lon="1.85359">
        <ele>246.72</ele>
        <time>2014-09-22T09:14:27Z</time>
      </trkpt>
      <trkpt lat="43.2661" lon="1.85363">
        <ele>246.72</ele>
        <time>2014-09-22T09:14:28Z</time>
      </trkpt>
      <trkpt lat="43.2661" lon="1.85369">
        <ele>246.72</ele>
        <time>2014-09-22T09:14:29Z</time>
      </trkpt>
      <trkpt lat="43.26605" lon="1.85417">
        <ele>246.23</ele>
        <time>2014-09-22T09:14:36Z</time>
      </trkpt>
      <trkpt lat="43.26603" lon="1.85424">
        <ele>246.23</ele>
        <time>2014-09-22T09:14:37Z</time>
      </trkpt>
      <trkpt lat="43.26601" lon="1.8543">
        <ele>245.75</ele>
        <time>2014-09-22T09:14:38Z</time>
      </trkpt>
      <trkpt lat="43.26597" lon="1.85437">
        <ele>245.75</ele>
        <time>2014-09-22T09:14:39Z</time>
      </trkpt>
      <trkpt lat="43.26593" lon="1.85443">
        <ele>245.75</ele>
        <time>2014-09-22T09:14:40Z</time>
      </trkpt>
      <trkpt lat="43.26589" lon="1.85448">
        <ele>245.75</ele>
        <time>2014-09-22T09:14:41Z</time>
      </trkpt>
      <trkpt lat="43.26583" lon="1.8545">
        <ele>245.75</ele>
        <time>2014-09-22T09:14:42Z</time>
      </trkpt>
      <trkpt lat="43.26577" lon="1.85449">
        <ele>245.75</ele>
        <time>2014-09-22T09:14:43Z</time>
      </trkpt>
      <trkpt lat="43.26573" lon="1.85442">
        <ele>245.75</ele>
        <time>2014-09-22T09:14:44Z</time>
      </trkpt>
      <trkpt lat="43.26572" lon="1.85436">
        <ele>245.75</ele>
        <time>2014-09-22T09:14:45Z</time>
      </trkpt>
      <trkpt lat="43.26572" lon="1.85428">
        <ele>245.75</ele>
        <time>2014-09-22T09:14:46Z</time>
      </trkpt>
      <trkpt lat="43.26573" lon="1.85422">
        <ele>245.75</ele>
        <time>2014-09-22T09:14:47Z</time>
      </trkpt>
      <trkpt lat="43.26575" lon="1.85414">
        <ele>245.27</ele>
        <time>2014-09-22T09:14:48Z</time>
      </trkpt>
      <trkpt lat="43.26578" lon="1.85406">
        <ele>245.27</ele>
        <time>2014-09-22T09:14:49Z</time>
      </trkpt>
      <trkpt lat="43.26605" lon="1.85311">
        <ele>242.87</ele>
        <time>2014-09-22T09:15:02Z</time>
      </trkpt>
      <trkpt lat="43.26626" lon="1.85212">
        <ele>243.35</ele>
        <time>2014-09-22T09:15:15Z</time>
      </trkpt>
      <trkpt lat="43.26656" lon="1.85082">
        <ele>242.39</ele>
        <time>2014-09-22T09:15:30Z</time>
      </trkpt>
      <trkpt lat="43.26712" lon="1.84936">
        <ele>243.83</ele>
        <time>2014-09-22T09:15:48Z</time>
      </trkpt>
      <trkpt lat="43.26764" lon="1.84738">
        <ele>243.35</ele>
        <time>2014-09-22T09:16:10Z</time>
      </trkpt>
      <trkpt lat="43.26814" lon="1.84548">
        <ele>242.39</ele>
        <time>2014-09-22T09:16:31Z</time>
      </trkpt>
      <trkpt lat="43.2687" lon="1.8447">
        <ele>243.35</ele>
        <time>2014-09-22T09:16:42Z</time>
      </trkpt>
      <trkpt lat="43.26893" lon="1.84441">
        <ele>242.87</ele>
        <time>2014-09-22T09:16:47Z</time>
      </trkpt>
      <trkpt lat="43.26896" lon="1.84434">
        <ele>242.87</ele>
        <time>2014-09-22T09:16:48Z</time>
      </trkpt>
      <trkpt lat="43.26902" lon="1.84418">
        <ele>242.39</ele>
        <time>2014-09-22T09:16:50Z</time>
      </trkpt>
      <trkpt lat="43.26904" lon="1.84409">
        <ele>242.39</ele>
        <time>2014-09-22T09:16:51Z</time>
      </trkpt>
      <trkpt lat="43.26946" lon="1.84223">
        <ele>239.51</ele>
        <time>2014-09-22T09:17:11Z</time>
      </trkpt>
      <trkpt lat="43.26967" lon="1.84066">
        <ele>238.54</ele>
        <time>2014-09-22T09:17:28Z</time>
      </trkpt>
      <trkpt lat="43.26948" lon="1.83967">
        <ele>237.58</ele>
        <time>2014-09-22T09:17:39Z</time>
      </trkpt>
      <trkpt lat="43.26948" lon="1.83958">
        <ele>237.58</ele>
        <time>2014-09-22T09:17:40Z</time>
      </trkpt>
      <trkpt lat="43.26949" lon="1.83939">
        <ele>237.58</ele>
        <time>2014-09-22T09:17:42Z</time>
      </trkpt>
      <trkpt lat="43.2696" lon="1.83786">
        <ele>239.02</ele>
        <time>2014-09-22T09:17:58Z</time>
      </trkpt>
      <trkpt lat="43.26963" lon="1.83616">
        <ele>235.66</ele>
        <time>2014-09-22T09:18:16Z</time>
      </trkpt>
      <trkpt lat="43.26993" lon="1.83509">
        <ele>232.3</ele>
        <time>2014-09-22T09:18:28Z</time>
      </trkpt>
      <trkpt lat="43.27046" lon="1.83334">
        <ele>233.26</ele>
        <time>2014-09-22T09:18:48Z</time>
      </trkpt>
      <trkpt lat="43.27113" lon="1.83182">
        <ele>237.58</ele>
        <time>2014-09-22T09:19:07Z</time>
      </trkpt>
      <trkpt lat="43.27175" lon="1.83049">
        <ele>238.06</ele>
        <time>2014-09-22T09:19:23Z</time>
      </trkpt>
      <trkpt lat="43.27211" lon="1.82906">
        <ele>235.66</ele>
        <time>2014-09-22T09:19:38Z</time>
      </trkpt>
      <trkpt lat="43.27277" lon="1.82805">
        <ele>235.18</ele>
        <time>2014-09-22T09:19:52Z</time>
      </trkpt>
      <trkpt lat="43.27368" lon="1.82672">
        <ele>236.62</ele>
        <time>2014-09-22T09:20:11Z</time>
      </trkpt>
      <trkpt lat="43.27423" lon="1.82598">
        <ele>237.1</ele>
        <time>2014-09-22T09:20:24Z</time>
      </trkpt>
      <trkpt lat="43.27475" lon="1.82531">
        <ele>236.14</ele>
        <time>2014-09-22T09:20:35Z</time>
      </trkpt>
      <trkpt lat="43.27578" lon="1.82437">
        <ele>235.66</ele>
        <time>2014-09-22T09:20:53Z</time>
      </trkpt>
      <trkpt lat="43.27611" lon="1.82406">
        <ele>236.14</ele>
        <time>2014-09-22T09:20:59Z</time>
      </trkpt>
      <trkpt lat="43.27616" lon="1.82399">
        <ele>236.14</ele>
        <time>2014-09-22T09:21:00Z</time>
      </trkpt>
      <trkpt lat="43.27624" lon="1.82384">
        <ele>236.14</ele>
        <time>2014-09-22T09:21:02Z</time>
      </trkpt>
      <trkpt lat="43.27628" lon="1.82375">
        <ele>236.14</ele>
        <time>2014-09-22T09:21:03Z</time>
      </trkpt>
      <trkpt lat="43.27666" lon="1.82285">
        <ele>235.66</ele>
        <time>2014-09-22T09:21:13Z</time>
      </trkpt>
      <trkpt lat="43.27671" lon="1.82278">
        <ele>235.66</ele>
        <time>2014-09-22T09:21:14Z</time>
      </trkpt>
      <trkpt lat="43.27676" lon="1.82271">
        <ele>235.66</ele>
        <time>2014-09-22T09:21:15Z</time>
      </trkpt>
      <trkpt lat="43.27762" lon="1.82156">
        <ele>236.62</ele>
        <time>2014-09-22T09:21:31Z</time>
      </trkpt>
      <trkpt lat="43.27838" lon="1.82056">
        <ele>235.66</ele>
        <time>2014-09-22T09:21:45Z</time>
      </trkpt>
      <trkpt lat="43.27933" lon="1.81896">
        <ele>234.22</ele>
        <time>2014-09-22T09:22:05Z</time>
      </trkpt>
      <trkpt lat="43.2799" lon="1.81758">
        <ele>231.81</ele>
        <time>2014-09-22T09:22:20Z</time>
      </trkpt>
      <trkpt lat="43.27998" lon="1.81714">
        <ele>231.33</ele>
        <time>2014-09-22T09:22:24Z</time>
      </trkpt>
      <trkpt lat="43.28006" lon="1.81694">
        <ele>230.85</ele>
        <time>2014-09-22T09:22:26Z</time>
      </trkpt>
      <trkpt lat="43.28076" lon="1.81545">
        <ele>230.85</ele>
        <time>2014-09-22T09:22:43Z</time>
      </trkpt>
      <trkpt lat="43.28156" lon="1.81378">
        <ele>230.85</ele>
        <time>2014-09-22T09:23:02Z</time>
      </trkpt>
      <trkpt lat="43.28243" lon="1.81239">
        <ele>230.37</ele>
        <time>2014-09-22T09:23:20Z</time>
      </trkpt>
      <trkpt lat="43.2835" lon="1.81064">
        <ele>229.89</ele>
        <time>2014-09-22T09:23:42Z</time>
      </trkpt>
      <trkpt lat="43.28381" lon="1.81007">
        <ele>229.41</ele>
        <time>2014-09-22T09:23:49Z</time>
      </trkpt>
      <trkpt lat="43.28397" lon="1.80957">
        <ele>228.93</ele>
        <time>2014-09-22T09:23:54Z</time>
      </trkpt>
      <trkpt lat="43.28467" lon="1.80849">
        <ele>227.97</ele>
        <time>2014-09-22T09:24:08Z</time>
      </trkpt>
      <trkpt lat="43.2856" lon="1.80736">
        <ele>226.53</ele>
        <time>2014-09-22T09:24:24Z</time>
      </trkpt>
      <trkpt lat="43.28658" lon="1.80619">
        <ele>224.61</ele>
        <time>2014-09-22T09:24:41Z</time>
      </trkpt>
      <trkpt lat="43.28775" lon="1.80499">
        <ele>223.64</ele>
        <time>2014-09-22T09:25:00Z</time>
      </trkpt>
      <trkpt lat="43.28844" lon="1.8039">
        <ele>222.68</ele>
        <time>2014-09-22T09:25:14Z</time>
      </trkpt>
      <trkpt lat="43.28945" lon="1.80196">
        <ele>222.2</ele>
        <time>2014-09-22T09:25:37Z</time>
      </trkpt>
      <trkpt lat="43.29047" lon="1.79999">
        <ele>223.16</ele>
        <time>2014-09-22T09:26:01Z</time>
      </trkpt>
      <trkpt lat="43.29119" lon="1.79859">
        <ele>224.61</ele>
        <time>2014-09-22T09:26:18Z</time>
      </trkpt>
      <trkpt lat="43.29182" lon="1.79737">
        <ele>223.64</ele>
        <time>2014-09-22T09:26:33Z</time>
      </trkpt>
      <trkpt lat="43.29251" lon="1.79655">
        <ele>222.2</ele>
        <time>2014-09-22T09:26:46Z</time>
      </trkpt>
      <trkpt lat="43.29335" lon="1.7958">
        <ele>220.76</ele>
        <time>2014-09-22T09:27:01Z</time>
      </trkpt>
      <trkpt lat="43.29353" lon="1.79559">
        <ele>220.76</ele>
        <time>2014-09-22T09:27:11Z</time>
      </trkpt>
      <trkpt lat="43.29359" lon="1.79547">
        <ele>220.28</ele>
        <time>2014-09-22T09:27:17Z</time>
      </trkpt>
      <trkpt lat="43.29358" lon="1.79547">
        <ele>220.28</ele>
        <time>2014-09-22T09:27:18Z</time>
      </trkpt>
      <trkpt lat="43.29355" lon="1.79549">
        <ele>220.28</ele>
        <time>2014-09-22T09:27:19Z</time>
      </trkpt>
      <trkpt lat="43.29353" lon="1.79552">
        <ele>220.28</ele>
        <time>2014-09-22T09:27:20Z</time>
      </trkpt>
      <trkpt lat="43.29352" lon="1.79554">
        <ele>220.76</ele>
        <time>2014-09-22T09:27:21Z</time>
      </trkpt>
      <trkpt lat="43.2935" lon="1.79557">
        <ele>220.76</ele>
        <time>2014-09-22T09:27:22Z</time>
      </trkpt>
      <trkpt lat="43.29349" lon="1.79561">
        <ele>220.76</ele>
        <time>2014-09-22T09:27:23Z</time>
      </trkpt>
      <trkpt lat="43.29346" lon="1.79565">
        <ele>220.76</ele>
        <time>2014-09-22T09:27:24Z</time>
      </trkpt>
      <trkpt lat="43.29338" lon="1.79581">
        <ele>220.28</ele>
        <time>2014-09-22T09:27:27Z</time>
      </trkpt>
      <trkpt lat="43.29338" lon="1.79588">
        <ele>219.8</ele>
        <time>2014-09-22T09:27:28Z</time>
      </trkpt>
      <trkpt lat="43.2934" lon="1.79597">
        <ele>220.28</ele>
        <time>2014-09-22T09:27:30Z</time>
      </trkpt>
      <trkpt lat="43.29344" lon="1.79605">
        <ele>220.76</ele>
        <time>2014-09-22T09:27:31Z</time>
      </trkpt>
      <trkpt lat="43.29347" lon="1.7961">
        <ele>220.76</ele>
        <time>2014-09-22T09:27:32Z</time>
      </trkpt>
      <trkpt lat="43.29364" lon="1.79637">
        <ele>222.68</ele>
        <time>2014-09-22T09:27:37Z</time>
      </trkpt>
      <trkpt lat="43.29383" lon="1.79661">
        <ele>224.61</ele>
        <time>2014-09-22T09:27:42Z</time>
      </trkpt>
      <trkpt lat="43.29429" lon="1.79691">
        <ele>227.97</ele>
        <time>2014-09-22T09:27:53Z</time>
      </trkpt>
      <trkpt lat="43.29437" lon="1.79695">
        <ele>228.93</ele>
        <time>2014-09-22T09:27:55Z</time>
      </trkpt>
      <trkpt lat="43.29473" lon="1.79723">
        <ele>231.33</ele>
        <time>2014-09-22T09:28:04Z</time>
      </trkpt>
      <trkpt lat="43.29476" lon="1.79727">
        <ele>231.33</ele>
        <time>2014-09-22T09:28:05Z</time>
      </trkpt>
      <trkpt lat="43.29479" lon="1.79732">
        <ele>231.81</ele>
        <time>2014-09-22T09:28:06Z</time>
      </trkpt>
      <trkpt lat="43.29497" lon="1.79787">
        <ele>234.7</ele>
        <time>2014-09-22T09:28:16Z</time>
      </trkpt>
      <trkpt lat="43.29502" lon="1.79809">
        <ele>235.66</ele>
        <time>2014-09-22T09:28:20Z</time>
      </trkpt>
      <trkpt lat="43.2951" lon="1.79831">
        <ele>237.1</ele>
        <time>2014-09-22T09:28:24Z</time>
      </trkpt>
      <trkpt lat="43.29512" lon="1.79836">
        <ele>237.58</ele>
        <time>2014-09-22T09:28:25Z</time>
      </trkpt>
      <trkpt lat="43.29515" lon="1.79841">
        <ele>237.58</ele>
        <time>2014-09-22T09:28:26Z</time>
      </trkpt>
      <trkpt lat="43.29519" lon="1.79845">
        <ele>238.06</ele>
        <time>2014-09-22T09:28:27Z</time>
      </trkpt>
      <trkpt lat="43.29522" lon="1.79848">
        <ele>238.54</ele>
        <time>2014-09-22T09:28:28Z</time>
      </trkpt>
      <trkpt lat="43.29526" lon="1.79851">
        <ele>239.02</ele>
        <time>2014-09-22T09:28:29Z</time>
      </trkpt>
      <trkpt lat="43.2953" lon="1.79854">
        <ele>239.02</ele>
        <time>2014-09-22T09:28:30Z</time>
      </trkpt>
      <trkpt lat="43.29534" lon="1.79855">
        <ele>239.51</ele>
        <time>2014-09-22T09:28:31Z</time>
      </trkpt>
      <trkpt lat="43.29539" lon="1.79856">
        <ele>239.99</ele>
        <time>2014-09-22T09:28:32Z</time>
      </trkpt>
      <trkpt lat="43.29543" lon="1.79856">
        <ele>240.47</ele>
        <time>2014-09-22T09:28:33Z</time>
      </trkpt>
      <trkpt lat="43.29547" lon="1.79856">
        <ele>240.95</ele>
        <time>2014-09-22T09:28:34Z</time>
      </trkpt>
      <trkpt lat="43.29552" lon="1.79855">
        <ele>241.43</ele>
        <time>2014-09-22T09:28:35Z</time>
      </trkpt>
      <trkpt lat="43.29555" lon="1.79853">
        <ele>241.91</ele>
        <time>2014-09-22T09:28:36Z</time>
      </trkpt>
      <trkpt lat="43.29559" lon="1.79851">
        <ele>242.39</ele>
        <time>2014-09-22T09:28:37Z</time>
      </trkpt>
      <trkpt lat="43.29628" lon="1.79825">
        <ele>248.16</ele>
        <time>2014-09-22T09:28:53Z</time>
      </trkpt>
      <trkpt lat="43.29685" lon="1.79858">
        <ele>252</ele>
        <time>2014-09-22T09:29:07Z</time>
      </trkpt>
      <trkpt lat="43.29697" lon="1.79877">
        <ele>253.44</ele>
        <time>2014-09-22T09:29:11Z</time>
      </trkpt>
      <trkpt lat="43.29704" lon="1.79894">
        <ele>254.89</ele>
        <time>2014-09-22T09:29:14Z</time>
      </trkpt>
      <trkpt lat="43.29705" lon="1.79898">
        <ele>254.89</ele>
        <time>2014-09-22T09:29:15Z</time>
      </trkpt>
      <trkpt lat="43.29716" lon="1.79989">
        <ele>256.33</ele>
        <time>2014-09-22T09:29:30Z</time>
      </trkpt>
      <trkpt lat="43.29741" lon="1.80088">
        <ele>260.65</ele>
        <time>2014-09-22T09:29:47Z</time>
      </trkpt>
      <trkpt lat="43.2977" lon="1.80176">
        <ele>264.02</ele>
        <time>2014-09-22T09:30:03Z</time>
      </trkpt>
      <trkpt lat="43.2979" lon="1.8021">
        <ele>266.42</ele>
        <time>2014-09-22T09:30:11Z</time>
      </trkpt>
      <trkpt lat="43.29801" lon="1.80227">
        <ele>267.38</ele>
        <time>2014-09-22T09:30:15Z</time>
      </trkpt>
      <trkpt lat="43.29849" lon="1.80318">
        <ele>270.75</ele>
        <time>2014-09-22T09:30:34Z</time>
      </trkpt>
      <trkpt lat="43.29872" lon="1.8039">
        <ele>275.07</ele>
        <time>2014-09-22T09:30:48Z</time>
      </trkpt>
      <trkpt lat="43.29895" lon="1.80444">
        <ele>277.48</ele>
        <time>2014-09-22T09:30:59Z</time>
      </trkpt>
      <trkpt lat="43.29926" lon="1.80517">
        <ele>279.88</ele>
        <time>2014-09-22T09:31:13Z</time>
      </trkpt>
      <trkpt lat="43.29931" lon="1.80528">
        <ele>280.36</ele>
        <time>2014-09-22T09:31:15Z</time>
      </trkpt>
      <trkpt lat="43.29933" lon="1.80533">
        <ele>280.36</ele>
        <time>2014-09-22T09:31:16Z</time>
      </trkpt>
      <trkpt lat="43.29943" lon="1.80634">
        <ele>283.73</ele>
        <time>2014-09-22T09:31:33Z</time>
      </trkpt>
      <trkpt lat="43.29939" lon="1.80699">
        <ele>285.65</ele>
        <time>2014-09-22T09:31:44Z</time>
      </trkpt>
      <trkpt lat="43.2994" lon="1.80705">
        <ele>286.13</ele>
        <time>2014-09-22T09:31:45Z</time>
      </trkpt>
      <trkpt lat="43.29944" lon="1.80728">
        <ele>287.09</ele>
        <time>2014-09-22T09:31:49Z</time>
      </trkpt>
      <trkpt lat="43.29948" lon="1.80742">
        <ele>287.57</ele>
        <time>2014-09-22T09:31:51Z</time>
      </trkpt>
      <trkpt lat="43.29965" lon="1.80793">
        <ele>288.05</ele>
        <time>2014-09-22T09:32:00Z</time>
      </trkpt>
      <trkpt lat="43.29968" lon="1.80799">
        <ele>288.05</ele>
        <time>2014-09-22T09:32:01Z</time>
      </trkpt>
      <trkpt lat="43.29971" lon="1.80804">
        <ele>288.53</ele>
        <time>2014-09-22T09:32:02Z</time>
      </trkpt>
      <trkpt lat="43.29974" lon="1.80808">
        <ele>288.53</ele>
        <time>2014-09-22T09:32:03Z</time>
      </trkpt>
      <trkpt lat="43.29978" lon="1.80813">
        <ele>288.53</ele>
        <time>2014-09-22T09:32:04Z</time>
      </trkpt>
      <trkpt lat="43.29982" lon="1.80816">
        <ele>288.53</ele>
        <time>2014-09-22T09:32:05Z</time>
      </trkpt>
      <trkpt lat="43.30052" lon="1.80849">
        <ele>289.01</ele>
        <time>2014-09-22T09:32:20Z</time>
      </trkpt>
      <trkpt lat="43.30143" lon="1.80894">
        <ele>286.61</ele>
        <time>2014-09-22T09:32:35Z</time>
      </trkpt>
      <trkpt lat="43.30238" lon="1.80983">
        <ele>284.21</ele>
        <time>2014-09-22T09:32:52Z</time>
      </trkpt>
      <trkpt lat="43.30257" lon="1.80997">
        <ele>283.73</ele>
        <time>2014-09-22T09:32:55Z</time>
      </trkpt>
      <trkpt lat="43.30263" lon="1.80999">
        <ele>283.25</ele>
        <time>2014-09-22T09:32:56Z</time>
      </trkpt>
      <trkpt lat="43.30282" lon="1.81006">
        <ele>282.77</ele>
        <time>2014-09-22T09:33:03Z</time>
      </trkpt>
      <trkpt lat="43.30282" lon="1.81006">
        <ele>281.8</ele>
        <time>2014-09-22T09:33:17Z</time>
      </trkpt>
      <trkpt lat="43.3028" lon="1.81006">
        <ele>282.28</ele>
        <time>2014-09-22T09:33:54Z</time>
      </trkpt>
      <trkpt lat="43.30279" lon="1.81006">
        <ele>281.8</ele>
        <time>2014-09-22T09:34:27Z</time>
      </trkpt>
      <trkpt lat="43.3028" lon="1.81005">
        <ele>282.28</ele>
        <time>2014-09-22T09:35:06Z</time>
      </trkpt>
      <trkpt lat="43.3028" lon="1.81005">
        <ele>282.28</ele>
        <time>2014-09-22T09:35:37Z</time>
      </trkpt>
      <trkpt lat="43.30282" lon="1.81004">
        <ele>281.8</ele>
        <time>2014-09-22T09:35:42Z</time>
      </trkpt>
      <trkpt lat="43.30283" lon="1.81004">
        <ele>281.8</ele>
        <time>2014-09-22T09:35:43Z</time>
      </trkpt>
      <trkpt lat="43.30284" lon="1.81004">
        <ele>281.8</ele>
        <time>2014-09-22T09:35:44Z</time>
      </trkpt>
      <trkpt lat="43.30287" lon="1.81005">
        <ele>281.8</ele>
        <time>2014-09-22T09:35:45Z</time>
      </trkpt>
      <trkpt lat="43.3029" lon="1.81006">
        <ele>282.28</ele>
        <time>2014-09-22T09:35:46Z</time>
      </trkpt>
      <trkpt lat="43.30301" lon="1.81008">
        <ele>282.28</ele>
        <time>2014-09-22T09:35:49Z</time>
      </trkpt>
      <trkpt lat="43.30306" lon="1.81008">
        <ele>282.28</ele>
        <time>2014-09-22T09:35:50Z</time>
      </trkpt>
      <trkpt lat="43.30327" lon="1.81007">
        <ele>282.28</ele>
        <time>2014-09-22T09:35:54Z</time>
      </trkpt>
      <trkpt lat="43.30421" lon="1.80953">
        <ele>281.8</ele>
        <time>2014-09-22T09:36:10Z</time>
      </trkpt>
      <trkpt lat="43.30474" lon="1.80904">
        <ele>281.8</ele>
        <time>2014-09-22T09:36:20Z</time>
      </trkpt>
      <trkpt lat="43.3048" lon="1.809">
        <ele>281.8</ele>
        <time>2014-09-22T09:36:21Z</time>
      </trkpt>
      <trkpt lat="43.30503" lon="1.80887">
        <ele>281.8</ele>
        <time>2014-09-22T09:36:25Z</time>
      </trkpt>
      <trkpt lat="43.30542" lon="1.80879">
        <ele>280.84</ele>
        <time>2014-09-22T09:36:31Z</time>
      </trkpt>
      <trkpt lat="43.3055" lon="1.80881">
        <ele>280.84</ele>
        <time>2014-09-22T09:36:32Z</time>
      </trkpt>
      <trkpt lat="43.30557" lon="1.80883">
        <ele>280.84</ele>
        <time>2014-09-22T09:36:33Z</time>
      </trkpt>
      <trkpt lat="43.30565" lon="1.80888">
        <ele>280.84</ele>
        <time>2014-09-22T09:36:34Z</time>
      </trkpt>
      <trkpt lat="43.30572" lon="1.80894">
        <ele>280.36</ele>
        <time>2014-09-22T09:36:35Z</time>
      </trkpt>
      <trkpt lat="43.30578" lon="1.80902">
        <ele>280.36</ele>
        <time>2014-09-22T09:36:36Z</time>
      </trkpt>
      <trkpt lat="43.30583" lon="1.80911">
        <ele>280.36</ele>
        <time>2014-09-22T09:36:37Z</time>
      </trkpt>
      <trkpt lat="43.30588" lon="1.80922">
        <ele>279.88</ele>
        <time>2014-09-22T09:36:38Z</time>
      </trkpt>
      <trkpt lat="43.30594" lon="1.80931">
        <ele>279.4</ele>
        <time>2014-09-22T09:36:39Z</time>
      </trkpt>
      <trkpt lat="43.306" lon="1.80938">
        <ele>279.4</ele>
        <time>2014-09-22T09:36:40Z</time>
      </trkpt>
      <trkpt lat="43.3061" lon="1.80943">
        <ele>278.44</ele>
        <time>2014-09-22T09:36:41Z</time>
      </trkpt>
      <trkpt lat="43.30616" lon="1.80943">
        <ele>277.96</ele>
        <time>2014-09-22T09:36:42Z</time>
      </trkpt>
      <trkpt lat="43.30625" lon="1.8094">
        <ele>277</ele>
        <time>2014-09-22T09:36:43Z</time>
      </trkpt>
      <trkpt lat="43.30633" lon="1.80934">
        <ele>276.52</ele>
        <time>2014-09-22T09:36:44Z</time>
      </trkpt>
      <trkpt lat="43.3064" lon="1.80925">
        <ele>276.04</ele>
        <time>2014-09-22T09:36:45Z</time>
      </trkpt>
      <trkpt lat="43.30647" lon="1.80916">
        <ele>275.56</ele>
        <time>2014-09-22T09:36:46Z</time>
      </trkpt>
      <trkpt lat="43.30653" lon="1.80906">
        <ele>275.56</ele>
        <time>2014-09-22T09:36:47Z</time>
      </trkpt>
      <trkpt lat="43.3073" lon="1.80809">
        <ele>270.27</ele>
        <time>2014-09-22T09:36:58Z</time>
      </trkpt>
      <trkpt lat="43.30807" lon="1.80696">
        <ele>264.98</ele>
        <time>2014-09-22T09:37:10Z</time>
      </trkpt>
      <trkpt lat="43.30817" lon="1.80689">
        <ele>264.5</ele>
        <time>2014-09-22T09:37:11Z</time>
      </trkpt>
      <trkpt lat="43.30826" lon="1.80686">
        <ele>264.5</ele>
        <time>2014-09-22T09:37:12Z</time>
      </trkpt>
      <trkpt lat="43.30838" lon="1.80686">
        <ele>264.02</ele>
        <time>2014-09-22T09:37:13Z</time>
      </trkpt>
      <trkpt lat="43.30847" lon="1.80688">
        <ele>263.54</ele>
        <time>2014-09-22T09:37:14Z</time>
      </trkpt>
      <trkpt lat="43.30857" lon="1.80692">
        <ele>263.06</ele>
        <time>2014-09-22T09:37:15Z</time>
      </trkpt>
      <trkpt lat="43.30867" lon="1.80696">
        <ele>262.58</ele>
        <time>2014-09-22T09:37:16Z</time>
      </trkpt>
      <trkpt lat="43.30897" lon="1.80703">
        <ele>261.14</ele>
        <time>2014-09-22T09:37:19Z</time>
      </trkpt>
      <trkpt lat="43.30907" lon="1.80703">
        <ele>260.65</ele>
        <time>2014-09-22T09:37:20Z</time>
      </trkpt>
      <trkpt lat="43.30917" lon="1.807">
        <ele>260.17</ele>
        <time>2014-09-22T09:37:21Z</time>
      </trkpt>
      <trkpt lat="43.30927" lon="1.80695">
        <ele>259.69</ele>
        <time>2014-09-22T09:37:22Z</time>
      </trkpt>
      <trkpt lat="43.30936" lon="1.80688">
        <ele>259.21</ele>
        <time>2014-09-22T09:37:23Z</time>
      </trkpt>
      <trkpt lat="43.30945" lon="1.80681">
        <ele>258.73</ele>
        <time>2014-09-22T09:37:24Z</time>
      </trkpt>
      <trkpt lat="43.30955" lon="1.80671">
        <ele>258.25</ele>
        <time>2014-09-22T09:37:25Z</time>
      </trkpt>
      <trkpt lat="43.30962" lon="1.80665">
        <ele>258.25</ele>
        <time>2014-09-22T09:37:26Z</time>
      </trkpt>
      <trkpt lat="43.30973" lon="1.80662">
        <ele>257.77</ele>
        <time>2014-09-22T09:37:27Z</time>
      </trkpt>
      <trkpt lat="43.30983" lon="1.80664">
        <ele>257.29</ele>
        <time>2014-09-22T09:37:28Z</time>
      </trkpt>
      <trkpt lat="43.30993" lon="1.8067">
        <ele>256.81</ele>
        <time>2014-09-22T09:37:29Z</time>
      </trkpt>
      <trkpt lat="43.31002" lon="1.80677">
        <ele>256.81</ele>
        <time>2014-09-22T09:37:30Z</time>
      </trkpt>
      <trkpt lat="43.31058" lon="1.80702">
        <ele>253.44</ele>
        <time>2014-09-22T09:37:37Z</time>
      </trkpt>
      <trkpt lat="43.31063" lon="1.80701">
        <ele>252.96</ele>
        <time>2014-09-22T09:37:38Z</time>
      </trkpt>
      <trkpt lat="43.31068" lon="1.80697">
        <ele>252.48</ele>
        <time>2014-09-22T09:37:39Z</time>
      </trkpt>
      <trkpt lat="43.3107" lon="1.8069">
        <ele>252.48</ele>
        <time>2014-09-22T09:37:40Z</time>
      </trkpt>
      <trkpt lat="43.31072" lon="1.80685">
        <ele>252.48</ele>
        <time>2014-09-22T09:37:41Z</time>
      </trkpt>
      <trkpt lat="43.31072" lon="1.80682">
        <ele>248.16</ele>
        <time>2014-09-22T09:37:49Z</time>
      </trkpt>
      <trkpt lat="43.31073" lon="1.80676">
        <ele>247.2</ele>
        <time>2014-09-22T09:38:05Z</time>
      </trkpt>
      <trkpt lat="43.31072" lon="1.80673">
        <ele>247.2</ele>
        <time>2014-09-22T09:38:31Z</time>
      </trkpt>
      <trkpt lat="43.31081" lon="1.80659">
        <ele>246.72</ele>
        <time>2014-09-22T09:38:40Z</time>
      </trkpt>
      <trkpt lat="43.31084" lon="1.80657">
        <ele>246.72</ele>
        <time>2014-09-22T09:38:41Z</time>
      </trkpt>
      <trkpt lat="43.31086" lon="1.80656">
        <ele>246.72</ele>
        <time>2014-09-22T09:38:42Z</time>
      </trkpt>
      <trkpt lat="43.31117" lon="1.80635">
        <ele>248.16</ele>
        <time>2014-09-22T09:38:53Z</time>
      </trkpt>
      <trkpt lat="43.3113" lon="1.80611">
        <ele>249.12</ele>
        <time>2014-09-22T09:38:58Z</time>
      </trkpt>
      <trkpt lat="43.31132" lon="1.80606">
        <ele>249.12</ele>
        <time>2014-09-22T09:38:59Z</time>
      </trkpt>
      <trkpt lat="43.31133" lon="1.80599">
        <ele>249.12</ele>
        <time>2014-09-22T09:39:00Z</time>
      </trkpt>
      <trkpt lat="43.31147" lon="1.80537">
        <ele>251.04</ele>
        <time>2014-09-22T09:39:13Z</time>
      </trkpt>
      <trkpt lat="43.31146" lon="1.80535">
        <ele>251.04</ele>
        <time>2014-09-22T09:39:29Z</time>
      </trkpt>
      <trkpt lat="43.31146" lon="1.80532">
        <ele>251.04</ele>
        <time>2014-09-22T09:39:30Z</time>
      </trkpt>
      <trkpt lat="43.31146" lon="1.8053">
        <ele>251.52</ele>
        <time>2014-09-22T09:39:31Z</time>
      </trkpt>
      <trkpt lat="43.31146" lon="1.80526">
        <ele>251.52</ele>
        <time>2014-09-22T09:39:32Z</time>
      </trkpt>
      <trkpt lat="43.31147" lon="1.80522">
        <ele>251.52</ele>
        <time>2014-09-22T09:39:33Z</time>
      </trkpt>
      <trkpt lat="43.31147" lon="1.80517">
        <ele>252</ele>
        <time>2014-09-22T09:39:34Z</time>
      </trkpt>
      <trkpt lat="43.31145" lon="1.80442">
        <ele>255.37</ele>
        <time>2014-09-22T09:39:48Z</time>
      </trkpt>
      <trkpt lat="43.31142" lon="1.80416">
        <ele>256.33</ele>
        <time>2014-09-22T09:39:53Z</time>
      </trkpt>
      <trkpt lat="43.31141" lon="1.8041">
        <ele>256.81</ele>
        <time>2014-09-22T09:39:54Z</time>
      </trkpt>
      <trkpt lat="43.31134" lon="1.8036">
        <ele>259.69</ele>
        <time>2014-09-22T09:40:03Z</time>
      </trkpt>
      <trkpt lat="43.31132" lon="1.80342">
        <ele>261.62</ele>
        <time>2014-09-22T09:40:06Z</time>
      </trkpt>
      <trkpt lat="43.31132" lon="1.80335">
        <ele>261.62</ele>
        <time>2014-09-22T09:40:07Z</time>
      </trkpt>
      <trkpt lat="43.31134" lon="1.80317">
        <ele>262.58</ele>
        <time>2014-09-22T09:40:10Z</time>
      </trkpt>
      <trkpt lat="43.31144" lon="1.80267">
        <ele>264.02</ele>
        <time>2014-09-22T09:40:18Z</time>
      </trkpt>
      <trkpt lat="43.31157" lon="1.80239">
        <ele>264.98</ele>
        <time>2014-09-22T09:40:23Z</time>
      </trkpt>
      <trkpt lat="43.31161" lon="1.80234">
        <ele>264.98</ele>
        <time>2014-09-22T09:40:24Z</time>
      </trkpt>
      <trkpt lat="43.31165" lon="1.80229">
        <ele>265.46</ele>
        <time>2014-09-22T09:40:25Z</time>
      </trkpt>
      <trkpt lat="43.31168" lon="1.80226">
        <ele>265.46</ele>
        <time>2014-09-22T09:40:26Z</time>
      </trkpt>
      <trkpt lat="43.31172" lon="1.80223">
        <ele>265.46</ele>
        <time>2014-09-22T09:40:27Z</time>
      </trkpt>
      <trkpt lat="43.31177" lon="1.8022">
        <ele>265.94</ele>
        <time>2014-09-22T09:40:28Z</time>
      </trkpt>
      <trkpt lat="43.31181" lon="1.80218">
        <ele>265.94</ele>
        <time>2014-09-22T09:40:29Z</time>
      </trkpt>
      <trkpt lat="43.31186" lon="1.80216">
        <ele>265.94</ele>
        <time>2014-09-22T09:40:30Z</time>
      </trkpt>
      <trkpt lat="43.31225" lon="1.80206">
        <ele>266.9</ele>
        <time>2014-09-22T09:40:38Z</time>
      </trkpt>
      <trkpt lat="43.31229" lon="1.80202">
        <ele>266.9</ele>
        <time>2014-09-22T09:40:39Z</time>
      </trkpt>
      <trkpt lat="43.31233" lon="1.80197">
        <ele>266.9</ele>
        <time>2014-09-22T09:40:40Z</time>
      </trkpt>
      <trkpt lat="43.31237" lon="1.80192">
        <ele>267.38</ele>
        <time>2014-09-22T09:40:41Z</time>
      </trkpt>
      <trkpt lat="43.31241" lon="1.80187">
        <ele>267.38</ele>
        <time>2014-09-22T09:40:42Z</time>
      </trkpt>
      <trkpt lat="43.31258" lon="1.8016">
        <ele>267.86</ele>
        <time>2014-09-22T09:40:47Z</time>
      </trkpt>
      <trkpt lat="43.31291" lon="1.80122">
        <ele>268.83</ele>
        <time>2014-09-22T09:40:55Z</time>
      </trkpt>
      <trkpt lat="43.31295" lon="1.80115">
        <ele>268.83</ele>
        <time>2014-09-22T09:40:56Z</time>
      </trkpt>
      <trkpt lat="43.31298" lon="1.80107">
        <ele>268.83</ele>
        <time>2014-09-22T09:40:57Z</time>
      </trkpt>
      <trkpt lat="43.31314" lon="1.80067">
        <ele>269.31</ele>
        <time>2014-09-22T09:41:03Z</time>
      </trkpt>
      <trkpt lat="43.31318" lon="1.80061">
        <ele>269.31</ele>
        <time>2014-09-22T09:41:04Z</time>
      </trkpt>
      <trkpt lat="43.31322" lon="1.80056">
        <ele>269.31</ele>
        <time>2014-09-22T09:41:05Z</time>
      </trkpt>
      <trkpt lat="43.3134" lon="1.80037">
        <ele>270.27</ele>
        <time>2014-09-22T09:41:09Z</time>
      </trkpt>
      <trkpt lat="43.31344" lon="1.80031">
        <ele>270.27</ele>
        <time>2014-09-22T09:41:10Z</time>
      </trkpt>
      <trkpt lat="43.31347" lon="1.80023">
        <ele>270.27</ele>
        <time>2014-09-22T09:41:11Z</time>
      </trkpt>
      <trkpt lat="43.3135" lon="1.80017">
        <ele>270.75</ele>
        <time>2014-09-22T09:41:12Z</time>
      </trkpt>
      <trkpt lat="43.31352" lon="1.8001">
        <ele>270.75</ele>
        <time>2014-09-22T09:41:13Z</time>
      </trkpt>
      <trkpt lat="43.31354" lon="1.80002">
        <ele>270.75</ele>
        <time>2014-09-22T09:41:14Z</time>
      </trkpt>
      <trkpt lat="43.31368" lon="1.79943">
        <ele>270.75</ele>
        <time>2014-09-22T09:41:22Z</time>
      </trkpt>
      <trkpt lat="43.31371" lon="1.79936">
        <ele>270.75</ele>
        <time>2014-09-22T09:41:23Z</time>
      </trkpt>
      <trkpt lat="43.31375" lon="1.7993">
        <ele>270.75</ele>
        <time>2014-09-22T09:41:24Z</time>
      </trkpt>
      <trkpt lat="43.31379" lon="1.79925">
        <ele>270.75</ele>
        <time>2014-09-22T09:41:25Z</time>
      </trkpt>
      <trkpt lat="43.31383" lon="1.7992">
        <ele>270.75</ele>
        <time>2014-09-22T09:41:26Z</time>
      </trkpt>
      <trkpt lat="43.31387" lon="1.79915">
        <ele>270.75</ele>
        <time>2014-09-22T09:41:27Z</time>
      </trkpt>
      <trkpt lat="43.31392" lon="1.79911">
        <ele>271.23</ele>
        <time>2014-09-22T09:41:28Z</time>
      </trkpt>
      <trkpt lat="43.31405" lon="1.79898">
        <ele>271.23</ele>
        <time>2014-09-22T09:41:31Z</time>
      </trkpt>
      <trkpt lat="43.31409" lon="1.79893">
        <ele>271.23</ele>
        <time>2014-09-22T09:41:32Z</time>
      </trkpt>
      <trkpt lat="43.31455" lon="1.7982">
        <ele>270.27</ele>
        <time>2014-09-22T09:41:45Z</time>
      </trkpt>
      <trkpt lat="43.31475" lon="1.79776">
        <ele>270.27</ele>
        <time>2014-09-22T09:41:52Z</time>
      </trkpt>
      <trkpt lat="43.31498" lon="1.79719">
        <ele>270.75</ele>
        <time>2014-09-22T09:42:00Z</time>
      </trkpt>
      <trkpt lat="43.31503" lon="1.79713">
        <ele>270.75</ele>
        <time>2014-09-22T09:42:01Z</time>
      </trkpt>
      <trkpt lat="43.31508" lon="1.79707">
        <ele>271.23</ele>
        <time>2014-09-22T09:42:02Z</time>
      </trkpt>
      <trkpt lat="43.31512" lon="1.79703">
        <ele>271.23</ele>
        <time>2014-09-22T09:42:03Z</time>
      </trkpt>
      <trkpt lat="43.31517" lon="1.79698">
        <ele>271.71</ele>
        <time>2014-09-22T09:42:04Z</time>
      </trkpt>
      <trkpt lat="43.31523" lon="1.79693">
        <ele>271.71</ele>
        <time>2014-09-22T09:42:05Z</time>
      </trkpt>
      <trkpt lat="43.3157" lon="1.79653">
        <ele>275.56</ele>
        <time>2014-09-22T09:42:15Z</time>
      </trkpt>
      <trkpt lat="43.3164" lon="1.79584">
        <ele>276.52</ele>
        <time>2014-09-22T09:42:29Z</time>
      </trkpt>
      <trkpt lat="43.31645" lon="1.79576">
        <ele>276.04</ele>
        <time>2014-09-22T09:42:30Z</time>
      </trkpt>
      <trkpt lat="43.31649" lon="1.79569">
        <ele>276.04</ele>
        <time>2014-09-22T09:42:31Z</time>
      </trkpt>
      <trkpt lat="43.31652" lon="1.7956">
        <ele>276.04</ele>
        <time>2014-09-22T09:42:32Z</time>
      </trkpt>
      <trkpt lat="43.31656" lon="1.7955">
        <ele>275.56</ele>
        <time>2014-09-22T09:42:33Z</time>
      </trkpt>
      <trkpt lat="43.31657" lon="1.79541">
        <ele>275.07</ele>
        <time>2014-09-22T09:42:34Z</time>
      </trkpt>
      <trkpt lat="43.31659" lon="1.79532">
        <ele>275.07</ele>
        <time>2014-09-22T09:42:35Z</time>
      </trkpt>
      <trkpt lat="43.3166" lon="1.79521">
        <ele>274.11</ele>
        <time>2014-09-22T09:42:36Z</time>
      </trkpt>
      <trkpt lat="43.31661" lon="1.79511">
        <ele>274.11</ele>
        <time>2014-09-22T09:42:37Z</time>
      </trkpt>
      <trkpt lat="43.31676" lon="1.79334">
        <ele>267.38</ele>
        <time>2014-09-22T09:42:54Z</time>
      </trkpt>
      <trkpt lat="43.31717" lon="1.7915">
        <ele>262.1</ele>
        <time>2014-09-22T09:43:11Z</time>
      </trkpt>
      <trkpt lat="43.31758" lon="1.79033">
        <ele>258.25</ele>
        <time>2014-09-22T09:43:22Z</time>
      </trkpt>
      <trkpt lat="43.31764" lon="1.79024">
        <ele>258.25</ele>
        <time>2014-09-22T09:43:23Z</time>
      </trkpt>
      <trkpt lat="43.3177" lon="1.79016">
        <ele>257.77</ele>
        <time>2014-09-22T09:43:24Z</time>
      </trkpt>
      <trkpt lat="43.31778" lon="1.79008">
        <ele>257.29</ele>
        <time>2014-09-22T09:43:25Z</time>
      </trkpt>
      <trkpt lat="43.31786" lon="1.79002">
        <ele>256.81</ele>
        <time>2014-09-22T09:43:26Z</time>
      </trkpt>
      <trkpt lat="43.31797" lon="1.78998">
        <ele>256.33</ele>
        <time>2014-09-22T09:43:27Z</time>
      </trkpt>
      <trkpt lat="43.31803" lon="1.78995">
        <ele>255.85</ele>
        <time>2014-09-22T09:43:28Z</time>
      </trkpt>
      <trkpt lat="43.31813" lon="1.78993">
        <ele>255.37</ele>
        <time>2014-09-22T09:43:29Z</time>
      </trkpt>
      <trkpt lat="43.31829" lon="1.78988">
        <ele>254.41</ele>
        <time>2014-09-22T09:43:31Z</time>
      </trkpt>
      <trkpt lat="43.31838" lon="1.78983">
        <ele>253.93</ele>
        <time>2014-09-22T09:43:32Z</time>
      </trkpt>
      <trkpt lat="43.31846" lon="1.78975">
        <ele>253.44</ele>
        <time>2014-09-22T09:43:33Z</time>
      </trkpt>
      <trkpt lat="43.31853" lon="1.78965">
        <ele>253.44</ele>
        <time>2014-09-22T09:43:34Z</time>
      </trkpt>
      <trkpt lat="43.31858" lon="1.78955">
        <ele>252.96</ele>
        <time>2014-09-22T09:43:35Z</time>
      </trkpt>
      <trkpt lat="43.31863" lon="1.78944">
        <ele>252.48</ele>
        <time>2014-09-22T09:43:36Z</time>
      </trkpt>
      <trkpt lat="43.3193" lon="1.78783">
        <ele>245.75</ele>
        <time>2014-09-22T09:43:50Z</time>
      </trkpt>
      <trkpt lat="43.31932" lon="1.78771">
        <ele>245.27</ele>
        <time>2014-09-22T09:43:51Z</time>
      </trkpt>
      <trkpt lat="43.31934" lon="1.78758">
        <ele>244.79</ele>
        <time>2014-09-22T09:43:52Z</time>
      </trkpt>
      <trkpt lat="43.31934" lon="1.78745">
        <ele>243.83</ele>
        <time>2014-09-22T09:43:53Z</time>
      </trkpt>
      <trkpt lat="43.31932" lon="1.78732">
        <ele>243.35</ele>
        <time>2014-09-22T09:43:54Z</time>
      </trkpt>
      <trkpt lat="43.3193" lon="1.78719">
        <ele>242.87</ele>
        <time>2014-09-22T09:43:55Z</time>
      </trkpt>
      <trkpt lat="43.31927" lon="1.78707">
        <ele>242.39</ele>
        <time>2014-09-22T09:43:56Z</time>
      </trkpt>
      <trkpt lat="43.31919" lon="1.78646">
        <ele>239.51</ele>
        <time>2014-09-22T09:44:01Z</time>
      </trkpt>
      <trkpt lat="43.3192" lon="1.78629">
        <ele>238.54</ele>
        <time>2014-09-22T09:44:03Z</time>
      </trkpt>
      <trkpt lat="43.31922" lon="1.78622">
        <ele>238.06</ele>
        <time>2014-09-22T09:44:04Z</time>
      </trkpt>
      <trkpt lat="43.31927" lon="1.78618">
        <ele>237.58</ele>
        <time>2014-09-22T09:44:05Z</time>
      </trkpt>
      <trkpt lat="43.31933" lon="1.78616">
        <ele>237.1</ele>
        <time>2014-09-22T09:44:06Z</time>
      </trkpt>
      <trkpt lat="43.31936" lon="1.78617">
        <ele>236.62</ele>
        <time>2014-09-22T09:44:07Z</time>
      </trkpt>
      <trkpt lat="43.31941" lon="1.78619">
        <ele>236.62</ele>
        <time>2014-09-22T09:44:08Z</time>
      </trkpt>
      <trkpt lat="43.31966" lon="1.78627">
        <ele>236.62</ele>
        <time>2014-09-22T09:44:13Z</time>
      </trkpt>
      <trkpt lat="43.3197" lon="1.78629">
        <ele>236.62</ele>
        <time>2014-09-22T09:44:14Z</time>
      </trkpt>
      <trkpt lat="43.31988" lon="1.78632">
        <ele>237.1</ele>
        <time>2014-09-22T09:44:18Z</time>
      </trkpt>
      <trkpt lat="43.32039" lon="1.78612">
        <ele>242.39</ele>
        <time>2014-09-22T09:44:32Z</time>
      </trkpt>
      <trkpt lat="43.32079" lon="1.78576">
        <ele>248.64</ele>
        <time>2014-09-22T09:44:45Z</time>
      </trkpt>
      <trkpt lat="43.3212" lon="1.78526">
        <ele>256.81</ele>
        <time>2014-09-22T09:45:00Z</time>
      </trkpt>
      <trkpt lat="43.32154" lon="1.78481">
        <ele>263.06</ele>
        <time>2014-09-22T09:45:14Z</time>
      </trkpt>
      <trkpt lat="43.322" lon="1.78443">
        <ele>267.38</ele>
        <time>2014-09-22T09:45:29Z</time>
      </trkpt>
      <trkpt lat="43.32272" lon="1.78415">
        <ele>268.83</ele>
        <time>2014-09-22T09:45:49Z</time>
      </trkpt>
      <trkpt lat="43.32345" lon="1.78414">
        <ele>270.27</ele>
        <time>2014-09-22T09:46:05Z</time>
      </trkpt>
      <trkpt lat="43.32411" lon="1.78435">
        <ele>269.79</ele>
        <time>2014-09-22T09:46:17Z</time>
      </trkpt>
      <trkpt lat="43.3243" lon="1.78448">
        <ele>267.38</ele>
        <time>2014-09-22T09:46:27Z</time>
      </trkpt>
      <trkpt lat="43.32447" lon="1.7846">
        <ele>266.42</ele>
        <time>2014-09-22T09:46:32Z</time>
      </trkpt>
      <trkpt lat="43.32501" lon="1.78516">
        <ele>262.1</ele>
        <time>2014-09-22T09:46:41Z</time>
      </trkpt>
      <trkpt lat="43.32571" lon="1.78624">
        <ele>252.48</ele>
        <time>2014-09-22T09:46:51Z</time>
      </trkpt>
      <trkpt lat="43.32581" lon="1.78633">
        <ele>251.52</ele>
        <time>2014-09-22T09:46:52Z</time>
      </trkpt>
      <trkpt lat="43.32592" lon="1.7864">
        <ele>250.08</ele>
        <time>2014-09-22T09:46:53Z</time>
      </trkpt>
      <trkpt lat="43.32659" lon="1.78677">
        <ele>244.31</ele>
        <time>2014-09-22T09:46:59Z</time>
      </trkpt>
      <trkpt lat="43.32668" lon="1.78686">
        <ele>243.35</ele>
        <time>2014-09-22T09:47:00Z</time>
      </trkpt>
      <trkpt lat="43.32676" lon="1.78696">
        <ele>242.39</ele>
        <time>2014-09-22T09:47:01Z</time>
      </trkpt>
      <trkpt lat="43.32721" lon="1.78779">
        <ele>239.02</ele>
        <time>2014-09-22T09:47:11Z</time>
      </trkpt>
      <trkpt lat="43.32732" lon="1.78801">
        <ele>239.02</ele>
        <time>2014-09-22T09:47:14Z</time>
      </trkpt>
      <trkpt lat="43.32761" lon="1.78878">
        <ele>239.51</ele>
        <time>2014-09-22T09:47:27Z</time>
      </trkpt>
      <trkpt lat="43.32764" lon="1.78882">
        <ele>241.43</ele>
        <time>2014-09-22T09:47:38Z</time>
      </trkpt>
      <trkpt lat="43.32766" lon="1.78884">
        <ele>241.43</ele>
        <time>2014-09-22T09:47:42Z</time>
      </trkpt>
      <trkpt lat="43.32767" lon="1.78886">
        <ele>241.43</ele>
        <time>2014-09-22T09:47:43Z</time>
      </trkpt>
      <trkpt lat="43.32768" lon="1.78888">
        <ele>241.43</ele>
        <time>2014-09-22T09:47:44Z</time>
      </trkpt>
      <trkpt lat="43.32788" lon="1.78939">
        <ele>241.91</ele>
        <time>2014-09-22T09:47:54Z</time>
      </trkpt>
      <trkpt lat="43.32835" lon="1.79052">
        <ele>241.43</ele>
        <time>2014-09-22T09:48:11Z</time>
      </trkpt>
      <trkpt lat="43.32893" lon="1.79195">
        <ele>240.47</ele>
        <time>2014-09-22T09:48:31Z</time>
      </trkpt>
      <trkpt lat="43.32894" lon="1.79205">
        <ele>240.47</ele>
        <time>2014-09-22T09:48:32Z</time>
      </trkpt>
      <trkpt lat="43.32894" lon="1.79213">
        <ele>240.47</ele>
        <time>2014-09-22T09:48:33Z</time>
      </trkpt>
      <trkpt lat="43.32895" lon="1.79246">
        <ele>240.47</ele>
        <time>2014-09-22T09:48:37Z</time>
      </trkpt>
      <trkpt lat="43.32896" lon="1.79262">
        <ele>240.47</ele>
        <time>2014-09-22T09:48:39Z</time>
      </trkpt>
      <trkpt lat="43.32895" lon="1.79286">
        <ele>239.99</ele>
        <time>2014-09-22T09:48:42Z</time>
      </trkpt>
      <trkpt lat="43.32894" lon="1.79294">
        <ele>239.99</ele>
        <time>2014-09-22T09:48:43Z</time>
      </trkpt>
      <trkpt lat="43.32893" lon="1.79309">
        <ele>240.47</ele>
        <time>2014-09-22T09:48:45Z</time>
      </trkpt>
      <trkpt lat="43.32893" lon="1.79345">
        <ele>240.47</ele>
        <time>2014-09-22T09:48:50Z</time>
      </trkpt>
      <trkpt lat="43.32895" lon="1.79351">
        <ele>240.47</ele>
        <time>2014-09-22T09:48:51Z</time>
      </trkpt>
      <trkpt lat="43.32897" lon="1.79358">
        <ele>240.47</ele>
        <time>2014-09-22T09:48:52Z</time>
      </trkpt>
      <trkpt lat="43.32899" lon="1.79364">
        <ele>240.47</ele>
        <time>2014-09-22T09:48:53Z</time>
      </trkpt>
      <trkpt lat="43.32902" lon="1.7937">
        <ele>240.47</ele>
        <time>2014-09-22T09:48:54Z</time>
      </trkpt>
      <trkpt lat="43.32933" lon="1.79405">
        <ele>241.91</ele>
        <time>2014-09-22T09:49:04Z</time>
      </trkpt>
      <trkpt lat="43.32953" lon="1.79432">
        <ele>244.79</ele>
        <time>2014-09-22T09:49:14Z</time>
      </trkpt>
      <trkpt lat="43.32952" lon="1.79436">
        <ele>244.79</ele>
        <time>2014-09-22T09:49:16Z</time>
      </trkpt>
      <trkpt lat="43.3296" lon="1.7946">
        <ele>245.27</ele>
        <time>2014-09-22T09:49:24Z</time>
      </trkpt>
      <trkpt lat="43.32957" lon="1.79464">
        <ele>244.79</ele>
        <time>2014-09-22T09:49:27Z</time>
      </trkpt>
      <trkpt lat="43.32955" lon="1.79464">
        <ele>244.79</ele>
        <time>2014-09-22T09:49:28Z</time>
      </trkpt>
      <trkpt lat="43.32954" lon="1.79463">
        <ele>244.79</ele>
        <time>2014-09-22T09:49:29Z</time>
      </trkpt>
      <trkpt lat="43.32952" lon="1.79461">
        <ele>244.31</ele>
        <time>2014-09-22T09:49:30Z</time>
      </trkpt>
      <trkpt lat="43.32951" lon="1.79459">
        <ele>243.83</ele>
        <time>2014-09-22T09:49:31Z</time>
      </trkpt>
      <trkpt lat="43.32949" lon="1.79457">
        <ele>243.83</ele>
        <time>2014-09-22T09:49:32Z</time>
      </trkpt>
      <trkpt lat="43.32939" lon="1.7944">
        <ele>241.91</ele>
        <time>2014-09-22T09:49:44Z</time>
      </trkpt>
      <trkpt lat="43.32934" lon="1.79433">
        <ele>240.47</ele>
        <time>2014-09-22T09:50:01Z</time>
      </trkpt>
      <trkpt lat="43.32932" lon="1.79432">
        <ele>238.54</ele>
        <time>2014-09-22T09:50:12Z</time>
      </trkpt>
      <trkpt lat="43.3293" lon="1.79433">
        <ele>238.06</ele>
        <time>2014-09-22T09:50:27Z</time>
      </trkpt>
      <trkpt lat="43.32931" lon="1.79436">
        <ele>238.54</ele>
        <time>2014-09-22T09:51:17Z</time>
      </trkpt>
      <trkpt lat="43.32931" lon="1.79438">
        <ele>238.54</ele>
        <time>2014-09-22T09:52:01Z</time>
      </trkpt>
      <trkpt lat="43.3293" lon="1.79436">
        <ele>237.58</ele>
        <time>2014-09-22T09:52:43Z</time>
      </trkpt>
      <trkpt lat="43.3293" lon="1.79436">
        <ele>238.06</ele>
        <time>2014-09-22T09:53:29Z</time>
      </trkpt>
      <trkpt lat="43.3293" lon="1.79442">
        <ele>237.58</ele>
        <time>2014-09-22T09:54:15Z</time>
      </trkpt>
      <trkpt lat="43.32932" lon="1.79436">
        <ele>236.62</ele>
        <time>2014-09-22T09:54:41Z</time>
      </trkpt>
      <trkpt lat="43.32937" lon="1.79435">
        <ele>238.54</ele>
        <time>2014-09-22T09:54:54Z</time>
      </trkpt>
      <trkpt lat="43.32944" lon="1.7944">
        <ele>240.47</ele>
        <time>2014-09-22T09:55:02Z</time>
      </trkpt>
      <trkpt lat="43.32945" lon="1.79442">
        <ele>240.47</ele>
        <time>2014-09-22T09:55:03Z</time>
      </trkpt>
      <trkpt lat="43.32946" lon="1.79445">
        <ele>240.47</ele>
        <time>2014-09-22T09:55:04Z</time>
      </trkpt>
      <trkpt lat="43.32957" lon="1.79466">
        <ele>241.91</ele>
        <time>2014-09-22T09:55:14Z</time>
      </trkpt>
      <trkpt lat="43.32959" lon="1.79466">
        <ele>242.39</ele>
        <time>2014-09-22T09:55:15Z</time>
      </trkpt>
      <trkpt lat="43.3296" lon="1.79465">
        <ele>242.39</ele>
        <time>2014-09-22T09:55:16Z</time>
      </trkpt>
      <trkpt lat="43.32961" lon="1.79463">
        <ele>242.87</ele>
        <time>2014-09-22T09:55:17Z</time>
      </trkpt>
      <trkpt lat="43.32962" lon="1.79459">
        <ele>242.87</ele>
        <time>2014-09-22T09:55:18Z</time>
      </trkpt>
      <trkpt lat="43.32962" lon="1.79456">
        <ele>242.87</ele>
        <time>2014-09-22T09:55:19Z</time>
      </trkpt>
      <trkpt lat="43.32962" lon="1.79452">
        <ele>243.35</ele>
        <time>2014-09-22T09:55:20Z</time>
      </trkpt>
      <trkpt lat="43.32956" lon="1.79422">
        <ele>242.87</ele>
        <time>2014-09-22T09:55:27Z</time>
      </trkpt>
      <trkpt lat="43.32957" lon="1.79418">
        <ele>242.87</ele>
        <time>2014-09-22T09:55:28Z</time>
      </trkpt>
      <trkpt lat="43.32959" lon="1.79416">
        <ele>242.87</ele>
        <time>2014-09-22T09:55:29Z</time>
      </trkpt>
      <trkpt lat="43.32962" lon="1.79416">
        <ele>242.87</ele>
        <time>2014-09-22T09:55:30Z</time>
      </trkpt>
      <trkpt lat="43.32965" lon="1.79418">
        <ele>243.35</ele>
        <time>2014-09-22T09:55:31Z</time>
      </trkpt>
      <trkpt lat="43.32968" lon="1.79419">
        <ele>243.35</ele>
        <time>2014-09-22T09:55:32Z</time>
      </trkpt>
      <trkpt lat="43.3303" lon="1.79452">
        <ele>246.23</ele>
        <time>2014-09-22T09:55:48Z</time>
      </trkpt>
      <trkpt lat="43.33034" lon="1.79455">
        <ele>246.72</ele>
        <time>2014-09-22T09:55:49Z</time>
      </trkpt>
      <trkpt lat="43.33065" lon="1.79491">
        <ele>247.2</ele>
        <time>2014-09-22T09:55:58Z</time>
      </trkpt>
      <trkpt lat="43.33067" lon="1.79496">
        <ele>247.2</ele>
        <time>2014-09-22T09:55:59Z</time>
      </trkpt>
      <trkpt lat="43.3307" lon="1.79501">
        <ele>247.2</ele>
        <time>2014-09-22T09:56:00Z</time>
      </trkpt>
      <trkpt lat="43.33118" lon="1.79591">
        <ele>246.72</ele>
        <time>2014-09-22T09:56:15Z</time>
      </trkpt>
      <trkpt lat="43.33141" lon="1.79642">
        <ele>245.75</ele>
        <time>2014-09-22T09:56:22Z</time>
      </trkpt>
      <trkpt lat="43.33142" lon="1.79651">
        <ele>245.27</ele>
        <time>2014-09-22T09:56:23Z</time>
      </trkpt>
      <trkpt lat="43.33144" lon="1.7966">
        <ele>245.27</ele>
        <time>2014-09-22T09:56:24Z</time>
      </trkpt>
      <trkpt lat="43.33145" lon="1.79679">
        <ele>245.27</ele>
        <time>2014-09-22T09:56:26Z</time>
      </trkpt>
      <trkpt lat="43.33145" lon="1.7969">
        <ele>244.79</ele>
        <time>2014-09-22T09:56:27Z</time>
      </trkpt>
      <trkpt lat="43.33119" lon="1.79805">
        <ele>242.87</ele>
        <time>2014-09-22T09:56:39Z</time>
      </trkpt>
      <trkpt lat="43.33079" lon="1.79974">
        <ele>242.39</ele>
        <time>2014-09-22T09:56:58Z</time>
      </trkpt>
      <trkpt lat="43.33066" lon="1.80051">
        <ele>243.35</ele>
        <time>2014-09-22T09:57:08Z</time>
      </trkpt>
      <trkpt lat="43.33065" lon="1.80058">
        <ele>243.35</ele>
        <time>2014-09-22T09:57:09Z</time>
      </trkpt>
      <trkpt lat="43.33068" lon="1.80088">
        <ele>244.31</ele>
        <time>2014-09-22T09:57:13Z</time>
      </trkpt>
      <trkpt lat="43.33076" lon="1.80117">
        <ele>245.75</ele>
        <time>2014-09-22T09:57:17Z</time>
      </trkpt>
      <trkpt lat="43.33079" lon="1.80123">
        <ele>245.75</ele>
        <time>2014-09-22T09:57:18Z</time>
      </trkpt>
      <trkpt lat="43.3309" lon="1.80139">
        <ele>247.2</ele>
        <time>2014-09-22T09:57:21Z</time>
      </trkpt>
      <trkpt lat="43.33095" lon="1.80144">
        <ele>247.68</ele>
        <time>2014-09-22T09:57:22Z</time>
      </trkpt>
      <trkpt lat="43.33115" lon="1.80155">
        <ele>250.08</ele>
        <time>2014-09-22T09:57:26Z</time>
      </trkpt>
      <trkpt lat="43.3312" lon="1.80156">
        <ele>251.04</ele>
        <time>2014-09-22T09:57:27Z</time>
      </trkpt>
      <trkpt lat="43.33135" lon="1.80158">
        <ele>252.96</ele>
        <time>2014-09-22T09:57:30Z</time>
      </trkpt>
      <trkpt lat="43.3314" lon="1.80158">
        <ele>253.44</ele>
        <time>2014-09-22T09:57:31Z</time>
      </trkpt>
      <trkpt lat="43.33153" lon="1.80156">
        <ele>255.37</ele>
        <time>2014-09-22T09:57:34Z</time>
      </trkpt>
      <trkpt lat="43.33158" lon="1.80154">
        <ele>256.33</ele>
        <time>2014-09-22T09:57:35Z</time>
      </trkpt>
      <trkpt lat="43.33162" lon="1.80153">
        <ele>256.81</ele>
        <time>2014-09-22T09:57:36Z</time>
      </trkpt>
      <trkpt lat="43.33183" lon="1.80145">
        <ele>260.17</ele>
        <time>2014-09-22T09:57:41Z</time>
      </trkpt>
      <trkpt lat="43.33188" lon="1.80144">
        <ele>261.14</ele>
        <time>2014-09-22T09:57:42Z</time>
      </trkpt>
      <trkpt lat="43.33193" lon="1.80144">
        <ele>261.62</ele>
        <time>2014-09-22T09:57:43Z</time>
      </trkpt>
      <trkpt lat="43.33197" lon="1.80144">
        <ele>262.58</ele>
        <time>2014-09-22T09:57:44Z</time>
      </trkpt>
      <trkpt lat="43.33202" lon="1.80145">
        <ele>263.06</ele>
        <time>2014-09-22T09:57:45Z</time>
      </trkpt>
      <trkpt lat="43.33207" lon="1.80146">
        <ele>264.02</ele>
        <time>2014-09-22T09:57:46Z</time>
      </trkpt>
      <trkpt lat="43.33244" lon="1.80171">
        <ele>267.38</ele>
        <time>2014-09-22T09:57:55Z</time>
      </trkpt>
      <trkpt lat="43.33247" lon="1.80175">
        <ele>267.86</ele>
        <time>2014-09-22T09:57:56Z</time>
      </trkpt>
      <trkpt lat="43.333" lon="1.80244">
        <ele>267.38</ele>
        <time>2014-09-22T09:58:11Z</time>
      </trkpt>
      <trkpt lat="43.33389" lon="1.80337">
        <ele>264.02</ele>
        <time>2014-09-22T09:58:28Z</time>
      </trkpt>
      <trkpt lat="43.33447" lon="1.80389">
        <ele>263.06</ele>
        <time>2014-09-22T09:58:39Z</time>
      </trkpt>
      <trkpt lat="43.33459" lon="1.80395">
        <ele>263.06</ele>
        <time>2014-09-22T09:58:41Z</time>
      </trkpt>
      <trkpt lat="43.33471" lon="1.80399">
        <ele>263.06</ele>
        <time>2014-09-22T09:58:43Z</time>
      </trkpt>
      <trkpt lat="43.33477" lon="1.804">
        <ele>263.06</ele>
        <time>2014-09-22T09:58:44Z</time>
      </trkpt>
      <trkpt lat="43.33568" lon="1.80388">
        <ele>262.58</ele>
        <time>2014-09-22T09:58:59Z</time>
      </trkpt>
      <trkpt lat="43.33603" lon="1.80376">
        <ele>262.58</ele>
        <time>2014-09-22T09:59:06Z</time>
      </trkpt>
      <trkpt lat="43.33608" lon="1.80375">
        <ele>263.06</ele>
        <time>2014-09-22T09:59:07Z</time>
      </trkpt>
      <trkpt lat="43.33619" lon="1.80375">
        <ele>263.06</ele>
        <time>2014-09-22T09:59:09Z</time>
      </trkpt>
      <trkpt lat="43.33624" lon="1.80377">
        <ele>263.54</ele>
        <time>2014-09-22T09:59:10Z</time>
      </trkpt>
      <trkpt lat="43.33629" lon="1.80379">
        <ele>264.02</ele>
        <time>2014-09-22T09:59:11Z</time>
      </trkpt>
      <trkpt lat="43.33637" lon="1.80385">
        <ele>264.98</ele>
        <time>2014-09-22T09:59:13Z</time>
      </trkpt>
      <trkpt lat="43.33641" lon="1.80388">
        <ele>265.46</ele>
        <time>2014-09-22T09:59:14Z</time>
      </trkpt>
      <trkpt lat="43.33645" lon="1.80393">
        <ele>265.46</ele>
        <time>2014-09-22T09:59:15Z</time>
      </trkpt>
      <trkpt lat="43.33653" lon="1.80408">
        <ele>266.9</ele>
        <time>2014-09-22T09:59:18Z</time>
      </trkpt>
      <trkpt lat="43.33655" lon="1.80413">
        <ele>267.38</ele>
        <time>2014-09-22T09:59:19Z</time>
      </trkpt>
      <trkpt lat="43.33656" lon="1.8042">
        <ele>267.86</ele>
        <time>2014-09-22T09:59:20Z</time>
      </trkpt>
      <trkpt lat="43.33658" lon="1.80427">
        <ele>268.35</ele>
        <time>2014-09-22T09:59:21Z</time>
      </trkpt>
      <trkpt lat="43.33659" lon="1.80432">
        <ele>268.83</ele>
        <time>2014-09-22T09:59:22Z</time>
      </trkpt>
      <trkpt lat="43.33663" lon="1.80456">
        <ele>270.27</ele>
        <time>2014-09-22T09:59:26Z</time>
      </trkpt>
      <trkpt lat="43.33665" lon="1.80467">
        <ele>270.75</ele>
        <time>2014-09-22T09:59:28Z</time>
      </trkpt>
      <trkpt lat="43.33665" lon="1.80485">
        <ele>271.23</ele>
        <time>2014-09-22T09:59:31Z</time>
      </trkpt>
      <trkpt lat="43.33664" lon="1.80491">
        <ele>271.23</ele>
        <time>2014-09-22T09:59:32Z</time>
      </trkpt>
      <trkpt lat="43.33663" lon="1.80499">
        <ele>271.23</ele>
        <time>2014-09-22T09:59:33Z</time>
      </trkpt>
      <trkpt lat="43.33662" lon="1.80503">
        <ele>271.71</ele>
        <time>2014-09-22T09:59:34Z</time>
      </trkpt>
      <trkpt lat="43.3366" lon="1.80509">
        <ele>271.71</ele>
        <time>2014-09-22T09:59:35Z</time>
      </trkpt>
      <trkpt lat="43.33658" lon="1.80515">
        <ele>271.71</ele>
        <time>2014-09-22T09:59:36Z</time>
      </trkpt>
      <trkpt lat="43.33652" lon="1.80535">
        <ele>271.71</ele>
        <time>2014-09-22T09:59:39Z</time>
      </trkpt>
      <trkpt lat="43.33621" lon="1.80612">
        <ele>270.75</ele>
        <time>2014-09-22T09:59:50Z</time>
      </trkpt>
      <trkpt lat="43.33552" lon="1.80744">
        <ele>270.75</ele>
        <time>2014-09-22T10:00:10Z</time>
      </trkpt>
      <trkpt lat="43.33504" lon="1.80832">
        <ele>273.15</ele>
        <time>2014-09-22T10:00:25Z</time>
      </trkpt>
      <trkpt lat="43.33497" lon="1.80846">
        <ele>273.63</ele>
        <time>2014-09-22T10:00:36Z</time>
      </trkpt>
      <trkpt lat="43.33498" lon="1.80847">
        <ele>274.11</ele>
        <time>2014-09-22T10:00:41Z</time>
      </trkpt>
      <trkpt lat="43.33499" lon="1.80849">
        <ele>274.11</ele>
        <time>2014-09-22T10:00:43Z</time>
      </trkpt>
      <trkpt lat="43.335" lon="1.80849">
        <ele>274.11</ele>
        <time>2014-09-22T10:00:44Z</time>
      </trkpt>
      <trkpt lat="43.33502" lon="1.80849">
        <ele>274.11</ele>
        <time>2014-09-22T10:00:45Z</time>
      </trkpt>
      <trkpt lat="43.33504" lon="1.80848">
        <ele>274.11</ele>
        <time>2014-09-22T10:00:46Z</time>
      </trkpt>
      <trkpt lat="43.33506" lon="1.80849">
        <ele>274.11</ele>
        <time>2014-09-22T10:00:47Z</time>
      </trkpt>
      <trkpt lat="43.33509" lon="1.8085">
        <ele>273.63</ele>
        <time>2014-09-22T10:00:48Z</time>
      </trkpt>
      <trkpt lat="43.33513" lon="1.80852">
        <ele>273.63</ele>
        <time>2014-09-22T10:00:49Z</time>
      </trkpt>
      <trkpt lat="43.33542" lon="1.80867">
        <ele>271.23</ele>
        <time>2014-09-22T10:00:58Z</time>
      </trkpt>
      <trkpt lat="43.336" lon="1.80883">
        <ele>265.94</ele>
        <time>2014-09-22T10:01:05Z</time>
      </trkpt>
      <trkpt lat="43.33701" lon="1.80926">
        <ele>258.73</ele>
        <time>2014-09-22T10:01:14Z</time>
      </trkpt>
      <trkpt lat="43.33752" lon="1.80955">
        <ele>257.29</ele>
        <time>2014-09-22T10:01:22Z</time>
      </trkpt>
      <trkpt lat="43.33756" lon="1.80956">
        <ele>257.29</ele>
        <time>2014-09-22T10:01:23Z</time>
      </trkpt>
      <trkpt lat="43.3376" lon="1.80957">
        <ele>257.29</ele>
        <time>2014-09-22T10:01:24Z</time>
      </trkpt>
      <trkpt lat="43.33764" lon="1.8096">
        <ele>257.29</ele>
        <time>2014-09-22T10:01:25Z</time>
      </trkpt>
      <trkpt lat="43.33767" lon="1.80963">
        <ele>257.29</ele>
        <time>2014-09-22T10:01:26Z</time>
      </trkpt>
      <trkpt lat="43.33769" lon="1.80969">
        <ele>257.77</ele>
        <time>2014-09-22T10:01:27Z</time>
      </trkpt>
      <trkpt lat="43.3377" lon="1.80973">
        <ele>257.77</ele>
        <time>2014-09-22T10:01:28Z</time>
      </trkpt>
      <trkpt lat="43.33771" lon="1.80978">
        <ele>257.77</ele>
        <time>2014-09-22T10:01:29Z</time>
      </trkpt>
      <trkpt lat="43.33771" lon="1.80987">
        <ele>257.77</ele>
        <time>2014-09-22T10:01:30Z</time>
      </trkpt>
      <trkpt lat="43.3377" lon="1.80994">
        <ele>257.77</ele>
        <time>2014-09-22T10:01:31Z</time>
      </trkpt>
      <trkpt lat="43.33761" lon="1.81098">
        <ele>254.41</ele>
        <time>2014-09-22T10:01:42Z</time>
      </trkpt>
      <trkpt lat="43.33762" lon="1.8111">
        <ele>254.41</ele>
        <time>2014-09-22T10:01:43Z</time>
      </trkpt>
      <trkpt lat="43.33765" lon="1.81125">
        <ele>253.93</ele>
        <time>2014-09-22T10:01:44Z</time>
      </trkpt>
      <trkpt lat="43.33768" lon="1.81139">
        <ele>252.96</ele>
        <time>2014-09-22T10:01:45Z</time>
      </trkpt>
      <trkpt lat="43.33768" lon="1.8115">
        <ele>252.48</ele>
        <time>2014-09-22T10:01:46Z</time>
      </trkpt>
      <trkpt lat="43.33767" lon="1.81164">
        <ele>251.52</ele>
        <time>2014-09-22T10:01:47Z</time>
      </trkpt>
      <trkpt lat="43.33764" lon="1.81178">
        <ele>251.04</ele>
        <time>2014-09-22T10:01:48Z</time>
      </trkpt>
      <trkpt lat="43.3376" lon="1.81192">
        <ele>250.08</ele>
        <time>2014-09-22T10:01:49Z</time>
      </trkpt>
      <trkpt lat="43.33756" lon="1.81205">
        <ele>249.6</ele>
        <time>2014-09-22T10:01:50Z</time>
      </trkpt>
      <trkpt lat="43.33751" lon="1.81217">
        <ele>248.64</ele>
        <time>2014-09-22T10:01:51Z</time>
      </trkpt>
      <trkpt lat="43.33702" lon="1.81353">
        <ele>239.51</ele>
        <time>2014-09-22T10:02:01Z</time>
      </trkpt>
      <trkpt lat="43.33675" lon="1.8148">
        <ele>232.78</ele>
        <time>2014-09-22T10:02:11Z</time>
      </trkpt>
      <trkpt lat="43.33657" lon="1.81543">
        <ele>229.41</ele>
        <time>2014-09-22T10:02:17Z</time>
      </trkpt>
      <trkpt lat="43.33646" lon="1.81603">
        <ele>225.57</ele>
        <time>2014-09-22T10:02:22Z</time>
      </trkpt>
      <trkpt lat="43.33642" lon="1.81614">
        <ele>224.61</ele>
        <time>2014-09-22T10:02:23Z</time>
      </trkpt>
      <trkpt lat="43.33637" lon="1.81623">
        <ele>223.64</ele>
        <time>2014-09-22T10:02:24Z</time>
      </trkpt>
      <trkpt lat="43.33632" lon="1.81629">
        <ele>223.16</ele>
        <time>2014-09-22T10:02:25Z</time>
      </trkpt>
      <trkpt lat="43.33625" lon="1.81633">
        <ele>222.2</ele>
        <time>2014-09-22T10:02:26Z</time>
      </trkpt>
      <trkpt lat="43.33619" lon="1.81634">
        <ele>221.72</ele>
        <time>2014-09-22T10:02:27Z</time>
      </trkpt>
      <trkpt lat="43.33613" lon="1.81635">
        <ele>220.76</ele>
        <time>2014-09-22T10:02:28Z</time>
      </trkpt>
      <trkpt lat="43.33609" lon="1.81635">
        <ele>219.8</ele>
        <time>2014-09-22T10:02:29Z</time>
      </trkpt>
      <trkpt lat="43.33605" lon="1.81637">
        <ele>218.84</ele>
        <time>2014-09-22T10:02:31Z</time>
      </trkpt>
      <trkpt lat="43.33604" lon="1.81638">
        <ele>218.36</ele>
        <time>2014-09-22T10:02:32Z</time>
      </trkpt>
      <trkpt lat="43.33605" lon="1.81642">
        <ele>218.36</ele>
        <time>2014-09-22T10:02:35Z</time>
      </trkpt>
      <trkpt lat="43.33605" lon="1.81644">
        <ele>218.36</ele>
        <time>2014-09-22T10:02:36Z</time>
      </trkpt>
      <trkpt lat="43.33608" lon="1.81646">
        <ele>217.88</ele>
        <time>2014-09-22T10:02:37Z</time>
      </trkpt>
      <trkpt lat="43.3361" lon="1.81646">
        <ele>217.88</ele>
        <time>2014-09-22T10:02:38Z</time>
      </trkpt>
      <trkpt lat="43.33613" lon="1.81645">
        <ele>217.88</ele>
        <time>2014-09-22T10:02:39Z</time>
      </trkpt>
      <trkpt lat="43.33645" lon="1.8164">
        <ele>218.36</ele>
        <time>2014-09-22T10:02:48Z</time>
      </trkpt>
      <trkpt lat="43.33664" lon="1.81629">
        <ele>219.32</ele>
        <time>2014-09-22T10:02:52Z</time>
      </trkpt>
      <trkpt lat="43.33754" lon="1.81544">
        <ele>219.8</ele>
        <time>2014-09-22T10:03:11Z</time>
      </trkpt>
      <trkpt lat="43.33841" lon="1.81454">
        <ele>216.43</ele>
        <time>2014-09-22T10:03:26Z</time>
      </trkpt>
      <trkpt lat="43.33929" lon="1.81393">
        <ele>212.59</ele>
        <time>2014-09-22T10:03:39Z</time>
      </trkpt>
      <trkpt lat="43.34039" lon="1.81338">
        <ele>210.19</ele>
        <time>2014-09-22T10:03:55Z</time>
      </trkpt>
      <trkpt lat="43.34136" lon="1.81305">
        <ele>207.78</ele>
        <time>2014-09-22T10:04:09Z</time>
      </trkpt>
      <trkpt lat="43.34223" lon="1.81249">
        <ele>207.78</ele>
        <time>2014-09-22T10:04:23Z</time>
      </trkpt>
      <trkpt lat="43.34251" lon="1.81223">
        <ele>208.74</ele>
        <time>2014-09-22T10:04:28Z</time>
      </trkpt>
      <trkpt lat="43.34257" lon="1.8122">
        <ele>208.74</ele>
        <time>2014-09-22T10:04:29Z</time>
      </trkpt>
      <trkpt lat="43.34265" lon="1.81219">
        <ele>209.22</ele>
        <time>2014-09-22T10:04:30Z</time>
      </trkpt>
      <trkpt lat="43.34273" lon="1.81222">
        <ele>209.22</ele>
        <time>2014-09-22T10:04:31Z</time>
      </trkpt>
      <trkpt lat="43.34279" lon="1.81228">
        <ele>209.7</ele>
        <time>2014-09-22T10:04:32Z</time>
      </trkpt>
      <trkpt lat="43.34283" lon="1.81234">
        <ele>209.7</ele>
        <time>2014-09-22T10:04:33Z</time>
      </trkpt>
      <trkpt lat="43.34288" lon="1.81243">
        <ele>209.7</ele>
        <time>2014-09-22T10:04:34Z</time>
      </trkpt>
      <trkpt lat="43.34291" lon="1.81251">
        <ele>210.19</ele>
        <time>2014-09-22T10:04:35Z</time>
      </trkpt>
      <trkpt lat="43.34294" lon="1.81259">
        <ele>209.7</ele>
        <time>2014-09-22T10:04:36Z</time>
      </trkpt>
      <trkpt lat="43.343" lon="1.81267">
        <ele>209.7</ele>
        <time>2014-09-22T10:04:37Z</time>
      </trkpt>
      <trkpt lat="43.34304" lon="1.8127">
        <ele>209.7</ele>
        <time>2014-09-22T10:04:38Z</time>
      </trkpt>
      <trkpt lat="43.34311" lon="1.81272">
        <ele>209.22</ele>
        <time>2014-09-22T10:04:39Z</time>
      </trkpt>
      <trkpt lat="43.34318" lon="1.81272">
        <ele>209.22</ele>
        <time>2014-09-22T10:04:40Z</time>
      </trkpt>
      <trkpt lat="43.34324" lon="1.81271">
        <ele>209.22</ele>
        <time>2014-09-22T10:04:41Z</time>
      </trkpt>
      <trkpt lat="43.3433" lon="1.81269">
        <ele>208.74</ele>
        <time>2014-09-22T10:04:42Z</time>
      </trkpt>
      <trkpt lat="43.34378" lon="1.81258">
        <ele>207.3</ele>
        <time>2014-09-22T10:04:50Z</time>
      </trkpt>
      <trkpt lat="43.34384" lon="1.81257">
        <ele>207.3</ele>
        <time>2014-09-22T10:04:51Z</time>
      </trkpt>
      <trkpt lat="43.34396" lon="1.81258">
        <ele>206.82</ele>
        <time>2014-09-22T10:04:53Z</time>
      </trkpt>
      <trkpt lat="43.34402" lon="1.8126">
        <ele>206.82</ele>
        <time>2014-09-22T10:04:54Z</time>
      </trkpt>
      <trkpt lat="43.34407" lon="1.81264">
        <ele>206.82</ele>
        <time>2014-09-22T10:04:55Z</time>
      </trkpt>
      <trkpt lat="43.34412" lon="1.81269">
        <ele>206.82</ele>
        <time>2014-09-22T10:04:56Z</time>
      </trkpt>
      <trkpt lat="43.34416" lon="1.81276">
        <ele>206.34</ele>
        <time>2014-09-22T10:04:57Z</time>
      </trkpt>
      <trkpt lat="43.34419" lon="1.81284">
        <ele>206.34</ele>
        <time>2014-09-22T10:04:58Z</time>
      </trkpt>
      <trkpt lat="43.34421" lon="1.81292">
        <ele>206.34</ele>
        <time>2014-09-22T10:04:59Z</time>
      </trkpt>
      <trkpt lat="43.34423" lon="1.81301">
        <ele>206.34</ele>
        <time>2014-09-22T10:05:00Z</time>
      </trkpt>
      <trkpt lat="43.34464" lon="1.81421">
        <ele>202.98</ele>
        <time>2014-09-22T10:05:13Z</time>
      </trkpt>
      <trkpt lat="43.34469" lon="1.81428">
        <ele>202.98</ele>
        <time>2014-09-22T10:05:14Z</time>
      </trkpt>
      <trkpt lat="43.34475" lon="1.81436">
        <ele>202.49</ele>
        <time>2014-09-22T10:05:15Z</time>
      </trkpt>
      <trkpt lat="43.34561" lon="1.81513">
        <ele>203.94</ele>
        <time>2014-09-22T10:05:29Z</time>
      </trkpt>
      <trkpt lat="43.34631" lon="1.81564">
        <ele>205.38</ele>
        <time>2014-09-22T10:05:41Z</time>
      </trkpt>
      <trkpt lat="43.34727" lon="1.81616">
        <ele>206.82</ele>
        <time>2014-09-22T10:05:58Z</time>
      </trkpt>
      <trkpt lat="43.34826" lon="1.8167">
        <ele>203.46</ele>
        <time>2014-09-22T10:06:13Z</time>
      </trkpt>
      <trkpt lat="43.34834" lon="1.81671">
        <ele>202.98</ele>
        <time>2014-09-22T10:06:14Z</time>
      </trkpt>
      <trkpt lat="43.34843" lon="1.81671">
        <ele>202.49</ele>
        <time>2014-09-22T10:06:15Z</time>
      </trkpt>
      <trkpt lat="43.34851" lon="1.8167">
        <ele>202.01</ele>
        <time>2014-09-22T10:06:16Z</time>
      </trkpt>
      <trkpt lat="43.3486" lon="1.81669">
        <ele>201.53</ele>
        <time>2014-09-22T10:06:17Z</time>
      </trkpt>
      <trkpt lat="43.34906" lon="1.81663">
        <ele>197.69</ele>
        <time>2014-09-22T10:06:23Z</time>
      </trkpt>
      <trkpt lat="43.34937" lon="1.8167">
        <ele>194.32</ele>
        <time>2014-09-22T10:06:31Z</time>
      </trkpt>
      <trkpt lat="43.35012" lon="1.81695">
        <ele>191.92</ele>
        <time>2014-09-22T10:06:43Z</time>
      </trkpt>
      <trkpt lat="43.35108" lon="1.81727">
        <ele>190.96</ele>
        <time>2014-09-22T10:06:58Z</time>
      </trkpt>
      <trkpt lat="43.35213" lon="1.81759">
        <ele>190.48</ele>
        <time>2014-09-22T10:07:15Z</time>
      </trkpt>
      <trkpt lat="43.35312" lon="1.81791">
        <ele>190</ele>
        <time>2014-09-22T10:07:31Z</time>
      </trkpt>
      <trkpt lat="43.35394" lon="1.81815">
        <ele>190.96</ele>
        <time>2014-09-22T10:07:45Z</time>
      </trkpt>
      <trkpt lat="43.35431" lon="1.81809">
        <ele>192.4</ele>
        <time>2014-09-22T10:07:52Z</time>
      </trkpt>
      <trkpt lat="43.35437" lon="1.81808">
        <ele>192.4</ele>
        <time>2014-09-22T10:07:53Z</time>
      </trkpt>
      <trkpt lat="43.35504" lon="1.81793">
        <ele>192.88</ele>
        <time>2014-09-22T10:08:04Z</time>
      </trkpt>
      <trkpt lat="43.3551" lon="1.81795">
        <ele>193.36</ele>
        <time>2014-09-22T10:08:05Z</time>
      </trkpt>
      <trkpt lat="43.35513" lon="1.81798">
        <ele>193.36</ele>
        <time>2014-09-22T10:08:06Z</time>
      </trkpt>
      <trkpt lat="43.35536" lon="1.81832">
        <ele>194.8</ele>
        <time>2014-09-22T10:08:17Z</time>
      </trkpt>
      <trkpt lat="43.35536" lon="1.81835">
        <ele>194.32</ele>
        <time>2014-09-22T10:08:19Z</time>
      </trkpt>
      <trkpt lat="43.35534" lon="1.81837">
        <ele>194.32</ele>
        <time>2014-09-22T10:08:20Z</time>
      </trkpt>
      <trkpt lat="43.35506" lon="1.8187">
        <ele>195.28</ele>
        <time>2014-09-22T10:08:32Z</time>
      </trkpt>
      <trkpt lat="43.35473" lon="1.81895">
        <ele>197.69</ele>
        <time>2014-09-22T10:08:42Z</time>
      </trkpt>
      <trkpt lat="43.35425" lon="1.81942">
        <ele>201.05</ele>
        <time>2014-09-22T10:08:57Z</time>
      </trkpt>
      <trkpt lat="43.35405" lon="1.81962">
        <ele>202.49</ele>
        <time>2014-09-22T10:09:03Z</time>
      </trkpt>
      <trkpt lat="43.35372" lon="1.81999">
        <ele>203.46</ele>
        <time>2014-09-22T10:09:16Z</time>
      </trkpt>
      <trkpt lat="43.35371" lon="1.82008">
        <ele>202.01</ele>
        <time>2014-09-22T10:09:38Z</time>
      </trkpt>
      <trkpt lat="43.35367" lon="1.82007">
        <ele>198.65</ele>
        <time>2014-09-22T10:10:09Z</time>
      </trkpt>
      <trkpt lat="43.35366" lon="1.82008">
        <ele>198.65</ele>
        <time>2014-09-22T10:10:10Z</time>
      </trkpt>
      <trkpt lat="43.35365" lon="1.82009">
        <ele>198.65</ele>
        <time>2014-09-22T10:10:11Z</time>
      </trkpt>
      <trkpt lat="43.35364" lon="1.8201">
        <ele>198.65</ele>
        <time>2014-09-22T10:10:12Z</time>
      </trkpt>
      <trkpt lat="43.35362" lon="1.82011">
        <ele>198.65</ele>
        <time>2014-09-22T10:10:13Z</time>
      </trkpt>
      <trkpt lat="43.3536" lon="1.82013">
        <ele>198.65</ele>
        <time>2014-09-22T10:10:14Z</time>
      </trkpt>
      <trkpt lat="43.35358" lon="1.82015">
        <ele>198.17</ele>
        <time>2014-09-22T10:10:15Z</time>
      </trkpt>
      <trkpt lat="43.35356" lon="1.82018">
        <ele>198.65</ele>
        <time>2014-09-22T10:10:16Z</time>
      </trkpt>
      <trkpt lat="43.35345" lon="1.82031">
        <ele>197.69</ele>
        <time>2014-09-22T10:10:28Z</time>
      </trkpt>
      <trkpt lat="43.35343" lon="1.82032">
        <ele>198.65</ele>
        <time>2014-09-22T10:10:47Z</time>
      </trkpt>
      <trkpt lat="43.35343" lon="1.82031">
        <ele>199.13</ele>
        <time>2014-09-22T10:11:26Z</time>
      </trkpt>
      <trkpt lat="43.35347" lon="1.82024">
        <ele>199.13</ele>
        <time>2014-09-22T10:11:53Z</time>
      </trkpt>
      <trkpt lat="43.35345" lon="1.82027">
        <ele>196.25</ele>
        <time>2014-09-22T10:12:27Z</time>
      </trkpt>
      <trkpt lat="43.35345" lon="1.82024">
        <ele>195.77</ele>
        <time>2014-09-22T10:12:52Z</time>
      </trkpt>
      <trkpt lat="43.35338" lon="1.82028">
        <ele>198.65</ele>
        <time>2014-09-22T10:13:15Z</time>
      </trkpt>
      <trkpt lat="43.35335" lon="1.82034">
        <ele>190.96</ele>
        <time>2014-09-22T10:13:51Z</time>
      </trkpt>
      <trkpt lat="43.35335" lon="1.82025">
        <ele>194.8</ele>
        <time>2014-09-22T10:14:18Z</time>
      </trkpt>
      <trkpt lat="43.35333" lon="1.82023">
        <ele>195.28</ele>
        <time>2014-09-22T10:14:19Z</time>
      </trkpt>
      <trkpt lat="43.35331" lon="1.82022">
        <ele>195.28</ele>
        <time>2014-09-22T10:14:20Z</time>
      </trkpt>
      <trkpt lat="43.35329" lon="1.82019">
        <ele>195.28</ele>
        <time>2014-09-22T10:14:21Z</time>
      </trkpt>
      <trkpt lat="43.35326" lon="1.82017">
        <ele>195.28</ele>
        <time>2014-09-22T10:14:22Z</time>
      </trkpt>
      <trkpt lat="43.35312" lon="1.82005">
        <ele>194.8</ele>
        <time>2014-09-22T10:14:26Z</time>
      </trkpt>
      <trkpt lat="43.35252" lon="1.81957">
        <ele>195.28</ele>
        <time>2014-09-22T10:14:40Z</time>
      </trkpt>
      <trkpt lat="43.35247" lon="1.81956">
        <ele>194.8</ele>
        <time>2014-09-22T10:14:41Z</time>
      </trkpt>
      <trkpt lat="43.35241" lon="1.81955">
        <ele>194.8</ele>
        <time>2014-09-22T10:14:42Z</time>
      </trkpt>
      <trkpt lat="43.35237" lon="1.81955">
        <ele>194.8</ele>
        <time>2014-09-22T10:14:43Z</time>
      </trkpt>
      <trkpt lat="43.35232" lon="1.81956">
        <ele>194.8</ele>
        <time>2014-09-22T10:14:44Z</time>
      </trkpt>
      <trkpt lat="43.35172" lon="1.81964">
        <ele>198.65</ele>
        <time>2014-09-22T10:14:57Z</time>
      </trkpt>
      <trkpt lat="43.35145" lon="1.81969">
        <ele>201.05</ele>
        <time>2014-09-22T10:15:03Z</time>
      </trkpt>
      <trkpt lat="43.35142" lon="1.8197">
        <ele>201.53</ele>
        <time>2014-09-22T10:15:04Z</time>
      </trkpt>
      <trkpt lat="43.35138" lon="1.81973">
        <ele>201.53</ele>
        <time>2014-09-22T10:15:05Z</time>
      </trkpt>
      <trkpt lat="43.35135" lon="1.81976">
        <ele>201.53</ele>
        <time>2014-09-22T10:15:06Z</time>
      </trkpt>
      <trkpt lat="43.35133" lon="1.81979">
        <ele>202.01</ele>
        <time>2014-09-22T10:15:07Z</time>
      </trkpt>
      <trkpt lat="43.35129" lon="1.81984">
        <ele>202.01</ele>
        <time>2014-09-22T10:15:08Z</time>
      </trkpt>
      <trkpt lat="43.35127" lon="1.8199">
        <ele>202.01</ele>
        <time>2014-09-22T10:15:09Z</time>
      </trkpt>
      <trkpt lat="43.35125" lon="1.81996">
        <ele>202.49</ele>
        <time>2014-09-22T10:15:10Z</time>
      </trkpt>
      <trkpt lat="43.35124" lon="1.82002">
        <ele>202.49</ele>
        <time>2014-09-22T10:15:11Z</time>
      </trkpt>
      <trkpt lat="43.35115" lon="1.8204">
        <ele>203.46</ele>
        <time>2014-09-22T10:15:17Z</time>
      </trkpt>
      <trkpt lat="43.35114" lon="1.82046">
        <ele>203.46</ele>
        <time>2014-09-22T10:15:18Z</time>
      </trkpt>
      <trkpt lat="43.35112" lon="1.82052">
        <ele>203.94</ele>
        <time>2014-09-22T10:15:19Z</time>
      </trkpt>
      <trkpt lat="43.35111" lon="1.8206">
        <ele>204.42</ele>
        <time>2014-09-22T10:15:20Z</time>
      </trkpt>
      <trkpt lat="43.3511" lon="1.82065">
        <ele>204.42</ele>
        <time>2014-09-22T10:15:21Z</time>
      </trkpt>
      <trkpt lat="43.35105" lon="1.82097">
        <ele>204.9</ele>
        <time>2014-09-22T10:15:30Z</time>
      </trkpt>
      <trkpt lat="43.35105" lon="1.821">
        <ele>204.9</ele>
        <time>2014-09-22T10:15:53Z</time>
      </trkpt>
      <trkpt lat="43.35101" lon="1.82113">
        <ele>204.42</ele>
        <time>2014-09-22T10:16:13Z</time>
      </trkpt>
      <trkpt lat="43.35105" lon="1.82155">
        <ele>205.38</ele>
        <time>2014-09-22T10:16:23Z</time>
      </trkpt>
      <trkpt lat="43.35122" lon="1.82213">
        <ele>207.78</ele>
        <time>2014-09-22T10:16:35Z</time>
      </trkpt>
      <trkpt lat="43.35132" lon="1.8226">
        <ele>210.67</ele>
        <time>2014-09-22T10:16:46Z</time>
      </trkpt>
      <trkpt lat="43.35134" lon="1.82268">
        <ele>209.7</ele>
        <time>2014-09-22T10:16:49Z</time>
      </trkpt>
      <trkpt lat="43.35134" lon="1.82271">
        <ele>209.7</ele>
        <time>2014-09-22T10:16:50Z</time>
      </trkpt>
      <trkpt lat="43.35133" lon="1.82273">
        <ele>209.7</ele>
        <time>2014-09-22T10:16:51Z</time>
      </trkpt>
      <trkpt lat="43.35131" lon="1.82274">
        <ele>209.7</ele>
        <time>2014-09-22T10:16:53Z</time>
      </trkpt>
      <trkpt lat="43.3513" lon="1.82275">
        <ele>209.7</ele>
        <time>2014-09-22T10:16:54Z</time>
      </trkpt>
      <trkpt lat="43.35128" lon="1.82275">
        <ele>209.7</ele>
        <time>2014-09-22T10:16:55Z</time>
      </trkpt>
      <trkpt lat="43.35103" lon="1.82284">
        <ele>210.19</ele>
        <time>2014-09-22T10:17:05Z</time>
      </trkpt>
      <trkpt lat="43.3504" lon="1.82326">
        <ele>206.34</ele>
        <time>2014-09-22T10:17:14Z</time>
      </trkpt>
      <trkpt lat="43.34924" lon="1.82364">
        <ele>198.65</ele>
        <time>2014-09-22T10:17:30Z</time>
      </trkpt>
      <trkpt lat="43.34874" lon="1.82379">
        <ele>195.28</ele>
        <time>2014-09-22T10:17:41Z</time>
      </trkpt>
      <trkpt lat="43.34871" lon="1.82382">
        <ele>191.92</ele>
        <time>2014-09-22T10:17:54Z</time>
      </trkpt>
      <trkpt lat="43.34871" lon="1.82382">
        <ele>191.92</ele>
        <time>2014-09-22T10:17:55Z</time>
      </trkpt>
      <trkpt lat="43.34874" lon="1.82384">
        <ele>191.92</ele>
        <time>2014-09-22T10:17:58Z</time>
      </trkpt>
      <trkpt lat="43.34886" lon="1.82381">
        <ele>191.44</ele>
        <time>2014-09-22T10:18:02Z</time>
      </trkpt>
      <trkpt lat="43.34959" lon="1.8236">
        <ele>190</ele>
        <time>2014-09-22T10:18:16Z</time>
      </trkpt>
      <trkpt lat="43.35044" lon="1.82331">
        <ele>190.96</ele>
        <time>2014-09-22T10:18:33Z</time>
      </trkpt>
      <trkpt lat="43.35082" lon="1.82307">
        <ele>191.92</ele>
        <time>2014-09-22T10:18:41Z</time>
      </trkpt>
      <trkpt lat="43.35086" lon="1.82303">
        <ele>191.92</ele>
        <time>2014-09-22T10:18:42Z</time>
      </trkpt>
      <trkpt lat="43.35118" lon="1.82275">
        <ele>193.84</ele>
        <time>2014-09-22T10:18:50Z</time>
      </trkpt>
      <trkpt lat="43.35122" lon="1.82273">
        <ele>193.84</ele>
        <time>2014-09-22T10:18:51Z</time>
      </trkpt>
      <trkpt lat="43.35126" lon="1.82272">
        <ele>194.32</ele>
        <time>2014-09-22T10:18:52Z</time>
      </trkpt>
      <trkpt lat="43.35129" lon="1.82272">
        <ele>194.8</ele>
        <time>2014-09-22T10:18:53Z</time>
      </trkpt>
      <trkpt lat="43.35133" lon="1.82272">
        <ele>194.8</ele>
        <time>2014-09-22T10:18:54Z</time>
      </trkpt>
      <trkpt lat="43.35135" lon="1.82272">
        <ele>195.28</ele>
        <time>2014-09-22T10:18:55Z</time>
      </trkpt>
      <trkpt lat="43.35139" lon="1.82273">
        <ele>195.28</ele>
        <time>2014-09-22T10:18:56Z</time>
      </trkpt>
      <trkpt lat="43.35141" lon="1.82275">
        <ele>195.28</ele>
        <time>2014-09-22T10:18:57Z</time>
      </trkpt>
      <trkpt lat="43.35145" lon="1.82277">
        <ele>195.28</ele>
        <time>2014-09-22T10:18:58Z</time>
      </trkpt>
      <trkpt lat="43.35159" lon="1.82288">
        <ele>195.77</ele>
        <time>2014-09-22T10:19:02Z</time>
      </trkpt>
      <trkpt lat="43.35192" lon="1.82317">
        <ele>196.73</ele>
        <time>2014-09-22T10:19:11Z</time>
      </trkpt>
      <trkpt lat="43.35222" lon="1.82341">
        <ele>198.17</ele>
        <time>2014-09-22T10:19:19Z</time>
      </trkpt>
      <trkpt lat="43.35226" lon="1.82345">
        <ele>198.65</ele>
        <time>2014-09-22T10:19:20Z</time>
      </trkpt>
      <trkpt lat="43.35241" lon="1.8237">
        <ele>198.17</ele>
        <time>2014-09-22T10:19:26Z</time>
      </trkpt>
      <trkpt lat="43.35225" lon="1.82405">
        <ele>198.65</ele>
        <time>2014-09-22T10:19:36Z</time>
      </trkpt>
      <trkpt lat="43.35217" lon="1.82425">
        <ele>199.61</ele>
        <time>2014-09-22T10:19:42Z</time>
      </trkpt>
      <trkpt lat="43.35213" lon="1.82427">
        <ele>199.61</ele>
        <time>2014-09-22T10:19:43Z</time>
      </trkpt>
      <trkpt lat="43.35209" lon="1.82429">
        <ele>199.61</ele>
        <time>2014-09-22T10:19:44Z</time>
      </trkpt>
      <trkpt lat="43.35205" lon="1.8243">
        <ele>199.61</ele>
        <time>2014-09-22T10:19:45Z</time>
      </trkpt>
      <trkpt lat="43.35201" lon="1.82431">
        <ele>199.61</ele>
        <time>2014-09-22T10:19:46Z</time>
      </trkpt>
      <trkpt lat="43.35196" lon="1.82431">
        <ele>199.61</ele>
        <time>2014-09-22T10:19:47Z</time>
      </trkpt>
      <trkpt lat="43.35191" lon="1.8243">
        <ele>199.13</ele>
        <time>2014-09-22T10:19:48Z</time>
      </trkpt>
      <trkpt lat="43.35176" lon="1.82429">
        <ele>200.57</ele>
        <time>2014-09-22T10:19:52Z</time>
      </trkpt>
      <trkpt lat="43.35173" lon="1.8243">
        <ele>200.57</ele>
        <time>2014-09-22T10:19:53Z</time>
      </trkpt>
      <trkpt lat="43.3517" lon="1.82432">
        <ele>200.57</ele>
        <time>2014-09-22T10:19:54Z</time>
      </trkpt>
      <trkpt lat="43.35169" lon="1.82434">
        <ele>201.05</ele>
        <time>2014-09-22T10:19:55Z</time>
      </trkpt>
      <trkpt lat="43.35168" lon="1.82437">
        <ele>201.05</ele>
        <time>2014-09-22T10:19:56Z</time>
      </trkpt>
      <trkpt lat="43.35168" lon="1.82442">
        <ele>201.53</ele>
        <time>2014-09-22T10:19:57Z</time>
      </trkpt>
      <trkpt lat="43.35168" lon="1.82445">
        <ele>201.53</ele>
        <time>2014-09-22T10:19:58Z</time>
      </trkpt>
      <trkpt lat="43.35175" lon="1.82472">
        <ele>202.01</ele>
        <time>2014-09-22T10:20:02Z</time>
      </trkpt>
      <trkpt lat="43.35201" lon="1.82566">
        <ele>204.9</ele>
        <time>2014-09-22T10:20:17Z</time>
      </trkpt>
      <trkpt lat="43.35214" lon="1.8261">
        <ele>206.82</ele>
        <time>2014-09-22T10:20:29Z</time>
      </trkpt>
      <trkpt lat="43.35221" lon="1.82635">
        <ele>208.26</ele>
        <time>2014-09-22T10:20:36Z</time>
      </trkpt>
      <trkpt lat="43.35223" lon="1.82638">
        <ele>208.26</ele>
        <time>2014-09-22T10:20:37Z</time>
      </trkpt>
      <trkpt lat="43.35229" lon="1.82652">
        <ele>211.15</ele>
        <time>2014-09-22T10:20:46Z</time>
      </trkpt>
      <trkpt lat="43.35229" lon="1.8266">
        <ele>215.47</ele>
        <time>2014-09-22T10:21:01Z</time>
      </trkpt>
      <trkpt lat="43.35227" lon="1.82661">
        <ele>215.47</ele>
        <time>2014-09-22T10:21:02Z</time>
      </trkpt>
      <trkpt lat="43.35225" lon="1.82662">
        <ele>215.95</ele>
        <time>2014-09-22T10:21:03Z</time>
      </trkpt>
      <trkpt lat="43.35223" lon="1.82663">
        <ele>216.43</ele>
        <time>2014-09-22T10:21:04Z</time>
      </trkpt>
      <trkpt lat="43.35221" lon="1.82665">
        <ele>216.91</ele>
        <time>2014-09-22T10:21:05Z</time>
      </trkpt>
      <trkpt lat="43.35219" lon="1.82667">
        <ele>216.91</ele>
        <time>2014-09-22T10:21:06Z</time>
      </trkpt>
      <trkpt lat="43.35218" lon="1.82669">
        <ele>217.4</ele>
        <time>2014-09-22T10:21:07Z</time>
      </trkpt>
      <trkpt lat="43.35217" lon="1.82672">
        <ele>217.4</ele>
        <time>2014-09-22T10:21:08Z</time>
      </trkpt>
      <trkpt lat="43.35213" lon="1.82719">
        <ele>215.47</ele>
        <time>2014-09-22T10:21:21Z</time>
      </trkpt>
      <trkpt lat="43.35248" lon="1.82728">
        <ele>214.99</ele>
        <time>2014-09-22T10:21:33Z</time>
      </trkpt>
      <trkpt lat="43.3526" lon="1.82709">
        <ele>215.47</ele>
        <time>2014-09-22T10:21:40Z</time>
      </trkpt>
      <trkpt lat="43.3526" lon="1.82705">
        <ele>215.47</ele>
        <time>2014-09-22T10:21:41Z</time>
      </trkpt>
      <trkpt lat="43.3524" lon="1.82666">
        <ele>213.07</ele>
        <time>2014-09-22T10:21:54Z</time>
      </trkpt>
      <trkpt lat="43.35226" lon="1.82669">
        <ele>214.03</ele>
        <time>2014-09-22T10:22:04Z</time>
      </trkpt>
      <trkpt lat="43.35226" lon="1.82669">
        <ele>214.99</ele>
        <time>2014-09-22T10:22:23Z</time>
      </trkpt>
      <trkpt lat="43.35228" lon="1.82666">
        <ele>214.99</ele>
        <time>2014-09-22T10:23:03Z</time>
      </trkpt>
      <trkpt lat="43.35225" lon="1.82669">
        <ele>208.74</ele>
        <time>2014-09-22T10:23:41Z</time>
      </trkpt>
      <trkpt lat="43.35223" lon="1.82665">
        <ele>212.11</ele>
        <time>2014-09-22T10:24:27Z</time>
      </trkpt>
      <trkpt lat="43.35218" lon="1.82667">
        <ele>215.47</ele>
        <time>2014-09-22T10:24:43Z</time>
      </trkpt>
      <trkpt lat="43.35222" lon="1.82671">
        <ele>220.28</ele>
        <time>2014-09-22T10:25:26Z</time>
      </trkpt>
      <trkpt lat="43.3522" lon="1.82665">
        <ele>216.91</ele>
        <time>2014-09-22T10:26:01Z</time>
      </trkpt>
      <trkpt lat="43.35224" lon="1.82664">
        <ele>216.91</ele>
        <time>2014-09-22T10:26:38Z</time>
      </trkpt>
      <trkpt lat="43.35225" lon="1.82669">
        <ele>214.99</ele>
        <time>2014-09-22T10:27:05Z</time>
      </trkpt>
      <trkpt lat="43.35218" lon="1.82663">
        <ele>219.8</ele>
        <time>2014-09-22T10:27:46Z</time>
      </trkpt>
      <trkpt lat="43.3522" lon="1.82665">
        <ele>215.47</ele>
        <time>2014-09-22T10:28:26Z</time>
      </trkpt>
      <trkpt lat="43.3522" lon="1.82666">
        <ele>214.51</ele>
        <time>2014-09-22T10:28:57Z</time>
      </trkpt>
      <trkpt lat="43.35222" lon="1.82665">
        <ele>216.91</ele>
        <time>2014-09-22T10:29:42Z</time>
      </trkpt>
      <trkpt lat="43.35219" lon="1.82665">
        <ele>220.28</ele>
        <time>2014-09-22T10:30:19Z</time>
      </trkpt>
      <trkpt lat="43.35218" lon="1.82666">
        <ele>224.12</ele>
        <time>2014-09-22T10:30:56Z</time>
      </trkpt>
      <trkpt lat="43.35219" lon="1.82666">
        <ele>225.09</ele>
        <time>2014-09-22T10:31:29Z</time>
      </trkpt>
      <trkpt lat="43.35218" lon="1.82663">
        <ele>223.16</ele>
        <time>2014-09-22T10:32:05Z</time>
      </trkpt>
      <trkpt lat="43.35218" lon="1.82665">
        <ele>222.68</ele>
        <time>2014-09-22T10:32:52Z</time>
      </trkpt>
      <trkpt lat="43.35224" lon="1.82666">
        <ele>221.72</ele>
        <time>2014-09-22T10:33:26Z</time>
      </trkpt>
      <trkpt lat="43.35225" lon="1.82671">
        <ele>219.32</ele>
        <time>2014-09-22T10:34:12Z</time>
      </trkpt>
      <trkpt lat="43.35228" lon="1.8267">
        <ele>216.91</ele>
        <time>2014-09-22T10:34:53Z</time>
      </trkpt>
      <trkpt lat="43.35222" lon="1.82667">
        <ele>217.4</ele>
        <time>2014-09-22T10:35:22Z</time>
      </trkpt>
      <trkpt lat="43.35222" lon="1.82666">
        <ele>216.91</ele>
        <time>2014-09-22T10:35:23Z</time>
      </trkpt>
      <trkpt lat="43.35223" lon="1.82665">
        <ele>216.43</ele>
        <time>2014-09-22T10:35:26Z</time>
      </trkpt>
      <trkpt lat="43.35225" lon="1.82664">
        <ele>216.43</ele>
        <time>2014-09-22T10:35:27Z</time>
      </trkpt>
      <trkpt lat="43.35226" lon="1.82664">
        <ele>216.43</ele>
        <time>2014-09-22T10:35:28Z</time>
      </trkpt>
      <trkpt lat="43.35227" lon="1.82663">
        <ele>215.95</ele>
        <time>2014-09-22T10:35:29Z</time>
      </trkpt>
      <trkpt lat="43.35228" lon="1.82662">
        <ele>215.95</ele>
        <time>2014-09-22T10:35:30Z</time>
      </trkpt>
      <trkpt lat="43.35229" lon="1.82661">
        <ele>215.95</ele>
        <time>2014-09-22T10:35:31Z</time>
      </trkpt>
      <trkpt lat="43.3523" lon="1.82659">
        <ele>216.43</ele>
        <time>2014-09-22T10:35:32Z</time>
      </trkpt>
      <trkpt lat="43.35229" lon="1.82657">
        <ele>216.43</ele>
        <time>2014-09-22T10:35:33Z</time>
      </trkpt>
      <trkpt lat="43.35228" lon="1.82654">
        <ele>216.43</ele>
        <time>2014-09-22T10:35:34Z</time>
      </trkpt>
      <trkpt lat="43.35227" lon="1.8265">
        <ele>216.43</ele>
        <time>2014-09-22T10:35:35Z</time>
      </trkpt>
      <trkpt lat="43.35219" lon="1.8264">
        <ele>214.51</ele>
        <time>2014-09-22T10:35:39Z</time>
      </trkpt>
      <trkpt lat="43.35218" lon="1.82636">
        <ele>214.51</ele>
        <time>2014-09-22T10:35:40Z</time>
      </trkpt>
      <trkpt lat="43.35217" lon="1.82632">
        <ele>214.03</ele>
        <time>2014-09-22T10:35:41Z</time>
      </trkpt>
      <trkpt lat="43.35217" lon="1.82627">
        <ele>213.55</ele>
        <time>2014-09-22T10:35:42Z</time>
      </trkpt>
      <trkpt lat="43.35215" lon="1.82623">
        <ele>213.07</ele>
        <time>2014-09-22T10:35:43Z</time>
      </trkpt>
      <trkpt lat="43.35206" lon="1.82584">
        <ele>210.19</ele>
        <time>2014-09-22T10:35:51Z</time>
      </trkpt>
      <trkpt lat="43.35187" lon="1.82502">
        <ele>208.74</ele>
        <time>2014-09-22T10:36:03Z</time>
      </trkpt>
      <trkpt lat="43.35173" lon="1.82437">
        <ele>208.26</ele>
        <time>2014-09-22T10:36:14Z</time>
      </trkpt>
      <trkpt lat="43.35175" lon="1.82434">
        <ele>208.26</ele>
        <time>2014-09-22T10:36:15Z</time>
      </trkpt>
      <trkpt lat="43.35178" lon="1.82432">
        <ele>208.26</ele>
        <time>2014-09-22T10:36:16Z</time>
      </trkpt>
      <trkpt lat="43.3518" lon="1.82432">
        <ele>208.26</ele>
        <time>2014-09-22T10:36:17Z</time>
      </trkpt>
      <trkpt lat="43.35184" lon="1.82434">
        <ele>207.78</ele>
        <time>2014-09-22T10:36:18Z</time>
      </trkpt>
      <trkpt lat="43.35189" lon="1.82435">
        <ele>207.3</ele>
        <time>2014-09-22T10:36:19Z</time>
      </trkpt>
      <trkpt lat="43.35193" lon="1.82436">
        <ele>206.82</ele>
        <time>2014-09-22T10:36:20Z</time>
      </trkpt>
      <trkpt lat="43.35198" lon="1.82436">
        <ele>206.34</ele>
        <time>2014-09-22T10:36:21Z</time>
      </trkpt>
      <trkpt lat="43.35219" lon="1.82431">
        <ele>204.9</ele>
        <time>2014-09-22T10:36:26Z</time>
      </trkpt>
      <trkpt lat="43.35223" lon="1.82428">
        <ele>204.9</ele>
        <time>2014-09-22T10:36:27Z</time>
      </trkpt>
      <trkpt lat="43.35228" lon="1.82425">
        <ele>204.9</ele>
        <time>2014-09-22T10:36:28Z</time>
      </trkpt>
      <trkpt lat="43.35232" lon="1.82421">
        <ele>204.42</ele>
        <time>2014-09-22T10:36:29Z</time>
      </trkpt>
      <trkpt lat="43.35236" lon="1.82417">
        <ele>204.42</ele>
        <time>2014-09-22T10:36:30Z</time>
      </trkpt>
      <trkpt lat="43.35242" lon="1.82413">
        <ele>204.42</ele>
        <time>2014-09-22T10:36:31Z</time>
      </trkpt>
      <trkpt lat="43.35292" lon="1.82385">
        <ele>202.98</ele>
        <time>2014-09-22T10:36:40Z</time>
      </trkpt>
      <trkpt lat="43.35381" lon="1.82341">
        <ele>200.57</ele>
        <time>2014-09-22T10:36:55Z</time>
      </trkpt>
      <trkpt lat="43.35403" lon="1.82331">
        <ele>199.61</ele>
        <time>2014-09-22T10:36:59Z</time>
      </trkpt>
      <trkpt lat="43.3541" lon="1.8233">
        <ele>199.13</ele>
        <time>2014-09-22T10:37:00Z</time>
      </trkpt>
      <trkpt lat="43.35497" lon="1.82334">
        <ele>195.77</ele>
        <time>2014-09-22T10:37:14Z</time>
      </trkpt>
      <trkpt lat="43.35512" lon="1.82338">
        <ele>195.28</ele>
        <time>2014-09-22T10:37:17Z</time>
      </trkpt>
      <trkpt lat="43.35517" lon="1.82341">
        <ele>195.28</ele>
        <time>2014-09-22T10:37:18Z</time>
      </trkpt>
      <trkpt lat="43.35522" lon="1.82344">
        <ele>195.28</ele>
        <time>2014-09-22T10:37:19Z</time>
      </trkpt>
      <trkpt lat="43.35524" lon="1.82349">
        <ele>195.28</ele>
        <time>2014-09-22T10:37:20Z</time>
      </trkpt>
      <trkpt lat="43.35525" lon="1.82358">
        <ele>195.28</ele>
        <time>2014-09-22T10:37:21Z</time>
      </trkpt>
      <trkpt lat="43.35523" lon="1.82365">
        <ele>195.28</ele>
        <time>2014-09-22T10:37:22Z</time>
      </trkpt>
      <trkpt lat="43.35522" lon="1.82368">
        <ele>195.28</ele>
        <time>2014-09-22T10:37:23Z</time>
      </trkpt>
      <trkpt lat="43.35518" lon="1.82375">
        <ele>195.28</ele>
        <time>2014-09-22T10:37:24Z</time>
      </trkpt>
      <trkpt lat="43.35448" lon="1.82509">
        <ele>194.8</ele>
        <time>2014-09-22T10:37:44Z</time>
      </trkpt>
      <trkpt lat="43.35372" lon="1.82659">
        <ele>193.84</ele>
        <time>2014-09-22T10:38:04Z</time>
      </trkpt>
      <trkpt lat="43.35311" lon="1.82806">
        <ele>195.77</ele>
        <time>2014-09-22T10:38:23Z</time>
      </trkpt>
      <trkpt lat="43.35269" lon="1.82959">
        <ele>197.69</ele>
        <time>2014-09-22T10:38:41Z</time>
      </trkpt>
      <trkpt lat="43.35228" lon="1.83124">
        <ele>201.05</ele>
        <time>2014-09-22T10:39:01Z</time>
      </trkpt>
      <trkpt lat="43.35188" lon="1.83274">
        <ele>202.98</ele>
        <time>2014-09-22T10:39:19Z</time>
      </trkpt>
      <trkpt lat="43.35151" lon="1.83425">
        <ele>201.53</ele>
        <time>2014-09-22T10:39:35Z</time>
      </trkpt>
      <trkpt lat="43.35122" lon="1.83537">
        <ele>202.01</ele>
        <time>2014-09-22T10:39:49Z</time>
      </trkpt>
      <trkpt lat="43.3512" lon="1.83543">
        <ele>202.01</ele>
        <time>2014-09-22T10:39:57Z</time>
      </trkpt>
      <trkpt lat="43.3512" lon="1.83538">
        <ele>202.49</ele>
        <time>2014-09-22T10:40:24Z</time>
      </trkpt>
      <trkpt lat="43.35116" lon="1.83556">
        <ele>204.42</ele>
        <time>2014-09-22T10:40:49Z</time>
      </trkpt>
      <trkpt lat="43.35098" lon="1.83642">
        <ele>201.53</ele>
        <time>2014-09-22T10:41:01Z</time>
      </trkpt>
      <trkpt lat="43.35062" lon="1.83794">
        <ele>199.61</ele>
        <time>2014-09-22T10:41:18Z</time>
      </trkpt>
      <trkpt lat="43.35026" lon="1.83945">
        <ele>197.69</ele>
        <time>2014-09-22T10:41:33Z</time>
      </trkpt>
      <trkpt lat="43.34976" lon="1.84162">
        <ele>193.84</ele>
        <time>2014-09-22T10:41:51Z</time>
      </trkpt>
      <trkpt lat="43.34942" lon="1.84316">
        <ele>192.88</ele>
        <time>2014-09-22T10:42:06Z</time>
      </trkpt>
      <trkpt lat="43.34929" lon="1.84363">
        <ele>192.88</ele>
        <time>2014-09-22T10:42:11Z</time>
      </trkpt>
      <trkpt lat="43.34928" lon="1.84373">
        <ele>192.88</ele>
        <time>2014-09-22T10:42:12Z</time>
      </trkpt>
      <trkpt lat="43.34901" lon="1.84479">
        <ele>192.4</ele>
        <time>2014-09-22T10:42:23Z</time>
      </trkpt>
      <trkpt lat="43.34897" lon="1.84486">
        <ele>192.4</ele>
        <time>2014-09-22T10:42:24Z</time>
      </trkpt>
      <trkpt lat="43.34891" lon="1.84492">
        <ele>192.4</ele>
        <time>2014-09-22T10:42:25Z</time>
      </trkpt>
      <trkpt lat="43.34887" lon="1.84495">
        <ele>192.4</ele>
        <time>2014-09-22T10:42:26Z</time>
      </trkpt>
      <trkpt lat="43.3488" lon="1.84498">
        <ele>191.92</ele>
        <time>2014-09-22T10:42:27Z</time>
      </trkpt>
      <trkpt lat="43.34872" lon="1.84499">
        <ele>191.92</ele>
        <time>2014-09-22T10:42:28Z</time>
      </trkpt>
      <trkpt lat="43.34863" lon="1.84496">
        <ele>191.44</ele>
        <time>2014-09-22T10:42:29Z</time>
      </trkpt>
      <trkpt lat="43.34855" lon="1.84492">
        <ele>191.44</ele>
        <time>2014-09-22T10:42:30Z</time>
      </trkpt>
      <trkpt lat="43.3485" lon="1.8449">
        <ele>191.44</ele>
        <time>2014-09-22T10:42:31Z</time>
      </trkpt>
      <trkpt lat="43.34729" lon="1.84425">
        <ele>189.52</ele>
        <time>2014-09-22T10:42:49Z</time>
      </trkpt>
      <trkpt lat="43.34617" lon="1.84329">
        <ele>187.59</ele>
        <time>2014-09-22T10:43:08Z</time>
      </trkpt>
      <trkpt lat="43.34514" lon="1.84238">
        <ele>185.19</ele>
        <time>2014-09-22T10:43:26Z</time>
      </trkpt>
      <trkpt lat="43.34401" lon="1.84141">
        <ele>184.23</ele>
        <time>2014-09-22T10:43:46Z</time>
      </trkpt>
      <trkpt lat="43.34302" lon="1.84085">
        <ele>184.71</ele>
        <time>2014-09-22T10:44:03Z</time>
      </trkpt>
      <trkpt lat="43.3425" lon="1.8406">
        <ele>185.67</ele>
        <time>2014-09-22T10:44:12Z</time>
      </trkpt>
      <trkpt lat="43.34243" lon="1.84058">
        <ele>185.67</ele>
        <time>2014-09-22T10:44:13Z</time>
      </trkpt>
      <trkpt lat="43.34238" lon="1.84058">
        <ele>185.67</ele>
        <time>2014-09-22T10:44:14Z</time>
      </trkpt>
      <trkpt lat="43.34232" lon="1.8406">
        <ele>185.67</ele>
        <time>2014-09-22T10:44:15Z</time>
      </trkpt>
      <trkpt lat="43.34227" lon="1.84063">
        <ele>185.67</ele>
        <time>2014-09-22T10:44:16Z</time>
      </trkpt>
      <trkpt lat="43.34223" lon="1.84067">
        <ele>185.67</ele>
        <time>2014-09-22T10:44:17Z</time>
      </trkpt>
      <trkpt lat="43.34219" lon="1.84074">
        <ele>185.67</ele>
        <time>2014-09-22T10:44:18Z</time>
      </trkpt>
      <trkpt lat="43.34218" lon="1.84082">
        <ele>185.67</ele>
        <time>2014-09-22T10:44:19Z</time>
      </trkpt>
      <trkpt lat="43.34219" lon="1.84092">
        <ele>185.67</ele>
        <time>2014-09-22T10:44:20Z</time>
      </trkpt>
      <trkpt lat="43.3422" lon="1.84101">
        <ele>185.67</ele>
        <time>2014-09-22T10:44:21Z</time>
      </trkpt>
      <trkpt lat="43.34222" lon="1.84108">
        <ele>185.67</ele>
        <time>2014-09-22T10:44:22Z</time>
      </trkpt>
      <trkpt lat="43.34225" lon="1.84116">
        <ele>186.15</ele>
        <time>2014-09-22T10:44:23Z</time>
      </trkpt>
      <trkpt lat="43.34262" lon="1.8427">
        <ele>187.11</ele>
        <time>2014-09-22T10:44:41Z</time>
      </trkpt>
      <trkpt lat="43.34266" lon="1.84401">
        <ele>187.59</ele>
        <time>2014-09-22T10:44:55Z</time>
      </trkpt>
      <trkpt lat="43.34268" lon="1.84409">
        <ele>187.59</ele>
        <time>2014-09-22T10:44:56Z</time>
      </trkpt>
      <trkpt lat="43.34297" lon="1.84495">
        <ele>188.56</ele>
        <time>2014-09-22T10:45:08Z</time>
      </trkpt>
      <trkpt lat="43.34308" lon="1.8453">
        <ele>188.08</ele>
        <time>2014-09-22T10:45:13Z</time>
      </trkpt>
      <trkpt lat="43.34311" lon="1.84537">
        <ele>188.08</ele>
        <time>2014-09-22T10:45:14Z</time>
      </trkpt>
      <trkpt lat="43.34335" lon="1.84582">
        <ele>186.15</ele>
        <time>2014-09-22T10:45:20Z</time>
      </trkpt>
      <trkpt lat="43.34338" lon="1.84586">
        <ele>185.67</ele>
        <time>2014-09-22T10:45:21Z</time>
      </trkpt>
      <trkpt lat="43.34341" lon="1.84591">
        <ele>185.19</ele>
        <time>2014-09-22T10:45:22Z</time>
      </trkpt>
      <trkpt lat="43.34341" lon="1.84596">
        <ele>184.71</ele>
        <time>2014-09-22T10:45:23Z</time>
      </trkpt>
      <trkpt lat="43.3434" lon="1.846">
        <ele>184.23</ele>
        <time>2014-09-22T10:45:24Z</time>
      </trkpt>
      <trkpt lat="43.3434" lon="1.84602">
        <ele>183.75</ele>
        <time>2014-09-22T10:45:25Z</time>
      </trkpt>
      <trkpt lat="43.3434" lon="1.84604">
        <ele>181.83</ele>
        <time>2014-09-22T10:45:37Z</time>
      </trkpt>
      <trkpt lat="43.34339" lon="1.84605">
        <ele>181.83</ele>
        <time>2014-09-22T10:45:38Z</time>
      </trkpt>
      <trkpt lat="43.34338" lon="1.84605">
        <ele>181.83</ele>
        <time>2014-09-22T10:45:39Z</time>
      </trkpt>
      <trkpt lat="43.34312" lon="1.84606">
        <ele>182.31</ele>
        <time>2014-09-22T10:45:46Z</time>
      </trkpt>
      <trkpt lat="43.34237" lon="1.84597">
        <ele>184.23</ele>
        <time>2014-09-22T10:46:00Z</time>
      </trkpt>
      <trkpt lat="43.3423" lon="1.84598">
        <ele>184.23</ele>
        <time>2014-09-22T10:46:01Z</time>
      </trkpt>
      <trkpt lat="43.34225" lon="1.84601">
        <ele>184.23</ele>
        <time>2014-09-22T10:46:02Z</time>
      </trkpt>
      <trkpt lat="43.34219" lon="1.84604">
        <ele>184.71</ele>
        <time>2014-09-22T10:46:03Z</time>
      </trkpt>
      <trkpt lat="43.34214" lon="1.84608">
        <ele>184.71</ele>
        <time>2014-09-22T10:46:04Z</time>
      </trkpt>
      <trkpt lat="43.34209" lon="1.84613">
        <ele>184.71</ele>
        <time>2014-09-22T10:46:05Z</time>
      </trkpt>
      <trkpt lat="43.34204" lon="1.84618">
        <ele>184.71</ele>
        <time>2014-09-22T10:46:06Z</time>
      </trkpt>
      <trkpt lat="43.342" lon="1.84623">
        <ele>185.19</ele>
        <time>2014-09-22T10:46:07Z</time>
      </trkpt>
      <trkpt lat="43.34195" lon="1.84629">
        <ele>185.67</ele>
        <time>2014-09-22T10:46:08Z</time>
      </trkpt>
      <trkpt lat="43.34112" lon="1.84723">
        <ele>184.71</ele>
        <time>2014-09-22T10:46:25Z</time>
      </trkpt>
      <trkpt lat="43.34025" lon="1.84803">
        <ele>186.15</ele>
        <time>2014-09-22T10:46:41Z</time>
      </trkpt>
      <trkpt lat="43.33933" lon="1.84912">
        <ele>185.19</ele>
        <time>2014-09-22T10:46:58Z</time>
      </trkpt>
      <trkpt lat="43.33924" lon="1.84928">
        <ele>184.71</ele>
        <time>2014-09-22T10:47:00Z</time>
      </trkpt>
      <trkpt lat="43.33917" lon="1.84937">
        <ele>184.71</ele>
        <time>2014-09-22T10:47:01Z</time>
      </trkpt>
      <trkpt lat="43.33912" lon="1.84941">
        <ele>184.71</ele>
        <time>2014-09-22T10:47:02Z</time>
      </trkpt>
      <trkpt lat="43.33905" lon="1.84945">
        <ele>184.71</ele>
        <time>2014-09-22T10:47:03Z</time>
      </trkpt>
      <trkpt lat="43.33898" lon="1.84948">
        <ele>184.23</ele>
        <time>2014-09-22T10:47:04Z</time>
      </trkpt>
      <trkpt lat="43.33892" lon="1.84951">
        <ele>184.23</ele>
        <time>2014-09-22T10:47:05Z</time>
      </trkpt>
      <trkpt lat="43.33859" lon="1.84962">
        <ele>184.71</ele>
        <time>2014-09-22T10:47:10Z</time>
      </trkpt>
      <trkpt lat="43.33854" lon="1.84962">
        <ele>184.71</ele>
        <time>2014-09-22T10:47:11Z</time>
      </trkpt>
      <trkpt lat="43.33842" lon="1.84959">
        <ele>184.71</ele>
        <time>2014-09-22T10:47:13Z</time>
      </trkpt>
      <trkpt lat="43.33835" lon="1.84957">
        <ele>185.19</ele>
        <time>2014-09-22T10:47:14Z</time>
      </trkpt>
      <trkpt lat="43.33829" lon="1.84954">
        <ele>185.19</ele>
        <time>2014-09-22T10:47:15Z</time>
      </trkpt>
      <trkpt lat="43.33823" lon="1.84952">
        <ele>185.67</ele>
        <time>2014-09-22T10:47:16Z</time>
      </trkpt>
      <trkpt lat="43.33817" lon="1.84951">
        <ele>185.67</ele>
        <time>2014-09-22T10:47:17Z</time>
      </trkpt>
      <trkpt lat="43.3381" lon="1.8495">
        <ele>186.15</ele>
        <time>2014-09-22T10:47:18Z</time>
      </trkpt>
      <trkpt lat="43.33804" lon="1.84952">
        <ele>186.15</ele>
        <time>2014-09-22T10:47:19Z</time>
      </trkpt>
      <trkpt lat="43.33798" lon="1.84955">
        <ele>186.15</ele>
        <time>2014-09-22T10:47:20Z</time>
      </trkpt>
      <trkpt lat="43.33703" lon="1.85031">
        <ele>186.15</ele>
        <time>2014-09-22T10:47:37Z</time>
      </trkpt>
      <trkpt lat="43.33698" lon="1.85038">
        <ele>186.15</ele>
        <time>2014-09-22T10:47:38Z</time>
      </trkpt>
      <trkpt lat="43.33649" lon="1.85134">
        <ele>187.11</ele>
        <time>2014-09-22T10:47:51Z</time>
      </trkpt>
      <trkpt lat="43.33603" lon="1.85276">
        <ele>189.04</ele>
        <time>2014-09-22T10:48:08Z</time>
      </trkpt>
      <trkpt lat="43.33541" lon="1.85426">
        <ele>189.52</ele>
        <time>2014-09-22T10:48:26Z</time>
      </trkpt>
      <trkpt lat="43.33481" lon="1.85507">
        <ele>189.04</ele>
        <time>2014-09-22T10:48:38Z</time>
      </trkpt>
      <trkpt lat="43.33396" lon="1.85621">
        <ele>188.08</ele>
        <time>2014-09-22T10:48:55Z</time>
      </trkpt>
      <trkpt lat="43.3332" lon="1.85756">
        <ele>189.04</ele>
        <time>2014-09-22T10:49:13Z</time>
      </trkpt>
      <trkpt lat="43.33258" lon="1.85882">
        <ele>190.48</ele>
        <time>2014-09-22T10:49:29Z</time>
      </trkpt>
      <trkpt lat="43.33248" lon="1.85906">
        <ele>190.48</ele>
        <time>2014-09-22T10:49:32Z</time>
      </trkpt>
      <trkpt lat="43.33165" lon="1.86034">
        <ele>191.44</ele>
        <time>2014-09-22T10:49:50Z</time>
      </trkpt>
      <trkpt lat="43.33135" lon="1.8609">
        <ele>191.92</ele>
        <time>2014-09-22T10:49:58Z</time>
      </trkpt>
      <trkpt lat="43.33119" lon="1.86121">
        <ele>191.92</ele>
        <time>2014-09-22T10:50:03Z</time>
      </trkpt>
      <trkpt lat="43.33107" lon="1.86146">
        <ele>191.92</ele>
        <time>2014-09-22T10:50:10Z</time>
      </trkpt>
      <trkpt lat="43.33111" lon="1.86138">
        <ele>192.4</ele>
        <time>2014-09-22T10:50:14Z</time>
      </trkpt>
      <trkpt lat="43.33113" lon="1.86134">
        <ele>192.4</ele>
        <time>2014-09-22T10:50:15Z</time>
      </trkpt>
      <trkpt lat="43.33132" lon="1.861">
        <ele>192.88</ele>
        <time>2014-09-22T10:50:22Z</time>
      </trkpt>
      <trkpt lat="43.33164" lon="1.86041">
        <ele>193.36</ele>
        <time>2014-09-22T10:50:31Z</time>
      </trkpt>
      <trkpt lat="43.33172" lon="1.86029">
        <ele>193.36</ele>
        <time>2014-09-22T10:50:33Z</time>
      </trkpt>
      <trkpt lat="43.33177" lon="1.86024">
        <ele>193.36</ele>
        <time>2014-09-22T10:50:34Z</time>
      </trkpt>
      <trkpt lat="43.33182" lon="1.8602">
        <ele>192.88</ele>
        <time>2014-09-22T10:50:35Z</time>
      </trkpt>
      <trkpt lat="43.33188" lon="1.86018">
        <ele>192.88</ele>
        <time>2014-09-22T10:50:36Z</time>
      </trkpt>
      <trkpt lat="43.33194" lon="1.86018">
        <ele>192.88</ele>
        <time>2014-09-22T10:50:37Z</time>
      </trkpt>
      <trkpt lat="43.332" lon="1.86019">
        <ele>192.4</ele>
        <time>2014-09-22T10:50:38Z</time>
      </trkpt>
      <trkpt lat="43.33205" lon="1.86021">
        <ele>192.4</ele>
        <time>2014-09-22T10:50:39Z</time>
      </trkpt>
      <trkpt lat="43.33211" lon="1.86024">
        <ele>192.4</ele>
        <time>2014-09-22T10:50:40Z</time>
      </trkpt>
      <trkpt lat="43.33274" lon="1.86061">
        <ele>194.8</ele>
        <time>2014-09-22T10:50:52Z</time>
      </trkpt>
      <trkpt lat="43.3332" lon="1.86086">
        <ele>197.69</ele>
        <time>2014-09-22T10:51:01Z</time>
      </trkpt>
      <trkpt lat="43.33329" lon="1.86092">
        <ele>198.17</ele>
        <time>2014-09-22T10:51:03Z</time>
      </trkpt>
      <trkpt lat="43.33332" lon="1.86096">
        <ele>198.65</ele>
        <time>2014-09-22T10:51:04Z</time>
      </trkpt>
      <trkpt lat="43.33334" lon="1.861">
        <ele>199.13</ele>
        <time>2014-09-22T10:51:05Z</time>
      </trkpt>
      <trkpt lat="43.33335" lon="1.86103">
        <ele>199.61</ele>
        <time>2014-09-22T10:51:06Z</time>
      </trkpt>
      <trkpt lat="43.33334" lon="1.86106">
        <ele>200.09</ele>
        <time>2014-09-22T10:51:07Z</time>
      </trkpt>
      <trkpt lat="43.33333" lon="1.86107">
        <ele>200.09</ele>
        <time>2014-09-22T10:51:08Z</time>
      </trkpt>
      <trkpt lat="43.33332" lon="1.86108">
        <ele>200.09</ele>
        <time>2014-09-22T10:51:09Z</time>
      </trkpt>
      <trkpt lat="43.33323" lon="1.86154">
        <ele>201.05</ele>
        <time>2014-09-22T10:51:21Z</time>
      </trkpt>
      <trkpt lat="43.33297" lon="1.8629">
        <ele>200.57</ele>
        <time>2014-09-22T10:51:39Z</time>
      </trkpt>
      <trkpt lat="43.33266" lon="1.86452">
        <ele>200.57</ele>
        <time>2014-09-22T10:51:59Z</time>
      </trkpt>
      <trkpt lat="43.33254" lon="1.86522">
        <ele>201.05</ele>
        <time>2014-09-22T10:52:07Z</time>
      </trkpt>
      <trkpt lat="43.33254" lon="1.86532">
        <ele>201.53</ele>
        <time>2014-09-22T10:52:08Z</time>
      </trkpt>
      <trkpt lat="43.33249" lon="1.86669">
        <ele>203.46</ele>
        <time>2014-09-22T10:52:23Z</time>
      </trkpt>
      <trkpt lat="43.33246" lon="1.86882">
        <ele>203.46</ele>
        <time>2014-09-22T10:52:46Z</time>
      </trkpt>
      <trkpt lat="43.33242" lon="1.87079">
        <ele>202.01</ele>
        <time>2014-09-22T10:53:06Z</time>
      </trkpt>
      <trkpt lat="43.33214" lon="1.87215">
        <ele>200.57</ele>
        <time>2014-09-22T10:53:19Z</time>
      </trkpt>
      <trkpt lat="43.33176" lon="1.87389">
        <ele>200.09</ele>
        <time>2014-09-22T10:53:36Z</time>
      </trkpt>
      <trkpt lat="43.33129" lon="1.87592">
        <ele>197.21</ele>
        <time>2014-09-22T10:53:55Z</time>
      </trkpt>
      <trkpt lat="43.33086" lon="1.87785">
        <ele>198.65</ele>
        <time>2014-09-22T10:54:14Z</time>
      </trkpt>
      <trkpt lat="43.33058" lon="1.87904">
        <ele>201.05</ele>
        <time>2014-09-22T10:54:28Z</time>
      </trkpt>
      <trkpt lat="43.33031" lon="1.88024">
        <ele>203.46</ele>
        <time>2014-09-22T10:54:43Z</time>
      </trkpt>
      <trkpt lat="43.33008" lon="1.88125">
        <ele>206.34</ele>
        <time>2014-09-22T10:54:56Z</time>
      </trkpt>
      <trkpt lat="43.32972" lon="1.88261">
        <ele>209.22</ele>
        <time>2014-09-22T10:55:14Z</time>
      </trkpt>
      <trkpt lat="43.32929" lon="1.884">
        <ele>206.82</ele>
        <time>2014-09-22T10:55:30Z</time>
      </trkpt>
      <trkpt lat="43.32893" lon="1.88519">
        <ele>208.74</ele>
        <time>2014-09-22T10:55:43Z</time>
      </trkpt>
      <trkpt lat="43.32858" lon="1.88633">
        <ele>209.7</ele>
        <time>2014-09-22T10:55:57Z</time>
      </trkpt>
      <trkpt lat="43.32809" lon="1.88792">
        <ele>208.74</ele>
        <time>2014-09-22T10:56:15Z</time>
      </trkpt>
      <trkpt lat="43.32745" lon="1.89005">
        <ele>209.22</ele>
        <time>2014-09-22T10:56:40Z</time>
      </trkpt>
      <trkpt lat="43.32698" lon="1.89156">
        <ele>209.22</ele>
        <time>2014-09-22T10:56:57Z</time>
      </trkpt>
      <trkpt lat="43.32652" lon="1.89306">
        <ele>210.19</ele>
        <time>2014-09-22T10:57:14Z</time>
      </trkpt>
      <trkpt lat="43.32608" lon="1.89459">
        <ele>209.22</ele>
        <time>2014-09-22T10:57:31Z</time>
      </trkpt>
      <trkpt lat="43.3259" lon="1.8965">
        <ele>207.78</ele>
        <time>2014-09-22T10:57:49Z</time>
      </trkpt>
      <trkpt lat="43.32572" lon="1.8985">
        <ele>208.26</ele>
        <time>2014-09-22T10:58:09Z</time>
      </trkpt>
      <trkpt lat="43.32568" lon="1.89952">
        <ele>209.22</ele>
        <time>2014-09-22T10:58:20Z</time>
      </trkpt>
      <trkpt lat="43.32571" lon="1.89963">
        <ele>209.22</ele>
        <time>2014-09-22T10:58:21Z</time>
      </trkpt>
      <trkpt lat="43.32573" lon="1.8997">
        <ele>209.7</ele>
        <time>2014-09-22T10:58:22Z</time>
      </trkpt>
      <trkpt lat="43.32577" lon="1.89978">
        <ele>209.22</ele>
        <time>2014-09-22T10:58:23Z</time>
      </trkpt>
      <trkpt lat="43.32581" lon="1.89986">
        <ele>209.7</ele>
        <time>2014-09-22T10:58:24Z</time>
      </trkpt>
      <trkpt lat="43.32585" lon="1.89994">
        <ele>209.7</ele>
        <time>2014-09-22T10:58:25Z</time>
      </trkpt>
      <trkpt lat="43.3266" lon="1.90117">
        <ele>206.34</ele>
        <time>2014-09-22T10:58:41Z</time>
      </trkpt>
      <trkpt lat="43.32757" lon="1.90276">
        <ele>202.98</ele>
        <time>2014-09-22T10:59:01Z</time>
      </trkpt>
      <trkpt lat="43.3278" lon="1.90319">
        <ele>202.98</ele>
        <time>2014-09-22T10:59:06Z</time>
      </trkpt>
      <trkpt lat="43.32784" lon="1.90328">
        <ele>202.98</ele>
        <time>2014-09-22T10:59:07Z</time>
      </trkpt>
      <trkpt lat="43.32816" lon="1.90439">
        <ele>203.46</ele>
        <time>2014-09-22T10:59:19Z</time>
      </trkpt>
      <trkpt lat="43.32826" lon="1.90581">
        <ele>202.98</ele>
        <time>2014-09-22T10:59:33Z</time>
      </trkpt>
      <trkpt lat="43.32839" lon="1.90775">
        <ele>203.94</ele>
        <time>2014-09-22T10:59:52Z</time>
      </trkpt>
      <trkpt lat="43.32861" lon="1.90912">
        <ele>202.98</ele>
        <time>2014-09-22T11:00:08Z</time>
      </trkpt>
      <trkpt lat="43.32863" lon="1.90919">
        <ele>202.98</ele>
        <time>2014-09-22T11:00:09Z</time>
      </trkpt>
      <trkpt lat="43.32866" lon="1.90932">
        <ele>202.98</ele>
        <time>2014-09-22T11:00:11Z</time>
      </trkpt>
      <trkpt lat="43.32864" lon="1.90938">
        <ele>202.49</ele>
        <time>2014-09-22T11:00:12Z</time>
      </trkpt>
      <trkpt lat="43.3286" lon="1.90942">
        <ele>202.49</ele>
        <time>2014-09-22T11:00:13Z</time>
      </trkpt>
      <trkpt lat="43.32855" lon="1.90942">
        <ele>202.49</ele>
        <time>2014-09-22T11:00:14Z</time>
      </trkpt>
      <trkpt lat="43.3285" lon="1.9094">
        <ele>202.01</ele>
        <time>2014-09-22T11:00:15Z</time>
      </trkpt>
      <trkpt lat="43.32843" lon="1.90939">
        <ele>202.01</ele>
        <time>2014-09-22T11:00:16Z</time>
      </trkpt>
      <trkpt lat="43.32837" lon="1.90937">
        <ele>202.01</ele>
        <time>2014-09-22T11:00:17Z</time>
      </trkpt>
      <trkpt lat="43.32832" lon="1.90936">
        <ele>202.01</ele>
        <time>2014-09-22T11:00:18Z</time>
      </trkpt>
      <trkpt lat="43.32826" lon="1.90934">
        <ele>202.01</ele>
        <time>2014-09-22T11:00:19Z</time>
      </trkpt>
      <trkpt lat="43.32762" lon="1.90916">
        <ele>202.01</ele>
        <time>2014-09-22T11:00:29Z</time>
      </trkpt>
      <trkpt lat="43.32687" lon="1.909">
        <ele>202.98</ele>
        <time>2014-09-22T11:00:41Z</time>
      </trkpt>
      <trkpt lat="43.32641" lon="1.90893">
        <ele>201.05</ele>
        <time>2014-09-22T11:00:47Z</time>
      </trkpt>
      <trkpt lat="43.32631" lon="1.90896">
        <ele>200.57</ele>
        <time>2014-09-22T11:00:48Z</time>
      </trkpt>
      <trkpt lat="43.32622" lon="1.909">
        <ele>200.09</ele>
        <time>2014-09-22T11:00:49Z</time>
      </trkpt>
      <trkpt lat="43.32612" lon="1.90907">
        <ele>199.61</ele>
        <time>2014-09-22T11:00:50Z</time>
      </trkpt>
      <trkpt lat="43.32603" lon="1.90914">
        <ele>199.61</ele>
        <time>2014-09-22T11:00:51Z</time>
      </trkpt>
      <trkpt lat="43.32495" lon="1.91007">
        <ele>190</ele>
        <time>2014-09-22T11:01:03Z</time>
      </trkpt>
      <trkpt lat="43.32487" lon="1.91012">
        <ele>189.52</ele>
        <time>2014-09-22T11:01:04Z</time>
      </trkpt>
      <trkpt lat="43.3248" lon="1.91015">
        <ele>189.04</ele>
        <time>2014-09-22T11:01:05Z</time>
      </trkpt>
      <trkpt lat="43.32472" lon="1.91017">
        <ele>188.08</ele>
        <time>2014-09-22T11:01:06Z</time>
      </trkpt>
      <trkpt lat="43.32466" lon="1.91017">
        <ele>187.59</ele>
        <time>2014-09-22T11:01:07Z</time>
      </trkpt>
      <trkpt lat="43.32462" lon="1.91017">
        <ele>187.11</ele>
        <time>2014-09-22T11:01:08Z</time>
      </trkpt>
      <trkpt lat="43.32463" lon="1.91016">
        <ele>184.23</ele>
        <time>2014-09-22T11:01:15Z</time>
      </trkpt>
      <trkpt lat="43.32463" lon="1.91016">
        <ele>181.83</ele>
        <time>2014-09-22T11:01:38Z</time>
      </trkpt>
      <trkpt lat="43.32465" lon="1.91016">
        <ele>180.38</ele>
        <time>2014-09-22T11:02:11Z</time>
      </trkpt>
      <trkpt lat="43.32466" lon="1.91017">
        <ele>179.42</ele>
        <time>2014-09-22T11:02:54Z</time>
      </trkpt>
      <trkpt lat="43.32463" lon="1.91017">
        <ele>179.42</ele>
        <time>2014-09-22T11:03:30Z</time>
      </trkpt>
      <trkpt lat="43.32461" lon="1.91017">
        <ele>178.94</ele>
        <time>2014-09-22T11:03:31Z</time>
      </trkpt>
      <trkpt lat="43.32439" lon="1.9102">
        <ele>178.46</ele>
        <time>2014-09-22T11:03:36Z</time>
      </trkpt>
      <trkpt lat="43.3237" lon="1.91051">
        <ele>175.1</ele>
        <time>2014-09-22T11:03:46Z</time>
      </trkpt>
      <trkpt lat="43.32267" lon="1.91125">
        <ele>172.21</ele>
        <time>2014-09-22T11:04:01Z</time>
      </trkpt>
      <trkpt lat="43.32152" lon="1.91203">
        <ele>171.25</ele>
        <time>2014-09-22T11:04:18Z</time>
      </trkpt>
      <trkpt lat="43.32114" lon="1.91217">
        <ele>171.25</ele>
        <time>2014-09-22T11:04:24Z</time>
      </trkpt>
      <trkpt lat="43.32102" lon="1.91222">
        <ele>171.25</ele>
        <time>2014-09-22T11:04:26Z</time>
      </trkpt>
      <trkpt lat="43.32096" lon="1.91227">
        <ele>171.25</ele>
        <time>2014-09-22T11:04:27Z</time>
      </trkpt>
      <trkpt lat="43.32092" lon="1.91233">
        <ele>171.25</ele>
        <time>2014-09-22T11:04:28Z</time>
      </trkpt>
      <trkpt lat="43.3209" lon="1.91239">
        <ele>171.25</ele>
        <time>2014-09-22T11:04:29Z</time>
      </trkpt>
      <trkpt lat="43.32088" lon="1.91243">
        <ele>171.25</ele>
        <time>2014-09-22T11:04:30Z</time>
      </trkpt>
      <trkpt lat="43.32087" lon="1.91248">
        <ele>171.25</ele>
        <time>2014-09-22T11:04:31Z</time>
      </trkpt>
      <trkpt lat="43.32088" lon="1.91288">
        <ele>171.73</ele>
        <time>2014-09-22T11:04:38Z</time>
      </trkpt>
      <trkpt lat="43.32103" lon="1.91358">
        <ele>176.06</ele>
        <time>2014-09-22T11:04:50Z</time>
      </trkpt>
      <trkpt lat="43.32098" lon="1.91379">
        <ele>176.06</ele>
        <time>2014-09-22T11:05:03Z</time>
      </trkpt>
      <trkpt lat="43.32096" lon="1.91382">
        <ele>176.06</ele>
        <time>2014-09-22T11:05:06Z</time>
      </trkpt>
      <trkpt lat="43.32095" lon="1.91383">
        <ele>175.58</ele>
        <time>2014-09-22T11:05:07Z</time>
      </trkpt>
      <trkpt lat="43.32093" lon="1.91385">
        <ele>175.58</ele>
        <time>2014-09-22T11:05:08Z</time>
      </trkpt>
      <trkpt lat="43.32091" lon="1.91387">
        <ele>175.58</ele>
        <time>2014-09-22T11:05:09Z</time>
      </trkpt>
      <trkpt lat="43.32089" lon="1.91391">
        <ele>175.58</ele>
        <time>2014-09-22T11:05:10Z</time>
      </trkpt>
      <trkpt lat="43.32086" lon="1.91397">
        <ele>175.58</ele>
        <time>2014-09-22T11:05:11Z</time>
      </trkpt>
      <trkpt lat="43.32085" lon="1.91404">
        <ele>175.58</ele>
        <time>2014-09-22T11:05:12Z</time>
      </trkpt>
      <trkpt lat="43.32085" lon="1.9141">
        <ele>175.58</ele>
        <time>2014-09-22T11:05:13Z</time>
      </trkpt>
      <trkpt lat="43.32086" lon="1.91417">
        <ele>175.58</ele>
        <time>2014-09-22T11:05:14Z</time>
      </trkpt>
      <trkpt lat="43.32111" lon="1.91525">
        <ele>177.5</ele>
        <time>2014-09-22T11:05:27Z</time>
      </trkpt>
      <trkpt lat="43.32129" lon="1.916">
        <ele>178.46</ele>
        <time>2014-09-22T11:05:36Z</time>
      </trkpt>
      <trkpt lat="43.32126" lon="1.91644">
        <ele>178.94</ele>
        <time>2014-09-22T11:05:41Z</time>
      </trkpt>
      <trkpt lat="43.32094" lon="1.91757">
        <ele>184.71</ele>
        <time>2014-09-22T11:05:55Z</time>
      </trkpt>
      <trkpt lat="43.32068" lon="1.9189">
        <ele>187.11</ele>
        <time>2014-09-22T11:06:10Z</time>
      </trkpt>
      <trkpt lat="43.32066" lon="1.91907">
        <ele>187.11</ele>
        <time>2014-09-22T11:06:12Z</time>
      </trkpt>
      <trkpt lat="43.32066" lon="1.92035">
        <ele>190</ele>
        <time>2014-09-22T11:06:26Z</time>
      </trkpt>
      <trkpt lat="43.32092" lon="1.92177">
        <ele>189.04</ele>
        <time>2014-09-22T11:06:41Z</time>
      </trkpt>
      <trkpt lat="43.32099" lon="1.92223">
        <ele>189.04</ele>
        <time>2014-09-22T11:06:46Z</time>
      </trkpt>
      <trkpt lat="43.32099" lon="1.92233">
        <ele>189.04</ele>
        <time>2014-09-22T11:06:47Z</time>
      </trkpt>
      <trkpt lat="43.32095" lon="1.9228">
        <ele>188.56</ele>
        <time>2014-09-22T11:06:52Z</time>
      </trkpt>
      <trkpt lat="43.32093" lon="1.92288">
        <ele>188.56</ele>
        <time>2014-09-22T11:06:53Z</time>
      </trkpt>
      <trkpt lat="43.32056" lon="1.92412">
        <ele>191.44</ele>
        <time>2014-09-22T11:07:08Z</time>
      </trkpt>
      <trkpt lat="43.32041" lon="1.92542">
        <ele>188.56</ele>
        <time>2014-09-22T11:07:21Z</time>
      </trkpt>
      <trkpt lat="43.32027" lon="1.92686">
        <ele>185.19</ele>
        <time>2014-09-22T11:07:36Z</time>
      </trkpt>
      <trkpt lat="43.32011" lon="1.92812">
        <ele>181.83</ele>
        <time>2014-09-22T11:07:49Z</time>
      </trkpt>
      <trkpt lat="43.31988" lon="1.92959">
        <ele>182.31</ele>
        <time>2014-09-22T11:08:05Z</time>
      </trkpt>
      <trkpt lat="43.31979" lon="1.93005">
        <ele>183.75</ele>
        <time>2014-09-22T11:08:10Z</time>
      </trkpt>
      <trkpt lat="43.31941" lon="1.93147">
        <ele>188.56</ele>
        <time>2014-09-22T11:08:26Z</time>
      </trkpt>
      <trkpt lat="43.3193" lon="1.93181">
        <ele>190.48</ele>
        <time>2014-09-22T11:08:30Z</time>
      </trkpt>
      <trkpt lat="43.31862" lon="1.93302">
        <ele>195.77</ele>
        <time>2014-09-22T11:08:46Z</time>
      </trkpt>
      <trkpt lat="43.31785" lon="1.93414">
        <ele>200.57</ele>
        <time>2014-09-22T11:09:02Z</time>
      </trkpt>
      <trkpt lat="43.31782" lon="1.93422">
        <ele>201.05</ele>
        <time>2014-09-22T11:09:03Z</time>
      </trkpt>
      <trkpt lat="43.3178" lon="1.93431">
        <ele>201.53</ele>
        <time>2014-09-22T11:09:04Z</time>
      </trkpt>
      <trkpt lat="43.31779" lon="1.9344">
        <ele>202.01</ele>
        <time>2014-09-22T11:09:05Z</time>
      </trkpt>
      <trkpt lat="43.31778" lon="1.9345">
        <ele>202.49</ele>
        <time>2014-09-22T11:09:06Z</time>
      </trkpt>
      <trkpt lat="43.31778" lon="1.9346">
        <ele>202.49</ele>
        <time>2014-09-22T11:09:07Z</time>
      </trkpt>
      <trkpt lat="43.31778" lon="1.9347">
        <ele>202.98</ele>
        <time>2014-09-22T11:09:08Z</time>
      </trkpt>
      <trkpt lat="43.31779" lon="1.9348">
        <ele>203.46</ele>
        <time>2014-09-22T11:09:09Z</time>
      </trkpt>
      <trkpt lat="43.31781" lon="1.9349">
        <ele>203.94</ele>
        <time>2014-09-22T11:09:10Z</time>
      </trkpt>
      <trkpt lat="43.31784" lon="1.935">
        <ele>202.98</ele>
        <time>2014-09-22T11:09:11Z</time>
      </trkpt>
      <trkpt lat="43.31787" lon="1.93511">
        <ele>202.49</ele>
        <time>2014-09-22T11:09:12Z</time>
      </trkpt>
      <trkpt lat="43.3179" lon="1.93521">
        <ele>202.49</ele>
        <time>2014-09-22T11:09:13Z</time>
      </trkpt>
      <trkpt lat="43.31793" lon="1.93531">
        <ele>201.53</ele>
        <time>2014-09-22T11:09:14Z</time>
      </trkpt>
      <trkpt lat="43.31795" lon="1.93541">
        <ele>201.53</ele>
        <time>2014-09-22T11:09:15Z</time>
      </trkpt>
      <trkpt lat="43.31797" lon="1.93551">
        <ele>201.05</ele>
        <time>2014-09-22T11:09:16Z</time>
      </trkpt>
      <trkpt lat="43.31799" lon="1.93561">
        <ele>200.57</ele>
        <time>2014-09-22T11:09:17Z</time>
      </trkpt>
      <trkpt lat="43.31799" lon="1.93571">
        <ele>200.57</ele>
        <time>2014-09-22T11:09:18Z</time>
      </trkpt>
      <trkpt lat="43.31799" lon="1.9358">
        <ele>200.57</ele>
        <time>2014-09-22T11:09:19Z</time>
      </trkpt>
      <trkpt lat="43.31797" lon="1.93589">
        <ele>200.57</ele>
        <time>2014-09-22T11:09:20Z</time>
      </trkpt>
      <trkpt lat="43.31796" lon="1.93598">
        <ele>200.57</ele>
        <time>2014-09-22T11:09:21Z</time>
      </trkpt>
      <trkpt lat="43.31793" lon="1.93606">
        <ele>201.05</ele>
        <time>2014-09-22T11:09:22Z</time>
      </trkpt>
      <trkpt lat="43.3179" lon="1.93614">
        <ele>201.05</ele>
        <time>2014-09-22T11:09:23Z</time>
      </trkpt>
      <trkpt lat="43.31753" lon="1.93734">
        <ele>201.53</ele>
        <time>2014-09-22T11:09:37Z</time>
      </trkpt>
      <trkpt lat="43.31735" lon="1.93842">
        <ele>194.8</ele>
        <time>2014-09-22T11:09:48Z</time>
      </trkpt>
      <trkpt lat="43.31731" lon="1.9385">
        <ele>194.32</ele>
        <time>2014-09-22T11:09:49Z</time>
      </trkpt>
      <trkpt lat="43.31726" lon="1.93857">
        <ele>193.84</ele>
        <time>2014-09-22T11:09:50Z</time>
      </trkpt>
      <trkpt lat="43.31721" lon="1.93865">
        <ele>193.36</ele>
        <time>2014-09-22T11:09:51Z</time>
      </trkpt>
      <trkpt lat="43.31716" lon="1.93872">
        <ele>192.88</ele>
        <time>2014-09-22T11:09:52Z</time>
      </trkpt>
      <trkpt lat="43.31711" lon="1.93879">
        <ele>192.4</ele>
        <time>2014-09-22T11:09:53Z</time>
      </trkpt>
      <trkpt lat="43.31619" lon="1.93985">
        <ele>186.63</ele>
        <time>2014-09-22T11:10:10Z</time>
      </trkpt>
      <trkpt lat="43.31541" lon="1.94052">
        <ele>185.19</ele>
        <time>2014-09-22T11:10:23Z</time>
      </trkpt>
      <trkpt lat="43.3147" lon="1.94127">
        <ele>186.63</ele>
        <time>2014-09-22T11:10:35Z</time>
      </trkpt>
      <trkpt lat="43.31385" lon="1.9427">
        <ele>192.4</ele>
        <time>2014-09-22T11:10:54Z</time>
      </trkpt>
      <trkpt lat="43.3136" lon="1.94316">
        <ele>194.32</ele>
        <time>2014-09-22T11:11:00Z</time>
      </trkpt>
      <trkpt lat="43.31348" lon="1.94361">
        <ele>195.77</ele>
        <time>2014-09-22T11:11:05Z</time>
      </trkpt>
      <trkpt lat="43.31344" lon="1.94392">
        <ele>195.28</ele>
        <time>2014-09-22T11:11:08Z</time>
      </trkpt>
      <trkpt lat="43.31342" lon="1.94401">
        <ele>195.77</ele>
        <time>2014-09-22T11:11:09Z</time>
      </trkpt>
      <trkpt lat="43.31336" lon="1.94418">
        <ele>196.73</ele>
        <time>2014-09-22T11:11:11Z</time>
      </trkpt>
      <trkpt lat="43.31333" lon="1.94426">
        <ele>196.73</ele>
        <time>2014-09-22T11:11:12Z</time>
      </trkpt>
      <trkpt lat="43.31328" lon="1.94433">
        <ele>197.21</ele>
        <time>2014-09-22T11:11:13Z</time>
      </trkpt>
      <trkpt lat="43.31284" lon="1.94497">
        <ele>199.61</ele>
        <time>2014-09-22T11:11:22Z</time>
      </trkpt>
      <trkpt lat="43.31281" lon="1.94506">
        <ele>200.09</ele>
        <time>2014-09-22T11:11:23Z</time>
      </trkpt>
      <trkpt lat="43.31278" lon="1.94514">
        <ele>200.57</ele>
        <time>2014-09-22T11:11:24Z</time>
      </trkpt>
      <trkpt lat="43.31263" lon="1.94595">
        <ele>202.49</ele>
        <time>2014-09-22T11:11:33Z</time>
      </trkpt>
      <trkpt lat="43.31264" lon="1.94604">
        <ele>202.49</ele>
        <time>2014-09-22T11:11:34Z</time>
      </trkpt>
      <trkpt lat="43.31265" lon="1.94625">
        <ele>202.01</ele>
        <time>2014-09-22T11:11:36Z</time>
      </trkpt>
      <trkpt lat="43.31267" lon="1.94637">
        <ele>201.05</ele>
        <time>2014-09-22T11:11:37Z</time>
      </trkpt>
      <trkpt lat="43.3127" lon="1.94649">
        <ele>200.09</ele>
        <time>2014-09-22T11:11:38Z</time>
      </trkpt>
      <trkpt lat="43.313" lon="1.94744">
        <ele>192.88</ele>
        <time>2014-09-22T11:11:48Z</time>
      </trkpt>
      <trkpt lat="43.31304" lon="1.94751">
        <ele>192.4</ele>
        <time>2014-09-22T11:11:49Z</time>
      </trkpt>
      <trkpt lat="43.31339" lon="1.94812">
        <ele>189.04</ele>
        <time>2014-09-22T11:11:58Z</time>
      </trkpt>
      <trkpt lat="43.31344" lon="1.94818">
        <ele>188.56</ele>
        <time>2014-09-22T11:11:59Z</time>
      </trkpt>
      <trkpt lat="43.31349" lon="1.94822">
        <ele>188.08</ele>
        <time>2014-09-22T11:12:00Z</time>
      </trkpt>
      <trkpt lat="43.31354" lon="1.94827">
        <ele>187.11</ele>
        <time>2014-09-22T11:12:01Z</time>
      </trkpt>
      <trkpt lat="43.3136" lon="1.9483">
        <ele>186.63</ele>
        <time>2014-09-22T11:12:02Z</time>
      </trkpt>
      <trkpt lat="43.31366" lon="1.94831">
        <ele>186.15</ele>
        <time>2014-09-22T11:12:03Z</time>
      </trkpt>
      <trkpt lat="43.31372" lon="1.94833">
        <ele>186.15</ele>
        <time>2014-09-22T11:12:04Z</time>
      </trkpt>
      <trkpt lat="43.31378" lon="1.94833">
        <ele>185.67</ele>
        <time>2014-09-22T11:12:05Z</time>
      </trkpt>
      <trkpt lat="43.31384" lon="1.94833">
        <ele>185.19</ele>
        <time>2014-09-22T11:12:06Z</time>
      </trkpt>
      <trkpt lat="43.31431" lon="1.94829">
        <ele>182.31</ele>
        <time>2014-09-22T11:12:14Z</time>
      </trkpt>
      <trkpt lat="43.31436" lon="1.9483">
        <ele>182.31</ele>
        <time>2014-09-22T11:12:15Z</time>
      </trkpt>
      <trkpt lat="43.31442" lon="1.94832">
        <ele>182.31</ele>
        <time>2014-09-22T11:12:16Z</time>
      </trkpt>
      <trkpt lat="43.31449" lon="1.94834">
        <ele>182.31</ele>
        <time>2014-09-22T11:12:17Z</time>
      </trkpt>
      <trkpt lat="43.31455" lon="1.94837">
        <ele>181.83</ele>
        <time>2014-09-22T11:12:18Z</time>
      </trkpt>
      <trkpt lat="43.31516" lon="1.94873">
        <ele>180.38</ele>
        <time>2014-09-22T11:12:29Z</time>
      </trkpt>
      <trkpt lat="43.31521" lon="1.94877">
        <ele>180.87</ele>
        <time>2014-09-22T11:12:30Z</time>
      </trkpt>
      <trkpt lat="43.31527" lon="1.94882">
        <ele>180.38</ele>
        <time>2014-09-22T11:12:31Z</time>
      </trkpt>
      <trkpt lat="43.31532" lon="1.94887">
        <ele>180.38</ele>
        <time>2014-09-22T11:12:32Z</time>
      </trkpt>
      <trkpt lat="43.31537" lon="1.94892">
        <ele>179.9</ele>
        <time>2014-09-22T11:12:33Z</time>
      </trkpt>
      <trkpt lat="43.31567" lon="1.94933">
        <ele>179.42</ele>
        <time>2014-09-22T11:12:40Z</time>
      </trkpt>
      <trkpt lat="43.3157" lon="1.9494">
        <ele>179.42</ele>
        <time>2014-09-22T11:12:41Z</time>
      </trkpt>
      <trkpt lat="43.31572" lon="1.94947">
        <ele>179.42</ele>
        <time>2014-09-22T11:12:42Z</time>
      </trkpt>
      <trkpt lat="43.31574" lon="1.94954">
        <ele>179.42</ele>
        <time>2014-09-22T11:12:43Z</time>
      </trkpt>
      <trkpt lat="43.31576" lon="1.94962">
        <ele>179.42</ele>
        <time>2014-09-22T11:12:44Z</time>
      </trkpt>
      <trkpt lat="43.31577" lon="1.94969">
        <ele>178.94</ele>
        <time>2014-09-22T11:12:45Z</time>
      </trkpt>
      <trkpt lat="43.31578" lon="1.94977">
        <ele>178.46</ele>
        <time>2014-09-22T11:12:46Z</time>
      </trkpt>
      <trkpt lat="43.31578" lon="1.94984">
        <ele>177.98</ele>
        <time>2014-09-22T11:12:47Z</time>
      </trkpt>
      <trkpt lat="43.31577" lon="1.95006">
        <ele>177.5</ele>
        <time>2014-09-22T11:12:50Z</time>
      </trkpt>
      <trkpt lat="43.31573" lon="1.95018">
        <ele>177.98</ele>
        <time>2014-09-22T11:12:52Z</time>
      </trkpt>
      <trkpt lat="43.31571" lon="1.95024">
        <ele>177.98</ele>
        <time>2014-09-22T11:12:53Z</time>
      </trkpt>
      <trkpt lat="43.31552" lon="1.95063">
        <ele>179.42</ele>
        <time>2014-09-22T11:13:04Z</time>
      </trkpt>
      <trkpt lat="43.31552" lon="1.95065">
        <ele>179.42</ele>
        <time>2014-09-22T11:13:07Z</time>
      </trkpt>
      <trkpt lat="43.31556" lon="1.95069">
        <ele>179.42</ele>
        <time>2014-09-22T11:13:10Z</time>
      </trkpt>
      <trkpt lat="43.3156" lon="1.95078">
        <ele>179.42</ele>
        <time>2014-09-22T11:13:12Z</time>
      </trkpt>
      <trkpt lat="43.31563" lon="1.95083">
        <ele>179.42</ele>
        <time>2014-09-22T11:13:13Z</time>
      </trkpt>
      <trkpt lat="43.31568" lon="1.9509">
        <ele>179.9</ele>
        <time>2014-09-22T11:13:15Z</time>
      </trkpt>
      <trkpt lat="43.3158" lon="1.95104">
        <ele>179.9</ele>
        <time>2014-09-22T11:13:18Z</time>
      </trkpt>
      <trkpt lat="43.31624" lon="1.95148">
        <ele>180.38</ele>
        <time>2014-09-22T11:13:27Z</time>
      </trkpt>
      <trkpt lat="43.31628" lon="1.95153">
        <ele>180.87</ele>
        <time>2014-09-22T11:13:28Z</time>
      </trkpt>
      <trkpt lat="43.31664" lon="1.95194">
        <ele>182.79</ele>
        <time>2014-09-22T11:13:37Z</time>
      </trkpt>
      <trkpt lat="43.31666" lon="1.95199">
        <ele>183.27</ele>
        <time>2014-09-22T11:13:38Z</time>
      </trkpt>
      <trkpt lat="43.31679" lon="1.95221">
        <ele>186.15</ele>
        <time>2014-09-22T11:13:43Z</time>
      </trkpt>
      <trkpt lat="43.31685" lon="1.95225">
        <ele>186.63</ele>
        <time>2014-09-22T11:13:44Z</time>
      </trkpt>
      <trkpt lat="43.31732" lon="1.95266">
        <ele>190.96</ele>
        <time>2014-09-22T11:13:53Z</time>
      </trkpt>
      <trkpt lat="43.31776" lon="1.9531">
        <ele>196.25</ele>
        <time>2014-09-22T11:14:03Z</time>
      </trkpt>
      <trkpt lat="43.31778" lon="1.95315">
        <ele>196.73</ele>
        <time>2014-09-22T11:14:04Z</time>
      </trkpt>
      <trkpt lat="43.31779" lon="1.95322">
        <ele>197.21</ele>
        <time>2014-09-22T11:14:05Z</time>
      </trkpt>
      <trkpt lat="43.31777" lon="1.95328">
        <ele>197.21</ele>
        <time>2014-09-22T11:14:06Z</time>
      </trkpt>
      <trkpt lat="43.31776" lon="1.95333">
        <ele>197.21</ele>
        <time>2014-09-22T11:14:07Z</time>
      </trkpt>
      <trkpt lat="43.31753" lon="1.95398">
        <ele>198.65</ele>
        <time>2014-09-22T11:14:16Z</time>
      </trkpt>
      <trkpt lat="43.31743" lon="1.95419">
        <ele>198.65</ele>
        <time>2014-09-22T11:14:19Z</time>
      </trkpt>
      <trkpt lat="43.31714" lon="1.955">
        <ele>200.09</ele>
        <time>2014-09-22T11:14:31Z</time>
      </trkpt>
      <trkpt lat="43.31709" lon="1.95519">
        <ele>198.65</ele>
        <time>2014-09-22T11:14:34Z</time>
      </trkpt>
      <trkpt lat="43.31706" lon="1.95524">
        <ele>198.17</ele>
        <time>2014-09-22T11:14:35Z</time>
      </trkpt>
      <trkpt lat="43.31703" lon="1.95527">
        <ele>197.69</ele>
        <time>2014-09-22T11:14:36Z</time>
      </trkpt>
      <trkpt lat="43.31699" lon="1.95531">
        <ele>197.21</ele>
        <time>2014-09-22T11:14:37Z</time>
      </trkpt>
      <trkpt lat="43.31694" lon="1.95536">
        <ele>196.73</ele>
        <time>2014-09-22T11:14:38Z</time>
      </trkpt>
      <trkpt lat="43.31667" lon="1.95558">
        <ele>194.32</ele>
        <time>2014-09-22T11:14:43Z</time>
      </trkpt>
      <trkpt lat="43.31662" lon="1.95564">
        <ele>193.84</ele>
        <time>2014-09-22T11:14:44Z</time>
      </trkpt>
      <trkpt lat="43.31654" lon="1.95578">
        <ele>192.88</ele>
        <time>2014-09-22T11:14:46Z</time>
      </trkpt>
      <trkpt lat="43.3165" lon="1.95582">
        <ele>192.88</ele>
        <time>2014-09-22T11:14:47Z</time>
      </trkpt>
      <trkpt lat="43.31645" lon="1.95586">
        <ele>192.4</ele>
        <time>2014-09-22T11:14:48Z</time>
      </trkpt>
      <trkpt lat="43.31634" lon="1.95591">
        <ele>191.92</ele>
        <time>2014-09-22T11:14:50Z</time>
      </trkpt>
      <trkpt lat="43.31629" lon="1.95592">
        <ele>191.92</ele>
        <time>2014-09-22T11:14:51Z</time>
      </trkpt>
      <trkpt lat="43.31625" lon="1.95592">
        <ele>191.44</ele>
        <time>2014-09-22T11:14:52Z</time>
      </trkpt>
      <trkpt lat="43.31601" lon="1.95599">
        <ele>189.04</ele>
        <time>2014-09-22T11:15:04Z</time>
      </trkpt>
      <trkpt lat="43.31594" lon="1.95607">
        <ele>189.04</ele>
        <time>2014-09-22T11:15:07Z</time>
      </trkpt>
      <trkpt lat="43.31591" lon="1.95612">
        <ele>189.04</ele>
        <time>2014-09-22T11:15:08Z</time>
      </trkpt>
      <trkpt lat="43.31585" lon="1.95621">
        <ele>189.04</ele>
        <time>2014-09-22T11:15:10Z</time>
      </trkpt>
      <trkpt lat="43.3158" lon="1.95628">
        <ele>188.56</ele>
        <time>2014-09-22T11:15:11Z</time>
      </trkpt>
      <trkpt lat="43.31575" lon="1.95635">
        <ele>188.56</ele>
        <time>2014-09-22T11:15:12Z</time>
      </trkpt>
      <trkpt lat="43.31529" lon="1.95752">
        <ele>184.23</ele>
        <time>2014-09-22T11:15:25Z</time>
      </trkpt>
      <trkpt lat="43.31512" lon="1.95797">
        <ele>183.27</ele>
        <time>2014-09-22T11:15:30Z</time>
      </trkpt>
      <trkpt lat="43.31507" lon="1.95805">
        <ele>182.79</ele>
        <time>2014-09-22T11:15:31Z</time>
      </trkpt>
      <trkpt lat="43.31501" lon="1.95811">
        <ele>182.79</ele>
        <time>2014-09-22T11:15:32Z</time>
      </trkpt>
      <trkpt lat="43.31423" lon="1.95871">
        <ele>181.35</ele>
        <time>2014-09-22T11:15:45Z</time>
      </trkpt>
      <trkpt lat="43.31402" lon="1.95884">
        <ele>181.35</ele>
        <time>2014-09-22T11:15:53Z</time>
      </trkpt>
      <trkpt lat="43.31393" lon="1.95898">
        <ele>180.38</ele>
        <time>2014-09-22T11:15:59Z</time>
      </trkpt>
      <trkpt lat="43.31392" lon="1.95902">
        <ele>180.38</ele>
        <time>2014-09-22T11:16:00Z</time>
      </trkpt>
      <trkpt lat="43.31393" lon="1.95908">
        <ele>179.9</ele>
        <time>2014-09-22T11:16:01Z</time>
      </trkpt>
      <trkpt lat="43.31395" lon="1.95938">
        <ele>178.94</ele>
        <time>2014-09-22T11:16:05Z</time>
      </trkpt>
      <trkpt lat="43.31398" lon="1.95946">
        <ele>178.94</ele>
        <time>2014-09-22T11:16:06Z</time>
      </trkpt>
      <trkpt lat="43.31401" lon="1.95953">
        <ele>178.94</ele>
        <time>2014-09-22T11:16:07Z</time>
      </trkpt>
      <trkpt lat="43.31405" lon="1.95958">
        <ele>178.94</ele>
        <time>2014-09-22T11:16:08Z</time>
      </trkpt>
      <trkpt lat="43.31409" lon="1.95962">
        <ele>178.46</ele>
        <time>2014-09-22T11:16:09Z</time>
      </trkpt>
      <trkpt lat="43.31414" lon="1.95966">
        <ele>178.46</ele>
        <time>2014-09-22T11:16:10Z</time>
      </trkpt>
      <trkpt lat="43.31421" lon="1.9597">
        <ele>177.98</ele>
        <time>2014-09-22T11:16:11Z</time>
      </trkpt>
      <trkpt lat="43.31428" lon="1.95973">
        <ele>177.98</ele>
        <time>2014-09-22T11:16:12Z</time>
      </trkpt>
      <trkpt lat="43.31483" lon="1.9601">
        <ele>176.54</ele>
        <time>2014-09-22T11:16:19Z</time>
      </trkpt>
      <trkpt lat="43.31489" lon="1.96016">
        <ele>176.06</ele>
        <time>2014-09-22T11:16:20Z</time>
      </trkpt>
      <trkpt lat="43.31529" lon="1.96068">
        <ele>175.1</ele>
        <time>2014-09-22T11:16:29Z</time>
      </trkpt>
      <trkpt lat="43.31536" lon="1.96081">
        <ele>173.66</ele>
        <time>2014-09-22T11:16:33Z</time>
      </trkpt>
      <trkpt lat="43.31537" lon="1.96083">
        <ele>173.66</ele>
        <time>2014-09-22T11:16:34Z</time>
      </trkpt>
      <trkpt lat="43.31537" lon="1.96085">
        <ele>173.66</ele>
        <time>2014-09-22T11:16:35Z</time>
      </trkpt>
      <trkpt lat="43.3154" lon="1.96094">
        <ele>170.77</ele>
        <time>2014-09-22T11:16:41Z</time>
      </trkpt>
      <trkpt lat="43.31542" lon="1.96095">
        <ele>170.77</ele>
        <time>2014-09-22T11:16:42Z</time>
      </trkpt>
      <trkpt lat="43.31545" lon="1.96094">
        <ele>171.25</ele>
        <time>2014-09-22T11:16:43Z</time>
      </trkpt>
      <trkpt lat="43.31546" lon="1.96091">
        <ele>171.25</ele>
        <time>2014-09-22T11:16:44Z</time>
      </trkpt>
      <trkpt lat="43.31549" lon="1.96088">
        <ele>171.25</ele>
        <time>2014-09-22T11:16:45Z</time>
      </trkpt>
      <trkpt lat="43.31551" lon="1.96084">
        <ele>171.25</ele>
        <time>2014-09-22T11:16:46Z</time>
      </trkpt>
      <trkpt lat="43.31554" lon="1.9608">
        <ele>171.73</ele>
        <time>2014-09-22T11:16:47Z</time>
      </trkpt>
      <trkpt lat="43.31557" lon="1.96076">
        <ele>171.73</ele>
        <time>2014-09-22T11:16:48Z</time>
      </trkpt>
      <trkpt lat="43.31559" lon="1.96071">
        <ele>171.73</ele>
        <time>2014-09-22T11:16:49Z</time>
      </trkpt>
      <trkpt lat="43.31563" lon="1.96068">
        <ele>171.73</ele>
        <time>2014-09-22T11:16:50Z</time>
      </trkpt>
      <trkpt lat="43.31567" lon="1.96065">
        <ele>172.21</ele>
        <time>2014-09-22T11:16:51Z</time>
      </trkpt>
      <trkpt lat="43.3157" lon="1.96063">
        <ele>172.21</ele>
        <time>2014-09-22T11:16:52Z</time>
      </trkpt>
      <trkpt lat="43.31574" lon="1.96061">
        <ele>172.21</ele>
        <time>2014-09-22T11:16:53Z</time>
      </trkpt>
      <trkpt lat="43.31608" lon="1.9604">
        <ele>173.17</ele>
        <time>2014-09-22T11:17:00Z</time>
      </trkpt>
      <trkpt lat="43.31653" lon="1.9598">
        <ele>172.69</ele>
        <time>2014-09-22T11:17:11Z</time>
      </trkpt>
      <trkpt lat="43.31654" lon="1.95983">
        <ele>172.69</ele>
        <time>2014-09-22T11:17:12Z</time>
      </trkpt>
      <trkpt lat="43.31655" lon="1.95985">
        <ele>172.69</ele>
        <time>2014-09-22T11:17:13Z</time>
      </trkpt>
      <trkpt lat="43.31658" lon="1.95988">
        <ele>172.69</ele>
        <time>2014-09-22T11:17:14Z</time>
      </trkpt>
      <trkpt lat="43.31661" lon="1.95992">
        <ele>172.69</ele>
        <time>2014-09-22T11:17:15Z</time>
      </trkpt>
      <trkpt lat="43.31665" lon="1.95994">
        <ele>172.69</ele>
        <time>2014-09-22T11:17:16Z</time>
      </trkpt>
      <trkpt lat="43.31733" lon="1.96023">
        <ele>168.85</ele>
        <time>2014-09-22T11:17:26Z</time>
      </trkpt>
      <trkpt lat="43.31747" lon="1.9603">
        <ele>167.89</ele>
        <time>2014-09-22T11:17:28Z</time>
      </trkpt>
      <trkpt lat="43.31754" lon="1.96036">
        <ele>167.41</ele>
        <time>2014-09-22T11:17:29Z</time>
      </trkpt>
      <trkpt lat="43.31779" lon="1.96059">
        <ele>166.93</ele>
        <time>2014-09-22T11:17:34Z</time>
      </trkpt>
      <trkpt lat="43.31784" lon="1.9606">
        <ele>166.93</ele>
        <time>2014-09-22T11:17:35Z</time>
      </trkpt>
      <trkpt lat="43.31789" lon="1.96058">
        <ele>166.93</ele>
        <time>2014-09-22T11:17:36Z</time>
      </trkpt>
      <trkpt lat="43.31794" lon="1.96054">
        <ele>167.41</ele>
        <time>2014-09-22T11:17:37Z</time>
      </trkpt>
      <trkpt lat="43.31798" lon="1.96049">
        <ele>167.41</ele>
        <time>2014-09-22T11:17:38Z</time>
      </trkpt>
      <trkpt lat="43.31802" lon="1.96043">
        <ele>166.93</ele>
        <time>2014-09-22T11:17:39Z</time>
      </trkpt>
      <trkpt lat="43.31814" lon="1.96023">
        <ele>166.93</ele>
        <time>2014-09-22T11:17:42Z</time>
      </trkpt>
      <trkpt lat="43.31826" lon="1.96004">
        <ele>166.93</ele>
        <time>2014-09-22T11:17:45Z</time>
      </trkpt>
      <trkpt lat="43.3187" lon="1.95922">
        <ele>168.85</ele>
        <time>2014-09-22T11:17:58Z</time>
      </trkpt>
      <trkpt lat="43.31874" lon="1.95916">
        <ele>169.33</ele>
        <time>2014-09-22T11:17:59Z</time>
      </trkpt>
      <trkpt lat="43.31877" lon="1.9591">
        <ele>169.33</ele>
        <time>2014-09-22T11:18:00Z</time>
      </trkpt>
      <trkpt lat="43.31908" lon="1.95856">
        <ele>170.29</ele>
        <time>2014-09-22T11:18:11Z</time>
      </trkpt>
      <trkpt lat="43.31911" lon="1.95855">
        <ele>170.77</ele>
        <time>2014-09-22T11:18:12Z</time>
      </trkpt>
      <trkpt lat="43.31914" lon="1.95857">
        <ele>170.77</ele>
        <time>2014-09-22T11:18:13Z</time>
      </trkpt>
      <trkpt lat="43.31916" lon="1.95859">
        <ele>171.25</ele>
        <time>2014-09-22T11:18:14Z</time>
      </trkpt>
      <trkpt lat="43.3192" lon="1.95863">
        <ele>171.25</ele>
        <time>2014-09-22T11:18:15Z</time>
      </trkpt>
      <trkpt lat="43.31923" lon="1.95866">
        <ele>171.73</ele>
        <time>2014-09-22T11:18:16Z</time>
      </trkpt>
      <trkpt lat="43.31948" lon="1.95891">
        <ele>174.14</ele>
        <time>2014-09-22T11:18:28Z</time>
      </trkpt>
      <trkpt lat="43.31955" lon="1.95889">
        <ele>173.66</ele>
        <time>2014-09-22T11:18:45Z</time>
      </trkpt>
      <trkpt lat="43.3196" lon="1.95891">
        <ele>172.69</ele>
        <time>2014-09-22T11:19:21Z</time>
      </trkpt>
      <trkpt lat="43.31963" lon="1.95896">
        <ele>174.14</ele>
        <time>2014-09-22T11:19:32Z</time>
      </trkpt>
      <trkpt lat="43.31964" lon="1.95898">
        <ele>175.1</ele>
        <time>2014-09-22T11:19:33Z</time>
      </trkpt>
      <trkpt lat="43.31966" lon="1.959">
        <ele>176.06</ele>
        <time>2014-09-22T11:19:34Z</time>
      </trkpt>
      <trkpt lat="43.31997" lon="1.95932">
        <ele>182.31</ele>
        <time>2014-09-22T11:19:47Z</time>
      </trkpt>
      <trkpt lat="43.31997" lon="1.95935">
        <ele>182.79</ele>
        <time>2014-09-22T11:19:48Z</time>
      </trkpt>
      <trkpt lat="43.31996" lon="1.95939">
        <ele>182.79</ele>
        <time>2014-09-22T11:19:49Z</time>
      </trkpt>
      <trkpt lat="43.31995" lon="1.95942">
        <ele>182.79</ele>
        <time>2014-09-22T11:19:50Z</time>
      </trkpt>
      <trkpt lat="43.31994" lon="1.95947">
        <ele>183.27</ele>
        <time>2014-09-22T11:19:51Z</time>
      </trkpt>
      <trkpt lat="43.3199" lon="1.95957">
        <ele>183.27</ele>
        <time>2014-09-22T11:19:53Z</time>
      </trkpt>
      <trkpt lat="43.31984" lon="1.95969">
        <ele>183.75</ele>
        <time>2014-09-22T11:19:55Z</time>
      </trkpt>
      <trkpt lat="43.31959" lon="1.96013">
        <ele>180.87</ele>
        <time>2014-09-22T11:20:05Z</time>
      </trkpt>
      <trkpt lat="43.31956" lon="1.96023">
        <ele>180.38</ele>
        <time>2014-09-22T11:20:07Z</time>
      </trkpt>
      <trkpt lat="43.31953" lon="1.96029">
        <ele>180.38</ele>
        <time>2014-09-22T11:20:08Z</time>
      </trkpt>
      <trkpt lat="43.31904" lon="1.96141">
        <ele>173.17</ele>
        <time>2014-09-22T11:20:21Z</time>
      </trkpt>
      <trkpt lat="43.31845" lon="1.96286">
        <ele>165.48</ele>
        <time>2014-09-22T11:20:35Z</time>
      </trkpt>
      <trkpt lat="43.31826" lon="1.9632">
        <ele>162.6</ele>
        <time>2014-09-22T11:20:39Z</time>
      </trkpt>
      <trkpt lat="43.31824" lon="1.96329">
        <ele>162.12</ele>
        <time>2014-09-22T11:20:40Z</time>
      </trkpt>
      <trkpt lat="43.31824" lon="1.96337">
        <ele>161.64</ele>
        <time>2014-09-22T11:20:41Z</time>
      </trkpt>
      <trkpt lat="43.31826" lon="1.96354">
        <ele>160.68</ele>
        <time>2014-09-22T11:20:43Z</time>
      </trkpt>
      <trkpt lat="43.31824" lon="1.96363">
        <ele>160.2</ele>
        <time>2014-09-22T11:20:44Z</time>
      </trkpt>
      <trkpt lat="43.31821" lon="1.9637">
        <ele>160.2</ele>
        <time>2014-09-22T11:20:45Z</time>
      </trkpt>
      <trkpt lat="43.31818" lon="1.96375">
        <ele>159.72</ele>
        <time>2014-09-22T11:20:46Z</time>
      </trkpt>
      <trkpt lat="43.31813" lon="1.9638">
        <ele>159.72</ele>
        <time>2014-09-22T11:20:47Z</time>
      </trkpt>
      <trkpt lat="43.31809" lon="1.96387">
        <ele>159.24</ele>
        <time>2014-09-22T11:20:48Z</time>
      </trkpt>
      <trkpt lat="43.31804" lon="1.96394">
        <ele>159.24</ele>
        <time>2014-09-22T11:20:49Z</time>
      </trkpt>
      <trkpt lat="43.31801" lon="1.96402">
        <ele>158.75</ele>
        <time>2014-09-22T11:20:50Z</time>
      </trkpt>
      <trkpt lat="43.31798" lon="1.9641">
        <ele>158.75</ele>
        <time>2014-09-22T11:20:51Z</time>
      </trkpt>
      <trkpt lat="43.3176" lon="1.96516">
        <ele>156.35</ele>
        <time>2014-09-22T11:21:05Z</time>
      </trkpt>
      <trkpt lat="43.31719" lon="1.96634">
        <ele>153.47</ele>
        <time>2014-09-22T11:21:20Z</time>
      </trkpt>
      <trkpt lat="43.31716" lon="1.96641">
        <ele>153.47</ele>
        <time>2014-09-22T11:21:21Z</time>
      </trkpt>
      <trkpt lat="43.31704" lon="1.96667">
        <ele>153.47</ele>
        <time>2014-09-22T11:21:27Z</time>
      </trkpt>
      <trkpt lat="43.31707" lon="1.96667">
        <ele>153.95</ele>
        <time>2014-09-22T11:21:28Z</time>
      </trkpt>
      <trkpt lat="43.3171" lon="1.96665">
        <ele>153.95</ele>
        <time>2014-09-22T11:21:29Z</time>
      </trkpt>
      <trkpt lat="43.31713" lon="1.96663">
        <ele>154.43</ele>
        <time>2014-09-22T11:21:30Z</time>
      </trkpt>
      <trkpt lat="43.31716" lon="1.96662">
        <ele>154.43</ele>
        <time>2014-09-22T11:21:31Z</time>
      </trkpt>
      <trkpt lat="43.3172" lon="1.96661">
        <ele>154.43</ele>
        <time>2014-09-22T11:21:32Z</time>
      </trkpt>
      <trkpt lat="43.31726" lon="1.96663">
        <ele>154.43</ele>
        <time>2014-09-22T11:21:33Z</time>
      </trkpt>
      <trkpt lat="43.31729" lon="1.96665">
        <ele>154.43</ele>
        <time>2014-09-22T11:21:34Z</time>
      </trkpt>
      <trkpt lat="43.31734" lon="1.96668">
        <ele>154.43</ele>
        <time>2014-09-22T11:21:35Z</time>
      </trkpt>
      <trkpt lat="43.31786" lon="1.967">
        <ele>154.91</ele>
        <time>2014-09-22T11:21:45Z</time>
      </trkpt>
      <trkpt lat="43.31792" lon="1.967">
        <ele>154.91</ele>
        <time>2014-09-22T11:21:46Z</time>
      </trkpt>
      <trkpt lat="43.31798" lon="1.96699">
        <ele>154.91</ele>
        <time>2014-09-22T11:21:47Z</time>
      </trkpt>
      <trkpt lat="43.3184" lon="1.96677">
        <ele>157.79</ele>
        <time>2014-09-22T11:21:57Z</time>
      </trkpt>
      <trkpt lat="43.31842" lon="1.96678">
        <ele>157.79</ele>
        <time>2014-09-22T11:21:58Z</time>
      </trkpt>
      <trkpt lat="43.31843" lon="1.9668">
        <ele>157.79</ele>
        <time>2014-09-22T11:22:00Z</time>
      </trkpt>
      <trkpt lat="43.31844" lon="1.96684">
        <ele>158.27</ele>
        <time>2014-09-22T11:22:02Z</time>
      </trkpt>
      <trkpt lat="43.31843" lon="1.96693">
        <ele>161.16</ele>
        <time>2014-09-22T11:22:13Z</time>
      </trkpt>
      <trkpt lat="43.31843" lon="1.96692">
        <ele>161.16</ele>
        <time>2014-09-22T11:22:26Z</time>
      </trkpt>
      <trkpt lat="43.31846" lon="1.96692">
        <ele>160.68</ele>
        <time>2014-09-22T11:22:37Z</time>
      </trkpt>
      <trkpt lat="43.31848" lon="1.96692">
        <ele>158.27</ele>
        <time>2014-09-22T11:23:21Z</time>
      </trkpt>
      <trkpt lat="43.3185" lon="1.96691">
        <ele>156.83</ele>
        <time>2014-09-22T11:24:15Z</time>
      </trkpt>
      <trkpt lat="43.3185" lon="1.9669">
        <ele>155.39</ele>
        <time>2014-09-22T11:24:28Z</time>
      </trkpt>
      <trkpt lat="43.31851" lon="1.96691">
        <ele>153.47</ele>
        <time>2014-09-22T11:25:02Z</time>
      </trkpt>
      <trkpt lat="43.31851" lon="1.96693">
        <ele>155.39</ele>
        <time>2014-09-22T11:25:35Z</time>
      </trkpt>
      <trkpt lat="43.3185" lon="1.96694">
        <ele>156.83</ele>
        <time>2014-09-22T11:26:13Z</time>
      </trkpt>
      <trkpt lat="43.3185" lon="1.96695">
        <ele>158.75</ele>
        <time>2014-09-22T11:26:49Z</time>
      </trkpt>
      <trkpt lat="43.31848" lon="1.96694">
        <ele>159.72</ele>
        <time>2014-09-22T11:27:09Z</time>
      </trkpt>
      <trkpt lat="43.31851" lon="1.96691">
        <ele>154.43</ele>
        <time>2014-09-22T11:28:05Z</time>
      </trkpt>
      <trkpt lat="43.3185" lon="1.96687">
        <ele>154.91</ele>
        <time>2014-09-22T11:28:18Z</time>
      </trkpt>
      <trkpt lat="43.31846" lon="1.96681">
        <ele>154.43</ele>
        <time>2014-09-22T11:28:33Z</time>
      </trkpt>
      <trkpt lat="43.31848" lon="1.96683">
        <ele>154.91</ele>
        <time>2014-09-22T11:29:13Z</time>
      </trkpt>
      <trkpt lat="43.31847" lon="1.9668">
        <ele>155.39</ele>
        <time>2014-09-22T11:29:16Z</time>
      </trkpt>
      <trkpt lat="43.31841" lon="1.96679">
        <ele>155.39</ele>
        <time>2014-09-22T11:29:20Z</time>
      </trkpt>
      <trkpt lat="43.31838" lon="1.9668">
        <ele>155.39</ele>
        <time>2014-09-22T11:29:21Z</time>
      </trkpt>
      <trkpt lat="43.31835" lon="1.96681">
        <ele>154.91</ele>
        <time>2014-09-22T11:29:22Z</time>
      </trkpt>
      <trkpt lat="43.31832" lon="1.96682">
        <ele>154.91</ele>
        <time>2014-09-22T11:29:23Z</time>
      </trkpt>
      <trkpt lat="43.31822" lon="1.96687">
        <ele>154.91</ele>
        <time>2014-09-22T11:29:26Z</time>
      </trkpt>
      <trkpt lat="43.31816" lon="1.9669">
        <ele>154.91</ele>
        <time>2014-09-22T11:29:27Z</time>
      </trkpt>
      <trkpt lat="43.31795" lon="1.96696">
        <ele>153.95</ele>
        <time>2014-09-22T11:29:31Z</time>
      </trkpt>
      <trkpt lat="43.31789" lon="1.96696">
        <ele>153.95</ele>
        <time>2014-09-22T11:29:32Z</time>
      </trkpt>
      <trkpt lat="43.31783" lon="1.96694">
        <ele>153.47</ele>
        <time>2014-09-22T11:29:33Z</time>
      </trkpt>
      <trkpt lat="43.31777" lon="1.96691">
        <ele>153.47</ele>
        <time>2014-09-22T11:29:34Z</time>
      </trkpt>
      <trkpt lat="43.31772" lon="1.96687">
        <ele>153.47</ele>
        <time>2014-09-22T11:29:35Z</time>
      </trkpt>
      <trkpt lat="43.31765" lon="1.96683">
        <ele>152.99</ele>
        <time>2014-09-22T11:29:36Z</time>
      </trkpt>
      <trkpt lat="43.3176" lon="1.96679">
        <ele>152.99</ele>
        <time>2014-09-22T11:29:37Z</time>
      </trkpt>
      <trkpt lat="43.31713" lon="1.96657">
        <ele>154.43</ele>
        <time>2014-09-22T11:29:48Z</time>
      </trkpt>
      <trkpt lat="43.31691" lon="1.96672">
        <ele>154.43</ele>
        <time>2014-09-22T11:29:57Z</time>
      </trkpt>
      <trkpt lat="43.31691" lon="1.96678">
        <ele>154.43</ele>
        <time>2014-09-22T11:29:58Z</time>
      </trkpt>
      <trkpt lat="43.31692" lon="1.96683">
        <ele>154.91</ele>
        <time>2014-09-22T11:29:59Z</time>
      </trkpt>
      <trkpt lat="43.31693" lon="1.96686">
        <ele>154.91</ele>
        <time>2014-09-22T11:30:00Z</time>
      </trkpt>
      <trkpt lat="43.31696" lon="1.96694">
        <ele>154.91</ele>
        <time>2014-09-22T11:30:01Z</time>
      </trkpt>
      <trkpt lat="43.31698" lon="1.96698">
        <ele>154.91</ele>
        <time>2014-09-22T11:30:02Z</time>
      </trkpt>
      <trkpt lat="43.317" lon="1.96703">
        <ele>154.91</ele>
        <time>2014-09-22T11:30:03Z</time>
      </trkpt>
      <trkpt lat="43.31716" lon="1.9674">
        <ele>155.87</ele>
        <time>2014-09-22T11:30:09Z</time>
      </trkpt>
      <trkpt lat="43.31717" lon="1.96747">
        <ele>155.87</ele>
        <time>2014-09-22T11:30:10Z</time>
      </trkpt>
      <trkpt lat="43.31718" lon="1.96752">
        <ele>155.87</ele>
        <time>2014-09-22T11:30:11Z</time>
      </trkpt>
      <trkpt lat="43.31718" lon="1.96759">
        <ele>156.35</ele>
        <time>2014-09-22T11:30:12Z</time>
      </trkpt>
      <trkpt lat="43.31717" lon="1.96766">
        <ele>156.35</ele>
        <time>2014-09-22T11:30:13Z</time>
      </trkpt>
      <trkpt lat="43.31714" lon="1.96774">
        <ele>156.35</ele>
        <time>2014-09-22T11:30:14Z</time>
      </trkpt>
      <trkpt lat="43.31712" lon="1.9678">
        <ele>156.35</ele>
        <time>2014-09-22T11:30:15Z</time>
      </trkpt>
      <trkpt lat="43.31709" lon="1.96788">
        <ele>156.35</ele>
        <time>2014-09-22T11:30:16Z</time>
      </trkpt>
      <trkpt lat="43.31704" lon="1.96795">
        <ele>156.35</ele>
        <time>2014-09-22T11:30:17Z</time>
      </trkpt>
      <trkpt lat="43.317" lon="1.96799">
        <ele>156.35</ele>
        <time>2014-09-22T11:30:18Z</time>
      </trkpt>
      <trkpt lat="43.31611" lon="1.9686">
        <ele>156.83</ele>
        <time>2014-09-22T11:30:33Z</time>
      </trkpt>
      <trkpt lat="43.31466" lon="1.96955">
        <ele>157.31</ele>
        <time>2014-09-22T11:30:57Z</time>
      </trkpt>
      <trkpt lat="43.31354" lon="1.97027">
        <ele>158.27</ele>
        <time>2014-09-22T11:31:15Z</time>
      </trkpt>
      <trkpt lat="43.31249" lon="1.97097">
        <ele>158.27</ele>
        <time>2014-09-22T11:31:32Z</time>
      </trkpt>
      <trkpt lat="43.31133" lon="1.97172">
        <ele>160.68</ele>
        <time>2014-09-22T11:31:51Z</time>
      </trkpt>
      <trkpt lat="43.30997" lon="1.97263">
        <ele>163.08</ele>
        <time>2014-09-22T11:32:13Z</time>
      </trkpt>
      <trkpt lat="43.30901" lon="1.97374">
        <ele>163.08</ele>
        <time>2014-09-22T11:32:31Z</time>
      </trkpt>
      <trkpt lat="43.30803" lon="1.97529">
        <ele>162.12</ele>
        <time>2014-09-22T11:32:51Z</time>
      </trkpt>
      <trkpt lat="43.30721" lon="1.97703">
        <ele>160.68</ele>
        <time>2014-09-22T11:33:10Z</time>
      </trkpt>
      <trkpt lat="43.30649" lon="1.97875">
        <ele>159.72</ele>
        <time>2014-09-22T11:33:28Z</time>
      </trkpt>
      <trkpt lat="43.3062" lon="1.97911">
        <ele>159.72</ele>
        <time>2014-09-22T11:33:33Z</time>
      </trkpt>
      <trkpt lat="43.30615" lon="1.97914">
        <ele>159.72</ele>
        <time>2014-09-22T11:33:34Z</time>
      </trkpt>
      <trkpt lat="43.30608" lon="1.97915">
        <ele>159.72</ele>
        <time>2014-09-22T11:33:35Z</time>
      </trkpt>
      <trkpt lat="43.30586" lon="1.97916">
        <ele>160.2</ele>
        <time>2014-09-22T11:33:38Z</time>
      </trkpt>
      <trkpt lat="43.30578" lon="1.97914">
        <ele>160.68</ele>
        <time>2014-09-22T11:33:39Z</time>
      </trkpt>
      <trkpt lat="43.30573" lon="1.9791">
        <ele>160.68</ele>
        <time>2014-09-22T11:33:40Z</time>
      </trkpt>
      <trkpt lat="43.30567" lon="1.97906">
        <ele>160.68</ele>
        <time>2014-09-22T11:33:41Z</time>
      </trkpt>
      <trkpt lat="43.30562" lon="1.979">
        <ele>161.16</ele>
        <time>2014-09-22T11:33:42Z</time>
      </trkpt>
      <trkpt lat="43.30556" lon="1.97893">
        <ele>161.16</ele>
        <time>2014-09-22T11:33:43Z</time>
      </trkpt>
      <trkpt lat="43.3048" lon="1.97807">
        <ele>163.08</ele>
        <time>2014-09-22T11:33:57Z</time>
      </trkpt>
      <trkpt lat="43.30387" lon="1.97665">
        <ele>162.6</ele>
        <time>2014-09-22T11:34:16Z</time>
      </trkpt>
      <trkpt lat="43.30329" lon="1.97518">
        <ele>159.72</ele>
        <time>2014-09-22T11:34:32Z</time>
      </trkpt>
      <trkpt lat="43.30328" lon="1.97507">
        <ele>159.72</ele>
        <time>2014-09-22T11:34:33Z</time>
      </trkpt>
      <trkpt lat="43.30329" lon="1.97497">
        <ele>159.72</ele>
        <time>2014-09-22T11:34:34Z</time>
      </trkpt>
      <trkpt lat="43.30331" lon="1.97484">
        <ele>160.2</ele>
        <time>2014-09-22T11:34:35Z</time>
      </trkpt>
      <trkpt lat="43.30331" lon="1.97475">
        <ele>160.2</ele>
        <time>2014-09-22T11:34:36Z</time>
      </trkpt>
      <trkpt lat="43.3033" lon="1.97469">
        <ele>160.2</ele>
        <time>2014-09-22T11:34:37Z</time>
      </trkpt>
      <trkpt lat="43.30329" lon="1.9746">
        <ele>160.68</ele>
        <time>2014-09-22T11:34:38Z</time>
      </trkpt>
      <trkpt lat="43.30327" lon="1.97452">
        <ele>160.68</ele>
        <time>2014-09-22T11:34:39Z</time>
      </trkpt>
      <trkpt lat="43.30323" lon="1.97443">
        <ele>160.68</ele>
        <time>2014-09-22T11:34:40Z</time>
      </trkpt>
      <trkpt lat="43.30319" lon="1.97437">
        <ele>160.68</ele>
        <time>2014-09-22T11:34:41Z</time>
      </trkpt>
      <trkpt lat="43.30315" lon="1.97433">
        <ele>160.68</ele>
        <time>2014-09-22T11:34:42Z</time>
      </trkpt>
      <trkpt lat="43.30308" lon="1.9743">
        <ele>160.68</ele>
        <time>2014-09-22T11:34:43Z</time>
      </trkpt>
      <trkpt lat="43.303" lon="1.97428">
        <ele>160.68</ele>
        <time>2014-09-22T11:34:44Z</time>
      </trkpt>
      <trkpt lat="43.30292" lon="1.97429">
        <ele>160.2</ele>
        <time>2014-09-22T11:34:45Z</time>
      </trkpt>
      <trkpt lat="43.30284" lon="1.97433">
        <ele>160.2</ele>
        <time>2014-09-22T11:34:46Z</time>
      </trkpt>
      <trkpt lat="43.30277" lon="1.97438">
        <ele>160.2</ele>
        <time>2014-09-22T11:34:47Z</time>
      </trkpt>
      <trkpt lat="43.30271" lon="1.97445">
        <ele>160.2</ele>
        <time>2014-09-22T11:34:48Z</time>
      </trkpt>
      <trkpt lat="43.30265" lon="1.97453">
        <ele>159.72</ele>
        <time>2014-09-22T11:34:49Z</time>
      </trkpt>
      <trkpt lat="43.30259" lon="1.97463">
        <ele>159.72</ele>
        <time>2014-09-22T11:34:50Z</time>
      </trkpt>
      <trkpt lat="43.30253" lon="1.97471">
        <ele>159.72</ele>
        <time>2014-09-22T11:34:51Z</time>
      </trkpt>
      <trkpt lat="43.30247" lon="1.97477">
        <ele>159.24</ele>
        <time>2014-09-22T11:34:52Z</time>
      </trkpt>
      <trkpt lat="43.30232" lon="1.97487">
        <ele>158.75</ele>
        <time>2014-09-22T11:34:54Z</time>
      </trkpt>
      <trkpt lat="43.30224" lon="1.9749">
        <ele>158.75</ele>
        <time>2014-09-22T11:34:55Z</time>
      </trkpt>
      <trkpt lat="43.30085" lon="1.97538">
        <ele>155.39</ele>
        <time>2014-09-22T11:35:12Z</time>
      </trkpt>
      <trkpt lat="43.29985" lon="1.97629">
        <ele>154.91</ele>
        <time>2014-09-22T11:35:26Z</time>
      </trkpt>
      <trkpt lat="43.29868" lon="1.97804">
        <ele>152.99</ele>
        <time>2014-09-22T11:35:46Z</time>
      </trkpt>
      <trkpt lat="43.2976" lon="1.97954">
        <ele>151.54</ele>
        <time>2014-09-22T11:36:04Z</time>
      </trkpt>
      <trkpt lat="43.29669" lon="1.9811">
        <ele>150.58</ele>
        <time>2014-09-22T11:36:22Z</time>
      </trkpt>
      <trkpt lat="43.2959" lon="1.98249">
        <ele>149.62</ele>
        <time>2014-09-22T11:36:37Z</time>
      </trkpt>
      <trkpt lat="43.29486" lon="1.98434">
        <ele>146.74</ele>
        <time>2014-09-22T11:36:56Z</time>
      </trkpt>
      <trkpt lat="43.29387" lon="1.98605">
        <ele>143.37</ele>
        <time>2014-09-22T11:37:14Z</time>
      </trkpt>
      <trkpt lat="43.29293" lon="1.98792">
        <ele>141.93</ele>
        <time>2014-09-22T11:37:33Z</time>
      </trkpt>
      <trkpt lat="43.29204" lon="1.98991">
        <ele>140.97</ele>
        <time>2014-09-22T11:37:53Z</time>
      </trkpt>
      <trkpt lat="43.29116" lon="1.99185">
        <ele>141.45</ele>
        <time>2014-09-22T11:38:12Z</time>
      </trkpt>
      <trkpt lat="43.29002" lon="1.99396">
        <ele>144.34</ele>
        <time>2014-09-22T11:38:34Z</time>
      </trkpt>
      <trkpt lat="43.28882" lon="1.99615">
        <ele>143.37</ele>
        <time>2014-09-22T11:38:57Z</time>
      </trkpt>
      <trkpt lat="43.28759" lon="1.99835">
        <ele>143.37</ele>
        <time>2014-09-22T11:39:20Z</time>
      </trkpt>
      <trkpt lat="43.28677" lon="1.99976">
        <ele>144.34</ele>
        <time>2014-09-22T11:39:35Z</time>
      </trkpt>
      <trkpt lat="43.28568" lon="2.00161">
        <ele>144.34</ele>
        <time>2014-09-22T11:39:55Z</time>
      </trkpt>
      <trkpt lat="43.28442" lon="2.00366">
        <ele>143.37</ele>
        <time>2014-09-22T11:40:17Z</time>
      </trkpt>
      <trkpt lat="43.28311" lon="2.00566">
        <ele>143.85</ele>
        <time>2014-09-22T11:40:39Z</time>
      </trkpt>
      <trkpt lat="43.2819" lon="2.0075">
        <ele>143.37</ele>
        <time>2014-09-22T11:40:59Z</time>
      </trkpt>
      <trkpt lat="43.2806" lon="2.00949">
        <ele>143.37</ele>
        <time>2014-09-22T11:41:21Z</time>
      </trkpt>
      <trkpt lat="43.27957" lon="2.01125">
        <ele>145.3</ele>
        <time>2014-09-22T11:41:40Z</time>
      </trkpt>
      <trkpt lat="43.27871" lon="2.01283">
        <ele>144.82</ele>
        <time>2014-09-22T11:41:56Z</time>
      </trkpt>
      <trkpt lat="43.27767" lon="2.01503">
        <ele>143.37</ele>
        <time>2014-09-22T11:42:17Z</time>
      </trkpt>
      <trkpt lat="43.27648" lon="2.01757">
        <ele>143.85</ele>
        <time>2014-09-22T11:42:41Z</time>
      </trkpt>
      <trkpt lat="43.2753" lon="2.02012">
        <ele>144.34</ele>
        <time>2014-09-22T11:43:05Z</time>
      </trkpt>
      <trkpt lat="43.27424" lon="2.02237">
        <ele>143.37</ele>
        <time>2014-09-22T11:43:26Z</time>
      </trkpt>
      <trkpt lat="43.27344" lon="2.02413">
        <ele>142.41</ele>
        <time>2014-09-22T11:43:43Z</time>
      </trkpt>
      <trkpt lat="43.27243" lon="2.02636">
        <ele>140.97</ele>
        <time>2014-09-22T11:44:04Z</time>
      </trkpt>
      <trkpt lat="43.2714" lon="2.0287">
        <ele>140.01</ele>
        <time>2014-09-22T11:44:26Z</time>
      </trkpt>
      <trkpt lat="43.2706" lon="2.03047">
        <ele>139.05</ele>
        <time>2014-09-22T11:44:43Z</time>
      </trkpt>
      <trkpt lat="43.2698" lon="2.03227">
        <ele>139.05</ele>
        <time>2014-09-22T11:45:00Z</time>
      </trkpt>
      <trkpt lat="43.26914" lon="2.0338">
        <ele>139.05</ele>
        <time>2014-09-22T11:45:15Z</time>
      </trkpt>
      <trkpt lat="43.26861" lon="2.03497">
        <ele>140.49</ele>
        <time>2014-09-22T11:45:28Z</time>
      </trkpt>
      <trkpt lat="43.26806" lon="2.03594">
        <ele>143.85</ele>
        <time>2014-09-22T11:45:42Z</time>
      </trkpt>
      <trkpt lat="43.26764" lon="2.03686">
        <ele>146.74</ele>
        <time>2014-09-22T11:45:54Z</time>
      </trkpt>
      <trkpt lat="43.26724" lon="2.03806">
        <ele>143.85</ele>
        <time>2014-09-22T11:46:05Z</time>
      </trkpt>
      <trkpt lat="43.26669" lon="2.03989">
        <ele>141.45</ele>
        <time>2014-09-22T11:46:20Z</time>
      </trkpt>
      <trkpt lat="43.2662" lon="2.04125">
        <ele>140.01</ele>
        <time>2014-09-22T11:46:32Z</time>
      </trkpt>
      <trkpt lat="43.26548" lon="2.04322">
        <ele>140.01</ele>
        <time>2014-09-22T11:46:50Z</time>
      </trkpt>
      <trkpt lat="43.26468" lon="2.04551">
        <ele>138.57</ele>
        <time>2014-09-22T11:47:11Z</time>
      </trkpt>
      <trkpt lat="43.26392" lon="2.04775">
        <ele>138.57</ele>
        <time>2014-09-22T11:47:31Z</time>
      </trkpt>
      <trkpt lat="43.26323" lon="2.04975">
        <ele>137.61</ele>
        <time>2014-09-22T11:47:48Z</time>
      </trkpt>
      <trkpt lat="43.26246" lon="2.05197">
        <ele>137.61</ele>
        <time>2014-09-22T11:48:07Z</time>
      </trkpt>
      <trkpt lat="43.26164" lon="2.05437">
        <ele>137.61</ele>
        <time>2014-09-22T11:48:28Z</time>
      </trkpt>
      <trkpt lat="43.26082" lon="2.05668">
        <ele>136.64</ele>
        <time>2014-09-22T11:48:48Z</time>
      </trkpt>
      <trkpt lat="43.26004" lon="2.05887">
        <ele>137.13</ele>
        <time>2014-09-22T11:49:08Z</time>
      </trkpt>
      <trkpt lat="43.25927" lon="2.06103">
        <ele>138.09</ele>
        <time>2014-09-22T11:49:28Z</time>
      </trkpt>
      <trkpt lat="43.25889" lon="2.06232">
        <ele>140.49</ele>
        <time>2014-09-22T11:49:41Z</time>
      </trkpt>
      <trkpt lat="43.25858" lon="2.06352">
        <ele>142.89</ele>
        <time>2014-09-22T11:49:53Z</time>
      </trkpt>
      <trkpt lat="43.25825" lon="2.06478">
        <ele>144.82</ele>
        <time>2014-09-22T11:50:05Z</time>
      </trkpt>
      <trkpt lat="43.25768" lon="2.06696">
        <ele>144.34</ele>
        <time>2014-09-22T11:50:25Z</time>
      </trkpt>
      <trkpt lat="43.25711" lon="2.06902">
        <ele>145.3</ele>
        <time>2014-09-22T11:50:44Z</time>
      </trkpt>
      <trkpt lat="43.2565" lon="2.07125">
        <ele>145.78</ele>
        <time>2014-09-22T11:51:04Z</time>
      </trkpt>
      <trkpt lat="43.2559" lon="2.07345">
        <ele>145.78</ele>
        <time>2014-09-22T11:51:24Z</time>
      </trkpt>
      <trkpt lat="43.25536" lon="2.07545">
        <ele>144.82</ele>
        <time>2014-09-22T11:51:41Z</time>
      </trkpt>
      <trkpt lat="43.25471" lon="2.07783">
        <ele>144.82</ele>
        <time>2014-09-22T11:52:01Z</time>
      </trkpt>
      <trkpt lat="43.25409" lon="2.08011">
        <ele>144.34</ele>
        <time>2014-09-22T11:52:19Z</time>
      </trkpt>
      <trkpt lat="43.2535" lon="2.0823">
        <ele>144.34</ele>
        <time>2014-09-22T11:52:36Z</time>
      </trkpt>
      <trkpt lat="43.25287" lon="2.08458">
        <ele>144.82</ele>
        <time>2014-09-22T11:52:54Z</time>
      </trkpt>
      <trkpt lat="43.25228" lon="2.08673">
        <ele>144.34</ele>
        <time>2014-09-22T11:53:12Z</time>
      </trkpt>
      <trkpt lat="43.25174" lon="2.08872">
        <ele>143.85</ele>
        <time>2014-09-22T11:53:29Z</time>
      </trkpt>
      <trkpt lat="43.25101" lon="2.09132">
        <ele>142.89</ele>
        <time>2014-09-22T11:53:52Z</time>
      </trkpt>
      <trkpt lat="43.25042" lon="2.09349">
        <ele>143.37</ele>
        <time>2014-09-22T11:54:11Z</time>
      </trkpt>
      <trkpt lat="43.2497" lon="2.09612">
        <ele>141.93</ele>
        <time>2014-09-22T11:54:34Z</time>
      </trkpt>
      <trkpt lat="43.24915" lon="2.09817">
        <ele>140.49</ele>
        <time>2014-09-22T11:54:52Z</time>
      </trkpt>
      <trkpt lat="43.24858" lon="2.10024">
        <ele>138.09</ele>
        <time>2014-09-22T11:55:10Z</time>
      </trkpt>
      <trkpt lat="43.24796" lon="2.1025">
        <ele>134.72</ele>
        <time>2014-09-22T11:55:30Z</time>
      </trkpt>
      <trkpt lat="43.24734" lon="2.10488">
        <ele>131.36</ele>
        <time>2014-09-22T11:55:51Z</time>
      </trkpt>
      <trkpt lat="43.24678" lon="2.10699">
        <ele>128.95</ele>
        <time>2014-09-22T11:56:10Z</time>
      </trkpt>
      <trkpt lat="43.24629" lon="2.1088">
        <ele>128.95</ele>
        <time>2014-09-22T11:56:27Z</time>
      </trkpt>
      <trkpt lat="43.24579" lon="2.11056">
        <ele>130.4</ele>
        <time>2014-09-22T11:56:45Z</time>
      </trkpt>
      <trkpt lat="43.24551" lon="2.11138">
        <ele>131.84</ele>
        <time>2014-09-22T11:56:58Z</time>
      </trkpt>
      <trkpt lat="43.2455" lon="2.11137">
        <ele>138.09</ele>
        <time>2014-09-22T11:57:11Z</time>
      </trkpt>
      <trkpt lat="43.24551" lon="2.11136">
        <ele>140.49</ele>
        <time>2014-09-22T11:57:36Z</time>
      </trkpt>
      <trkpt lat="43.24551" lon="2.11136">
        <ele>140.01</ele>
        <time>2014-09-22T11:57:56Z</time>
      </trkpt>
      <trkpt lat="43.2455" lon="2.1114">
        <ele>140.01</ele>
        <time>2014-09-22T11:58:17Z</time>
      </trkpt>
      <trkpt lat="43.24549" lon="2.11141">
        <ele>139.53</ele>
        <time>2014-09-22T11:58:18Z</time>
      </trkpt>
      <trkpt lat="43.24527" lon="2.11167">
        <ele>138.09</ele>
        <time>2014-09-22T11:58:26Z</time>
      </trkpt>
      <trkpt lat="43.24517" lon="2.11175">
        <ele>137.13</ele>
        <time>2014-09-22T11:58:28Z</time>
      </trkpt>
      <trkpt lat="43.24512" lon="2.11178">
        <ele>137.13</ele>
        <time>2014-09-22T11:58:29Z</time>
      </trkpt>
      <trkpt lat="43.24501" lon="2.11182">
        <ele>136.64</ele>
        <time>2014-09-22T11:58:31Z</time>
      </trkpt>
      <trkpt lat="43.24455" lon="2.11192">
        <ele>135.68</ele>
        <time>2014-09-22T11:58:39Z</time>
      </trkpt>
      <trkpt lat="43.24451" lon="2.11196">
        <ele>135.68</ele>
        <time>2014-09-22T11:58:40Z</time>
      </trkpt>
      <trkpt lat="43.24448" lon="2.11199">
        <ele>135.68</ele>
        <time>2014-09-22T11:58:41Z</time>
      </trkpt>
      <trkpt lat="43.24446" lon="2.11203">
        <ele>135.68</ele>
        <time>2014-09-22T11:58:42Z</time>
      </trkpt>
      <trkpt lat="43.24445" lon="2.11208">
        <ele>135.68</ele>
        <time>2014-09-22T11:58:43Z</time>
      </trkpt>
      <trkpt lat="43.24444" lon="2.11211">
        <ele>135.68</ele>
        <time>2014-09-22T11:58:44Z</time>
      </trkpt>
      <trkpt lat="43.24446" lon="2.11214">
        <ele>135.68</ele>
        <time>2014-09-22T11:58:46Z</time>
      </trkpt>
      <trkpt lat="43.24446" lon="2.11216">
        <ele>135.68</ele>
        <time>2014-09-22T11:58:47Z</time>
      </trkpt>
      <trkpt lat="43.24448" lon="2.11233">
        <ele>135.68</ele>
        <time>2014-09-22T11:58:51Z</time>
      </trkpt>
      <trkpt lat="43.24451" lon="2.11239">
        <ele>135.68</ele>
        <time>2014-09-22T11:58:52Z</time>
      </trkpt>
      <trkpt lat="43.24467" lon="2.11278">
        <ele>136.16</ele>
        <time>2014-09-22T11:58:58Z</time>
      </trkpt>
      <trkpt lat="43.24469" lon="2.11285">
        <ele>136.16</ele>
        <time>2014-09-22T11:58:59Z</time>
      </trkpt>
      <trkpt lat="43.24476" lon="2.11348">
        <ele>136.16</ele>
        <time>2014-09-22T11:59:07Z</time>
      </trkpt>
      <trkpt lat="43.24475" lon="2.11356">
        <ele>136.16</ele>
        <time>2014-09-22T11:59:08Z</time>
      </trkpt>
      <trkpt lat="43.24473" lon="2.11373">
        <ele>136.16</ele>
        <time>2014-09-22T11:59:10Z</time>
      </trkpt>
      <trkpt lat="43.24471" lon="2.1138">
        <ele>136.16</ele>
        <time>2014-09-22T11:59:11Z</time>
      </trkpt>
      <trkpt lat="43.24467" lon="2.11394">
        <ele>136.16</ele>
        <time>2014-09-22T11:59:13Z</time>
      </trkpt>
      <trkpt lat="43.24464" lon="2.114">
        <ele>136.16</ele>
        <time>2014-09-22T11:59:14Z</time>
      </trkpt>
      <trkpt lat="43.24461" lon="2.11407">
        <ele>136.16</ele>
        <time>2014-09-22T11:59:15Z</time>
      </trkpt>
      <trkpt lat="43.24451" lon="2.11431">
        <ele>136.16</ele>
        <time>2014-09-22T11:59:19Z</time>
      </trkpt>
      <trkpt lat="43.24449" lon="2.11436">
        <ele>136.16</ele>
        <time>2014-09-22T11:59:20Z</time>
      </trkpt>
      <trkpt lat="43.24447" lon="2.11443">
        <ele>136.16</ele>
        <time>2014-09-22T11:59:21Z</time>
      </trkpt>
      <trkpt lat="43.24433" lon="2.11499">
        <ele>136.16</ele>
        <time>2014-09-22T11:59:34Z</time>
      </trkpt>
      <trkpt lat="43.24432" lon="2.1152">
        <ele>135.2</ele>
        <time>2014-09-22T11:59:44Z</time>
      </trkpt>
      <trkpt lat="43.24431" lon="2.11525">
        <ele>134.72</ele>
        <time>2014-09-22T11:59:45Z</time>
      </trkpt>
      <trkpt lat="43.24388" lon="2.11617">
        <ele>132.32</ele>
        <time>2014-09-22T11:59:59Z</time>
      </trkpt>
      <trkpt lat="43.24369" lon="2.11652">
        <ele>131.84</ele>
        <time>2014-09-22T12:00:04Z</time>
      </trkpt>
      <trkpt lat="43.24331" lon="2.11759">
        <ele>133.28</ele>
        <time>2014-09-22T12:00:18Z</time>
      </trkpt>
      <trkpt lat="43.24281" lon="2.11906">
        <ele>132.8</ele>
        <time>2014-09-22T12:00:35Z</time>
      </trkpt>
      <trkpt lat="43.24239" lon="2.12025">
        <ele>133.28</ele>
        <time>2014-09-22T12:00:49Z</time>
      </trkpt>
      <trkpt lat="43.24199" lon="2.12171">
        <ele>134.24</ele>
        <time>2014-09-22T12:01:05Z</time>
      </trkpt>
      <trkpt lat="43.24173" lon="2.12381">
        <ele>133.76</ele>
        <time>2014-09-22T12:01:26Z</time>
      </trkpt>
      <trkpt lat="43.2416" lon="2.12504">
        <ele>133.28</ele>
        <time>2014-09-22T12:01:38Z</time>
      </trkpt>
      <trkpt lat="43.24157" lon="2.12513">
        <ele>133.28</ele>
        <time>2014-09-22T12:01:39Z</time>
      </trkpt>
      <trkpt lat="43.24153" lon="2.12521">
        <ele>133.28</ele>
        <time>2014-09-22T12:01:40Z</time>
      </trkpt>
      <trkpt lat="43.2413" lon="2.12534">
        <ele>133.28</ele>
        <time>2014-09-22T12:01:44Z</time>
      </trkpt>
      <trkpt lat="43.24109" lon="2.1255">
        <ele>133.76</ele>
        <time>2014-09-22T12:01:48Z</time>
      </trkpt>
      <trkpt lat="43.2411" lon="2.12559">
        <ele>133.76</ele>
        <time>2014-09-22T12:01:49Z</time>
      </trkpt>
      <trkpt lat="43.24113" lon="2.12565">
        <ele>133.76</ele>
        <time>2014-09-22T12:01:50Z</time>
      </trkpt>
      <trkpt lat="43.24118" lon="2.12573">
        <ele>134.24</ele>
        <time>2014-09-22T12:01:51Z</time>
      </trkpt>
      <trkpt lat="43.24123" lon="2.12579">
        <ele>134.24</ele>
        <time>2014-09-22T12:01:52Z</time>
      </trkpt>
      <trkpt lat="43.24127" lon="2.12587">
        <ele>134.24</ele>
        <time>2014-09-22T12:01:53Z</time>
      </trkpt>
      <trkpt lat="43.24131" lon="2.12597">
        <ele>134.24</ele>
        <time>2014-09-22T12:01:54Z</time>
      </trkpt>
      <trkpt lat="43.2415" lon="2.12726">
        <ele>134.72</ele>
        <time>2014-09-22T12:02:06Z</time>
      </trkpt>
      <trkpt lat="43.24148" lon="2.12915">
        <ele>133.76</ele>
        <time>2014-09-22T12:02:23Z</time>
      </trkpt>
      <trkpt lat="43.24145" lon="2.13119">
        <ele>133.76</ele>
        <time>2014-09-22T12:02:41Z</time>
      </trkpt>
      <trkpt lat="43.24143" lon="2.13282">
        <ele>133.76</ele>
        <time>2014-09-22T12:02:55Z</time>
      </trkpt>
      <trkpt lat="43.2414" lon="2.13525">
        <ele>133.28</ele>
        <time>2014-09-22T12:03:16Z</time>
      </trkpt>
      <trkpt lat="43.24137" lon="2.13699">
        <ele>132.32</ele>
        <time>2014-09-22T12:03:31Z</time>
      </trkpt>
      <trkpt lat="43.24134" lon="2.13908">
        <ele>131.36</ele>
        <time>2014-09-22T12:03:49Z</time>
      </trkpt>
      <trkpt lat="43.2413" lon="2.14126">
        <ele>130.88</ele>
        <time>2014-09-22T12:04:07Z</time>
      </trkpt>
      <trkpt lat="43.24118" lon="2.14324">
        <ele>130.4</ele>
        <time>2014-09-22T12:04:24Z</time>
      </trkpt>
      <trkpt lat="43.24101" lon="2.1457">
        <ele>129.43</ele>
        <time>2014-09-22T12:04:45Z</time>
      </trkpt>
      <trkpt lat="43.24082" lon="2.14802">
        <ele>127.99</ele>
        <time>2014-09-22T12:05:05Z</time>
      </trkpt>
      <trkpt lat="43.24063" lon="2.15031">
        <ele>126.55</ele>
        <time>2014-09-22T12:05:25Z</time>
      </trkpt>
      <trkpt lat="43.24042" lon="2.15241">
        <ele>126.07</ele>
        <time>2014-09-22T12:05:43Z</time>
      </trkpt>
      <trkpt lat="43.24024" lon="2.15458">
        <ele>125.11</ele>
        <time>2014-09-22T12:06:01Z</time>
      </trkpt>
      <trkpt lat="43.24007" lon="2.15683">
        <ele>124.63</ele>
        <time>2014-09-22T12:06:20Z</time>
      </trkpt>
      <trkpt lat="43.23994" lon="2.15895">
        <ele>123.67</ele>
        <time>2014-09-22T12:06:38Z</time>
      </trkpt>
      <trkpt lat="43.2398" lon="2.16074">
        <ele>124.15</ele>
        <time>2014-09-22T12:06:53Z</time>
      </trkpt>
      <trkpt lat="43.23967" lon="2.16262">
        <ele>124.63</ele>
        <time>2014-09-22T12:07:08Z</time>
      </trkpt>
      <trkpt lat="43.23947" lon="2.16546">
        <ele>124.63</ele>
        <time>2014-09-22T12:07:30Z</time>
      </trkpt>
      <trkpt lat="43.23916" lon="2.16711">
        <ele>125.59</ele>
        <time>2014-09-22T12:07:43Z</time>
      </trkpt>
      <trkpt lat="43.23915" lon="2.16723">
        <ele>125.59</ele>
        <time>2014-09-22T12:07:44Z</time>
      </trkpt>
      <trkpt lat="43.23916" lon="2.16734">
        <ele>126.07</ele>
        <time>2014-09-22T12:07:45Z</time>
      </trkpt>
      <trkpt lat="43.23917" lon="2.16746">
        <ele>126.07</ele>
        <time>2014-09-22T12:07:46Z</time>
      </trkpt>
      <trkpt lat="43.23919" lon="2.16759">
        <ele>126.07</ele>
        <time>2014-09-22T12:07:47Z</time>
      </trkpt>
      <trkpt lat="43.23937" lon="2.16862">
        <ele>127.03</ele>
        <time>2014-09-22T12:07:56Z</time>
      </trkpt>
      <trkpt lat="43.23928" lon="2.1705">
        <ele>124.63</ele>
        <time>2014-09-22T12:08:10Z</time>
      </trkpt>
      <trkpt lat="43.23909" lon="2.17316">
        <ele>121.26</ele>
        <time>2014-09-22T12:08:29Z</time>
      </trkpt>
      <trkpt lat="43.2389" lon="2.17522">
        <ele>120.3</ele>
        <time>2014-09-22T12:08:46Z</time>
      </trkpt>
      <trkpt lat="43.23882" lon="2.17669">
        <ele>121.26</ele>
        <time>2014-09-22T12:08:58Z</time>
      </trkpt>
      <trkpt lat="43.23872" lon="2.17938">
        <ele>120.3</ele>
        <time>2014-09-22T12:09:18Z</time>
      </trkpt>
      <trkpt lat="43.23864" lon="2.18185">
        <ele>119.82</ele>
        <time>2014-09-22T12:09:36Z</time>
      </trkpt>
      <trkpt lat="43.23846" lon="2.18404">
        <ele>120.3</ele>
        <time>2014-09-22T12:09:52Z</time>
      </trkpt>
      <trkpt lat="43.23838" lon="2.18592">
        <ele>121.26</ele>
        <time>2014-09-22T12:10:06Z</time>
      </trkpt>
      <trkpt lat="43.23825" lon="2.1879">
        <ele>123.19</ele>
        <time>2014-09-22T12:10:21Z</time>
      </trkpt>
      <trkpt lat="43.23812" lon="2.19002">
        <ele>123.19</ele>
        <time>2014-09-22T12:10:37Z</time>
      </trkpt>
      <trkpt lat="43.23799" lon="2.19224">
        <ele>123.19</ele>
        <time>2014-09-22T12:10:54Z</time>
      </trkpt>
      <trkpt lat="43.23784" lon="2.195">
        <ele>120.78</ele>
        <time>2014-09-22T12:11:14Z</time>
      </trkpt>
      <trkpt lat="43.23786" lon="2.19735">
        <ele>120.3</ele>
        <time>2014-09-22T12:11:31Z</time>
      </trkpt>
      <trkpt lat="43.23809" lon="2.20019">
        <ele>118.38</ele>
        <time>2014-09-22T12:11:51Z</time>
      </trkpt>
      <trkpt lat="43.23829" lon="2.20229">
        <ele>119.34</ele>
        <time>2014-09-22T12:12:07Z</time>
      </trkpt>
      <trkpt lat="43.23839" lon="2.20406">
        <ele>119.34</ele>
        <time>2014-09-22T12:12:20Z</time>
      </trkpt>
      <trkpt lat="43.2385" lon="2.20608">
        <ele>120.78</ele>
        <time>2014-09-22T12:12:35Z</time>
      </trkpt>
      <trkpt lat="43.23864" lon="2.20826">
        <ele>119.34</ele>
        <time>2014-09-22T12:12:51Z</time>
      </trkpt>
      <trkpt lat="43.23876" lon="2.21041">
        <ele>118.38</ele>
        <time>2014-09-22T12:13:07Z</time>
      </trkpt>
      <trkpt lat="43.23893" lon="2.21236">
        <ele>118.86</ele>
        <time>2014-09-22T12:13:23Z</time>
      </trkpt>
      <trkpt lat="43.23907" lon="2.2141">
        <ele>118.86</ele>
        <time>2014-09-22T12:13:38Z</time>
      </trkpt>
      <trkpt lat="43.23917" lon="2.21608">
        <ele>118.38</ele>
        <time>2014-09-22T12:13:54Z</time>
      </trkpt>
      <trkpt lat="43.23925" lon="2.21828">
        <ele>117.9</ele>
        <time>2014-09-22T12:14:12Z</time>
      </trkpt>
      <trkpt lat="43.23945" lon="2.22012">
        <ele>117.42</ele>
        <time>2014-09-22T12:14:27Z</time>
      </trkpt>
      <trkpt lat="43.23972" lon="2.22238">
        <ele>117.42</ele>
        <time>2014-09-22T12:14:46Z</time>
      </trkpt>
      <trkpt lat="43.23996" lon="2.22453">
        <ele>116.94</ele>
        <time>2014-09-22T12:15:04Z</time>
      </trkpt>
      <trkpt lat="43.24" lon="2.22643">
        <ele>117.42</ele>
        <time>2014-09-22T12:15:20Z</time>
      </trkpt>
      <trkpt lat="43.24" lon="2.22745">
        <ele>118.86</ele>
        <time>2014-09-22T12:15:29Z</time>
      </trkpt>
      <trkpt lat="43.24" lon="2.22756">
        <ele>118.86</ele>
        <time>2014-09-22T12:15:30Z</time>
      </trkpt>
      <trkpt lat="43.24007" lon="2.22879">
        <ele>121.74</ele>
        <time>2014-09-22T12:15:41Z</time>
      </trkpt>
      <trkpt lat="43.2402" lon="2.23034">
        <ele>122.71</ele>
        <time>2014-09-22T12:15:55Z</time>
      </trkpt>
      <trkpt lat="43.24045" lon="2.23194">
        <ele>122.22</ele>
        <time>2014-09-22T12:16:09Z</time>
      </trkpt>
      <trkpt lat="43.24055" lon="2.23368">
        <ele>119.34</ele>
        <time>2014-09-22T12:16:22Z</time>
      </trkpt>
      <trkpt lat="43.24009" lon="2.23503">
        <ele>115.98</ele>
        <time>2014-09-22T12:16:33Z</time>
      </trkpt>
      <trkpt lat="43.2395" lon="2.23652">
        <ele>115.5</ele>
        <time>2014-09-22T12:16:46Z</time>
      </trkpt>
      <trkpt lat="43.2391" lon="2.23842">
        <ele>115.01</ele>
        <time>2014-09-22T12:17:02Z</time>
      </trkpt>
      <trkpt lat="43.23851" lon="2.24047">
        <ele>112.61</ele>
        <time>2014-09-22T12:17:20Z</time>
      </trkpt>
      <trkpt lat="43.23817" lon="2.24222">
        <ele>112.61</ele>
        <time>2014-09-22T12:17:35Z</time>
      </trkpt>
      <trkpt lat="43.23806" lon="2.24364">
        <ele>114.05</ele>
        <time>2014-09-22T12:17:48Z</time>
      </trkpt>
      <trkpt lat="43.23794" lon="2.24532">
        <ele>115.01</ele>
        <time>2014-09-22T12:18:03Z</time>
      </trkpt>
      <trkpt lat="43.23768" lon="2.24738">
        <ele>115.98</ele>
        <time>2014-09-22T12:18:22Z</time>
      </trkpt>
      <trkpt lat="43.23725" lon="2.24932">
        <ele>117.9</ele>
        <time>2014-09-22T12:18:41Z</time>
      </trkpt>
      <trkpt lat="43.23675" lon="2.25106">
        <ele>119.82</ele>
        <time>2014-09-22T12:18:59Z</time>
      </trkpt>
      <trkpt lat="43.23653" lon="2.252">
        <ele>121.74</ele>
        <time>2014-09-22T12:19:09Z</time>
      </trkpt>
      <trkpt lat="43.23637" lon="2.25274">
        <ele>124.63</ele>
        <time>2014-09-22T12:19:18Z</time>
      </trkpt>
      <trkpt lat="43.23613" lon="2.25428">
        <ele>124.15</ele>
        <time>2014-09-22T12:19:34Z</time>
      </trkpt>
      <trkpt lat="43.2358" lon="2.25651">
        <ele>125.59</ele>
        <time>2014-09-22T12:19:56Z</time>
      </trkpt>
      <trkpt lat="43.23558" lon="2.25806">
        <ele>128.95</ele>
        <time>2014-09-22T12:20:13Z</time>
      </trkpt>
      <trkpt lat="43.23545" lon="2.25894">
        <ele>130.88</ele>
        <time>2014-09-22T12:20:23Z</time>
      </trkpt>
      <trkpt lat="43.23529" lon="2.26002">
        <ele>134.72</ele>
        <time>2014-09-22T12:20:36Z</time>
      </trkpt>
      <trkpt lat="43.23526" lon="2.26026">
        <ele>135.68</ele>
        <time>2014-09-22T12:20:39Z</time>
      </trkpt>
      <trkpt lat="43.23508" lon="2.26116">
        <ele>138.57</ele>
        <time>2014-09-22T12:20:51Z</time>
      </trkpt>
      <trkpt lat="43.23504" lon="2.26131">
        <ele>139.53</ele>
        <time>2014-09-22T12:20:53Z</time>
      </trkpt>
      <trkpt lat="43.23503" lon="2.26138">
        <ele>139.53</ele>
        <time>2014-09-22T12:20:54Z</time>
      </trkpt>
      <trkpt lat="43.23501" lon="2.26145">
        <ele>140.01</ele>
        <time>2014-09-22T12:20:55Z</time>
      </trkpt>
      <trkpt lat="43.23497" lon="2.26159">
        <ele>140.49</ele>
        <time>2014-09-22T12:20:57Z</time>
      </trkpt>
      <trkpt lat="43.23492" lon="2.26173">
        <ele>140.97</ele>
        <time>2014-09-22T12:20:59Z</time>
      </trkpt>
      <trkpt lat="43.23488" lon="2.26187">
        <ele>141.93</ele>
        <time>2014-09-22T12:21:01Z</time>
      </trkpt>
      <trkpt lat="43.23483" lon="2.26201">
        <ele>142.41</ele>
        <time>2014-09-22T12:21:03Z</time>
      </trkpt>
      <trkpt lat="43.23478" lon="2.26215">
        <ele>142.89</ele>
        <time>2014-09-22T12:21:05Z</time>
      </trkpt>
      <trkpt lat="43.23473" lon="2.26228">
        <ele>143.85</ele>
        <time>2014-09-22T12:21:07Z</time>
      </trkpt>
      <trkpt lat="43.23468" lon="2.26242">
        <ele>144.34</ele>
        <time>2014-09-22T12:21:09Z</time>
      </trkpt>
      <trkpt lat="43.23422" lon="2.2638">
        <ele>146.74</ele>
        <time>2014-09-22T12:21:26Z</time>
      </trkpt>
      <trkpt lat="43.23372" lon="2.26551">
        <ele>145.3</ele>
        <time>2014-09-22T12:21:44Z</time>
      </trkpt>
      <trkpt lat="43.23315" lon="2.26742">
        <ele>144.34</ele>
        <time>2014-09-22T12:22:03Z</time>
      </trkpt>
      <trkpt lat="43.23255" lon="2.26947">
        <ele>142.89</ele>
        <time>2014-09-22T12:22:23Z</time>
      </trkpt>
      <trkpt lat="43.23203" lon="2.27127">
        <ele>142.41</ele>
        <time>2014-09-22T12:22:40Z</time>
      </trkpt>
      <trkpt lat="43.23156" lon="2.273">
        <ele>141.45</ele>
        <time>2014-09-22T12:22:56Z</time>
      </trkpt>
      <trkpt lat="43.23099" lon="2.27504">
        <ele>140.97</ele>
        <time>2014-09-22T12:23:15Z</time>
      </trkpt>
      <trkpt lat="43.2303" lon="2.27713">
        <ele>139.53</ele>
        <time>2014-09-22T12:23:35Z</time>
      </trkpt>
      <trkpt lat="43.22962" lon="2.27914">
        <ele>138.09</ele>
        <time>2014-09-22T12:23:54Z</time>
      </trkpt>
      <trkpt lat="43.22891" lon="2.28161">
        <ele>136.64</ele>
        <time>2014-09-22T12:24:17Z</time>
      </trkpt>
      <trkpt lat="43.22831" lon="2.28358">
        <ele>135.2</ele>
        <time>2014-09-22T12:24:35Z</time>
      </trkpt>
      <trkpt lat="43.22757" lon="2.2857">
        <ele>133.76</ele>
        <time>2014-09-22T12:24:55Z</time>
      </trkpt>
      <trkpt lat="43.22707" lon="2.28716">
        <ele>131.84</ele>
        <time>2014-09-22T12:25:09Z</time>
      </trkpt>
      <trkpt lat="43.22651" lon="2.28901">
        <ele>130.88</ele>
        <time>2014-09-22T12:25:26Z</time>
      </trkpt>
      <trkpt lat="43.22589" lon="2.29095">
        <ele>131.36</ele>
        <time>2014-09-22T12:25:43Z</time>
      </trkpt>
      <trkpt lat="43.22507" lon="2.29293">
        <ele>130.88</ele>
        <time>2014-09-22T12:26:01Z</time>
      </trkpt>
      <trkpt lat="43.22407" lon="2.29444">
        <ele>127.51</ele>
        <time>2014-09-22T12:26:16Z</time>
      </trkpt>
      <trkpt lat="43.22278" lon="2.29638">
        <ele>121.26</ele>
        <time>2014-09-22T12:26:33Z</time>
      </trkpt>
      <trkpt lat="43.22149" lon="2.29888">
        <ele>113.57</ele>
        <time>2014-09-22T12:26:51Z</time>
      </trkpt>
      <trkpt lat="43.22073" lon="2.30034">
        <ele>115.01</ele>
        <time>2014-09-22T12:27:04Z</time>
      </trkpt>
      <trkpt lat="43.22015" lon="2.30148">
        <ele>120.3</ele>
        <time>2014-09-22T12:27:18Z</time>
      </trkpt>
      <trkpt lat="43.21963" lon="2.30296">
        <ele>125.59</ele>
        <time>2014-09-22T12:27:35Z</time>
      </trkpt>
      <trkpt lat="43.21908" lon="2.30472">
        <ele>124.63</ele>
        <time>2014-09-22T12:27:53Z</time>
      </trkpt>
      <trkpt lat="43.21847" lon="2.30668">
        <ele>122.71</ele>
        <time>2014-09-22T12:28:10Z</time>
      </trkpt>
      <trkpt lat="43.21805" lon="2.30798">
        <ele>125.11</ele>
        <time>2014-09-22T12:28:23Z</time>
      </trkpt>
      <trkpt lat="43.2176" lon="2.3097">
        <ele>126.07</ele>
        <time>2014-09-22T12:28:40Z</time>
      </trkpt>
      <trkpt lat="43.21727" lon="2.31179">
        <ele>126.55</ele>
        <time>2014-09-22T12:28:59Z</time>
      </trkpt>
      <trkpt lat="43.217" lon="2.31399">
        <ele>126.07</ele>
        <time>2014-09-22T12:29:19Z</time>
      </trkpt>
      <trkpt lat="43.21676" lon="2.31576">
        <ele>124.63</ele>
        <time>2014-09-22T12:29:35Z</time>
      </trkpt>
      <trkpt lat="43.21666" lon="2.31675">
        <ele>123.19</ele>
        <time>2014-09-22T12:29:44Z</time>
      </trkpt>
      <trkpt lat="43.2162" lon="2.31877">
        <ele>120.3</ele>
        <time>2014-09-22T12:30:01Z</time>
      </trkpt>
      <trkpt lat="43.21546" lon="2.32055">
        <ele>117.9</ele>
        <time>2014-09-22T12:30:19Z</time>
      </trkpt>
      <trkpt lat="43.21476" lon="2.322">
        <ele>115.5</ele>
        <time>2014-09-22T12:30:35Z</time>
      </trkpt>
      <trkpt lat="43.21413" lon="2.32298">
        <ele>114.05</ele>
        <time>2014-09-22T12:30:50Z</time>
      </trkpt>
      <trkpt lat="43.21403" lon="2.32309">
        <ele>114.05</ele>
        <time>2014-09-22T12:30:52Z</time>
      </trkpt>
      <trkpt lat="43.21397" lon="2.32314">
        <ele>114.05</ele>
        <time>2014-09-22T12:30:53Z</time>
      </trkpt>
      <trkpt lat="43.2139" lon="2.32318">
        <ele>114.53</ele>
        <time>2014-09-22T12:30:54Z</time>
      </trkpt>
      <trkpt lat="43.21385" lon="2.32319">
        <ele>114.53</ele>
        <time>2014-09-22T12:30:55Z</time>
      </trkpt>
      <trkpt lat="43.21378" lon="2.32321">
        <ele>114.53</ele>
        <time>2014-09-22T12:30:56Z</time>
      </trkpt>
      <trkpt lat="43.21372" lon="2.32325">
        <ele>114.05</ele>
        <time>2014-09-22T12:30:57Z</time>
      </trkpt>
      <trkpt lat="43.21367" lon="2.3233">
        <ele>114.05</ele>
        <time>2014-09-22T12:30:58Z</time>
      </trkpt>
      <trkpt lat="43.21363" lon="2.32339">
        <ele>114.05</ele>
        <time>2014-09-22T12:30:59Z</time>
      </trkpt>
      <trkpt lat="43.21362" lon="2.32347">
        <ele>114.05</ele>
        <time>2014-09-22T12:31:00Z</time>
      </trkpt>
      <trkpt lat="43.21362" lon="2.32357">
        <ele>114.05</ele>
        <time>2014-09-22T12:31:01Z</time>
      </trkpt>
      <trkpt lat="43.21364" lon="2.32369">
        <ele>114.05</ele>
        <time>2014-09-22T12:31:02Z</time>
      </trkpt>
      <trkpt lat="43.21365" lon="2.32378">
        <ele>113.57</ele>
        <time>2014-09-22T12:31:03Z</time>
      </trkpt>
      <trkpt lat="43.21365" lon="2.32387">
        <ele>113.57</ele>
        <time>2014-09-22T12:31:04Z</time>
      </trkpt>
      <trkpt lat="43.21362" lon="2.32401">
        <ele>113.57</ele>
        <time>2014-09-22T12:31:05Z</time>
      </trkpt>
      <trkpt lat="43.2136" lon="2.32409">
        <ele>113.57</ele>
        <time>2014-09-22T12:31:06Z</time>
      </trkpt>
      <trkpt lat="43.21355" lon="2.3242">
        <ele>113.09</ele>
        <time>2014-09-22T12:31:07Z</time>
      </trkpt>
      <trkpt lat="43.21353" lon="2.32426">
        <ele>113.09</ele>
        <time>2014-09-22T12:31:08Z</time>
      </trkpt>
      <trkpt lat="43.21299" lon="2.3258">
        <ele>112.13</ele>
        <time>2014-09-22T12:31:24Z</time>
      </trkpt>
      <trkpt lat="43.2129" lon="2.3261">
        <ele>111.65</ele>
        <time>2014-09-22T12:31:27Z</time>
      </trkpt>
      <trkpt lat="43.21288" lon="2.32621">
        <ele>111.65</ele>
        <time>2014-09-22T12:31:28Z</time>
      </trkpt>
      <trkpt lat="43.21278" lon="2.32665">
        <ele>112.13</ele>
        <time>2014-09-22T12:31:33Z</time>
      </trkpt>
      <trkpt lat="43.2128" lon="2.32674">
        <ele>112.13</ele>
        <time>2014-09-22T12:31:34Z</time>
      </trkpt>
      <trkpt lat="43.21285" lon="2.32681">
        <ele>112.13</ele>
        <time>2014-09-22T12:31:35Z</time>
      </trkpt>
      <trkpt lat="43.21289" lon="2.32684">
        <ele>112.13</ele>
        <time>2014-09-22T12:31:36Z</time>
      </trkpt>
      <trkpt lat="43.21296" lon="2.32684">
        <ele>112.13</ele>
        <time>2014-09-22T12:31:37Z</time>
      </trkpt>
      <trkpt lat="43.21302" lon="2.32684">
        <ele>112.61</ele>
        <time>2014-09-22T12:31:38Z</time>
      </trkpt>
      <trkpt lat="43.21309" lon="2.32683">
        <ele>112.61</ele>
        <time>2014-09-22T12:31:39Z</time>
      </trkpt>
      <trkpt lat="43.21316" lon="2.32683">
        <ele>113.09</ele>
        <time>2014-09-22T12:31:40Z</time>
      </trkpt>
      <trkpt lat="43.21323" lon="2.32684">
        <ele>113.09</ele>
        <time>2014-09-22T12:31:41Z</time>
      </trkpt>
      <trkpt lat="43.21331" lon="2.32686">
        <ele>113.09</ele>
        <time>2014-09-22T12:31:42Z</time>
      </trkpt>
      <trkpt lat="43.21424" lon="2.32705">
        <ele>113.57</ele>
        <time>2014-09-22T12:31:57Z</time>
      </trkpt>
      <trkpt lat="43.2143" lon="2.32706">
        <ele>113.57</ele>
        <time>2014-09-22T12:31:58Z</time>
      </trkpt>
      <trkpt lat="43.21465" lon="2.32713">
        <ele>114.53</ele>
        <time>2014-09-22T12:32:04Z</time>
      </trkpt>
      <trkpt lat="43.21471" lon="2.32716">
        <ele>115.01</ele>
        <time>2014-09-22T12:32:05Z</time>
      </trkpt>
      <trkpt lat="43.21476" lon="2.32722">
        <ele>114.53</ele>
        <time>2014-09-22T12:32:06Z</time>
      </trkpt>
      <trkpt lat="43.21479" lon="2.3273">
        <ele>114.53</ele>
        <time>2014-09-22T12:32:07Z</time>
      </trkpt>
      <trkpt lat="43.2148" lon="2.32738">
        <ele>114.53</ele>
        <time>2014-09-22T12:32:08Z</time>
      </trkpt>
      <trkpt lat="43.21479" lon="2.32748">
        <ele>114.05</ele>
        <time>2014-09-22T12:32:09Z</time>
      </trkpt>
      <trkpt lat="43.21479" lon="2.32756">
        <ele>114.05</ele>
        <time>2014-09-22T12:32:10Z</time>
      </trkpt>
      <trkpt lat="43.21473" lon="2.32852">
        <ele>113.57</ele>
        <time>2014-09-22T12:32:20Z</time>
      </trkpt>
      <trkpt lat="43.21471" lon="2.32898">
        <ele>113.57</ele>
        <time>2014-09-22T12:32:25Z</time>
      </trkpt>
      <trkpt lat="43.21473" lon="2.32908">
        <ele>113.57</ele>
        <time>2014-09-22T12:32:26Z</time>
      </trkpt>
      <trkpt lat="43.21475" lon="2.32916">
        <ele>113.57</ele>
        <time>2014-09-22T12:32:27Z</time>
      </trkpt>
      <trkpt lat="43.21478" lon="2.32924">
        <ele>113.09</ele>
        <time>2014-09-22T12:32:28Z</time>
      </trkpt>
      <trkpt lat="43.2148" lon="2.32933">
        <ele>113.09</ele>
        <time>2014-09-22T12:32:29Z</time>
      </trkpt>
      <trkpt lat="43.21488" lon="2.32961">
        <ele>112.61</ele>
        <time>2014-09-22T12:32:32Z</time>
      </trkpt>
      <trkpt lat="43.21489" lon="2.32971">
        <ele>112.61</ele>
        <time>2014-09-22T12:32:33Z</time>
      </trkpt>
      <trkpt lat="43.21491" lon="2.33049">
        <ele>111.65</ele>
        <time>2014-09-22T12:32:41Z</time>
      </trkpt>
      <trkpt lat="43.21487" lon="2.33057">
        <ele>111.17</ele>
        <time>2014-09-22T12:32:42Z</time>
      </trkpt>
      <trkpt lat="43.21483" lon="2.33063">
        <ele>111.17</ele>
        <time>2014-09-22T12:32:43Z</time>
      </trkpt>
      <trkpt lat="43.21477" lon="2.33068">
        <ele>111.17</ele>
        <time>2014-09-22T12:32:44Z</time>
      </trkpt>
      <trkpt lat="43.21471" lon="2.33072">
        <ele>111.17</ele>
        <time>2014-09-22T12:32:45Z</time>
      </trkpt>
      <trkpt lat="43.21419" lon="2.33098">
        <ele>110.21</ele>
        <time>2014-09-22T12:32:54Z</time>
      </trkpt>
      <trkpt lat="43.21415" lon="2.33103">
        <ele>110.21</ele>
        <time>2014-09-22T12:32:55Z</time>
      </trkpt>
      <trkpt lat="43.21413" lon="2.33109">
        <ele>110.21</ele>
        <time>2014-09-22T12:32:56Z</time>
      </trkpt>
      <trkpt lat="43.21414" lon="2.33114">
        <ele>109.73</ele>
        <time>2014-09-22T12:32:57Z</time>
      </trkpt>
      <trkpt lat="43.21415" lon="2.33121">
        <ele>109.73</ele>
        <time>2014-09-22T12:32:58Z</time>
      </trkpt>
      <trkpt lat="43.21418" lon="2.33128">
        <ele>109.73</ele>
        <time>2014-09-22T12:32:59Z</time>
      </trkpt>
      <trkpt lat="43.21466" lon="2.33242">
        <ele>108.77</ele>
        <time>2014-09-22T12:33:13Z</time>
      </trkpt>
      <trkpt lat="43.21473" lon="2.33256">
        <ele>109.25</ele>
        <time>2014-09-22T12:33:15Z</time>
      </trkpt>
      <trkpt lat="43.21557" lon="2.3334">
        <ele>109.25</ele>
        <time>2014-09-22T12:33:30Z</time>
      </trkpt>
      <trkpt lat="43.21634" lon="2.33415">
        <ele>109.25</ele>
        <time>2014-09-22T12:33:44Z</time>
      </trkpt>
      <trkpt lat="43.21667" lon="2.33449">
        <ele>109.73</ele>
        <time>2014-09-22T12:33:51Z</time>
      </trkpt>
      <trkpt lat="43.21668" lon="2.33455">
        <ele>109.73</ele>
        <time>2014-09-22T12:33:52Z</time>
      </trkpt>
      <trkpt lat="43.21667" lon="2.33462">
        <ele>110.21</ele>
        <time>2014-09-22T12:33:53Z</time>
      </trkpt>
      <trkpt lat="43.21665" lon="2.33467">
        <ele>110.21</ele>
        <time>2014-09-22T12:33:54Z</time>
      </trkpt>
      <trkpt lat="43.21663" lon="2.33473">
        <ele>110.21</ele>
        <time>2014-09-22T12:33:55Z</time>
      </trkpt>
      <trkpt lat="43.2166" lon="2.3348">
        <ele>110.69</ele>
        <time>2014-09-22T12:33:56Z</time>
      </trkpt>
      <trkpt lat="43.21634" lon="2.33554">
        <ele>111.17</ele>
        <time>2014-09-22T12:34:06Z</time>
      </trkpt>
      <trkpt lat="43.21632" lon="2.33563">
        <ele>111.17</ele>
        <time>2014-09-22T12:34:07Z</time>
      </trkpt>
      <trkpt lat="43.21617" lon="2.33603">
        <ele>112.13</ele>
        <time>2014-09-22T12:34:12Z</time>
      </trkpt>
      <trkpt lat="43.2158" lon="2.33721">
        <ele>115.01</ele>
        <time>2014-09-22T12:34:26Z</time>
      </trkpt>
      <trkpt lat="43.21572" lon="2.3374">
        <ele>115.01</ele>
        <time>2014-09-22T12:34:28Z</time>
      </trkpt>
      <trkpt lat="43.21566" lon="2.33757">
        <ele>115.01</ele>
        <time>2014-09-22T12:34:30Z</time>
      </trkpt>
      <trkpt lat="43.21563" lon="2.33764">
        <ele>115.01</ele>
        <time>2014-09-22T12:34:31Z</time>
      </trkpt>
      <trkpt lat="43.2156" lon="2.33772">
        <ele>115.01</ele>
        <time>2014-09-22T12:34:32Z</time>
      </trkpt>
      <trkpt lat="43.21522" lon="2.3388">
        <ele>115.01</ele>
        <time>2014-09-22T12:34:46Z</time>
      </trkpt>
      <trkpt lat="43.21478" lon="2.34006">
        <ele>115.5</ele>
        <time>2014-09-22T12:35:02Z</time>
      </trkpt>
      <trkpt lat="43.21461" lon="2.34058">
        <ele>116.46</ele>
        <time>2014-09-22T12:35:09Z</time>
      </trkpt>
      <trkpt lat="43.21456" lon="2.34061">
        <ele>116.94</ele>
        <time>2014-09-22T12:35:10Z</time>
      </trkpt>
      <trkpt lat="43.21451" lon="2.3406">
        <ele>116.94</ele>
        <time>2014-09-22T12:35:11Z</time>
      </trkpt>
      <trkpt lat="43.21446" lon="2.34057">
        <ele>117.42</ele>
        <time>2014-09-22T12:35:12Z</time>
      </trkpt>
      <trkpt lat="43.21441" lon="2.34054">
        <ele>117.42</ele>
        <time>2014-09-22T12:35:13Z</time>
      </trkpt>
      <trkpt lat="43.21436" lon="2.34052">
        <ele>117.9</ele>
        <time>2014-09-22T12:35:14Z</time>
      </trkpt>
      <trkpt lat="43.2143" lon="2.3405">
        <ele>117.9</ele>
        <time>2014-09-22T12:35:15Z</time>
      </trkpt>
      <trkpt lat="43.21413" lon="2.34047">
        <ele>118.86</ele>
        <time>2014-09-22T12:35:18Z</time>
      </trkpt>
      <trkpt lat="43.21408" lon="2.34051">
        <ele>118.86</ele>
        <time>2014-09-22T12:35:19Z</time>
      </trkpt>
      <trkpt lat="43.21405" lon="2.34057">
        <ele>118.86</ele>
        <time>2014-09-22T12:35:20Z</time>
      </trkpt>
      <trkpt lat="43.21398" lon="2.34075">
        <ele>118.86</ele>
        <time>2014-09-22T12:35:23Z</time>
      </trkpt>
      <trkpt lat="43.21394" lon="2.34079">
        <ele>118.86</ele>
        <time>2014-09-22T12:35:24Z</time>
      </trkpt>
      <trkpt lat="43.2139" lon="2.34081">
        <ele>118.86</ele>
        <time>2014-09-22T12:35:25Z</time>
      </trkpt>
      <trkpt lat="43.21382" lon="2.34084">
        <ele>118.86</ele>
        <time>2014-09-22T12:35:27Z</time>
      </trkpt>
      <trkpt lat="43.21379" lon="2.34087">
        <ele>118.38</ele>
        <time>2014-09-22T12:35:28Z</time>
      </trkpt>
      <trkpt lat="43.21376" lon="2.34092">
        <ele>118.38</ele>
        <time>2014-09-22T12:35:29Z</time>
      </trkpt>
      <trkpt lat="43.21375" lon="2.34097">
        <ele>118.38</ele>
        <time>2014-09-22T12:35:30Z</time>
      </trkpt>
      <trkpt lat="43.21374" lon="2.34102">
        <ele>118.38</ele>
        <time>2014-09-22T12:35:31Z</time>
      </trkpt>
      <trkpt lat="43.21373" lon="2.34107">
        <ele>117.9</ele>
        <time>2014-09-22T12:35:32Z</time>
      </trkpt>
      <trkpt lat="43.21373" lon="2.34112">
        <ele>117.9</ele>
        <time>2014-09-22T12:35:33Z</time>
      </trkpt>
      <trkpt lat="43.21368" lon="2.34124">
        <ele>117.42</ele>
        <time>2014-09-22T12:35:36Z</time>
      </trkpt>
      <trkpt lat="43.21365" lon="2.34124">
        <ele>117.9</ele>
        <time>2014-09-22T12:35:37Z</time>
      </trkpt>
      <trkpt lat="43.21363" lon="2.34124">
        <ele>117.9</ele>
        <time>2014-09-22T12:35:38Z</time>
      </trkpt>
      <trkpt lat="43.21357" lon="2.34122">
        <ele>121.26</ele>
        <time>2014-09-22T12:35:47Z</time>
      </trkpt>
      <trkpt lat="43.2136" lon="2.34122">
        <ele>124.15</ele>
        <time>2014-09-22T12:36:18Z</time>
      </trkpt>
    </trkseg>
  </trk>
</gpx>